<?xml version="1.0" encoding="UTF-8" standalone="no" ?>
<gpx xmlns="http://www.topografix.com/GPX/1/1" xmlns:xsi="http://www.w3.org/2001/XMLSchema-instance" xsi:schemaLocation="http://www.topografix.com/GPX/1/1 http://www.topografix.com/GPX/1/1/gpx.xsd" version="1.1" creator="VisuGPX - https://www.visugpx.com">
  <metadata>
    <name>Champagnat Cyclisme sur route</name>
  </metadata>
  <trk>
    <name><![CDATA[Champagnat Cyclisme sur route_1]]></name>
    <trkseg>
      <trkpt lat="46.48272" lon="5.3684">
        <ele>268</ele>
        <time>2021-11-11T11:23:09Z</time>
      </trkpt>
      <trkpt lat="46.48263" lon="5.36828">
        <ele>267.6</ele>
        <time>2021-11-11T11:23:10Z</time>
      </trkpt>
      <trkpt lat="46.48253" lon="5.36816">
        <ele>266.4</ele>
        <time>2021-11-11T11:23:11Z</time>
      </trkpt>
      <trkpt lat="46.48243" lon="5.36807">
        <ele>265.2</ele>
        <time>2021-11-11T11:23:12Z</time>
      </trkpt>
      <trkpt lat="46.48225" lon="5.36793">
        <ele>263.8</ele>
        <time>2021-11-11T11:23:14Z</time>
      </trkpt>
      <trkpt lat="46.48204" lon="5.36775">
        <ele>262.4</ele>
        <time>2021-11-11T11:23:16Z</time>
      </trkpt>
      <trkpt lat="46.48187" lon="5.36762">
        <ele>261</ele>
        <time>2021-11-11T11:23:18Z</time>
      </trkpt>
      <trkpt lat="46.48166" lon="5.36744">
        <ele>259.4</ele>
        <time>2021-11-11T11:23:20Z</time>
      </trkpt>
      <trkpt lat="46.48139" lon="5.36724">
        <ele>257.6</ele>
        <time>2021-11-11T11:23:23Z</time>
      </trkpt>
      <trkpt lat="46.4813" lon="5.36717">
        <ele>257</ele>
        <time>2021-11-11T11:23:24Z</time>
      </trkpt>
      <trkpt lat="46.48122" lon="5.36711">
        <ele>255.8</ele>
        <time>2021-11-11T11:23:25Z</time>
      </trkpt>
      <trkpt lat="46.48115" lon="5.36706">
        <ele>255.4</ele>
        <time>2021-11-11T11:23:26Z</time>
      </trkpt>
      <trkpt lat="46.4811" lon="5.367">
        <ele>254.4</ele>
        <time>2021-11-11T11:23:27Z</time>
      </trkpt>
      <trkpt lat="46.48108" lon="5.36693">
        <ele>253.8</ele>
        <time>2021-11-11T11:23:28Z</time>
      </trkpt>
      <trkpt lat="46.48108" lon="5.36685">
        <ele>253.4</ele>
        <time>2021-11-11T11:23:29Z</time>
      </trkpt>
      <trkpt lat="46.4811" lon="5.36675">
        <ele>252.2</ele>
        <time>2021-11-11T11:23:30Z</time>
      </trkpt>
      <trkpt lat="46.48118" lon="5.36664">
        <ele>251.6</ele>
        <time>2021-11-11T11:23:32Z</time>
      </trkpt>
      <trkpt lat="46.48125" lon="5.36657">
        <ele>251.4</ele>
        <time>2021-11-11T11:23:33Z</time>
      </trkpt>
      <trkpt lat="46.48132" lon="5.3665">
        <ele>250.4</ele>
        <time>2021-11-11T11:23:34Z</time>
      </trkpt>
      <trkpt lat="46.48143" lon="5.36638">
        <ele>249.2</ele>
        <time>2021-11-11T11:23:36Z</time>
      </trkpt>
      <trkpt lat="46.48149" lon="5.36632">
        <ele>248.6</ele>
        <time>2021-11-11T11:23:37Z</time>
      </trkpt>
      <trkpt lat="46.48163" lon="5.36617">
        <ele>248.2</ele>
        <time>2021-11-11T11:23:39Z</time>
      </trkpt>
      <trkpt lat="46.48177" lon="5.36614">
        <ele>248</ele>
        <time>2021-11-11T11:23:40Z</time>
      </trkpt>
      <trkpt lat="46.48191" lon="5.36607">
        <ele>248</ele>
        <time>2021-11-11T11:23:42Z</time>
      </trkpt>
      <trkpt lat="46.48206" lon="5.36602">
        <ele>247.8</ele>
        <time>2021-11-11T11:23:44Z</time>
      </trkpt>
      <trkpt lat="46.48218" lon="5.36591">
        <ele>247.6</ele>
        <time>2021-11-11T11:23:46Z</time>
      </trkpt>
      <trkpt lat="46.48227" lon="5.36563">
        <ele>247.4</ele>
        <time>2021-11-11T11:23:49Z</time>
      </trkpt>
      <trkpt lat="46.48244" lon="5.36541">
        <ele>247</ele>
        <time>2021-11-11T11:23:52Z</time>
      </trkpt>
      <trkpt lat="46.48286" lon="5.36495">
        <ele>245.8</ele>
        <time>2021-11-11T11:23:59Z</time>
      </trkpt>
      <trkpt lat="46.48298" lon="5.36482">
        <ele>245.4</ele>
        <time>2021-11-11T11:24:01Z</time>
      </trkpt>
      <trkpt lat="46.48317" lon="5.36461">
        <ele>244.6</ele>
        <time>2021-11-11T11:24:04Z</time>
      </trkpt>
      <trkpt lat="46.48336" lon="5.36441">
        <ele>243.8</ele>
        <time>2021-11-11T11:24:07Z</time>
      </trkpt>
      <trkpt lat="46.48342" lon="5.36434">
        <ele>243.6</ele>
        <time>2021-11-11T11:24:08Z</time>
      </trkpt>
      <trkpt lat="46.48353" lon="5.36422">
        <ele>243</ele>
        <time>2021-11-11T11:24:10Z</time>
      </trkpt>
      <trkpt lat="46.48383" lon="5.36387">
        <ele>242.2</ele>
        <time>2021-11-11T11:24:15Z</time>
      </trkpt>
      <trkpt lat="46.48409" lon="5.36364">
        <ele>241.2</ele>
        <time>2021-11-11T11:24:19Z</time>
      </trkpt>
      <trkpt lat="46.48416" lon="5.3636">
        <ele>241</ele>
        <time>2021-11-11T11:24:20Z</time>
      </trkpt>
      <trkpt lat="46.48445" lon="5.3635">
        <ele>240.2</ele>
        <time>2021-11-11T11:24:24Z</time>
      </trkpt>
      <trkpt lat="46.48467" lon="5.36346">
        <ele>240</ele>
        <time>2021-11-11T11:24:27Z</time>
      </trkpt>
      <trkpt lat="46.48474" lon="5.36345">
        <ele>240</ele>
        <time>2021-11-11T11:24:28Z</time>
      </trkpt>
      <trkpt lat="46.4851" lon="5.36339">
        <ele>239.6</ele>
        <time>2021-11-11T11:24:33Z</time>
      </trkpt>
      <trkpt lat="46.48565" lon="5.3633">
        <ele>239.4</ele>
        <time>2021-11-11T11:24:41Z</time>
      </trkpt>
      <trkpt lat="46.4858" lon="5.36328">
        <ele>239.2</ele>
        <time>2021-11-11T11:24:43Z</time>
      </trkpt>
      <trkpt lat="46.48595" lon="5.36326">
        <ele>239</ele>
        <time>2021-11-11T11:24:45Z</time>
      </trkpt>
      <trkpt lat="46.48611" lon="5.36322">
        <ele>238.4</ele>
        <time>2021-11-11T11:24:47Z</time>
      </trkpt>
      <trkpt lat="46.4862" lon="5.36316">
        <ele>238.2</ele>
        <time>2021-11-11T11:24:48Z</time>
      </trkpt>
      <trkpt lat="46.48625" lon="5.3631">
        <ele>238</ele>
        <time>2021-11-11T11:24:49Z</time>
      </trkpt>
      <trkpt lat="46.48629" lon="5.363">
        <ele>237.6</ele>
        <time>2021-11-11T11:24:50Z</time>
      </trkpt>
      <trkpt lat="46.48633" lon="5.36288">
        <ele>237.4</ele>
        <time>2021-11-11T11:24:51Z</time>
      </trkpt>
      <trkpt lat="46.48637" lon="5.36261">
        <ele>236.4</ele>
        <time>2021-11-11T11:24:53Z</time>
      </trkpt>
      <trkpt lat="46.4864" lon="5.36226">
        <ele>235</ele>
        <time>2021-11-11T11:24:56Z</time>
      </trkpt>
      <trkpt lat="46.48644" lon="5.36177">
        <ele>233.8</ele>
        <time>2021-11-11T11:25:00Z</time>
      </trkpt>
      <trkpt lat="46.48651" lon="5.36119">
        <ele>232.8</ele>
        <time>2021-11-11T11:25:05Z</time>
      </trkpt>
      <trkpt lat="46.48668" lon="5.36045">
        <ele>232</ele>
        <time>2021-11-11T11:25:12Z</time>
      </trkpt>
      <trkpt lat="46.48674" lon="5.36011">
        <ele>232.2</ele>
        <time>2021-11-11T11:25:16Z</time>
      </trkpt>
      <trkpt lat="46.48676" lon="5.36003">
        <ele>232.6</ele>
        <time>2021-11-11T11:25:17Z</time>
      </trkpt>
      <trkpt lat="46.48684" lon="5.3594">
        <ele>233.8</ele>
        <time>2021-11-11T11:25:24Z</time>
      </trkpt>
      <trkpt lat="46.48687" lon="5.35923">
        <ele>233.8</ele>
        <time>2021-11-11T11:25:26Z</time>
      </trkpt>
      <trkpt lat="46.48699" lon="5.35884">
        <ele>234</ele>
        <time>2021-11-11T11:25:30Z</time>
      </trkpt>
      <trkpt lat="46.48718" lon="5.35836">
        <ele>232.8</ele>
        <time>2021-11-11T11:25:35Z</time>
      </trkpt>
      <trkpt lat="46.48722" lon="5.35827">
        <ele>232.4</ele>
        <time>2021-11-11T11:25:36Z</time>
      </trkpt>
      <trkpt lat="46.48749" lon="5.35767">
        <ele>231.4</ele>
        <time>2021-11-11T11:25:43Z</time>
      </trkpt>
      <trkpt lat="46.48753" lon="5.35756">
        <ele>231.2</ele>
        <time>2021-11-11T11:25:44Z</time>
      </trkpt>
      <trkpt lat="46.48784" lon="5.35687">
        <ele>230.2</ele>
        <time>2021-11-11T11:25:52Z</time>
      </trkpt>
      <trkpt lat="46.48788" lon="5.35677">
        <ele>230.2</ele>
        <time>2021-11-11T11:25:53Z</time>
      </trkpt>
      <trkpt lat="46.48814" lon="5.35621">
        <ele>230.6</ele>
        <time>2021-11-11T11:26:00Z</time>
      </trkpt>
      <trkpt lat="46.48838" lon="5.35566">
        <ele>230.6</ele>
        <time>2021-11-11T11:26:07Z</time>
      </trkpt>
      <trkpt lat="46.48856" lon="5.35521">
        <ele>230.8</ele>
        <time>2021-11-11T11:26:13Z</time>
      </trkpt>
      <trkpt lat="46.48863" lon="5.35505">
        <ele>231</ele>
        <time>2021-11-11T11:26:15Z</time>
      </trkpt>
      <trkpt lat="46.48877" lon="5.35475">
        <ele>230.8</ele>
        <time>2021-11-11T11:26:19Z</time>
      </trkpt>
      <trkpt lat="46.48885" lon="5.35457">
        <ele>230.6</ele>
        <time>2021-11-11T11:26:21Z</time>
      </trkpt>
      <trkpt lat="46.48916" lon="5.35385">
        <ele>230.2</ele>
        <time>2021-11-11T11:26:30Z</time>
      </trkpt>
      <trkpt lat="46.48943" lon="5.35325">
        <ele>229.4</ele>
        <time>2021-11-11T11:26:37Z</time>
      </trkpt>
      <trkpt lat="46.4895" lon="5.3531">
        <ele>229.2</ele>
        <time>2021-11-11T11:26:39Z</time>
      </trkpt>
      <trkpt lat="46.48971" lon="5.35262">
        <ele>229.2</ele>
        <time>2021-11-11T11:26:45Z</time>
      </trkpt>
      <trkpt lat="46.48999" lon="5.35201">
        <ele>229.4</ele>
        <time>2021-11-11T11:26:53Z</time>
      </trkpt>
      <trkpt lat="46.49009" lon="5.35179">
        <ele>229.8</ele>
        <time>2021-11-11T11:26:56Z</time>
      </trkpt>
      <trkpt lat="46.49015" lon="5.35165">
        <ele>230.2</ele>
        <time>2021-11-11T11:26:58Z</time>
      </trkpt>
      <trkpt lat="46.49021" lon="5.3515">
        <ele>230.4</ele>
        <time>2021-11-11T11:27:00Z</time>
      </trkpt>
      <trkpt lat="46.49035" lon="5.35122">
        <ele>230.8</ele>
        <time>2021-11-11T11:27:04Z</time>
      </trkpt>
      <trkpt lat="46.49043" lon="5.35111">
        <ele>231</ele>
        <time>2021-11-11T11:27:06Z</time>
      </trkpt>
      <trkpt lat="46.49075" lon="5.35083">
        <ele>231.4</ele>
        <time>2021-11-11T11:27:12Z</time>
      </trkpt>
      <trkpt lat="46.49101" lon="5.3506">
        <ele>231.2</ele>
        <time>2021-11-11T11:27:17Z</time>
      </trkpt>
      <trkpt lat="46.49124" lon="5.35038">
        <ele>231</ele>
        <time>2021-11-11T11:27:21Z</time>
      </trkpt>
      <trkpt lat="46.4913" lon="5.35033">
        <ele>231</ele>
        <time>2021-11-11T11:27:22Z</time>
      </trkpt>
      <trkpt lat="46.49152" lon="5.35012">
        <ele>230.6</ele>
        <time>2021-11-11T11:27:26Z</time>
      </trkpt>
      <trkpt lat="46.49158" lon="5.35007">
        <ele>230.4</ele>
        <time>2021-11-11T11:27:27Z</time>
      </trkpt>
      <trkpt lat="46.49167" lon="5.34996">
        <ele>230</ele>
        <time>2021-11-11T11:27:29Z</time>
      </trkpt>
      <trkpt lat="46.49178" lon="5.34983">
        <ele>229.8</ele>
        <time>2021-11-11T11:27:31Z</time>
      </trkpt>
      <trkpt lat="46.4921" lon="5.34939">
        <ele>229.4</ele>
        <time>2021-11-11T11:27:37Z</time>
      </trkpt>
      <trkpt lat="46.49239" lon="5.349">
        <ele>229.4</ele>
        <time>2021-11-11T11:27:43Z</time>
      </trkpt>
      <trkpt lat="46.49254" lon="5.34878">
        <ele>229.2</ele>
        <time>2021-11-11T11:27:46Z</time>
      </trkpt>
      <trkpt lat="46.49273" lon="5.34854">
        <ele>229</ele>
        <time>2021-11-11T11:27:50Z</time>
      </trkpt>
      <trkpt lat="46.49284" lon="5.34845">
        <ele>228.8</ele>
        <time>2021-11-11T11:27:52Z</time>
      </trkpt>
      <trkpt lat="46.49295" lon="5.3484">
        <ele>228.6</ele>
        <time>2021-11-11T11:27:54Z</time>
      </trkpt>
      <trkpt lat="46.49312" lon="5.34835">
        <ele>228.6</ele>
        <time>2021-11-11T11:27:57Z</time>
      </trkpt>
      <trkpt lat="46.49319" lon="5.34833">
        <ele>228.6</ele>
        <time>2021-11-11T11:27:58Z</time>
      </trkpt>
      <trkpt lat="46.49345" lon="5.34828">
        <ele>228.8</ele>
        <time>2021-11-11T11:28:02Z</time>
      </trkpt>
      <trkpt lat="46.49382" lon="5.3482">
        <ele>229.2</ele>
        <time>2021-11-11T11:28:08Z</time>
      </trkpt>
      <trkpt lat="46.49388" lon="5.34817">
        <ele>229.2</ele>
        <time>2021-11-11T11:28:09Z</time>
      </trkpt>
      <trkpt lat="46.49423" lon="5.3479">
        <ele>229.2</ele>
        <time>2021-11-11T11:28:16Z</time>
      </trkpt>
      <trkpt lat="46.49439" lon="5.34772">
        <ele>229.2</ele>
        <time>2021-11-11T11:28:19Z</time>
      </trkpt>
      <trkpt lat="46.49451" lon="5.3476">
        <ele>228.8</ele>
        <time>2021-11-11T11:28:21Z</time>
      </trkpt>
      <trkpt lat="46.49473" lon="5.34737">
        <ele>228</ele>
        <time>2021-11-11T11:28:24Z</time>
      </trkpt>
      <trkpt lat="46.49488" lon="5.34722">
        <ele>227.4</ele>
        <time>2021-11-11T11:28:26Z</time>
      </trkpt>
      <trkpt lat="46.49502" lon="5.34705">
        <ele>227</ele>
        <time>2021-11-11T11:28:28Z</time>
      </trkpt>
      <trkpt lat="46.49516" lon="5.3469">
        <ele>226</ele>
        <time>2021-11-11T11:28:30Z</time>
      </trkpt>
      <trkpt lat="46.4954" lon="5.34664">
        <ele>224.4</ele>
        <time>2021-11-11T11:28:33Z</time>
      </trkpt>
      <trkpt lat="46.49554" lon="5.34647">
        <ele>224</ele>
        <time>2021-11-11T11:28:35Z</time>
      </trkpt>
      <trkpt lat="46.49562" lon="5.34639">
        <ele>223.2</ele>
        <time>2021-11-11T11:28:36Z</time>
      </trkpt>
      <trkpt lat="46.49575" lon="5.34622">
        <ele>222.2</ele>
        <time>2021-11-11T11:28:38Z</time>
      </trkpt>
      <trkpt lat="46.49581" lon="5.34612">
        <ele>221.8</ele>
        <time>2021-11-11T11:28:39Z</time>
      </trkpt>
      <trkpt lat="46.49597" lon="5.34593">
        <ele>220.6</ele>
        <time>2021-11-11T11:28:41Z</time>
      </trkpt>
      <trkpt lat="46.49609" lon="5.34576">
        <ele>219.6</ele>
        <time>2021-11-11T11:28:43Z</time>
      </trkpt>
      <trkpt lat="46.49613" lon="5.34569">
        <ele>219.2</ele>
        <time>2021-11-11T11:28:44Z</time>
      </trkpt>
      <trkpt lat="46.4962" lon="5.34559">
        <ele>218.8</ele>
        <time>2021-11-11T11:28:45Z</time>
      </trkpt>
      <trkpt lat="46.49632" lon="5.34546">
        <ele>218.2</ele>
        <time>2021-11-11T11:28:47Z</time>
      </trkpt>
      <trkpt lat="46.49642" lon="5.34541">
        <ele>217.2</ele>
        <time>2021-11-11T11:28:49Z</time>
      </trkpt>
      <trkpt lat="46.49645" lon="5.34539">
        <ele>216.6</ele>
        <time>2021-11-11T11:28:50Z</time>
      </trkpt>
      <trkpt lat="46.49652" lon="5.34531">
        <ele>216.4</ele>
        <time>2021-11-11T11:28:52Z</time>
      </trkpt>
      <trkpt lat="46.49659" lon="5.34504">
        <ele>216.2</ele>
        <time>2021-11-11T11:28:56Z</time>
      </trkpt>
      <trkpt lat="46.49673" lon="5.34456">
        <ele>217</ele>
        <time>2021-11-11T11:29:03Z</time>
      </trkpt>
      <trkpt lat="46.49683" lon="5.34423">
        <ele>217.8</ele>
        <time>2021-11-11T11:29:08Z</time>
      </trkpt>
      <trkpt lat="46.49687" lon="5.3441">
        <ele>218</ele>
        <time>2021-11-11T11:29:10Z</time>
      </trkpt>
      <trkpt lat="46.4969" lon="5.34398">
        <ele>218.4</ele>
        <time>2021-11-11T11:29:12Z</time>
      </trkpt>
      <trkpt lat="46.49695" lon="5.34378">
        <ele>218.8</ele>
        <time>2021-11-11T11:29:15Z</time>
      </trkpt>
      <trkpt lat="46.49699" lon="5.34366">
        <ele>219.2</ele>
        <time>2021-11-11T11:29:17Z</time>
      </trkpt>
      <trkpt lat="46.49707" lon="5.34335">
        <ele>220.2</ele>
        <time>2021-11-11T11:29:22Z</time>
      </trkpt>
      <trkpt lat="46.49708" lon="5.34329">
        <ele>220.4</ele>
        <time>2021-11-11T11:29:23Z</time>
      </trkpt>
      <trkpt lat="46.49711" lon="5.34323">
        <ele>220.6</ele>
        <time>2021-11-11T11:29:24Z</time>
      </trkpt>
      <trkpt lat="46.49717" lon="5.34309">
        <ele>220.8</ele>
        <time>2021-11-11T11:29:26Z</time>
      </trkpt>
      <trkpt lat="46.49723" lon="5.34294">
        <ele>221</ele>
        <time>2021-11-11T11:29:28Z</time>
      </trkpt>
      <trkpt lat="46.49726" lon="5.34287">
        <ele>221.2</ele>
        <time>2021-11-11T11:29:29Z</time>
      </trkpt>
      <trkpt lat="46.49749" lon="5.34248">
        <ele>221.6</ele>
        <time>2021-11-11T11:29:35Z</time>
      </trkpt>
      <trkpt lat="46.49763" lon="5.34223">
        <ele>221.6</ele>
        <time>2021-11-11T11:29:39Z</time>
      </trkpt>
      <trkpt lat="46.49778" lon="5.34199">
        <ele>221.6</ele>
        <time>2021-11-11T11:29:43Z</time>
      </trkpt>
      <trkpt lat="46.49804" lon="5.34155">
        <ele>221.8</ele>
        <time>2021-11-11T11:29:50Z</time>
      </trkpt>
      <trkpt lat="46.49829" lon="5.34113">
        <ele>222</ele>
        <time>2021-11-11T11:29:57Z</time>
      </trkpt>
      <trkpt lat="46.49833" lon="5.34107">
        <ele>222</ele>
        <time>2021-11-11T11:29:58Z</time>
      </trkpt>
      <trkpt lat="46.49859" lon="5.34068">
        <ele>222</ele>
        <time>2021-11-11T11:30:04Z</time>
      </trkpt>
      <trkpt lat="46.49896" lon="5.34026">
        <ele>222</ele>
        <time>2021-11-11T11:30:12Z</time>
      </trkpt>
      <trkpt lat="46.49917" lon="5.34002">
        <ele>222.2</ele>
        <time>2021-11-11T11:30:17Z</time>
      </trkpt>
      <trkpt lat="46.49933" lon="5.33985">
        <ele>222.6</ele>
        <time>2021-11-11T11:30:21Z</time>
      </trkpt>
      <trkpt lat="46.49941" lon="5.33977">
        <ele>223</ele>
        <time>2021-11-11T11:30:23Z</time>
      </trkpt>
      <trkpt lat="46.49949" lon="5.33967">
        <ele>223.2</ele>
        <time>2021-11-11T11:30:25Z</time>
      </trkpt>
      <trkpt lat="46.49965" lon="5.33948">
        <ele>223.8</ele>
        <time>2021-11-11T11:30:29Z</time>
      </trkpt>
      <trkpt lat="46.49983" lon="5.3393">
        <ele>224</ele>
        <time>2021-11-11T11:30:33Z</time>
      </trkpt>
      <trkpt lat="46.49988" lon="5.33926">
        <ele>224</ele>
        <time>2021-11-11T11:30:34Z</time>
      </trkpt>
      <trkpt lat="46.49992" lon="5.33921">
        <ele>224.4</ele>
        <time>2021-11-11T11:30:35Z</time>
      </trkpt>
      <trkpt lat="46.49998" lon="5.33915">
        <ele>224.6</ele>
        <time>2021-11-11T11:30:36Z</time>
      </trkpt>
      <trkpt lat="46.50033" lon="5.33878">
        <ele>224.8</ele>
        <time>2021-11-11T11:30:43Z</time>
      </trkpt>
      <trkpt lat="46.50047" lon="5.33861">
        <ele>224.6</ele>
        <time>2021-11-11T11:30:46Z</time>
      </trkpt>
      <trkpt lat="46.50064" lon="5.33842">
        <ele>224.4</ele>
        <time>2021-11-11T11:30:49Z</time>
      </trkpt>
      <trkpt lat="46.50105" lon="5.33796">
        <ele>223.4</ele>
        <time>2021-11-11T11:30:56Z</time>
      </trkpt>
      <trkpt lat="46.5011" lon="5.33789">
        <ele>223</ele>
        <time>2021-11-11T11:30:57Z</time>
      </trkpt>
      <trkpt lat="46.50152" lon="5.33744">
        <ele>222.2</ele>
        <time>2021-11-11T11:31:05Z</time>
      </trkpt>
      <trkpt lat="46.50172" lon="5.33723">
        <ele>222.2</ele>
        <time>2021-11-11T11:31:09Z</time>
      </trkpt>
      <trkpt lat="46.50191" lon="5.33704">
        <ele>222.4</ele>
        <time>2021-11-11T11:31:13Z</time>
      </trkpt>
      <trkpt lat="46.50207" lon="5.33686">
        <ele>222.4</ele>
        <time>2021-11-11T11:31:16Z</time>
      </trkpt>
      <trkpt lat="46.50221" lon="5.3367">
        <ele>222.6</ele>
        <time>2021-11-11T11:31:19Z</time>
      </trkpt>
      <trkpt lat="46.50231" lon="5.3366">
        <ele>222.6</ele>
        <time>2021-11-11T11:31:21Z</time>
      </trkpt>
      <trkpt lat="46.50234" lon="5.33656">
        <ele>222.6</ele>
        <time>2021-11-11T11:31:22Z</time>
      </trkpt>
      <trkpt lat="46.50239" lon="5.33649">
        <ele>222.6</ele>
        <time>2021-11-11T11:31:23Z</time>
      </trkpt>
      <trkpt lat="46.50267" lon="5.3362">
        <ele>222.2</ele>
        <time>2021-11-11T11:31:28Z</time>
      </trkpt>
      <trkpt lat="46.50283" lon="5.33604">
        <ele>222</ele>
        <time>2021-11-11T11:31:31Z</time>
      </trkpt>
      <trkpt lat="46.503" lon="5.33585">
        <ele>221.6</ele>
        <time>2021-11-11T11:31:34Z</time>
      </trkpt>
      <trkpt lat="46.50338" lon="5.33544">
        <ele>221.2</ele>
        <time>2021-11-11T11:31:41Z</time>
      </trkpt>
      <trkpt lat="46.5036" lon="5.3352">
        <ele>220.8</ele>
        <time>2021-11-11T11:31:45Z</time>
      </trkpt>
      <trkpt lat="46.50393" lon="5.33485">
        <ele>220.6</ele>
        <time>2021-11-11T11:31:51Z</time>
      </trkpt>
      <trkpt lat="46.50438" lon="5.33435">
        <ele>219.6</ele>
        <time>2021-11-11T11:31:59Z</time>
      </trkpt>
      <trkpt lat="46.50443" lon="5.33427">
        <ele>219.6</ele>
        <time>2021-11-11T11:32:00Z</time>
      </trkpt>
      <trkpt lat="46.50456" lon="5.33403">
        <ele>219</ele>
        <time>2021-11-11T11:32:03Z</time>
      </trkpt>
      <trkpt lat="46.50458" lon="5.33393">
        <ele>219</ele>
        <time>2021-11-11T11:32:04Z</time>
      </trkpt>
      <trkpt lat="46.50463" lon="5.33371">
        <ele>218.8</ele>
        <time>2021-11-11T11:32:06Z</time>
      </trkpt>
      <trkpt lat="46.50464" lon="5.3336">
        <ele>218.6</ele>
        <time>2021-11-11T11:32:07Z</time>
      </trkpt>
      <trkpt lat="46.50464" lon="5.33341">
        <ele>218.4</ele>
        <time>2021-11-11T11:32:09Z</time>
      </trkpt>
      <trkpt lat="46.50466" lon="5.33293">
        <ele>218</ele>
        <time>2021-11-11T11:32:14Z</time>
      </trkpt>
      <trkpt lat="46.50465" lon="5.33226">
        <ele>218.2</ele>
        <time>2021-11-11T11:32:21Z</time>
      </trkpt>
      <trkpt lat="46.50465" lon="5.33172">
        <ele>218.8</ele>
        <time>2021-11-11T11:32:27Z</time>
      </trkpt>
      <trkpt lat="46.50465" lon="5.3312">
        <ele>218.4</ele>
        <time>2021-11-11T11:32:32Z</time>
      </trkpt>
      <trkpt lat="46.50466" lon="5.33062">
        <ele>217.4</ele>
        <time>2021-11-11T11:32:37Z</time>
      </trkpt>
      <trkpt lat="46.50466" lon="5.33048">
        <ele>217.4</ele>
        <time>2021-11-11T11:32:38Z</time>
      </trkpt>
      <trkpt lat="46.50466" lon="5.33002">
        <ele>216.2</ele>
        <time>2021-11-11T11:32:42Z</time>
      </trkpt>
      <trkpt lat="46.50468" lon="5.32965">
        <ele>215.4</ele>
        <time>2021-11-11T11:32:45Z</time>
      </trkpt>
      <trkpt lat="46.50468" lon="5.32953">
        <ele>214.6</ele>
        <time>2021-11-11T11:32:46Z</time>
      </trkpt>
      <trkpt lat="46.50469" lon="5.32928">
        <ele>213.4</ele>
        <time>2021-11-11T11:32:48Z</time>
      </trkpt>
      <trkpt lat="46.5047" lon="5.32903">
        <ele>212.2</ele>
        <time>2021-11-11T11:32:50Z</time>
      </trkpt>
      <trkpt lat="46.50471" lon="5.32863">
        <ele>210.4</ele>
        <time>2021-11-11T11:32:53Z</time>
      </trkpt>
      <trkpt lat="46.50472" lon="5.32828">
        <ele>209.2</ele>
        <time>2021-11-11T11:32:56Z</time>
      </trkpt>
      <trkpt lat="46.50473" lon="5.32799">
        <ele>208</ele>
        <time>2021-11-11T11:32:58Z</time>
      </trkpt>
      <trkpt lat="46.50474" lon="5.32766">
        <ele>207</ele>
        <time>2021-11-11T11:33:01Z</time>
      </trkpt>
      <trkpt lat="46.50475" lon="5.32731">
        <ele>206</ele>
        <time>2021-11-11T11:33:04Z</time>
      </trkpt>
      <trkpt lat="46.50476" lon="5.32694">
        <ele>205.2</ele>
        <time>2021-11-11T11:33:07Z</time>
      </trkpt>
      <trkpt lat="46.50477" lon="5.32661">
        <ele>204.8</ele>
        <time>2021-11-11T11:33:10Z</time>
      </trkpt>
      <trkpt lat="46.50476" lon="5.32579">
        <ele>203.8</ele>
        <time>2021-11-11T11:33:17Z</time>
      </trkpt>
      <trkpt lat="46.50472" lon="5.32496">
        <ele>203</ele>
        <time>2021-11-11T11:33:24Z</time>
      </trkpt>
      <trkpt lat="46.50471" lon="5.32484">
        <ele>202.8</ele>
        <time>2021-11-11T11:33:25Z</time>
      </trkpt>
      <trkpt lat="46.5047" lon="5.32473">
        <ele>202.6</ele>
        <time>2021-11-11T11:33:26Z</time>
      </trkpt>
      <trkpt lat="46.5046" lon="5.32405">
        <ele>202</ele>
        <time>2021-11-11T11:33:32Z</time>
      </trkpt>
      <trkpt lat="46.50451" lon="5.32362">
        <ele>201.6</ele>
        <time>2021-11-11T11:33:36Z</time>
      </trkpt>
      <trkpt lat="46.50439" lon="5.3231">
        <ele>201.2</ele>
        <time>2021-11-11T11:33:41Z</time>
      </trkpt>
      <trkpt lat="46.50431" lon="5.32249">
        <ele>201.2</ele>
        <time>2021-11-11T11:33:47Z</time>
      </trkpt>
      <trkpt lat="46.50432" lon="5.32209">
        <ele>201.2</ele>
        <time>2021-11-11T11:33:51Z</time>
      </trkpt>
      <trkpt lat="46.50434" lon="5.322">
        <ele>201.2</ele>
        <time>2021-11-11T11:33:52Z</time>
      </trkpt>
      <trkpt lat="46.50438" lon="5.32194">
        <ele>201.2</ele>
        <time>2021-11-11T11:33:53Z</time>
      </trkpt>
      <trkpt lat="46.50443" lon="5.32189">
        <ele>201</ele>
        <time>2021-11-11T11:33:54Z</time>
      </trkpt>
      <trkpt lat="46.50449" lon="5.32186">
        <ele>200.8</ele>
        <time>2021-11-11T11:33:55Z</time>
      </trkpt>
      <trkpt lat="46.50459" lon="5.32174">
        <ele>200.8</ele>
        <time>2021-11-11T11:33:57Z</time>
      </trkpt>
      <trkpt lat="46.50463" lon="5.32166">
        <ele>200.8</ele>
        <time>2021-11-11T11:33:58Z</time>
      </trkpt>
      <trkpt lat="46.50466" lon="5.32157">
        <ele>200.6</ele>
        <time>2021-11-11T11:33:59Z</time>
      </trkpt>
      <trkpt lat="46.50474" lon="5.32128">
        <ele>200.4</ele>
        <time>2021-11-11T11:34:02Z</time>
      </trkpt>
      <trkpt lat="46.50495" lon="5.32074">
        <ele>200.4</ele>
        <time>2021-11-11T11:34:08Z</time>
      </trkpt>
      <trkpt lat="46.50513" lon="5.32041">
        <ele>200.6</ele>
        <time>2021-11-11T11:34:12Z</time>
      </trkpt>
      <trkpt lat="46.50529" lon="5.32018">
        <ele>200.8</ele>
        <time>2021-11-11T11:34:15Z</time>
      </trkpt>
      <trkpt lat="46.50549" lon="5.31987">
        <ele>201.2</ele>
        <time>2021-11-11T11:34:20Z</time>
      </trkpt>
      <trkpt lat="46.50553" lon="5.3198">
        <ele>201.2</ele>
        <time>2021-11-11T11:34:21Z</time>
      </trkpt>
      <trkpt lat="46.5056" lon="5.31962">
        <ele>201.6</ele>
        <time>2021-11-11T11:34:24Z</time>
      </trkpt>
      <trkpt lat="46.50566" lon="5.31943">
        <ele>202</ele>
        <time>2021-11-11T11:34:27Z</time>
      </trkpt>
      <trkpt lat="46.50569" lon="5.31937">
        <ele>202.6</ele>
        <time>2021-11-11T11:34:28Z</time>
      </trkpt>
      <trkpt lat="46.50571" lon="5.31931">
        <ele>203</ele>
        <time>2021-11-11T11:34:29Z</time>
      </trkpt>
      <trkpt lat="46.50573" lon="5.31925">
        <ele>203</ele>
        <time>2021-11-11T11:34:30Z</time>
      </trkpt>
      <trkpt lat="46.50575" lon="5.3192">
        <ele>203.2</ele>
        <time>2021-11-11T11:34:31Z</time>
      </trkpt>
      <trkpt lat="46.50584" lon="5.319">
        <ele>204</ele>
        <time>2021-11-11T11:34:35Z</time>
      </trkpt>
      <trkpt lat="46.50585" lon="5.31894">
        <ele>204.2</ele>
        <time>2021-11-11T11:34:36Z</time>
      </trkpt>
      <trkpt lat="46.50594" lon="5.31874">
        <ele>205.4</ele>
        <time>2021-11-11T11:34:40Z</time>
      </trkpt>
      <trkpt lat="46.50599" lon="5.31859">
        <ele>206</ele>
        <time>2021-11-11T11:34:43Z</time>
      </trkpt>
      <trkpt lat="46.50603" lon="5.31848">
        <ele>206.4</ele>
        <time>2021-11-11T11:34:45Z</time>
      </trkpt>
      <trkpt lat="46.50611" lon="5.31821">
        <ele>207.4</ele>
        <time>2021-11-11T11:34:50Z</time>
      </trkpt>
      <trkpt lat="46.50613" lon="5.31816">
        <ele>207.4</ele>
        <time>2021-11-11T11:34:51Z</time>
      </trkpt>
      <trkpt lat="46.50621" lon="5.31792">
        <ele>208.2</ele>
        <time>2021-11-11T11:34:55Z</time>
      </trkpt>
      <trkpt lat="46.50625" lon="5.3178">
        <ele>208.6</ele>
        <time>2021-11-11T11:34:57Z</time>
      </trkpt>
      <trkpt lat="46.50631" lon="5.31761">
        <ele>209</ele>
        <time>2021-11-11T11:35:00Z</time>
      </trkpt>
      <trkpt lat="46.5064" lon="5.31743">
        <ele>209.2</ele>
        <time>2021-11-11T11:35:03Z</time>
      </trkpt>
      <trkpt lat="46.50643" lon="5.31736">
        <ele>209.2</ele>
        <time>2021-11-11T11:35:04Z</time>
      </trkpt>
      <trkpt lat="46.50647" lon="5.3173">
        <ele>209.4</ele>
        <time>2021-11-11T11:35:05Z</time>
      </trkpt>
      <trkpt lat="46.50655" lon="5.31721">
        <ele>209.4</ele>
        <time>2021-11-11T11:35:07Z</time>
      </trkpt>
      <trkpt lat="46.5066" lon="5.31718">
        <ele>209.4</ele>
        <time>2021-11-11T11:35:08Z</time>
      </trkpt>
      <trkpt lat="46.50665" lon="5.31716">
        <ele>209.4</ele>
        <time>2021-11-11T11:35:09Z</time>
      </trkpt>
      <trkpt lat="46.50687" lon="5.31711">
        <ele>209.4</ele>
        <time>2021-11-11T11:35:13Z</time>
      </trkpt>
      <trkpt lat="46.50747" lon="5.31705">
        <ele>209.4</ele>
        <time>2021-11-11T11:35:23Z</time>
      </trkpt>
      <trkpt lat="46.50753" lon="5.31705">
        <ele>209.2</ele>
        <time>2021-11-11T11:35:24Z</time>
      </trkpt>
      <trkpt lat="46.50772" lon="5.31708">
        <ele>209.2</ele>
        <time>2021-11-11T11:35:27Z</time>
      </trkpt>
      <trkpt lat="46.50784" lon="5.31715">
        <ele>209.2</ele>
        <time>2021-11-11T11:35:29Z</time>
      </trkpt>
      <trkpt lat="46.50827" lon="5.31747">
        <ele>209.4</ele>
        <time>2021-11-11T11:35:37Z</time>
      </trkpt>
      <trkpt lat="46.50838" lon="5.31749">
        <ele>209.4</ele>
        <time>2021-11-11T11:35:39Z</time>
      </trkpt>
      <trkpt lat="46.50843" lon="5.31747">
        <ele>209.6</ele>
        <time>2021-11-11T11:35:40Z</time>
      </trkpt>
      <trkpt lat="46.50849" lon="5.31745">
        <ele>209.8</ele>
        <time>2021-11-11T11:35:41Z</time>
      </trkpt>
      <trkpt lat="46.50859" lon="5.31736">
        <ele>210</ele>
        <time>2021-11-11T11:35:43Z</time>
      </trkpt>
      <trkpt lat="46.50863" lon="5.31731">
        <ele>210.2</ele>
        <time>2021-11-11T11:35:44Z</time>
      </trkpt>
      <trkpt lat="46.50898" lon="5.31693">
        <ele>210.6</ele>
        <time>2021-11-11T11:35:51Z</time>
      </trkpt>
      <trkpt lat="46.50909" lon="5.31681">
        <ele>210.6</ele>
        <time>2021-11-11T11:35:53Z</time>
      </trkpt>
      <trkpt lat="46.50952" lon="5.31637">
        <ele>210</ele>
        <time>2021-11-11T11:36:00Z</time>
      </trkpt>
      <trkpt lat="46.50998" lon="5.3159">
        <ele>209.4</ele>
        <time>2021-11-11T11:36:08Z</time>
      </trkpt>
      <trkpt lat="46.51032" lon="5.31549">
        <ele>209.8</ele>
        <time>2021-11-11T11:36:15Z</time>
      </trkpt>
      <trkpt lat="46.51035" lon="5.31541">
        <ele>210</ele>
        <time>2021-11-11T11:36:16Z</time>
      </trkpt>
      <trkpt lat="46.51044" lon="5.31514">
        <ele>210</ele>
        <time>2021-11-11T11:36:19Z</time>
      </trkpt>
      <trkpt lat="46.51061" lon="5.31438">
        <ele>209.4</ele>
        <time>2021-11-11T11:36:26Z</time>
      </trkpt>
      <trkpt lat="46.51065" lon="5.31415">
        <ele>208.6</ele>
        <time>2021-11-11T11:36:28Z</time>
      </trkpt>
      <trkpt lat="46.5107" lon="5.3139">
        <ele>208</ele>
        <time>2021-11-11T11:36:30Z</time>
      </trkpt>
      <trkpt lat="46.5107" lon="5.31379">
        <ele>207.8</ele>
        <time>2021-11-11T11:36:31Z</time>
      </trkpt>
      <trkpt lat="46.51069" lon="5.31352">
        <ele>207.2</ele>
        <time>2021-11-11T11:36:33Z</time>
      </trkpt>
      <trkpt lat="46.51068" lon="5.31329">
        <ele>206.4</ele>
        <time>2021-11-11T11:36:35Z</time>
      </trkpt>
      <trkpt lat="46.51069" lon="5.3132">
        <ele>206.2</ele>
        <time>2021-11-11T11:36:36Z</time>
      </trkpt>
      <trkpt lat="46.51071" lon="5.31307">
        <ele>205.8</ele>
        <time>2021-11-11T11:36:37Z</time>
      </trkpt>
      <trkpt lat="46.51074" lon="5.31292">
        <ele>205.4</ele>
        <time>2021-11-11T11:36:38Z</time>
      </trkpt>
      <trkpt lat="46.51081" lon="5.31274">
        <ele>204.6</ele>
        <time>2021-11-11T11:36:40Z</time>
      </trkpt>
      <trkpt lat="46.51086" lon="5.31265">
        <ele>204.4</ele>
        <time>2021-11-11T11:36:41Z</time>
      </trkpt>
      <trkpt lat="46.51092" lon="5.31257">
        <ele>204</ele>
        <time>2021-11-11T11:36:42Z</time>
      </trkpt>
      <trkpt lat="46.51106" lon="5.31242">
        <ele>203.4</ele>
        <time>2021-11-11T11:36:44Z</time>
      </trkpt>
      <trkpt lat="46.51126" lon="5.31218">
        <ele>202</ele>
        <time>2021-11-11T11:36:47Z</time>
      </trkpt>
      <trkpt lat="46.51147" lon="5.31194">
        <ele>200.8</ele>
        <time>2021-11-11T11:36:50Z</time>
      </trkpt>
      <trkpt lat="46.51184" lon="5.31149">
        <ele>199.8</ele>
        <time>2021-11-11T11:36:56Z</time>
      </trkpt>
      <trkpt lat="46.51189" lon="5.31141">
        <ele>199.8</ele>
        <time>2021-11-11T11:36:57Z</time>
      </trkpt>
      <trkpt lat="46.51209" lon="5.3112">
        <ele>199.4</ele>
        <time>2021-11-11T11:37:00Z</time>
      </trkpt>
      <trkpt lat="46.51226" lon="5.31103">
        <ele>199.2</ele>
        <time>2021-11-11T11:37:02Z</time>
      </trkpt>
      <trkpt lat="46.51239" lon="5.3109">
        <ele>198.8</ele>
        <time>2021-11-11T11:37:04Z</time>
      </trkpt>
      <trkpt lat="46.51248" lon="5.31085">
        <ele>198.4</ele>
        <time>2021-11-11T11:37:05Z</time>
      </trkpt>
      <trkpt lat="46.51257" lon="5.31082">
        <ele>198.2</ele>
        <time>2021-11-11T11:37:06Z</time>
      </trkpt>
      <trkpt lat="46.51286" lon="5.31079">
        <ele>197.4</ele>
        <time>2021-11-11T11:37:09Z</time>
      </trkpt>
      <trkpt lat="46.51302" lon="5.31079">
        <ele>197</ele>
        <time>2021-11-11T11:37:11Z</time>
      </trkpt>
      <trkpt lat="46.51362" lon="5.31076">
        <ele>196.8</ele>
        <time>2021-11-11T11:37:19Z</time>
      </trkpt>
      <trkpt lat="46.5137" lon="5.31076">
        <ele>196.8</ele>
        <time>2021-11-11T11:37:20Z</time>
      </trkpt>
      <trkpt lat="46.5143" lon="5.31072">
        <ele>197</ele>
        <time>2021-11-11T11:37:28Z</time>
      </trkpt>
      <trkpt lat="46.51452" lon="5.31072">
        <ele>197</ele>
        <time>2021-11-11T11:37:31Z</time>
      </trkpt>
      <trkpt lat="46.51512" lon="5.31075">
        <ele>196.8</ele>
        <time>2021-11-11T11:37:39Z</time>
      </trkpt>
      <trkpt lat="46.51525" lon="5.31075">
        <ele>196.8</ele>
        <time>2021-11-11T11:37:41Z</time>
      </trkpt>
      <trkpt lat="46.5158" lon="5.31081">
        <ele>197</ele>
        <time>2021-11-11T11:37:49Z</time>
      </trkpt>
      <trkpt lat="46.51586" lon="5.31083">
        <ele>197</ele>
        <time>2021-11-11T11:37:50Z</time>
      </trkpt>
      <trkpt lat="46.51622" lon="5.311">
        <ele>197.4</ele>
        <time>2021-11-11T11:37:56Z</time>
      </trkpt>
      <trkpt lat="46.51633" lon="5.31105">
        <ele>197.6</ele>
        <time>2021-11-11T11:37:58Z</time>
      </trkpt>
      <trkpt lat="46.51642" lon="5.31107">
        <ele>197.8</ele>
        <time>2021-11-11T11:38:00Z</time>
      </trkpt>
      <trkpt lat="46.51647" lon="5.31107">
        <ele>197.8</ele>
        <time>2021-11-11T11:38:01Z</time>
      </trkpt>
      <trkpt lat="46.51658" lon="5.31105">
        <ele>198.2</ele>
        <time>2021-11-11T11:38:03Z</time>
      </trkpt>
      <trkpt lat="46.51663" lon="5.31106">
        <ele>198.6</ele>
        <time>2021-11-11T11:38:04Z</time>
      </trkpt>
      <trkpt lat="46.51667" lon="5.31107">
        <ele>198.6</ele>
        <time>2021-11-11T11:38:05Z</time>
      </trkpt>
      <trkpt lat="46.51671" lon="5.31111">
        <ele>198.8</ele>
        <time>2021-11-11T11:38:06Z</time>
      </trkpt>
      <trkpt lat="46.51674" lon="5.31117">
        <ele>199</ele>
        <time>2021-11-11T11:38:07Z</time>
      </trkpt>
      <trkpt lat="46.51688" lon="5.31142">
        <ele>199.4</ele>
        <time>2021-11-11T11:38:11Z</time>
      </trkpt>
      <trkpt lat="46.51716" lon="5.31171">
        <ele>199.4</ele>
        <time>2021-11-11T11:38:16Z</time>
      </trkpt>
      <trkpt lat="46.51723" lon="5.31175">
        <ele>199.2</ele>
        <time>2021-11-11T11:38:17Z</time>
      </trkpt>
      <trkpt lat="46.51744" lon="5.31182">
        <ele>199</ele>
        <time>2021-11-11T11:38:20Z</time>
      </trkpt>
      <trkpt lat="46.51787" lon="5.31184">
        <ele>197.2</ele>
        <time>2021-11-11T11:38:25Z</time>
      </trkpt>
      <trkpt lat="46.51796" lon="5.31184">
        <ele>197</ele>
        <time>2021-11-11T11:38:26Z</time>
      </trkpt>
      <trkpt lat="46.51822" lon="5.31186">
        <ele>196</ele>
        <time>2021-11-11T11:38:29Z</time>
      </trkpt>
      <trkpt lat="46.51833" lon="5.3119">
        <ele>195.6</ele>
        <time>2021-11-11T11:38:30Z</time>
      </trkpt>
      <trkpt lat="46.51849" lon="5.31198">
        <ele>194.6</ele>
        <time>2021-11-11T11:38:32Z</time>
      </trkpt>
      <trkpt lat="46.51866" lon="5.31214">
        <ele>193.8</ele>
        <time>2021-11-11T11:38:34Z</time>
      </trkpt>
      <trkpt lat="46.51873" lon="5.31222">
        <ele>193.6</ele>
        <time>2021-11-11T11:38:35Z</time>
      </trkpt>
      <trkpt lat="46.51898" lon="5.31257">
        <ele>192.4</ele>
        <time>2021-11-11T11:38:39Z</time>
      </trkpt>
      <trkpt lat="46.51903" lon="5.31266">
        <ele>192.4</ele>
        <time>2021-11-11T11:38:40Z</time>
      </trkpt>
      <trkpt lat="46.5194" lon="5.3132">
        <ele>191.8</ele>
        <time>2021-11-11T11:38:47Z</time>
      </trkpt>
      <trkpt lat="46.5198" lon="5.31379">
        <ele>191.8</ele>
        <time>2021-11-11T11:38:55Z</time>
      </trkpt>
      <trkpt lat="46.52018" lon="5.31435">
        <ele>192.2</ele>
        <time>2021-11-11T11:39:03Z</time>
      </trkpt>
      <trkpt lat="46.52022" lon="5.31441">
        <ele>192.4</ele>
        <time>2021-11-11T11:39:04Z</time>
      </trkpt>
      <trkpt lat="46.52051" lon="5.31484">
        <ele>193.2</ele>
        <time>2021-11-11T11:39:11Z</time>
      </trkpt>
      <trkpt lat="46.52055" lon="5.3149">
        <ele>193.4</ele>
        <time>2021-11-11T11:39:12Z</time>
      </trkpt>
      <trkpt lat="46.52082" lon="5.31528">
        <ele>194.4</ele>
        <time>2021-11-11T11:39:19Z</time>
      </trkpt>
      <trkpt lat="46.52099" lon="5.31553">
        <ele>195.4</ele>
        <time>2021-11-11T11:39:24Z</time>
      </trkpt>
      <trkpt lat="46.52102" lon="5.31558">
        <ele>195.6</ele>
        <time>2021-11-11T11:39:25Z</time>
      </trkpt>
      <trkpt lat="46.52109" lon="5.31568">
        <ele>195.8</ele>
        <time>2021-11-11T11:39:27Z</time>
      </trkpt>
      <trkpt lat="46.52121" lon="5.31588">
        <ele>196.6</ele>
        <time>2021-11-11T11:39:31Z</time>
      </trkpt>
      <trkpt lat="46.52125" lon="5.31594">
        <ele>196.6</ele>
        <time>2021-11-11T11:39:32Z</time>
      </trkpt>
      <trkpt lat="46.52147" lon="5.31631">
        <ele>197.6</ele>
        <time>2021-11-11T11:39:39Z</time>
      </trkpt>
      <trkpt lat="46.52154" lon="5.31641">
        <ele>198</ele>
        <time>2021-11-11T11:39:41Z</time>
      </trkpt>
      <trkpt lat="46.52164" lon="5.31657">
        <ele>198.6</ele>
        <time>2021-11-11T11:39:44Z</time>
      </trkpt>
      <trkpt lat="46.52168" lon="5.31662">
        <ele>198.6</ele>
        <time>2021-11-11T11:39:45Z</time>
      </trkpt>
      <trkpt lat="46.52175" lon="5.31672">
        <ele>199</ele>
        <time>2021-11-11T11:39:47Z</time>
      </trkpt>
      <trkpt lat="46.52193" lon="5.31697">
        <ele>199.6</ele>
        <time>2021-11-11T11:39:53Z</time>
      </trkpt>
      <trkpt lat="46.52206" lon="5.31711">
        <ele>200.2</ele>
        <time>2021-11-11T11:39:56Z</time>
      </trkpt>
      <trkpt lat="46.52217" lon="5.31726">
        <ele>200.8</ele>
        <time>2021-11-11T11:39:59Z</time>
      </trkpt>
      <trkpt lat="46.52231" lon="5.31745">
        <ele>201.4</ele>
        <time>2021-11-11T11:40:03Z</time>
      </trkpt>
      <trkpt lat="46.52247" lon="5.31766">
        <ele>201.8</ele>
        <time>2021-11-11T11:40:07Z</time>
      </trkpt>
      <trkpt lat="46.52261" lon="5.31786">
        <ele>202.2</ele>
        <time>2021-11-11T11:40:11Z</time>
      </trkpt>
      <trkpt lat="46.52271" lon="5.318">
        <ele>203</ele>
        <time>2021-11-11T11:40:14Z</time>
      </trkpt>
      <trkpt lat="46.52289" lon="5.31827">
        <ele>203.6</ele>
        <time>2021-11-11T11:40:20Z</time>
      </trkpt>
      <trkpt lat="46.523" lon="5.31841">
        <ele>204</ele>
        <time>2021-11-11T11:40:23Z</time>
      </trkpt>
      <trkpt lat="46.52322" lon="5.31872">
        <ele>205.4</ele>
        <time>2021-11-11T11:40:30Z</time>
      </trkpt>
      <trkpt lat="46.52337" lon="5.31895">
        <ele>206</ele>
        <time>2021-11-11T11:40:35Z</time>
      </trkpt>
      <trkpt lat="46.52343" lon="5.31904">
        <ele>206</ele>
        <time>2021-11-11T11:40:37Z</time>
      </trkpt>
      <trkpt lat="46.52347" lon="5.31908">
        <ele>206.6</ele>
        <time>2021-11-11T11:40:38Z</time>
      </trkpt>
      <trkpt lat="46.52378" lon="5.31951">
        <ele>207</ele>
        <time>2021-11-11T11:40:46Z</time>
      </trkpt>
      <trkpt lat="46.52403" lon="5.31986">
        <ele>206.4</ele>
        <time>2021-11-11T11:40:51Z</time>
      </trkpt>
      <trkpt lat="46.52436" lon="5.32033">
        <ele>205.2</ele>
        <time>2021-11-11T11:40:57Z</time>
      </trkpt>
      <trkpt lat="46.52442" lon="5.32041">
        <ele>204.8</ele>
        <time>2021-11-11T11:40:58Z</time>
      </trkpt>
      <trkpt lat="46.52459" lon="5.32064">
        <ele>204</ele>
        <time>2021-11-11T11:41:01Z</time>
      </trkpt>
      <trkpt lat="46.52484" lon="5.321">
        <ele>203</ele>
        <time>2021-11-11T11:41:05Z</time>
      </trkpt>
      <trkpt lat="46.52514" lon="5.32142">
        <ele>201.8</ele>
        <time>2021-11-11T11:41:10Z</time>
      </trkpt>
      <trkpt lat="46.52527" lon="5.32158">
        <ele>201.2</ele>
        <time>2021-11-11T11:41:12Z</time>
      </trkpt>
      <trkpt lat="46.52541" lon="5.32174">
        <ele>200.6</ele>
        <time>2021-11-11T11:41:14Z</time>
      </trkpt>
      <trkpt lat="46.52552" lon="5.32186">
        <ele>200</ele>
        <time>2021-11-11T11:41:16Z</time>
      </trkpt>
      <trkpt lat="46.52564" lon="5.32191">
        <ele>199.4</ele>
        <time>2021-11-11T11:41:18Z</time>
      </trkpt>
      <trkpt lat="46.5257" lon="5.3219">
        <ele>199</ele>
        <time>2021-11-11T11:41:19Z</time>
      </trkpt>
      <trkpt lat="46.52574" lon="5.32185">
        <ele>198.8</ele>
        <time>2021-11-11T11:41:20Z</time>
      </trkpt>
      <trkpt lat="46.52578" lon="5.32179">
        <ele>198</ele>
        <time>2021-11-11T11:41:21Z</time>
      </trkpt>
      <trkpt lat="46.52582" lon="5.32172">
        <ele>197.8</ele>
        <time>2021-11-11T11:41:22Z</time>
      </trkpt>
      <trkpt lat="46.52598" lon="5.3213">
        <ele>197</ele>
        <time>2021-11-11T11:41:28Z</time>
      </trkpt>
      <trkpt lat="46.52601" lon="5.32124">
        <ele>197</ele>
        <time>2021-11-11T11:41:29Z</time>
      </trkpt>
      <trkpt lat="46.52616" lon="5.32092">
        <ele>198.2</ele>
        <time>2021-11-11T11:41:34Z</time>
      </trkpt>
      <trkpt lat="46.52619" lon="5.32085">
        <ele>198.4</ele>
        <time>2021-11-11T11:41:35Z</time>
      </trkpt>
      <trkpt lat="46.52622" lon="5.32079">
        <ele>198.6</ele>
        <time>2021-11-11T11:41:36Z</time>
      </trkpt>
      <trkpt lat="46.5263" lon="5.32052">
        <ele>199.2</ele>
        <time>2021-11-11T11:41:40Z</time>
      </trkpt>
      <trkpt lat="46.52642" lon="5.32017">
        <ele>200.6</ele>
        <time>2021-11-11T11:41:46Z</time>
      </trkpt>
      <trkpt lat="46.52645" lon="5.32007">
        <ele>201.2</ele>
        <time>2021-11-11T11:41:48Z</time>
      </trkpt>
      <trkpt lat="46.52649" lon="5.31996">
        <ele>201.8</ele>
        <time>2021-11-11T11:41:50Z</time>
      </trkpt>
      <trkpt lat="46.52654" lon="5.31976">
        <ele>202.8</ele>
        <time>2021-11-11T11:41:54Z</time>
      </trkpt>
      <trkpt lat="46.52655" lon="5.31971">
        <ele>203</ele>
        <time>2021-11-11T11:41:55Z</time>
      </trkpt>
      <trkpt lat="46.5266" lon="5.31952">
        <ele>203.8</ele>
        <time>2021-11-11T11:41:59Z</time>
      </trkpt>
      <trkpt lat="46.52665" lon="5.31933">
        <ele>204.6</ele>
        <time>2021-11-11T11:42:03Z</time>
      </trkpt>
      <trkpt lat="46.52666" lon="5.31928">
        <ele>204.8</ele>
        <time>2021-11-11T11:42:04Z</time>
      </trkpt>
      <trkpt lat="46.5267" lon="5.31911">
        <ele>206</ele>
        <time>2021-11-11T11:42:08Z</time>
      </trkpt>
      <trkpt lat="46.52676" lon="5.31893">
        <ele>207</ele>
        <time>2021-11-11T11:42:12Z</time>
      </trkpt>
      <trkpt lat="46.52677" lon="5.31888">
        <ele>207.4</ele>
        <time>2021-11-11T11:42:13Z</time>
      </trkpt>
      <trkpt lat="46.52683" lon="5.31866">
        <ele>208</ele>
        <time>2021-11-11T11:42:18Z</time>
      </trkpt>
      <trkpt lat="46.52687" lon="5.31853">
        <ele>209</ele>
        <time>2021-11-11T11:42:21Z</time>
      </trkpt>
      <trkpt lat="46.527" lon="5.31824">
        <ele>210.2</ele>
        <time>2021-11-11T11:42:27Z</time>
      </trkpt>
      <trkpt lat="46.52706" lon="5.31815">
        <ele>210.6</ele>
        <time>2021-11-11T11:42:29Z</time>
      </trkpt>
      <trkpt lat="46.52729" lon="5.31795">
        <ele>211</ele>
        <time>2021-11-11T11:42:35Z</time>
      </trkpt>
      <trkpt lat="46.52739" lon="5.31791">
        <ele>211.2</ele>
        <time>2021-11-11T11:42:37Z</time>
      </trkpt>
      <trkpt lat="46.52768" lon="5.31777">
        <ele>211.6</ele>
        <time>2021-11-11T11:42:43Z</time>
      </trkpt>
      <trkpt lat="46.52802" lon="5.31762">
        <ele>211.8</ele>
        <time>2021-11-11T11:42:51Z</time>
      </trkpt>
      <trkpt lat="46.52831" lon="5.3175">
        <ele>212</ele>
        <time>2021-11-11T11:42:57Z</time>
      </trkpt>
      <trkpt lat="46.52835" lon="5.31748">
        <ele>211.8</ele>
        <time>2021-11-11T11:42:58Z</time>
      </trkpt>
      <trkpt lat="46.52858" lon="5.31738">
        <ele>211.6</ele>
        <time>2021-11-11T11:43:02Z</time>
      </trkpt>
      <trkpt lat="46.52865" lon="5.31735">
        <ele>211.6</ele>
        <time>2021-11-11T11:43:03Z</time>
      </trkpt>
      <trkpt lat="46.5289" lon="5.31731">
        <ele>211.2</ele>
        <time>2021-11-11T11:43:07Z</time>
      </trkpt>
      <trkpt lat="46.52903" lon="5.31733">
        <ele>211</ele>
        <time>2021-11-11T11:43:09Z</time>
      </trkpt>
      <trkpt lat="46.52909" lon="5.31735">
        <ele>210.8</ele>
        <time>2021-11-11T11:43:10Z</time>
      </trkpt>
      <trkpt lat="46.52926" lon="5.31749">
        <ele>210.6</ele>
        <time>2021-11-11T11:43:13Z</time>
      </trkpt>
      <trkpt lat="46.52966" lon="5.31781">
        <ele>210.4</ele>
        <time>2021-11-11T11:43:20Z</time>
      </trkpt>
      <trkpt lat="46.52972" lon="5.31783">
        <ele>210.4</ele>
        <time>2021-11-11T11:43:21Z</time>
      </trkpt>
      <trkpt lat="46.52987" lon="5.31783">
        <ele>210.2</ele>
        <time>2021-11-11T11:43:23Z</time>
      </trkpt>
      <trkpt lat="46.53001" lon="5.31777">
        <ele>210.2</ele>
        <time>2021-11-11T11:43:25Z</time>
      </trkpt>
      <trkpt lat="46.53011" lon="5.31766">
        <ele>210.2</ele>
        <time>2021-11-11T11:43:27Z</time>
      </trkpt>
      <trkpt lat="46.5302" lon="5.31742">
        <ele>209.8</ele>
        <time>2021-11-11T11:43:30Z</time>
      </trkpt>
      <trkpt lat="46.53022" lon="5.31734">
        <ele>209.8</ele>
        <time>2021-11-11T11:43:31Z</time>
      </trkpt>
      <trkpt lat="46.53041" lon="5.31681">
        <ele>208.8</ele>
        <time>2021-11-11T11:43:37Z</time>
      </trkpt>
      <trkpt lat="46.53046" lon="5.31672">
        <ele>208.4</ele>
        <time>2021-11-11T11:43:38Z</time>
      </trkpt>
      <trkpt lat="46.53051" lon="5.31663">
        <ele>208.2</ele>
        <time>2021-11-11T11:43:39Z</time>
      </trkpt>
      <trkpt lat="46.53063" lon="5.31648">
        <ele>207.8</ele>
        <time>2021-11-11T11:43:41Z</time>
      </trkpt>
      <trkpt lat="46.5307" lon="5.31643">
        <ele>207.8</ele>
        <time>2021-11-11T11:43:42Z</time>
      </trkpt>
      <trkpt lat="46.53079" lon="5.31639">
        <ele>207.6</ele>
        <time>2021-11-11T11:43:43Z</time>
      </trkpt>
      <trkpt lat="46.53096" lon="5.31632">
        <ele>206.4</ele>
        <time>2021-11-11T11:43:45Z</time>
      </trkpt>
      <trkpt lat="46.53105" lon="5.31628">
        <ele>205.8</ele>
        <time>2021-11-11T11:43:46Z</time>
      </trkpt>
      <trkpt lat="46.53122" lon="5.31622">
        <ele>205</ele>
        <time>2021-11-11T11:43:48Z</time>
      </trkpt>
      <trkpt lat="46.53139" lon="5.31614">
        <ele>203.8</ele>
        <time>2021-11-11T11:43:50Z</time>
      </trkpt>
      <trkpt lat="46.53148" lon="5.3161">
        <ele>203.4</ele>
        <time>2021-11-11T11:43:51Z</time>
      </trkpt>
      <trkpt lat="46.53175" lon="5.31599">
        <ele>202.6</ele>
        <time>2021-11-11T11:43:54Z</time>
      </trkpt>
      <trkpt lat="46.53185" lon="5.31595">
        <ele>201.4</ele>
        <time>2021-11-11T11:43:55Z</time>
      </trkpt>
      <trkpt lat="46.53213" lon="5.31582">
        <ele>200.4</ele>
        <time>2021-11-11T11:43:58Z</time>
      </trkpt>
      <trkpt lat="46.53223" lon="5.31578">
        <ele>200</ele>
        <time>2021-11-11T11:43:59Z</time>
      </trkpt>
      <trkpt lat="46.53251" lon="5.31561">
        <ele>199.2</ele>
        <time>2021-11-11T11:44:02Z</time>
      </trkpt>
      <trkpt lat="46.53269" lon="5.31548">
        <ele>197.8</ele>
        <time>2021-11-11T11:44:04Z</time>
      </trkpt>
      <trkpt lat="46.53287" lon="5.31532">
        <ele>196.6</ele>
        <time>2021-11-11T11:44:06Z</time>
      </trkpt>
      <trkpt lat="46.53312" lon="5.31509">
        <ele>195.4</ele>
        <time>2021-11-11T11:44:09Z</time>
      </trkpt>
      <trkpt lat="46.53328" lon="5.31496">
        <ele>194.2</ele>
        <time>2021-11-11T11:44:11Z</time>
      </trkpt>
      <trkpt lat="46.53343" lon="5.31482">
        <ele>192.8</ele>
        <time>2021-11-11T11:44:13Z</time>
      </trkpt>
      <trkpt lat="46.53364" lon="5.31464">
        <ele>192.2</ele>
        <time>2021-11-11T11:44:16Z</time>
      </trkpt>
      <trkpt lat="46.53375" lon="5.3145">
        <ele>192.2</ele>
        <time>2021-11-11T11:44:18Z</time>
      </trkpt>
      <trkpt lat="46.53384" lon="5.31434">
        <ele>192.2</ele>
        <time>2021-11-11T11:44:20Z</time>
      </trkpt>
      <trkpt lat="46.5341" lon="5.31376">
        <ele>192.4</ele>
        <time>2021-11-11T11:44:27Z</time>
      </trkpt>
      <trkpt lat="46.53435" lon="5.31322">
        <ele>192</ele>
        <time>2021-11-11T11:44:33Z</time>
      </trkpt>
      <trkpt lat="46.53448" lon="5.31294">
        <ele>191.6</ele>
        <time>2021-11-11T11:44:36Z</time>
      </trkpt>
      <trkpt lat="46.53468" lon="5.3125">
        <ele>190.8</ele>
        <time>2021-11-11T11:44:41Z</time>
      </trkpt>
      <trkpt lat="46.53483" lon="5.3121">
        <ele>191</ele>
        <time>2021-11-11T11:44:46Z</time>
      </trkpt>
      <trkpt lat="46.53484" lon="5.31202">
        <ele>191</ele>
        <time>2021-11-11T11:44:47Z</time>
      </trkpt>
      <trkpt lat="46.53491" lon="5.31157">
        <ele>192</ele>
        <time>2021-11-11T11:44:53Z</time>
      </trkpt>
      <trkpt lat="46.53495" lon="5.31136">
        <ele>192.6</ele>
        <time>2021-11-11T11:44:56Z</time>
      </trkpt>
      <trkpt lat="46.53498" lon="5.3113">
        <ele>192.8</ele>
        <time>2021-11-11T11:44:57Z</time>
      </trkpt>
      <trkpt lat="46.53501" lon="5.31124">
        <ele>193</ele>
        <time>2021-11-11T11:44:58Z</time>
      </trkpt>
      <trkpt lat="46.53507" lon="5.31115">
        <ele>193.6</ele>
        <time>2021-11-11T11:45:00Z</time>
      </trkpt>
      <trkpt lat="46.53515" lon="5.31107">
        <ele>194</ele>
        <time>2021-11-11T11:45:02Z</time>
      </trkpt>
      <trkpt lat="46.5352" lon="5.31104">
        <ele>194.2</ele>
        <time>2021-11-11T11:45:03Z</time>
      </trkpt>
      <trkpt lat="46.53538" lon="5.31093">
        <ele>195.2</ele>
        <time>2021-11-11T11:45:07Z</time>
      </trkpt>
      <trkpt lat="46.53558" lon="5.31081">
        <ele>196</ele>
        <time>2021-11-11T11:45:11Z</time>
      </trkpt>
      <trkpt lat="46.53569" lon="5.31075">
        <ele>196.2</ele>
        <time>2021-11-11T11:45:13Z</time>
      </trkpt>
      <trkpt lat="46.5361" lon="5.3105">
        <ele>196.6</ele>
        <time>2021-11-11T11:45:20Z</time>
      </trkpt>
      <trkpt lat="46.53653" lon="5.31026">
        <ele>196.4</ele>
        <time>2021-11-11T11:45:27Z</time>
      </trkpt>
      <trkpt lat="46.53659" lon="5.31025">
        <ele>196.4</ele>
        <time>2021-11-11T11:45:28Z</time>
      </trkpt>
      <trkpt lat="46.53667" lon="5.31024">
        <ele>196.4</ele>
        <time>2021-11-11T11:45:29Z</time>
      </trkpt>
      <trkpt lat="46.53685" lon="5.31027">
        <ele>196.2</ele>
        <time>2021-11-11T11:45:32Z</time>
      </trkpt>
      <trkpt lat="46.5373" lon="5.31033">
        <ele>196</ele>
        <time>2021-11-11T11:45:39Z</time>
      </trkpt>
      <trkpt lat="46.53737" lon="5.31031">
        <ele>196</ele>
        <time>2021-11-11T11:45:40Z</time>
      </trkpt>
      <trkpt lat="46.53786" lon="5.31016">
        <ele>195.4</ele>
        <time>2021-11-11T11:45:47Z</time>
      </trkpt>
      <trkpt lat="46.53792" lon="5.31013">
        <ele>195.2</ele>
        <time>2021-11-11T11:45:48Z</time>
      </trkpt>
      <trkpt lat="46.53806" lon="5.30998">
        <ele>194.6</ele>
        <time>2021-11-11T11:45:50Z</time>
      </trkpt>
      <trkpt lat="46.5382" lon="5.30965">
        <ele>194</ele>
        <time>2021-11-11T11:45:53Z</time>
      </trkpt>
      <trkpt lat="46.53823" lon="5.30957">
        <ele>193.6</ele>
        <time>2021-11-11T11:45:54Z</time>
      </trkpt>
      <trkpt lat="46.53844" lon="5.30906">
        <ele>192.8</ele>
        <time>2021-11-11T11:45:59Z</time>
      </trkpt>
      <trkpt lat="46.53854" lon="5.30881">
        <ele>192.6</ele>
        <time>2021-11-11T11:46:02Z</time>
      </trkpt>
      <trkpt lat="46.53876" lon="5.30826">
        <ele>192.6</ele>
        <time>2021-11-11T11:46:09Z</time>
      </trkpt>
      <trkpt lat="46.53884" lon="5.308">
        <ele>194</ele>
        <time>2021-11-11T11:46:13Z</time>
      </trkpt>
      <trkpt lat="46.53887" lon="5.30787">
        <ele>194.6</ele>
        <time>2021-11-11T11:46:15Z</time>
      </trkpt>
      <trkpt lat="46.53889" lon="5.30775">
        <ele>195</ele>
        <time>2021-11-11T11:46:17Z</time>
      </trkpt>
      <trkpt lat="46.53891" lon="5.30743">
        <ele>196.2</ele>
        <time>2021-11-11T11:46:22Z</time>
      </trkpt>
      <trkpt lat="46.53892" lon="5.30713">
        <ele>197.4</ele>
        <time>2021-11-11T11:46:27Z</time>
      </trkpt>
      <trkpt lat="46.53894" lon="5.30686">
        <ele>198.6</ele>
        <time>2021-11-11T11:46:31Z</time>
      </trkpt>
      <trkpt lat="46.53895" lon="5.3068">
        <ele>198.8</ele>
        <time>2021-11-11T11:46:32Z</time>
      </trkpt>
      <trkpt lat="46.53902" lon="5.30646">
        <ele>199.8</ele>
        <time>2021-11-11T11:46:37Z</time>
      </trkpt>
      <trkpt lat="46.53906" lon="5.30633">
        <ele>200</ele>
        <time>2021-11-11T11:46:39Z</time>
      </trkpt>
      <trkpt lat="46.53923" lon="5.30585">
        <ele>200.6</ele>
        <time>2021-11-11T11:46:47Z</time>
      </trkpt>
      <trkpt lat="46.53926" lon="5.3058">
        <ele>200.8</ele>
        <time>2021-11-11T11:46:48Z</time>
      </trkpt>
      <trkpt lat="46.53929" lon="5.30575">
        <ele>201</ele>
        <time>2021-11-11T11:46:49Z</time>
      </trkpt>
      <trkpt lat="46.53941" lon="5.30556">
        <ele>201.6</ele>
        <time>2021-11-11T11:46:53Z</time>
      </trkpt>
      <trkpt lat="46.53948" lon="5.3055">
        <ele>202</ele>
        <time>2021-11-11T11:46:55Z</time>
      </trkpt>
      <trkpt lat="46.53952" lon="5.30547">
        <ele>202.4</ele>
        <time>2021-11-11T11:46:56Z</time>
      </trkpt>
      <trkpt lat="46.53959" lon="5.30541">
        <ele>202.8</ele>
        <time>2021-11-11T11:46:58Z</time>
      </trkpt>
      <trkpt lat="46.53966" lon="5.30537">
        <ele>203.2</ele>
        <time>2021-11-11T11:47:00Z</time>
      </trkpt>
      <trkpt lat="46.53973" lon="5.30532">
        <ele>203.6</ele>
        <time>2021-11-11T11:47:02Z</time>
      </trkpt>
      <trkpt lat="46.53989" lon="5.30524">
        <ele>204.2</ele>
        <time>2021-11-11T11:47:06Z</time>
      </trkpt>
      <trkpt lat="46.54007" lon="5.30511">
        <ele>205.4</ele>
        <time>2021-11-11T11:47:11Z</time>
      </trkpt>
      <trkpt lat="46.54022" lon="5.30498">
        <ele>205.8</ele>
        <time>2021-11-11T11:47:15Z</time>
      </trkpt>
      <trkpt lat="46.54028" lon="5.3049">
        <ele>206.4</ele>
        <time>2021-11-11T11:47:17Z</time>
      </trkpt>
      <trkpt lat="46.54032" lon="5.30485">
        <ele>206.6</ele>
        <time>2021-11-11T11:47:18Z</time>
      </trkpt>
      <trkpt lat="46.54035" lon="5.3048">
        <ele>206.6</ele>
        <time>2021-11-11T11:47:19Z</time>
      </trkpt>
      <trkpt lat="46.54045" lon="5.30461">
        <ele>207.2</ele>
        <time>2021-11-11T11:47:22Z</time>
      </trkpt>
      <trkpt lat="46.54048" lon="5.30456">
        <ele>207.2</ele>
        <time>2021-11-11T11:47:23Z</time>
      </trkpt>
      <trkpt lat="46.54053" lon="5.30442">
        <ele>207.4</ele>
        <time>2021-11-11T11:47:25Z</time>
      </trkpt>
      <trkpt lat="46.54058" lon="5.3042">
        <ele>207.6</ele>
        <time>2021-11-11T11:47:28Z</time>
      </trkpt>
      <trkpt lat="46.54069" lon="5.30368">
        <ele>207.6</ele>
        <time>2021-11-11T11:47:35Z</time>
      </trkpt>
      <trkpt lat="46.54072" lon="5.3036">
        <ele>207.6</ele>
        <time>2021-11-11T11:47:36Z</time>
      </trkpt>
      <trkpt lat="46.54088" lon="5.30301">
        <ele>208</ele>
        <time>2021-11-11T11:47:44Z</time>
      </trkpt>
      <trkpt lat="46.54101" lon="5.30256">
        <ele>208.2</ele>
        <time>2021-11-11T11:47:50Z</time>
      </trkpt>
      <trkpt lat="46.5412" lon="5.302">
        <ele>208.2</ele>
        <time>2021-11-11T11:47:58Z</time>
      </trkpt>
      <trkpt lat="46.54145" lon="5.30124">
        <ele>208</ele>
        <time>2021-11-11T11:48:08Z</time>
      </trkpt>
      <trkpt lat="46.54148" lon="5.30117">
        <ele>208</ele>
        <time>2021-11-11T11:48:09Z</time>
      </trkpt>
      <trkpt lat="46.54155" lon="5.30107">
        <ele>208</ele>
        <time>2021-11-11T11:48:11Z</time>
      </trkpt>
      <trkpt lat="46.54161" lon="5.30104">
        <ele>207.8</ele>
        <time>2021-11-11T11:48:12Z</time>
      </trkpt>
      <trkpt lat="46.5419" lon="5.30093">
        <ele>207.6</ele>
        <time>2021-11-11T11:48:17Z</time>
      </trkpt>
      <trkpt lat="46.54202" lon="5.30092">
        <ele>207.6</ele>
        <time>2021-11-11T11:48:19Z</time>
      </trkpt>
      <trkpt lat="46.54226" lon="5.30093">
        <ele>207.6</ele>
        <time>2021-11-11T11:48:23Z</time>
      </trkpt>
      <trkpt lat="46.54238" lon="5.30094">
        <ele>207.4</ele>
        <time>2021-11-11T11:48:25Z</time>
      </trkpt>
      <trkpt lat="46.54247" lon="5.30087">
        <ele>207.4</ele>
        <time>2021-11-11T11:48:27Z</time>
      </trkpt>
      <trkpt lat="46.54249" lon="5.30079">
        <ele>207.4</ele>
        <time>2021-11-11T11:48:28Z</time>
      </trkpt>
      <trkpt lat="46.54257" lon="5.3004">
        <ele>207</ele>
        <time>2021-11-11T11:48:32Z</time>
      </trkpt>
      <trkpt lat="46.5427" lon="5.29986">
        <ele>206.2</ele>
        <time>2021-11-11T11:48:37Z</time>
      </trkpt>
      <trkpt lat="46.54277" lon="5.29966">
        <ele>205.4</ele>
        <time>2021-11-11T11:48:39Z</time>
      </trkpt>
      <trkpt lat="46.54285" lon="5.29946">
        <ele>205.2</ele>
        <time>2021-11-11T11:48:41Z</time>
      </trkpt>
      <trkpt lat="46.54304" lon="5.29898">
        <ele>204</ele>
        <time>2021-11-11T11:48:46Z</time>
      </trkpt>
      <trkpt lat="46.54308" lon="5.29888">
        <ele>203.8</ele>
        <time>2021-11-11T11:48:47Z</time>
      </trkpt>
      <trkpt lat="46.54324" lon="5.2985">
        <ele>203</ele>
        <time>2021-11-11T11:48:51Z</time>
      </trkpt>
      <trkpt lat="46.54337" lon="5.29812">
        <ele>202</ele>
        <time>2021-11-11T11:48:55Z</time>
      </trkpt>
      <trkpt lat="46.5434" lon="5.29804">
        <ele>202</ele>
        <time>2021-11-11T11:48:56Z</time>
      </trkpt>
      <trkpt lat="46.54347" lon="5.29789">
        <ele>201.2</ele>
        <time>2021-11-11T11:48:58Z</time>
      </trkpt>
      <trkpt lat="46.5435" lon="5.29785">
        <ele>201</ele>
        <time>2021-11-11T11:48:59Z</time>
      </trkpt>
      <trkpt lat="46.54352" lon="5.29783">
        <ele>200.6</ele>
        <time>2021-11-11T11:49:00Z</time>
      </trkpt>
      <trkpt lat="46.54351" lon="5.29781">
        <ele>200.4</ele>
        <time>2021-11-11T11:49:01Z</time>
      </trkpt>
      <trkpt lat="46.54345" lon="5.29789">
        <ele>199.8</ele>
        <time>2021-11-11T11:49:05Z</time>
      </trkpt>
      <trkpt lat="46.54342" lon="5.29791">
        <ele>199.8</ele>
        <time>2021-11-11T11:49:06Z</time>
      </trkpt>
      <trkpt lat="46.54335" lon="5.2979">
        <ele>199.6</ele>
        <time>2021-11-11T11:49:08Z</time>
      </trkpt>
      <trkpt lat="46.54328" lon="5.29779">
        <ele>199.6</ele>
        <time>2021-11-11T11:49:10Z</time>
      </trkpt>
      <trkpt lat="46.54325" lon="5.29772">
        <ele>199.6</ele>
        <time>2021-11-11T11:49:11Z</time>
      </trkpt>
      <trkpt lat="46.54309" lon="5.2974">
        <ele>199</ele>
        <time>2021-11-11T11:49:15Z</time>
      </trkpt>
      <trkpt lat="46.54294" lon="5.29713">
        <ele>198.2</ele>
        <time>2021-11-11T11:49:18Z</time>
      </trkpt>
      <trkpt lat="46.54284" lon="5.29695">
        <ele>197.6</ele>
        <time>2021-11-11T11:49:20Z</time>
      </trkpt>
      <trkpt lat="46.54268" lon="5.29667">
        <ele>197</ele>
        <time>2021-11-11T11:49:23Z</time>
      </trkpt>
      <trkpt lat="46.54253" lon="5.29638">
        <ele>196</ele>
        <time>2021-11-11T11:49:26Z</time>
      </trkpt>
      <trkpt lat="46.54247" lon="5.29628">
        <ele>195.6</ele>
        <time>2021-11-11T11:49:27Z</time>
      </trkpt>
      <trkpt lat="46.54236" lon="5.29606">
        <ele>195</ele>
        <time>2021-11-11T11:49:29Z</time>
      </trkpt>
      <trkpt lat="46.5422" lon="5.29577">
        <ele>193.8</ele>
        <time>2021-11-11T11:49:32Z</time>
      </trkpt>
      <trkpt lat="46.54198" lon="5.29536">
        <ele>192.4</ele>
        <time>2021-11-11T11:49:36Z</time>
      </trkpt>
      <trkpt lat="46.54176" lon="5.29495">
        <ele>190.6</ele>
        <time>2021-11-11T11:49:40Z</time>
      </trkpt>
      <trkpt lat="46.54158" lon="5.29466">
        <ele>189.2</ele>
        <time>2021-11-11T11:49:43Z</time>
      </trkpt>
      <trkpt lat="46.54151" lon="5.29456">
        <ele>189</ele>
        <time>2021-11-11T11:49:44Z</time>
      </trkpt>
      <trkpt lat="46.54129" lon="5.29432">
        <ele>188</ele>
        <time>2021-11-11T11:49:47Z</time>
      </trkpt>
      <trkpt lat="46.54107" lon="5.29411">
        <ele>187</ele>
        <time>2021-11-11T11:49:50Z</time>
      </trkpt>
      <trkpt lat="46.541" lon="5.29404">
        <ele>187</ele>
        <time>2021-11-11T11:49:51Z</time>
      </trkpt>
      <trkpt lat="46.54078" lon="5.2938">
        <ele>186.4</ele>
        <time>2021-11-11T11:49:54Z</time>
      </trkpt>
      <trkpt lat="46.54068" lon="5.29363">
        <ele>186.2</ele>
        <time>2021-11-11T11:49:56Z</time>
      </trkpt>
      <trkpt lat="46.54061" lon="5.29344">
        <ele>185.6</ele>
        <time>2021-11-11T11:49:58Z</time>
      </trkpt>
      <trkpt lat="46.54057" lon="5.29323">
        <ele>185.4</ele>
        <time>2021-11-11T11:50:00Z</time>
      </trkpt>
      <trkpt lat="46.54054" lon="5.29268">
        <ele>184.8</ele>
        <time>2021-11-11T11:50:05Z</time>
      </trkpt>
      <trkpt lat="46.54054" lon="5.29247">
        <ele>184.6</ele>
        <time>2021-11-11T11:50:07Z</time>
      </trkpt>
      <trkpt lat="46.54053" lon="5.29184">
        <ele>184.2</ele>
        <time>2021-11-11T11:50:13Z</time>
      </trkpt>
      <trkpt lat="46.54055" lon="5.29128">
        <ele>184.4</ele>
        <time>2021-11-11T11:50:19Z</time>
      </trkpt>
      <trkpt lat="46.5406" lon="5.29106">
        <ele>185</ele>
        <time>2021-11-11T11:50:22Z</time>
      </trkpt>
      <trkpt lat="46.54065" lon="5.29093">
        <ele>185.4</ele>
        <time>2021-11-11T11:50:24Z</time>
      </trkpt>
      <trkpt lat="46.54072" lon="5.29083">
        <ele>186</ele>
        <time>2021-11-11T11:50:26Z</time>
      </trkpt>
      <trkpt lat="46.5408" lon="5.29077">
        <ele>186.6</ele>
        <time>2021-11-11T11:50:28Z</time>
      </trkpt>
      <trkpt lat="46.54093" lon="5.2907">
        <ele>187.2</ele>
        <time>2021-11-11T11:50:31Z</time>
      </trkpt>
      <trkpt lat="46.541" lon="5.29063">
        <ele>187.8</ele>
        <time>2021-11-11T11:50:33Z</time>
      </trkpt>
      <trkpt lat="46.54104" lon="5.29053">
        <ele>188.4</ele>
        <time>2021-11-11T11:50:35Z</time>
      </trkpt>
      <trkpt lat="46.54104" lon="5.29047">
        <ele>188.8</ele>
        <time>2021-11-11T11:50:36Z</time>
      </trkpt>
      <trkpt lat="46.54103" lon="5.2903">
        <ele>189.8</ele>
        <time>2021-11-11T11:50:39Z</time>
      </trkpt>
      <trkpt lat="46.54104" lon="5.29024">
        <ele>190</ele>
        <time>2021-11-11T11:50:40Z</time>
      </trkpt>
      <trkpt lat="46.54105" lon="5.29018">
        <ele>190.4</ele>
        <time>2021-11-11T11:50:41Z</time>
      </trkpt>
      <trkpt lat="46.54108" lon="5.29013">
        <ele>190.4</ele>
        <time>2021-11-11T11:50:42Z</time>
      </trkpt>
      <trkpt lat="46.54117" lon="5.28999">
        <ele>190.8</ele>
        <time>2021-11-11T11:50:45Z</time>
      </trkpt>
      <trkpt lat="46.54135" lon="5.28974">
        <ele>191.8</ele>
        <time>2021-11-11T11:50:51Z</time>
      </trkpt>
      <trkpt lat="46.54138" lon="5.2897">
        <ele>191.8</ele>
        <time>2021-11-11T11:50:52Z</time>
      </trkpt>
      <trkpt lat="46.54155" lon="5.28949">
        <ele>192.8</ele>
        <time>2021-11-11T11:50:57Z</time>
      </trkpt>
      <trkpt lat="46.54162" lon="5.2894">
        <ele>193.2</ele>
        <time>2021-11-11T11:50:59Z</time>
      </trkpt>
      <trkpt lat="46.54164" lon="5.28936">
        <ele>193.6</ele>
        <time>2021-11-11T11:51:00Z</time>
      </trkpt>
      <trkpt lat="46.54167" lon="5.28931">
        <ele>193.8</ele>
        <time>2021-11-11T11:51:01Z</time>
      </trkpt>
      <trkpt lat="46.54178" lon="5.28909">
        <ele>194.8</ele>
        <time>2021-11-11T11:51:05Z</time>
      </trkpt>
      <trkpt lat="46.54182" lon="5.28897">
        <ele>195.4</ele>
        <time>2021-11-11T11:51:07Z</time>
      </trkpt>
      <trkpt lat="46.54186" lon="5.28878">
        <ele>195.8</ele>
        <time>2021-11-11T11:51:10Z</time>
      </trkpt>
      <trkpt lat="46.54197" lon="5.28843">
        <ele>196.8</ele>
        <time>2021-11-11T11:51:16Z</time>
      </trkpt>
      <trkpt lat="46.54201" lon="5.28833">
        <ele>197.2</ele>
        <time>2021-11-11T11:51:18Z</time>
      </trkpt>
      <trkpt lat="46.54213" lon="5.28802">
        <ele>198.2</ele>
        <time>2021-11-11T11:51:24Z</time>
      </trkpt>
      <trkpt lat="46.54214" lon="5.28779">
        <ele>198.8</ele>
        <time>2021-11-11T11:51:28Z</time>
      </trkpt>
      <trkpt lat="46.54208" lon="5.28764">
        <ele>199.2</ele>
        <time>2021-11-11T11:51:31Z</time>
      </trkpt>
      <trkpt lat="46.54202" lon="5.28756">
        <ele>199.6</ele>
        <time>2021-11-11T11:51:33Z</time>
      </trkpt>
      <trkpt lat="46.54189" lon="5.28741">
        <ele>200.4</ele>
        <time>2021-11-11T11:51:37Z</time>
      </trkpt>
      <trkpt lat="46.54176" lon="5.28722">
        <ele>201.2</ele>
        <time>2021-11-11T11:51:41Z</time>
      </trkpt>
      <trkpt lat="46.54174" lon="5.28718">
        <ele>201.4</ele>
        <time>2021-11-11T11:51:42Z</time>
      </trkpt>
      <trkpt lat="46.54143" lon="5.28677">
        <ele>202.2</ele>
        <time>2021-11-11T11:51:51Z</time>
      </trkpt>
      <trkpt lat="46.54137" lon="5.28668">
        <ele>202.2</ele>
        <time>2021-11-11T11:51:53Z</time>
      </trkpt>
      <trkpt lat="46.54137" lon="5.28657">
        <ele>202.2</ele>
        <time>2021-11-11T11:51:55Z</time>
      </trkpt>
      <trkpt lat="46.54144" lon="5.2865">
        <ele>202.2</ele>
        <time>2021-11-11T11:51:57Z</time>
      </trkpt>
      <trkpt lat="46.54149" lon="5.28649">
        <ele>202</ele>
        <time>2021-11-11T11:51:58Z</time>
      </trkpt>
      <trkpt lat="46.54177" lon="5.28641">
        <ele>201.6</ele>
        <time>2021-11-11T11:52:02Z</time>
      </trkpt>
      <trkpt lat="46.54209" lon="5.28624">
        <ele>200.2</ele>
        <time>2021-11-11T11:52:06Z</time>
      </trkpt>
      <trkpt lat="46.54217" lon="5.28619">
        <ele>200</ele>
        <time>2021-11-11T11:52:07Z</time>
      </trkpt>
      <trkpt lat="46.54233" lon="5.28607">
        <ele>199</ele>
        <time>2021-11-11T11:52:09Z</time>
      </trkpt>
      <trkpt lat="46.54258" lon="5.28589">
        <ele>197.6</ele>
        <time>2021-11-11T11:52:12Z</time>
      </trkpt>
      <trkpt lat="46.54267" lon="5.28583">
        <ele>197</ele>
        <time>2021-11-11T11:52:13Z</time>
      </trkpt>
      <trkpt lat="46.54275" lon="5.28577">
        <ele>196.4</ele>
        <time>2021-11-11T11:52:14Z</time>
      </trkpt>
      <trkpt lat="46.54301" lon="5.28558">
        <ele>195.2</ele>
        <time>2021-11-11T11:52:17Z</time>
      </trkpt>
      <trkpt lat="46.54327" lon="5.28539">
        <ele>194.2</ele>
        <time>2021-11-11T11:52:20Z</time>
      </trkpt>
      <trkpt lat="46.54353" lon="5.28519">
        <ele>192.6</ele>
        <time>2021-11-11T11:52:23Z</time>
      </trkpt>
      <trkpt lat="46.54379" lon="5.28499">
        <ele>191.4</ele>
        <time>2021-11-11T11:52:26Z</time>
      </trkpt>
      <trkpt lat="46.54395" lon="5.28486">
        <ele>190.4</ele>
        <time>2021-11-11T11:52:28Z</time>
      </trkpt>
      <trkpt lat="46.54419" lon="5.28466">
        <ele>189.4</ele>
        <time>2021-11-11T11:52:31Z</time>
      </trkpt>
      <trkpt lat="46.54427" lon="5.2846">
        <ele>189</ele>
        <time>2021-11-11T11:52:32Z</time>
      </trkpt>
      <trkpt lat="46.54444" lon="5.28452">
        <ele>188.6</ele>
        <time>2021-11-11T11:52:34Z</time>
      </trkpt>
      <trkpt lat="46.54455" lon="5.28451">
        <ele>188.4</ele>
        <time>2021-11-11T11:52:35Z</time>
      </trkpt>
      <trkpt lat="46.54505" lon="5.28453">
        <ele>187.8</ele>
        <time>2021-11-11T11:52:41Z</time>
      </trkpt>
      <trkpt lat="46.54546" lon="5.28449">
        <ele>187.4</ele>
        <time>2021-11-11T11:52:46Z</time>
      </trkpt>
      <trkpt lat="46.54554" lon="5.2845">
        <ele>187.4</ele>
        <time>2021-11-11T11:52:47Z</time>
      </trkpt>
      <trkpt lat="46.54583" lon="5.28458">
        <ele>187.4</ele>
        <time>2021-11-11T11:52:51Z</time>
      </trkpt>
      <trkpt lat="46.54623" lon="5.28456">
        <ele>187.6</ele>
        <time>2021-11-11T11:52:57Z</time>
      </trkpt>
      <trkpt lat="46.54665" lon="5.28444">
        <ele>188.4</ele>
        <time>2021-11-11T11:53:04Z</time>
      </trkpt>
      <trkpt lat="46.54684" lon="5.28433">
        <ele>189</ele>
        <time>2021-11-11T11:53:08Z</time>
      </trkpt>
      <trkpt lat="46.54695" lon="5.28425">
        <ele>189.2</ele>
        <time>2021-11-11T11:53:10Z</time>
      </trkpt>
      <trkpt lat="46.54701" lon="5.28422">
        <ele>189.4</ele>
        <time>2021-11-11T11:53:11Z</time>
      </trkpt>
      <trkpt lat="46.54738" lon="5.28407">
        <ele>190.8</ele>
        <time>2021-11-11T11:53:18Z</time>
      </trkpt>
      <trkpt lat="46.54748" lon="5.28401">
        <ele>191</ele>
        <time>2021-11-11T11:53:20Z</time>
      </trkpt>
      <trkpt lat="46.54759" lon="5.28391">
        <ele>191.8</ele>
        <time>2021-11-11T11:53:23Z</time>
      </trkpt>
      <trkpt lat="46.54784" lon="5.28364">
        <ele>193</ele>
        <time>2021-11-11T11:53:29Z</time>
      </trkpt>
      <trkpt lat="46.54789" lon="5.28361">
        <ele>193</ele>
        <time>2021-11-11T11:53:30Z</time>
      </trkpt>
      <trkpt lat="46.54794" lon="5.28361">
        <ele>193.4</ele>
        <time>2021-11-11T11:53:31Z</time>
      </trkpt>
      <trkpt lat="46.54804" lon="5.28365">
        <ele>193.6</ele>
        <time>2021-11-11T11:53:33Z</time>
      </trkpt>
      <trkpt lat="46.54812" lon="5.28371">
        <ele>193.6</ele>
        <time>2021-11-11T11:53:35Z</time>
      </trkpt>
      <trkpt lat="46.5482" lon="5.28377">
        <ele>193.8</ele>
        <time>2021-11-11T11:53:37Z</time>
      </trkpt>
      <trkpt lat="46.54825" lon="5.2838">
        <ele>193.8</ele>
        <time>2021-11-11T11:53:38Z</time>
      </trkpt>
      <trkpt lat="46.54857" lon="5.284">
        <ele>193.4</ele>
        <time>2021-11-11T11:53:43Z</time>
      </trkpt>
      <trkpt lat="46.54897" lon="5.28432">
        <ele>191.8</ele>
        <time>2021-11-11T11:53:49Z</time>
      </trkpt>
      <trkpt lat="46.54917" lon="5.28446">
        <ele>190.8</ele>
        <time>2021-11-11T11:53:52Z</time>
      </trkpt>
      <trkpt lat="46.54926" lon="5.28449">
        <ele>190.6</ele>
        <time>2021-11-11T11:53:53Z</time>
      </trkpt>
      <trkpt lat="46.54932" lon="5.2845">
        <ele>190.4</ele>
        <time>2021-11-11T11:53:54Z</time>
      </trkpt>
      <trkpt lat="46.54954" lon="5.28446">
        <ele>190</ele>
        <time>2021-11-11T11:53:57Z</time>
      </trkpt>
      <trkpt lat="46.54962" lon="5.28443">
        <ele>190</ele>
        <time>2021-11-11T11:53:58Z</time>
      </trkpt>
      <trkpt lat="46.55001" lon="5.28418">
        <ele>189.8</ele>
        <time>2021-11-11T11:54:04Z</time>
      </trkpt>
      <trkpt lat="46.55036" lon="5.28401">
        <ele>189.6</ele>
        <time>2021-11-11T11:54:09Z</time>
      </trkpt>
      <trkpt lat="46.55043" lon="5.28398">
        <ele>189.6</ele>
        <time>2021-11-11T11:54:10Z</time>
      </trkpt>
      <trkpt lat="46.55093" lon="5.28383">
        <ele>189.2</ele>
        <time>2021-11-11T11:54:17Z</time>
      </trkpt>
      <trkpt lat="46.5513" lon="5.2839">
        <ele>189</ele>
        <time>2021-11-11T11:54:22Z</time>
      </trkpt>
      <trkpt lat="46.55184" lon="5.28413">
        <ele>189</ele>
        <time>2021-11-11T11:54:30Z</time>
      </trkpt>
      <trkpt lat="46.55191" lon="5.28416">
        <ele>189</ele>
        <time>2021-11-11T11:54:31Z</time>
      </trkpt>
      <trkpt lat="46.55227" lon="5.28427">
        <ele>188.8</ele>
        <time>2021-11-11T11:54:36Z</time>
      </trkpt>
      <trkpt lat="46.55235" lon="5.28428">
        <ele>188.8</ele>
        <time>2021-11-11T11:54:37Z</time>
      </trkpt>
      <trkpt lat="46.55246" lon="5.28427">
        <ele>188.8</ele>
        <time>2021-11-11T11:54:38Z</time>
      </trkpt>
      <trkpt lat="46.55252" lon="5.28424">
        <ele>188.2</ele>
        <time>2021-11-11T11:54:39Z</time>
      </trkpt>
      <trkpt lat="46.5526" lon="5.28419">
        <ele>188</ele>
        <time>2021-11-11T11:54:40Z</time>
      </trkpt>
      <trkpt lat="46.55286" lon="5.28384">
        <ele>186.8</ele>
        <time>2021-11-11T11:54:44Z</time>
      </trkpt>
      <trkpt lat="46.55307" lon="5.28344">
        <ele>185.6</ele>
        <time>2021-11-11T11:54:48Z</time>
      </trkpt>
      <trkpt lat="46.55335" lon="5.28296">
        <ele>184.4</ele>
        <time>2021-11-11T11:54:53Z</time>
      </trkpt>
      <trkpt lat="46.5534" lon="5.28286">
        <ele>184.4</ele>
        <time>2021-11-11T11:54:54Z</time>
      </trkpt>
      <trkpt lat="46.55365" lon="5.28252">
        <ele>183.4</ele>
        <time>2021-11-11T11:54:58Z</time>
      </trkpt>
      <trkpt lat="46.55371" lon="5.28245">
        <ele>183.4</ele>
        <time>2021-11-11T11:54:59Z</time>
      </trkpt>
      <trkpt lat="46.55421" lon="5.28202">
        <ele>182.4</ele>
        <time>2021-11-11T11:55:06Z</time>
      </trkpt>
      <trkpt lat="46.55428" lon="5.28197">
        <ele>182.2</ele>
        <time>2021-11-11T11:55:07Z</time>
      </trkpt>
      <trkpt lat="46.55453" lon="5.28174">
        <ele>182</ele>
        <time>2021-11-11T11:55:11Z</time>
      </trkpt>
      <trkpt lat="46.55458" lon="5.28166">
        <ele>181.8</ele>
        <time>2021-11-11T11:55:12Z</time>
      </trkpt>
      <trkpt lat="46.55462" lon="5.28157">
        <ele>181.8</ele>
        <time>2021-11-11T11:55:13Z</time>
      </trkpt>
      <trkpt lat="46.55467" lon="5.28138">
        <ele>181.6</ele>
        <time>2021-11-11T11:55:15Z</time>
      </trkpt>
      <trkpt lat="46.55473" lon="5.28108">
        <ele>181.6</ele>
        <time>2021-11-11T11:55:18Z</time>
      </trkpt>
      <trkpt lat="46.55481" lon="5.28092">
        <ele>181.4</ele>
        <time>2021-11-11T11:55:20Z</time>
      </trkpt>
      <trkpt lat="46.55498" lon="5.28073">
        <ele>181.4</ele>
        <time>2021-11-11T11:55:23Z</time>
      </trkpt>
      <trkpt lat="46.55507" lon="5.28059">
        <ele>181.4</ele>
        <time>2021-11-11T11:55:25Z</time>
      </trkpt>
      <trkpt lat="46.55537" lon="5.28019">
        <ele>181.6</ele>
        <time>2021-11-11T11:55:31Z</time>
      </trkpt>
      <trkpt lat="46.55543" lon="5.28014">
        <ele>181.6</ele>
        <time>2021-11-11T11:55:32Z</time>
      </trkpt>
      <trkpt lat="46.55575" lon="5.27996">
        <ele>181.6</ele>
        <time>2021-11-11T11:55:37Z</time>
      </trkpt>
      <trkpt lat="46.55618" lon="5.27961">
        <ele>181.6</ele>
        <time>2021-11-11T11:55:44Z</time>
      </trkpt>
      <trkpt lat="46.55653" lon="5.2793">
        <ele>181.6</ele>
        <time>2021-11-11T11:55:50Z</time>
      </trkpt>
      <trkpt lat="46.55659" lon="5.27927">
        <ele>181.6</ele>
        <time>2021-11-11T11:55:51Z</time>
      </trkpt>
      <trkpt lat="46.55666" lon="5.27926">
        <ele>181.6</ele>
        <time>2021-11-11T11:55:52Z</time>
      </trkpt>
      <trkpt lat="46.55677" lon="5.27933">
        <ele>181.6</ele>
        <time>2021-11-11T11:55:54Z</time>
      </trkpt>
      <trkpt lat="46.55686" lon="5.27945">
        <ele>181.6</ele>
        <time>2021-11-11T11:55:56Z</time>
      </trkpt>
      <trkpt lat="46.5569" lon="5.27952">
        <ele>181.8</ele>
        <time>2021-11-11T11:55:57Z</time>
      </trkpt>
      <trkpt lat="46.55723" lon="5.28018">
        <ele>182.2</ele>
        <time>2021-11-11T11:56:06Z</time>
      </trkpt>
      <trkpt lat="46.55753" lon="5.28077">
        <ele>182.6</ele>
        <time>2021-11-11T11:56:14Z</time>
      </trkpt>
      <trkpt lat="46.55781" lon="5.28134">
        <ele>182.8</ele>
        <time>2021-11-11T11:56:22Z</time>
      </trkpt>
      <trkpt lat="46.5579" lon="5.28153">
        <ele>183</ele>
        <time>2021-11-11T11:56:25Z</time>
      </trkpt>
      <trkpt lat="46.55796" lon="5.28163">
        <ele>183</ele>
        <time>2021-11-11T11:56:27Z</time>
      </trkpt>
      <trkpt lat="46.55807" lon="5.28164">
        <ele>183.2</ele>
        <time>2021-11-11T11:56:30Z</time>
      </trkpt>
      <trkpt lat="46.55811" lon="5.28162">
        <ele>183.4</ele>
        <time>2021-11-11T11:56:31Z</time>
      </trkpt>
      <trkpt lat="46.55828" lon="5.28156">
        <ele>183.8</ele>
        <time>2021-11-11T11:56:34Z</time>
      </trkpt>
      <trkpt lat="46.55857" lon="5.28157">
        <ele>184.6</ele>
        <time>2021-11-11T11:56:39Z</time>
      </trkpt>
      <trkpt lat="46.55886" lon="5.28173">
        <ele>184.8</ele>
        <time>2021-11-11T11:56:44Z</time>
      </trkpt>
      <trkpt lat="46.55892" lon="5.28178">
        <ele>184.8</ele>
        <time>2021-11-11T11:56:45Z</time>
      </trkpt>
      <trkpt lat="46.55913" lon="5.28202">
        <ele>184.8</ele>
        <time>2021-11-11T11:56:49Z</time>
      </trkpt>
      <trkpt lat="46.55924" lon="5.28214">
        <ele>184.6</ele>
        <time>2021-11-11T11:56:51Z</time>
      </trkpt>
      <trkpt lat="46.55936" lon="5.28222">
        <ele>184.4</ele>
        <time>2021-11-11T11:56:53Z</time>
      </trkpt>
      <trkpt lat="46.55943" lon="5.28224">
        <ele>184.4</ele>
        <time>2021-11-11T11:56:54Z</time>
      </trkpt>
      <trkpt lat="46.55999" lon="5.28229">
        <ele>183.6</ele>
        <time>2021-11-11T11:57:02Z</time>
      </trkpt>
      <trkpt lat="46.56013" lon="5.28229">
        <ele>183.4</ele>
        <time>2021-11-11T11:57:04Z</time>
      </trkpt>
      <trkpt lat="46.5604" lon="5.28224">
        <ele>183.2</ele>
        <time>2021-11-11T11:57:08Z</time>
      </trkpt>
      <trkpt lat="46.56046" lon="5.28223">
        <ele>183.2</ele>
        <time>2021-11-11T11:57:09Z</time>
      </trkpt>
      <trkpt lat="46.56071" lon="5.28219">
        <ele>183.2</ele>
        <time>2021-11-11T11:57:13Z</time>
      </trkpt>
      <trkpt lat="46.56111" lon="5.28215">
        <ele>183.8</ele>
        <time>2021-11-11T11:57:20Z</time>
      </trkpt>
      <trkpt lat="46.56143" lon="5.2821">
        <ele>184.4</ele>
        <time>2021-11-11T11:57:26Z</time>
      </trkpt>
      <trkpt lat="46.56148" lon="5.28208">
        <ele>184.8</ele>
        <time>2021-11-11T11:57:27Z</time>
      </trkpt>
      <trkpt lat="46.56153" lon="5.28205">
        <ele>184.8</ele>
        <time>2021-11-11T11:57:28Z</time>
      </trkpt>
      <trkpt lat="46.56158" lon="5.28202">
        <ele>185</ele>
        <time>2021-11-11T11:57:29Z</time>
      </trkpt>
      <trkpt lat="46.56167" lon="5.28194">
        <ele>185.4</ele>
        <time>2021-11-11T11:57:31Z</time>
      </trkpt>
      <trkpt lat="46.5617" lon="5.28189">
        <ele>185.4</ele>
        <time>2021-11-11T11:57:32Z</time>
      </trkpt>
      <trkpt lat="46.56174" lon="5.28184">
        <ele>185.4</ele>
        <time>2021-11-11T11:57:33Z</time>
      </trkpt>
      <trkpt lat="46.56177" lon="5.28178">
        <ele>185.8</ele>
        <time>2021-11-11T11:57:34Z</time>
      </trkpt>
      <trkpt lat="46.5618" lon="5.28172">
        <ele>186</ele>
        <time>2021-11-11T11:57:35Z</time>
      </trkpt>
      <trkpt lat="46.56184" lon="5.2816">
        <ele>186.2</ele>
        <time>2021-11-11T11:57:37Z</time>
      </trkpt>
      <trkpt lat="46.56192" lon="5.28142">
        <ele>186.6</ele>
        <time>2021-11-11T11:57:40Z</time>
      </trkpt>
      <trkpt lat="46.56195" lon="5.28137">
        <ele>186.8</ele>
        <time>2021-11-11T11:57:41Z</time>
      </trkpt>
      <trkpt lat="46.56198" lon="5.28131">
        <ele>187</ele>
        <time>2021-11-11T11:57:42Z</time>
      </trkpt>
      <trkpt lat="46.56202" lon="5.28126">
        <ele>187.2</ele>
        <time>2021-11-11T11:57:43Z</time>
      </trkpt>
      <trkpt lat="46.56207" lon="5.28122">
        <ele>187.4</ele>
        <time>2021-11-11T11:57:44Z</time>
      </trkpt>
      <trkpt lat="46.56226" lon="5.28106">
        <ele>187.8</ele>
        <time>2021-11-11T11:57:48Z</time>
      </trkpt>
      <trkpt lat="46.56231" lon="5.28103">
        <ele>188</ele>
        <time>2021-11-11T11:57:49Z</time>
      </trkpt>
      <trkpt lat="46.56258" lon="5.28079">
        <ele>188.8</ele>
        <time>2021-11-11T11:57:55Z</time>
      </trkpt>
      <trkpt lat="46.56266" lon="5.28071">
        <ele>189</ele>
        <time>2021-11-11T11:57:57Z</time>
      </trkpt>
      <trkpt lat="46.56276" lon="5.28056">
        <ele>189.4</ele>
        <time>2021-11-11T11:58:00Z</time>
      </trkpt>
      <trkpt lat="46.56286" lon="5.28037">
        <ele>190</ele>
        <time>2021-11-11T11:58:03Z</time>
      </trkpt>
      <trkpt lat="46.56294" lon="5.28024">
        <ele>190</ele>
        <time>2021-11-11T11:58:05Z</time>
      </trkpt>
      <trkpt lat="46.56323" lon="5.2798">
        <ele>189.6</ele>
        <time>2021-11-11T11:58:11Z</time>
      </trkpt>
      <trkpt lat="46.56338" lon="5.27959">
        <ele>189</ele>
        <time>2021-11-11T11:58:14Z</time>
      </trkpt>
      <trkpt lat="46.56362" lon="5.27932">
        <ele>188.4</ele>
        <time>2021-11-11T11:58:18Z</time>
      </trkpt>
      <trkpt lat="46.56381" lon="5.27915">
        <ele>187.6</ele>
        <time>2021-11-11T11:58:21Z</time>
      </trkpt>
      <trkpt lat="46.56413" lon="5.27886">
        <ele>186.6</ele>
        <time>2021-11-11T11:58:26Z</time>
      </trkpt>
      <trkpt lat="46.56427" lon="5.27874">
        <ele>186.2</ele>
        <time>2021-11-11T11:58:28Z</time>
      </trkpt>
      <trkpt lat="46.56461" lon="5.27842">
        <ele>185.2</ele>
        <time>2021-11-11T11:58:33Z</time>
      </trkpt>
      <trkpt lat="46.56491" lon="5.27817">
        <ele>184.6</ele>
        <time>2021-11-11T11:58:37Z</time>
      </trkpt>
      <trkpt lat="46.56521" lon="5.27794">
        <ele>183.8</ele>
        <time>2021-11-11T11:58:41Z</time>
      </trkpt>
      <trkpt lat="46.56559" lon="5.2777">
        <ele>182.8</ele>
        <time>2021-11-11T11:58:46Z</time>
      </trkpt>
      <trkpt lat="46.56591" lon="5.2775">
        <ele>182.6</ele>
        <time>2021-11-11T11:58:51Z</time>
      </trkpt>
      <trkpt lat="46.56603" lon="5.27739">
        <ele>182.8</ele>
        <time>2021-11-11T11:58:53Z</time>
      </trkpt>
      <trkpt lat="46.56613" lon="5.27726">
        <ele>182.8</ele>
        <time>2021-11-11T11:58:55Z</time>
      </trkpt>
      <trkpt lat="46.56635" lon="5.2768">
        <ele>183.2</ele>
        <time>2021-11-11T11:59:01Z</time>
      </trkpt>
      <trkpt lat="46.56644" lon="5.27648">
        <ele>184</ele>
        <time>2021-11-11T11:59:05Z</time>
      </trkpt>
      <trkpt lat="46.56648" lon="5.27632">
        <ele>184.4</ele>
        <time>2021-11-11T11:59:07Z</time>
      </trkpt>
      <trkpt lat="46.56655" lon="5.27603">
        <ele>185</ele>
        <time>2021-11-11T11:59:11Z</time>
      </trkpt>
      <trkpt lat="46.56659" lon="5.27582">
        <ele>185.4</ele>
        <time>2021-11-11T11:59:14Z</time>
      </trkpt>
      <trkpt lat="46.56661" lon="5.27576">
        <ele>185.6</ele>
        <time>2021-11-11T11:59:15Z</time>
      </trkpt>
      <trkpt lat="46.56667" lon="5.27557">
        <ele>186</ele>
        <time>2021-11-11T11:59:18Z</time>
      </trkpt>
      <trkpt lat="46.56668" lon="5.2755">
        <ele>186.2</ele>
        <time>2021-11-11T11:59:19Z</time>
      </trkpt>
      <trkpt lat="46.5667" lon="5.27544">
        <ele>186.4</ele>
        <time>2021-11-11T11:59:20Z</time>
      </trkpt>
      <trkpt lat="46.56675" lon="5.27526">
        <ele>187.2</ele>
        <time>2021-11-11T11:59:23Z</time>
      </trkpt>
      <trkpt lat="46.56677" lon="5.27521">
        <ele>187.4</ele>
        <time>2021-11-11T11:59:24Z</time>
      </trkpt>
      <trkpt lat="46.56682" lon="5.27504">
        <ele>188.2</ele>
        <time>2021-11-11T11:59:27Z</time>
      </trkpt>
      <trkpt lat="46.56688" lon="5.27484">
        <ele>189.4</ele>
        <time>2021-11-11T11:59:31Z</time>
      </trkpt>
      <trkpt lat="46.5669" lon="5.27479">
        <ele>190</ele>
        <time>2021-11-11T11:59:32Z</time>
      </trkpt>
      <trkpt lat="46.56694" lon="5.27471">
        <ele>190.6</ele>
        <time>2021-11-11T11:59:34Z</time>
      </trkpt>
      <trkpt lat="46.567" lon="5.27455">
        <ele>191.8</ele>
        <time>2021-11-11T11:59:38Z</time>
      </trkpt>
      <trkpt lat="46.56704" lon="5.27439">
        <ele>192.8</ele>
        <time>2021-11-11T11:59:42Z</time>
      </trkpt>
      <trkpt lat="46.56705" lon="5.27435">
        <ele>193.2</ele>
        <time>2021-11-11T11:59:43Z</time>
      </trkpt>
      <trkpt lat="46.56708" lon="5.27428">
        <ele>194</ele>
        <time>2021-11-11T11:59:45Z</time>
      </trkpt>
      <trkpt lat="46.56713" lon="5.27412">
        <ele>194.6</ele>
        <time>2021-11-11T11:59:49Z</time>
      </trkpt>
      <trkpt lat="46.56713" lon="5.27408">
        <ele>195.4</ele>
        <time>2021-11-11T11:59:50Z</time>
      </trkpt>
      <trkpt lat="46.56719" lon="5.2739">
        <ele>196.6</ele>
        <time>2021-11-11T11:59:54Z</time>
      </trkpt>
      <trkpt lat="46.5672" lon="5.27382">
        <ele>197.2</ele>
        <time>2021-11-11T11:59:56Z</time>
      </trkpt>
      <trkpt lat="46.56723" lon="5.27373">
        <ele>197.6</ele>
        <time>2021-11-11T11:59:58Z</time>
      </trkpt>
      <trkpt lat="46.56727" lon="5.27361">
        <ele>198.6</ele>
        <time>2021-11-11T12:00:01Z</time>
      </trkpt>
      <trkpt lat="46.56729" lon="5.27351">
        <ele>199.2</ele>
        <time>2021-11-11T12:00:03Z</time>
      </trkpt>
      <trkpt lat="46.56732" lon="5.27334">
        <ele>199.8</ele>
        <time>2021-11-11T12:00:06Z</time>
      </trkpt>
      <trkpt lat="46.56737" lon="5.27304">
        <ele>201</ele>
        <time>2021-11-11T12:00:11Z</time>
      </trkpt>
      <trkpt lat="46.56745" lon="5.27268">
        <ele>201.6</ele>
        <time>2021-11-11T12:00:17Z</time>
      </trkpt>
      <trkpt lat="46.56754" lon="5.27219">
        <ele>201.2</ele>
        <time>2021-11-11T12:00:23Z</time>
      </trkpt>
      <trkpt lat="46.56764" lon="5.27184">
        <ele>201</ele>
        <time>2021-11-11T12:00:27Z</time>
      </trkpt>
      <trkpt lat="46.56771" lon="5.27166">
        <ele>200.8</ele>
        <time>2021-11-11T12:00:29Z</time>
      </trkpt>
      <trkpt lat="46.56777" lon="5.27148">
        <ele>200.4</ele>
        <time>2021-11-11T12:00:31Z</time>
      </trkpt>
      <trkpt lat="46.56788" lon="5.2712">
        <ele>199.8</ele>
        <time>2021-11-11T12:00:34Z</time>
      </trkpt>
      <trkpt lat="46.56807" lon="5.27072">
        <ele>198.8</ele>
        <time>2021-11-11T12:00:39Z</time>
      </trkpt>
      <trkpt lat="46.56814" lon="5.27053">
        <ele>198.6</ele>
        <time>2021-11-11T12:00:41Z</time>
      </trkpt>
      <trkpt lat="46.56843" lon="5.26983">
        <ele>198.2</ele>
        <time>2021-11-11T12:00:49Z</time>
      </trkpt>
      <trkpt lat="46.56865" lon="5.26927">
        <ele>198.4</ele>
        <time>2021-11-11T12:00:56Z</time>
      </trkpt>
      <trkpt lat="46.56872" lon="5.26914">
        <ele>198.8</ele>
        <time>2021-11-11T12:00:58Z</time>
      </trkpt>
      <trkpt lat="46.56893" lon="5.26874">
        <ele>199.6</ele>
        <time>2021-11-11T12:01:04Z</time>
      </trkpt>
      <trkpt lat="46.56899" lon="5.26859">
        <ele>199.8</ele>
        <time>2021-11-11T12:01:06Z</time>
      </trkpt>
      <trkpt lat="46.56916" lon="5.26819">
        <ele>200.8</ele>
        <time>2021-11-11T12:01:12Z</time>
      </trkpt>
      <trkpt lat="46.56924" lon="5.26798">
        <ele>201.4</ele>
        <time>2021-11-11T12:01:15Z</time>
      </trkpt>
      <trkpt lat="46.56932" lon="5.26775">
        <ele>201.8</ele>
        <time>2021-11-11T12:01:18Z</time>
      </trkpt>
      <trkpt lat="46.5694" lon="5.26741">
        <ele>202.2</ele>
        <time>2021-11-11T12:01:22Z</time>
      </trkpt>
      <trkpt lat="46.56951" lon="5.26693">
        <ele>202.2</ele>
        <time>2021-11-11T12:01:27Z</time>
      </trkpt>
      <trkpt lat="46.56959" lon="5.26674">
        <ele>202.2</ele>
        <time>2021-11-11T12:01:29Z</time>
      </trkpt>
      <trkpt lat="46.5697" lon="5.26655">
        <ele>201.8</ele>
        <time>2021-11-11T12:01:31Z</time>
      </trkpt>
      <trkpt lat="46.56982" lon="5.26637">
        <ele>200.8</ele>
        <time>2021-11-11T12:01:33Z</time>
      </trkpt>
      <trkpt lat="46.57" lon="5.26609">
        <ele>199.4</ele>
        <time>2021-11-11T12:01:36Z</time>
      </trkpt>
      <trkpt lat="46.57011" lon="5.26588">
        <ele>198.4</ele>
        <time>2021-11-11T12:01:38Z</time>
      </trkpt>
      <trkpt lat="46.57021" lon="5.26566">
        <ele>197</ele>
        <time>2021-11-11T12:01:40Z</time>
      </trkpt>
      <trkpt lat="46.57035" lon="5.26531">
        <ele>196</ele>
        <time>2021-11-11T12:01:43Z</time>
      </trkpt>
      <trkpt lat="46.5704" lon="5.2652">
        <ele>195.4</ele>
        <time>2021-11-11T12:01:44Z</time>
      </trkpt>
      <trkpt lat="46.57045" lon="5.26509">
        <ele>194.6</ele>
        <time>2021-11-11T12:01:45Z</time>
      </trkpt>
      <trkpt lat="46.57059" lon="5.26475">
        <ele>193.6</ele>
        <time>2021-11-11T12:01:48Z</time>
      </trkpt>
      <trkpt lat="46.57077" lon="5.26433">
        <ele>192.6</ele>
        <time>2021-11-11T12:01:52Z</time>
      </trkpt>
      <trkpt lat="46.57082" lon="5.26424">
        <ele>192.4</ele>
        <time>2021-11-11T12:01:53Z</time>
      </trkpt>
      <trkpt lat="46.57099" lon="5.26391">
        <ele>192.4</ele>
        <time>2021-11-11T12:01:57Z</time>
      </trkpt>
      <trkpt lat="46.57108" lon="5.26377">
        <ele>192.2</ele>
        <time>2021-11-11T12:01:59Z</time>
      </trkpt>
      <trkpt lat="46.57121" lon="5.26361">
        <ele>192.4</ele>
        <time>2021-11-11T12:02:02Z</time>
      </trkpt>
      <trkpt lat="46.57137" lon="5.26345">
        <ele>193.8</ele>
        <time>2021-11-11T12:02:06Z</time>
      </trkpt>
      <trkpt lat="46.57145" lon="5.26338">
        <ele>194.4</ele>
        <time>2021-11-11T12:02:08Z</time>
      </trkpt>
      <trkpt lat="46.57152" lon="5.26331">
        <ele>194.6</ele>
        <time>2021-11-11T12:02:10Z</time>
      </trkpt>
      <trkpt lat="46.57159" lon="5.26324">
        <ele>195</ele>
        <time>2021-11-11T12:02:12Z</time>
      </trkpt>
      <trkpt lat="46.57166" lon="5.26318">
        <ele>195.4</ele>
        <time>2021-11-11T12:02:14Z</time>
      </trkpt>
      <trkpt lat="46.57169" lon="5.26315">
        <ele>196</ele>
        <time>2021-11-11T12:02:15Z</time>
      </trkpt>
      <trkpt lat="46.57173" lon="5.26312">
        <ele>196.4</ele>
        <time>2021-11-11T12:02:16Z</time>
      </trkpt>
      <trkpt lat="46.57183" lon="5.26301">
        <ele>197.4</ele>
        <time>2021-11-11T12:02:19Z</time>
      </trkpt>
      <trkpt lat="46.57186" lon="5.26297">
        <ele>197.6</ele>
        <time>2021-11-11T12:02:20Z</time>
      </trkpt>
      <trkpt lat="46.57198" lon="5.2628">
        <ele>198.8</ele>
        <time>2021-11-11T12:02:24Z</time>
      </trkpt>
      <trkpt lat="46.57215" lon="5.26262">
        <ele>200</ele>
        <time>2021-11-11T12:02:29Z</time>
      </trkpt>
      <trkpt lat="46.57228" lon="5.26246">
        <ele>201</ele>
        <time>2021-11-11T12:02:33Z</time>
      </trkpt>
      <trkpt lat="46.57238" lon="5.26233">
        <ele>201.6</ele>
        <time>2021-11-11T12:02:36Z</time>
      </trkpt>
      <trkpt lat="46.57246" lon="5.26226">
        <ele>202.2</ele>
        <time>2021-11-11T12:02:38Z</time>
      </trkpt>
      <trkpt lat="46.5726" lon="5.26213">
        <ele>203.2</ele>
        <time>2021-11-11T12:02:42Z</time>
      </trkpt>
      <trkpt lat="46.57271" lon="5.26203">
        <ele>203.6</ele>
        <time>2021-11-11T12:02:45Z</time>
      </trkpt>
      <trkpt lat="46.57283" lon="5.2619">
        <ele>204.4</ele>
        <time>2021-11-11T12:02:48Z</time>
      </trkpt>
      <trkpt lat="46.57299" lon="5.26173">
        <ele>205.2</ele>
        <time>2021-11-11T12:02:52Z</time>
      </trkpt>
      <trkpt lat="46.57311" lon="5.2616">
        <ele>205.4</ele>
        <time>2021-11-11T12:02:55Z</time>
      </trkpt>
      <trkpt lat="46.57331" lon="5.26137">
        <ele>205.6</ele>
        <time>2021-11-11T12:03:00Z</time>
      </trkpt>
      <trkpt lat="46.57362" lon="5.26104">
        <ele>206</ele>
        <time>2021-11-11T12:03:07Z</time>
      </trkpt>
      <trkpt lat="46.57405" lon="5.26058">
        <ele>205.8</ele>
        <time>2021-11-11T12:03:16Z</time>
      </trkpt>
      <trkpt lat="46.57452" lon="5.26006">
        <ele>205.2</ele>
        <time>2021-11-11T12:03:25Z</time>
      </trkpt>
      <trkpt lat="46.57461" lon="5.25989">
        <ele>204.8</ele>
        <time>2021-11-11T12:03:27Z</time>
      </trkpt>
      <trkpt lat="46.57469" lon="5.25968">
        <ele>204.4</ele>
        <time>2021-11-11T12:03:29Z</time>
      </trkpt>
      <trkpt lat="46.57472" lon="5.25957">
        <ele>204</ele>
        <time>2021-11-11T12:03:30Z</time>
      </trkpt>
      <trkpt lat="46.57482" lon="5.25907">
        <ele>202.8</ele>
        <time>2021-11-11T12:03:34Z</time>
      </trkpt>
      <trkpt lat="46.57486" lon="5.25882">
        <ele>201.8</ele>
        <time>2021-11-11T12:03:36Z</time>
      </trkpt>
      <trkpt lat="46.57492" lon="5.25844">
        <ele>200.6</ele>
        <time>2021-11-11T12:03:39Z</time>
      </trkpt>
      <trkpt lat="46.57495" lon="5.25832">
        <ele>200.4</ele>
        <time>2021-11-11T12:03:40Z</time>
      </trkpt>
      <trkpt lat="46.57506" lon="5.25785">
        <ele>199.6</ele>
        <time>2021-11-11T12:03:44Z</time>
      </trkpt>
      <trkpt lat="46.57513" lon="5.25763">
        <ele>199.2</ele>
        <time>2021-11-11T12:03:46Z</time>
      </trkpt>
      <trkpt lat="46.57532" lon="5.25711">
        <ele>198.4</ele>
        <time>2021-11-11T12:03:51Z</time>
      </trkpt>
      <trkpt lat="46.57543" lon="5.25681">
        <ele>197.8</ele>
        <time>2021-11-11T12:03:54Z</time>
      </trkpt>
      <trkpt lat="46.57564" lon="5.25624">
        <ele>197.2</ele>
        <time>2021-11-11T12:04:00Z</time>
      </trkpt>
      <trkpt lat="46.57571" lon="5.25607">
        <ele>197.2</ele>
        <time>2021-11-11T12:04:02Z</time>
      </trkpt>
      <trkpt lat="46.57579" lon="5.25582">
        <ele>197</ele>
        <time>2021-11-11T12:04:05Z</time>
      </trkpt>
      <trkpt lat="46.57581" lon="5.25572">
        <ele>197</ele>
        <time>2021-11-11T12:04:06Z</time>
      </trkpt>
      <trkpt lat="46.57581" lon="5.25562">
        <ele>196.8</ele>
        <time>2021-11-11T12:04:07Z</time>
      </trkpt>
      <trkpt lat="46.5758" lon="5.25538">
        <ele>196.6</ele>
        <time>2021-11-11T12:04:09Z</time>
      </trkpt>
      <trkpt lat="46.57578" lon="5.25513">
        <ele>196.2</ele>
        <time>2021-11-11T12:04:11Z</time>
      </trkpt>
      <trkpt lat="46.57576" lon="5.25471">
        <ele>194.8</ele>
        <time>2021-11-11T12:04:14Z</time>
      </trkpt>
      <trkpt lat="46.57574" lon="5.25441">
        <ele>193.4</ele>
        <time>2021-11-11T12:04:16Z</time>
      </trkpt>
      <trkpt lat="46.57572" lon="5.25409">
        <ele>192</ele>
        <time>2021-11-11T12:04:18Z</time>
      </trkpt>
      <trkpt lat="46.57571" lon="5.25393">
        <ele>191.4</ele>
        <time>2021-11-11T12:04:19Z</time>
      </trkpt>
      <trkpt lat="46.57571" lon="5.25377">
        <ele>191.2</ele>
        <time>2021-11-11T12:04:20Z</time>
      </trkpt>
      <trkpt lat="46.57573" lon="5.25362">
        <ele>190.2</ele>
        <time>2021-11-11T12:04:21Z</time>
      </trkpt>
      <trkpt lat="46.57577" lon="5.25348">
        <ele>189.2</ele>
        <time>2021-11-11T12:04:22Z</time>
      </trkpt>
      <trkpt lat="46.5759" lon="5.25327">
        <ele>187.8</ele>
        <time>2021-11-11T12:04:24Z</time>
      </trkpt>
      <trkpt lat="46.57606" lon="5.25314">
        <ele>186.6</ele>
        <time>2021-11-11T12:04:26Z</time>
      </trkpt>
      <trkpt lat="46.57622" lon="5.253">
        <ele>185.8</ele>
        <time>2021-11-11T12:04:28Z</time>
      </trkpt>
      <trkpt lat="46.57639" lon="5.25286">
        <ele>185.4</ele>
        <time>2021-11-11T12:04:30Z</time>
      </trkpt>
      <trkpt lat="46.57679" lon="5.25252">
        <ele>184.2</ele>
        <time>2021-11-11T12:04:35Z</time>
      </trkpt>
      <trkpt lat="46.57695" lon="5.25239">
        <ele>184</ele>
        <time>2021-11-11T12:04:37Z</time>
      </trkpt>
      <trkpt lat="46.57733" lon="5.25208">
        <ele>183</ele>
        <time>2021-11-11T12:04:42Z</time>
      </trkpt>
      <trkpt lat="46.57761" lon="5.25184">
        <ele>182.4</ele>
        <time>2021-11-11T12:04:46Z</time>
      </trkpt>
      <trkpt lat="46.57808" lon="5.25148">
        <ele>182.2</ele>
        <time>2021-11-11T12:04:53Z</time>
      </trkpt>
      <trkpt lat="46.57842" lon="5.25133">
        <ele>182.2</ele>
        <time>2021-11-11T12:04:58Z</time>
      </trkpt>
      <trkpt lat="46.57849" lon="5.25132">
        <ele>182.2</ele>
        <time>2021-11-11T12:04:59Z</time>
      </trkpt>
      <trkpt lat="46.57876" lon="5.25134">
        <ele>182.4</ele>
        <time>2021-11-11T12:05:03Z</time>
      </trkpt>
      <trkpt lat="46.57926" lon="5.25143">
        <ele>182.6</ele>
        <time>2021-11-11T12:05:11Z</time>
      </trkpt>
      <trkpt lat="46.57949" lon="5.25146">
        <ele>182.8</ele>
        <time>2021-11-11T12:05:15Z</time>
      </trkpt>
      <trkpt lat="46.57959" lon="5.25143">
        <ele>183</ele>
        <time>2021-11-11T12:05:17Z</time>
      </trkpt>
      <trkpt lat="46.57968" lon="5.25134">
        <ele>183.2</ele>
        <time>2021-11-11T12:05:19Z</time>
      </trkpt>
      <trkpt lat="46.5797" lon="5.25127">
        <ele>183.4</ele>
        <time>2021-11-11T12:05:20Z</time>
      </trkpt>
      <trkpt lat="46.57972" lon="5.25121">
        <ele>183.4</ele>
        <time>2021-11-11T12:05:21Z</time>
      </trkpt>
      <trkpt lat="46.57976" lon="5.25108">
        <ele>183.6</ele>
        <time>2021-11-11T12:05:23Z</time>
      </trkpt>
      <trkpt lat="46.57979" lon="5.25103">
        <ele>183.6</ele>
        <time>2021-11-11T12:05:24Z</time>
      </trkpt>
      <trkpt lat="46.57983" lon="5.25099">
        <ele>183.8</ele>
        <time>2021-11-11T12:05:25Z</time>
      </trkpt>
      <trkpt lat="46.57993" lon="5.25096">
        <ele>183.8</ele>
        <time>2021-11-11T12:05:27Z</time>
      </trkpt>
      <trkpt lat="46.58028" lon="5.25094">
        <ele>183.6</ele>
        <time>2021-11-11T12:05:32Z</time>
      </trkpt>
      <trkpt lat="46.58082" lon="5.25097">
        <ele>183.6</ele>
        <time>2021-11-11T12:05:40Z</time>
      </trkpt>
      <trkpt lat="46.58133" lon="5.25099">
        <ele>183.8</ele>
        <time>2021-11-11T12:05:48Z</time>
      </trkpt>
      <trkpt lat="46.58171" lon="5.25095">
        <ele>184</ele>
        <time>2021-11-11T12:05:54Z</time>
      </trkpt>
      <trkpt lat="46.58184" lon="5.25092">
        <ele>184</ele>
        <time>2021-11-11T12:05:56Z</time>
      </trkpt>
      <trkpt lat="46.58241" lon="5.2507">
        <ele>184</ele>
        <time>2021-11-11T12:06:05Z</time>
      </trkpt>
      <trkpt lat="46.58295" lon="5.25049">
        <ele>183.4</ele>
        <time>2021-11-11T12:06:13Z</time>
      </trkpt>
      <trkpt lat="46.58302" lon="5.25046">
        <ele>183.2</ele>
        <time>2021-11-11T12:06:14Z</time>
      </trkpt>
      <trkpt lat="46.58316" lon="5.2504">
        <ele>183</ele>
        <time>2021-11-11T12:06:16Z</time>
      </trkpt>
      <trkpt lat="46.58369" lon="5.25017">
        <ele>182</ele>
        <time>2021-11-11T12:06:24Z</time>
      </trkpt>
      <trkpt lat="46.58388" lon="5.2501">
        <ele>182</ele>
        <time>2021-11-11T12:06:27Z</time>
      </trkpt>
      <trkpt lat="46.58423" lon="5.24995">
        <ele>182.4</ele>
        <time>2021-11-11T12:06:33Z</time>
      </trkpt>
      <trkpt lat="46.5846" lon="5.24979">
        <ele>183</ele>
        <time>2021-11-11T12:06:40Z</time>
      </trkpt>
      <trkpt lat="46.58465" lon="5.24977">
        <ele>183.2</ele>
        <time>2021-11-11T12:06:41Z</time>
      </trkpt>
      <trkpt lat="46.5849" lon="5.24966">
        <ele>184.2</ele>
        <time>2021-11-11T12:06:46Z</time>
      </trkpt>
      <trkpt lat="46.58512" lon="5.24957">
        <ele>185</ele>
        <time>2021-11-11T12:06:51Z</time>
      </trkpt>
      <trkpt lat="46.58516" lon="5.24955">
        <ele>185.2</ele>
        <time>2021-11-11T12:06:52Z</time>
      </trkpt>
      <trkpt lat="46.58534" lon="5.24948">
        <ele>186.4</ele>
        <time>2021-11-11T12:06:56Z</time>
      </trkpt>
      <trkpt lat="46.58555" lon="5.2494">
        <ele>187.2</ele>
        <time>2021-11-11T12:07:01Z</time>
      </trkpt>
      <trkpt lat="46.58559" lon="5.24939">
        <ele>187.6</ele>
        <time>2021-11-11T12:07:02Z</time>
      </trkpt>
      <trkpt lat="46.58579" lon="5.2493">
        <ele>188.6</ele>
        <time>2021-11-11T12:07:07Z</time>
      </trkpt>
      <trkpt lat="46.58586" lon="5.24926">
        <ele>189</ele>
        <time>2021-11-11T12:07:09Z</time>
      </trkpt>
      <trkpt lat="46.58601" lon="5.2492">
        <ele>190</ele>
        <time>2021-11-11T12:07:13Z</time>
      </trkpt>
      <trkpt lat="46.58624" lon="5.24911">
        <ele>191.2</ele>
        <time>2021-11-11T12:07:19Z</time>
      </trkpt>
      <trkpt lat="46.5864" lon="5.24904">
        <ele>192.4</ele>
        <time>2021-11-11T12:07:23Z</time>
      </trkpt>
      <trkpt lat="46.58659" lon="5.24896">
        <ele>193</ele>
        <time>2021-11-11T12:07:28Z</time>
      </trkpt>
      <trkpt lat="46.58666" lon="5.24893">
        <ele>193.8</ele>
        <time>2021-11-11T12:07:30Z</time>
      </trkpt>
      <trkpt lat="46.58681" lon="5.24887">
        <ele>194.8</ele>
        <time>2021-11-11T12:07:34Z</time>
      </trkpt>
      <trkpt lat="46.58703" lon="5.24878">
        <ele>196</ele>
        <time>2021-11-11T12:07:40Z</time>
      </trkpt>
      <trkpt lat="46.58707" lon="5.24876">
        <ele>196.2</ele>
        <time>2021-11-11T12:07:41Z</time>
      </trkpt>
      <trkpt lat="46.58719" lon="5.24871">
        <ele>197</ele>
        <time>2021-11-11T12:07:44Z</time>
      </trkpt>
      <trkpt lat="46.58738" lon="5.24863">
        <ele>198</ele>
        <time>2021-11-11T12:07:49Z</time>
      </trkpt>
      <trkpt lat="46.5875" lon="5.24859">
        <ele>198.8</ele>
        <time>2021-11-11T12:07:52Z</time>
      </trkpt>
      <trkpt lat="46.58757" lon="5.24856">
        <ele>199.2</ele>
        <time>2021-11-11T12:07:54Z</time>
      </trkpt>
      <trkpt lat="46.5878" lon="5.24847">
        <ele>200.2</ele>
        <time>2021-11-11T12:08:00Z</time>
      </trkpt>
      <trkpt lat="46.58792" lon="5.24841">
        <ele>200.8</ele>
        <time>2021-11-11T12:08:03Z</time>
      </trkpt>
      <trkpt lat="46.58805" lon="5.24835">
        <ele>201.4</ele>
        <time>2021-11-11T12:08:06Z</time>
      </trkpt>
      <trkpt lat="46.58815" lon="5.24831">
        <ele>201.6</ele>
        <time>2021-11-11T12:08:08Z</time>
      </trkpt>
      <trkpt lat="46.58828" lon="5.24825">
        <ele>202</ele>
        <time>2021-11-11T12:08:11Z</time>
      </trkpt>
      <trkpt lat="46.58852" lon="5.24815">
        <ele>202.4</ele>
        <time>2021-11-11T12:08:16Z</time>
      </trkpt>
      <trkpt lat="46.58868" lon="5.24809">
        <ele>202.6</ele>
        <time>2021-11-11T12:08:19Z</time>
      </trkpt>
      <trkpt lat="46.58872" lon="5.24807">
        <ele>202.8</ele>
        <time>2021-11-11T12:08:20Z</time>
      </trkpt>
      <trkpt lat="46.58922" lon="5.24786">
        <ele>203</ele>
        <time>2021-11-11T12:08:29Z</time>
      </trkpt>
      <trkpt lat="46.58955" lon="5.24772">
        <ele>203</ele>
        <time>2021-11-11T12:08:35Z</time>
      </trkpt>
      <trkpt lat="46.58973" lon="5.24764">
        <ele>203</ele>
        <time>2021-11-11T12:08:38Z</time>
      </trkpt>
      <trkpt lat="46.58995" lon="5.24753">
        <ele>203</ele>
        <time>2021-11-11T12:08:42Z</time>
      </trkpt>
      <trkpt lat="46.59003" lon="5.24743">
        <ele>203</ele>
        <time>2021-11-11T12:08:44Z</time>
      </trkpt>
      <trkpt lat="46.59007" lon="5.24726">
        <ele>203</ele>
        <time>2021-11-11T12:08:46Z</time>
      </trkpt>
      <trkpt lat="46.59008" lon="5.24715">
        <ele>203</ele>
        <time>2021-11-11T12:08:47Z</time>
      </trkpt>
      <trkpt lat="46.59006" lon="5.24641">
        <ele>202.8</ele>
        <time>2021-11-11T12:08:55Z</time>
      </trkpt>
      <trkpt lat="46.58996" lon="5.24577">
        <ele>202.6</ele>
        <time>2021-11-11T12:09:02Z</time>
      </trkpt>
      <trkpt lat="46.58975" lon="5.245">
        <ele>202.2</ele>
        <time>2021-11-11T12:09:10Z</time>
      </trkpt>
      <trkpt lat="46.58964" lon="5.24463">
        <ele>201.6</ele>
        <time>2021-11-11T12:09:14Z</time>
      </trkpt>
      <trkpt lat="46.58962" lon="5.24442">
        <ele>201.4</ele>
        <time>2021-11-11T12:09:16Z</time>
      </trkpt>
      <trkpt lat="46.58965" lon="5.24387">
        <ele>200.2</ele>
        <time>2021-11-11T12:09:21Z</time>
      </trkpt>
      <trkpt lat="46.58966" lon="5.24376">
        <ele>200.2</ele>
        <time>2021-11-11T12:09:22Z</time>
      </trkpt>
      <trkpt lat="46.58968" lon="5.2431">
        <ele>199.2</ele>
        <time>2021-11-11T12:09:28Z</time>
      </trkpt>
      <trkpt lat="46.58966" lon="5.24298">
        <ele>199.2</ele>
        <time>2021-11-11T12:09:29Z</time>
      </trkpt>
      <trkpt lat="46.58958" lon="5.24259">
        <ele>198.8</ele>
        <time>2021-11-11T12:09:33Z</time>
      </trkpt>
      <trkpt lat="46.58939" lon="5.24181">
        <ele>199.2</ele>
        <time>2021-11-11T12:09:42Z</time>
      </trkpt>
      <trkpt lat="46.58935" lon="5.24158">
        <ele>199.4</ele>
        <time>2021-11-11T12:09:45Z</time>
      </trkpt>
      <trkpt lat="46.58934" lon="5.24142">
        <ele>199.6</ele>
        <time>2021-11-11T12:09:47Z</time>
      </trkpt>
      <trkpt lat="46.58935" lon="5.24132">
        <ele>199.8</ele>
        <time>2021-11-11T12:09:48Z</time>
      </trkpt>
      <trkpt lat="46.58936" lon="5.24125">
        <ele>199.8</ele>
        <time>2021-11-11T12:09:49Z</time>
      </trkpt>
      <trkpt lat="46.58944" lon="5.24096">
        <ele>200</ele>
        <time>2021-11-11T12:09:52Z</time>
      </trkpt>
      <trkpt lat="46.58961" lon="5.24034">
        <ele>199</ele>
        <time>2021-11-11T12:09:58Z</time>
      </trkpt>
      <trkpt lat="46.5897" lon="5.24013">
        <ele>198.2</ele>
        <time>2021-11-11T12:10:00Z</time>
      </trkpt>
      <trkpt lat="46.58977" lon="5.24002">
        <ele>197.6</ele>
        <time>2021-11-11T12:10:01Z</time>
      </trkpt>
      <trkpt lat="46.58983" lon="5.23996">
        <ele>197.4</ele>
        <time>2021-11-11T12:10:02Z</time>
      </trkpt>
      <trkpt lat="46.58999" lon="5.23988">
        <ele>196.6</ele>
        <time>2021-11-11T12:10:04Z</time>
      </trkpt>
      <trkpt lat="46.59027" lon="5.23987">
        <ele>195.4</ele>
        <time>2021-11-11T12:10:07Z</time>
      </trkpt>
      <trkpt lat="46.59041" lon="5.23987">
        <ele>194.8</ele>
        <time>2021-11-11T12:10:09Z</time>
      </trkpt>
      <trkpt lat="46.5909" lon="5.23985">
        <ele>194.6</ele>
        <time>2021-11-11T12:10:16Z</time>
      </trkpt>
      <trkpt lat="46.59144" lon="5.23982">
        <ele>195.2</ele>
        <time>2021-11-11T12:10:24Z</time>
      </trkpt>
      <trkpt lat="46.59152" lon="5.23982">
        <ele>195.2</ele>
        <time>2021-11-11T12:10:25Z</time>
      </trkpt>
      <trkpt lat="46.59209" lon="5.23978">
        <ele>194.8</ele>
        <time>2021-11-11T12:10:33Z</time>
      </trkpt>
      <trkpt lat="46.59217" lon="5.23979">
        <ele>194.8</ele>
        <time>2021-11-11T12:10:34Z</time>
      </trkpt>
      <trkpt lat="46.59241" lon="5.23985">
        <ele>194</ele>
        <time>2021-11-11T12:10:37Z</time>
      </trkpt>
      <trkpt lat="46.5926" lon="5.23992">
        <ele>193</ele>
        <time>2021-11-11T12:10:39Z</time>
      </trkpt>
      <trkpt lat="46.59283" lon="5.24004">
        <ele>191.4</ele>
        <time>2021-11-11T12:10:42Z</time>
      </trkpt>
      <trkpt lat="46.59306" lon="5.24015">
        <ele>190.4</ele>
        <time>2021-11-11T12:10:45Z</time>
      </trkpt>
      <trkpt lat="46.59313" lon="5.24018">
        <ele>190</ele>
        <time>2021-11-11T12:10:46Z</time>
      </trkpt>
      <trkpt lat="46.5934" lon="5.24021">
        <ele>189.6</ele>
        <time>2021-11-11T12:10:50Z</time>
      </trkpt>
      <trkpt lat="46.59351" lon="5.2402">
        <ele>189.8</ele>
        <time>2021-11-11T12:10:52Z</time>
      </trkpt>
      <trkpt lat="46.59357" lon="5.24016">
        <ele>189.8</ele>
        <time>2021-11-11T12:10:54Z</time>
      </trkpt>
      <trkpt lat="46.59361" lon="5.24003">
        <ele>190</ele>
        <time>2021-11-11T12:10:56Z</time>
      </trkpt>
      <trkpt lat="46.59361" lon="5.23994">
        <ele>190</ele>
        <time>2021-11-11T12:10:57Z</time>
      </trkpt>
      <trkpt lat="46.59359" lon="5.23951">
        <ele>190</ele>
        <time>2021-11-11T12:11:01Z</time>
      </trkpt>
      <trkpt lat="46.5936" lon="5.23898">
        <ele>189.6</ele>
        <time>2021-11-11T12:11:06Z</time>
      </trkpt>
      <trkpt lat="46.59362" lon="5.23834">
        <ele>188.8</ele>
        <time>2021-11-11T12:11:12Z</time>
      </trkpt>
      <trkpt lat="46.59361" lon="5.23813">
        <ele>188.6</ele>
        <time>2021-11-11T12:11:14Z</time>
      </trkpt>
      <trkpt lat="46.59358" lon="5.23788">
        <ele>188.2</ele>
        <time>2021-11-11T12:11:16Z</time>
      </trkpt>
      <trkpt lat="46.59354" lon="5.23769">
        <ele>187.4</ele>
        <time>2021-11-11T12:11:18Z</time>
      </trkpt>
      <trkpt lat="46.59351" lon="5.23756">
        <ele>187.2</ele>
        <time>2021-11-11T12:11:19Z</time>
      </trkpt>
      <trkpt lat="46.59342" lon="5.23726">
        <ele>186</ele>
        <time>2021-11-11T12:11:22Z</time>
      </trkpt>
      <trkpt lat="46.59333" lon="5.23694">
        <ele>185</ele>
        <time>2021-11-11T12:11:25Z</time>
      </trkpt>
      <trkpt lat="46.59329" lon="5.23672">
        <ele>184.4</ele>
        <time>2021-11-11T12:11:27Z</time>
      </trkpt>
      <trkpt lat="46.59331" lon="5.23648">
        <ele>183.8</ele>
        <time>2021-11-11T12:11:29Z</time>
      </trkpt>
      <trkpt lat="46.59335" lon="5.23639">
        <ele>183.6</ele>
        <time>2021-11-11T12:11:30Z</time>
      </trkpt>
      <trkpt lat="46.59339" lon="5.23633">
        <ele>183.4</ele>
        <time>2021-11-11T12:11:31Z</time>
      </trkpt>
      <trkpt lat="46.59351" lon="5.23623">
        <ele>183.4</ele>
        <time>2021-11-11T12:11:33Z</time>
      </trkpt>
      <trkpt lat="46.59373" lon="5.2361">
        <ele>183.6</ele>
        <time>2021-11-11T12:11:38Z</time>
      </trkpt>
      <trkpt lat="46.59378" lon="5.23606">
        <ele>183.6</ele>
        <time>2021-11-11T12:11:39Z</time>
      </trkpt>
      <trkpt lat="46.59389" lon="5.23599">
        <ele>184.8</ele>
        <time>2021-11-11T12:11:42Z</time>
      </trkpt>
      <trkpt lat="46.59393" lon="5.23597">
        <ele>185.2</ele>
        <time>2021-11-11T12:11:43Z</time>
      </trkpt>
      <trkpt lat="46.594" lon="5.23594">
        <ele>186</ele>
        <time>2021-11-11T12:11:45Z</time>
      </trkpt>
      <trkpt lat="46.59416" lon="5.2359">
        <ele>187.2</ele>
        <time>2021-11-11T12:11:49Z</time>
      </trkpt>
      <trkpt lat="46.5942" lon="5.23589">
        <ele>187.4</ele>
        <time>2021-11-11T12:11:50Z</time>
      </trkpt>
      <trkpt lat="46.59427" lon="5.23587">
        <ele>188.4</ele>
        <time>2021-11-11T12:11:52Z</time>
      </trkpt>
      <trkpt lat="46.59436" lon="5.23584">
        <ele>189.2</ele>
        <time>2021-11-11T12:11:55Z</time>
      </trkpt>
      <trkpt lat="46.59439" lon="5.23584">
        <ele>189.8</ele>
        <time>2021-11-11T12:11:56Z</time>
      </trkpt>
      <trkpt lat="46.59451" lon="5.23581">
        <ele>190.8</ele>
        <time>2021-11-11T12:12:00Z</time>
      </trkpt>
      <trkpt lat="46.59454" lon="5.2358">
        <ele>191.2</ele>
        <time>2021-11-11T12:12:01Z</time>
      </trkpt>
      <trkpt lat="46.5946" lon="5.23579">
        <ele>192</ele>
        <time>2021-11-11T12:12:03Z</time>
      </trkpt>
      <trkpt lat="46.59472" lon="5.23574">
        <ele>192.8</ele>
        <time>2021-11-11T12:12:07Z</time>
      </trkpt>
      <trkpt lat="46.59475" lon="5.23572">
        <ele>193.2</ele>
        <time>2021-11-11T12:12:08Z</time>
      </trkpt>
      <trkpt lat="46.59484" lon="5.23568">
        <ele>194.2</ele>
        <time>2021-11-11T12:12:11Z</time>
      </trkpt>
      <trkpt lat="46.59497" lon="5.23561">
        <ele>195.2</ele>
        <time>2021-11-11T12:12:15Z</time>
      </trkpt>
      <trkpt lat="46.59513" lon="5.23551">
        <ele>196.4</ele>
        <time>2021-11-11T12:12:19Z</time>
      </trkpt>
      <trkpt lat="46.5952" lon="5.23546">
        <ele>196.8</ele>
        <time>2021-11-11T12:12:21Z</time>
      </trkpt>
      <trkpt lat="46.59536" lon="5.23538">
        <ele>197.4</ele>
        <time>2021-11-11T12:12:25Z</time>
      </trkpt>
      <trkpt lat="46.59546" lon="5.23533">
        <ele>198.4</ele>
        <time>2021-11-11T12:12:28Z</time>
      </trkpt>
      <trkpt lat="46.5955" lon="5.23531">
        <ele>198.6</ele>
        <time>2021-11-11T12:12:29Z</time>
      </trkpt>
      <trkpt lat="46.59563" lon="5.23524">
        <ele>199.6</ele>
        <time>2021-11-11T12:12:33Z</time>
      </trkpt>
      <trkpt lat="46.59579" lon="5.23513">
        <ele>200.4</ele>
        <time>2021-11-11T12:12:38Z</time>
      </trkpt>
      <trkpt lat="46.59583" lon="5.23511">
        <ele>200.6</ele>
        <time>2021-11-11T12:12:39Z</time>
      </trkpt>
      <trkpt lat="46.59602" lon="5.23492">
        <ele>201.6</ele>
        <time>2021-11-11T12:12:45Z</time>
      </trkpt>
      <trkpt lat="46.59606" lon="5.23487">
        <ele>202</ele>
        <time>2021-11-11T12:12:46Z</time>
      </trkpt>
      <trkpt lat="46.59626" lon="5.23459">
        <ele>202.2</ele>
        <time>2021-11-11T12:12:51Z</time>
      </trkpt>
      <trkpt lat="46.59658" lon="5.23413">
        <ele>201.8</ele>
        <time>2021-11-11T12:12:58Z</time>
      </trkpt>
      <trkpt lat="46.59677" lon="5.23387">
        <ele>201.4</ele>
        <time>2021-11-11T12:13:02Z</time>
      </trkpt>
      <trkpt lat="46.59688" lon="5.23372">
        <ele>201.4</ele>
        <time>2021-11-11T12:13:04Z</time>
      </trkpt>
      <trkpt lat="46.59713" lon="5.23336">
        <ele>200.8</ele>
        <time>2021-11-11T12:13:09Z</time>
      </trkpt>
      <trkpt lat="46.59727" lon="5.23316">
        <ele>200.6</ele>
        <time>2021-11-11T12:13:12Z</time>
      </trkpt>
      <trkpt lat="46.59747" lon="5.23288">
        <ele>199.8</ele>
        <time>2021-11-11T12:13:16Z</time>
      </trkpt>
      <trkpt lat="46.59776" lon="5.23245">
        <ele>199.4</ele>
        <time>2021-11-11T12:13:22Z</time>
      </trkpt>
      <trkpt lat="46.59811" lon="5.23198">
        <ele>198.8</ele>
        <time>2021-11-11T12:13:29Z</time>
      </trkpt>
      <trkpt lat="46.59819" lon="5.23184">
        <ele>199</ele>
        <time>2021-11-11T12:13:31Z</time>
      </trkpt>
      <trkpt lat="46.59823" lon="5.23177">
        <ele>198.8</ele>
        <time>2021-11-11T12:13:32Z</time>
      </trkpt>
      <trkpt lat="46.59839" lon="5.23133">
        <ele>198.6</ele>
        <time>2021-11-11T12:13:37Z</time>
      </trkpt>
      <trkpt lat="46.59841" lon="5.23124">
        <ele>198.6</ele>
        <time>2021-11-11T12:13:38Z</time>
      </trkpt>
      <trkpt lat="46.59854" lon="5.23046">
        <ele>198.2</ele>
        <time>2021-11-11T12:13:46Z</time>
      </trkpt>
      <trkpt lat="46.59871" lon="5.2299">
        <ele>198</ele>
        <time>2021-11-11T12:13:52Z</time>
      </trkpt>
      <trkpt lat="46.59899" lon="5.22938">
        <ele>198.4</ele>
        <time>2021-11-11T12:13:59Z</time>
      </trkpt>
      <trkpt lat="46.59929" lon="5.22887">
        <ele>199.2</ele>
        <time>2021-11-11T12:14:07Z</time>
      </trkpt>
      <trkpt lat="46.59947" lon="5.22853">
        <ele>200</ele>
        <time>2021-11-11T12:14:12Z</time>
      </trkpt>
      <trkpt lat="46.59959" lon="5.22832">
        <ele>200.4</ele>
        <time>2021-11-11T12:14:15Z</time>
      </trkpt>
      <trkpt lat="46.59962" lon="5.22825">
        <ele>200.4</ele>
        <time>2021-11-11T12:14:16Z</time>
      </trkpt>
      <trkpt lat="46.59975" lon="5.22794">
        <ele>200.6</ele>
        <time>2021-11-11T12:14:20Z</time>
      </trkpt>
      <trkpt lat="46.59995" lon="5.22744">
        <ele>200.8</ele>
        <time>2021-11-11T12:14:26Z</time>
      </trkpt>
      <trkpt lat="46.60014" lon="5.22678">
        <ele>200.4</ele>
        <time>2021-11-11T12:14:33Z</time>
      </trkpt>
      <trkpt lat="46.60027" lon="5.22612">
        <ele>200.4</ele>
        <time>2021-11-11T12:14:40Z</time>
      </trkpt>
      <trkpt lat="46.60042" lon="5.22554">
        <ele>200.4</ele>
        <time>2021-11-11T12:14:47Z</time>
      </trkpt>
      <trkpt lat="46.60049" lon="5.22529">
        <ele>201</ele>
        <time>2021-11-11T12:14:50Z</time>
      </trkpt>
      <trkpt lat="46.60065" lon="5.22477">
        <ele>201.2</ele>
        <time>2021-11-11T12:14:56Z</time>
      </trkpt>
      <trkpt lat="46.60085" lon="5.22411">
        <ele>201.4</ele>
        <time>2021-11-11T12:15:04Z</time>
      </trkpt>
      <trkpt lat="46.60098" lon="5.22339">
        <ele>201.4</ele>
        <time>2021-11-11T12:15:12Z</time>
      </trkpt>
      <trkpt lat="46.60102" lon="5.22257">
        <ele>201.2</ele>
        <time>2021-11-11T12:15:21Z</time>
      </trkpt>
      <trkpt lat="46.60105" lon="5.22187">
        <ele>201.4</ele>
        <time>2021-11-11T12:15:29Z</time>
      </trkpt>
      <trkpt lat="46.60112" lon="5.22133">
        <ele>201.6</ele>
        <time>2021-11-11T12:15:35Z</time>
      </trkpt>
      <trkpt lat="46.60116" lon="5.22117">
        <ele>201.6</ele>
        <time>2021-11-11T12:15:37Z</time>
      </trkpt>
      <trkpt lat="46.60124" lon="5.22102">
        <ele>201.6</ele>
        <time>2021-11-11T12:15:39Z</time>
      </trkpt>
      <trkpt lat="46.60129" lon="5.22094">
        <ele>201.6</ele>
        <time>2021-11-11T12:15:40Z</time>
      </trkpt>
      <trkpt lat="46.60132" lon="5.22088">
        <ele>201.4</ele>
        <time>2021-11-11T12:15:41Z</time>
      </trkpt>
      <trkpt lat="46.60143" lon="5.22076">
        <ele>201.6</ele>
        <time>2021-11-11T12:15:43Z</time>
      </trkpt>
      <trkpt lat="46.60154" lon="5.22068">
        <ele>201.6</ele>
        <time>2021-11-11T12:15:45Z</time>
      </trkpt>
      <trkpt lat="46.60209" lon="5.22031">
        <ele>201.2</ele>
        <time>2021-11-11T12:15:54Z</time>
      </trkpt>
      <trkpt lat="46.6022" lon="5.22026">
        <ele>201.2</ele>
        <time>2021-11-11T12:15:56Z</time>
      </trkpt>
      <trkpt lat="46.60252" lon="5.22022">
        <ele>201.2</ele>
        <time>2021-11-11T12:16:01Z</time>
      </trkpt>
      <trkpt lat="46.60258" lon="5.22023">
        <ele>201.2</ele>
        <time>2021-11-11T12:16:02Z</time>
      </trkpt>
      <trkpt lat="46.60306" lon="5.22035">
        <ele>201.4</ele>
        <time>2021-11-11T12:16:10Z</time>
      </trkpt>
      <trkpt lat="46.6032" lon="5.22035">
        <ele>201.4</ele>
        <time>2021-11-11T12:16:12Z</time>
      </trkpt>
      <trkpt lat="46.60337" lon="5.2203">
        <ele>201.6</ele>
        <time>2021-11-11T12:16:15Z</time>
      </trkpt>
      <trkpt lat="46.60391" lon="5.22007">
        <ele>201.6</ele>
        <time>2021-11-11T12:16:24Z</time>
      </trkpt>
      <trkpt lat="46.60416" lon="5.21999">
        <ele>201.4</ele>
        <time>2021-11-11T12:16:28Z</time>
      </trkpt>
      <trkpt lat="46.6043" lon="5.21997">
        <ele>201.4</ele>
        <time>2021-11-11T12:16:30Z</time>
      </trkpt>
      <trkpt lat="46.60474" lon="5.22">
        <ele>201.4</ele>
        <time>2021-11-11T12:16:37Z</time>
      </trkpt>
      <trkpt lat="46.60531" lon="5.22006">
        <ele>202</ele>
        <time>2021-11-11T12:16:46Z</time>
      </trkpt>
      <trkpt lat="46.60569" lon="5.22003">
        <ele>202</ele>
        <time>2021-11-11T12:16:52Z</time>
      </trkpt>
      <trkpt lat="46.60628" lon="5.21988">
        <ele>201</ele>
        <time>2021-11-11T12:17:01Z</time>
      </trkpt>
      <trkpt lat="46.60634" lon="5.21986">
        <ele>201</ele>
        <time>2021-11-11T12:17:02Z</time>
      </trkpt>
      <trkpt lat="46.60681" lon="5.21979">
        <ele>200.8</ele>
        <time>2021-11-11T12:17:09Z</time>
      </trkpt>
      <trkpt lat="46.60736" lon="5.21982">
        <ele>200.4</ele>
        <time>2021-11-11T12:17:17Z</time>
      </trkpt>
      <trkpt lat="46.60742" lon="5.21983">
        <ele>200.2</ele>
        <time>2021-11-11T12:17:18Z</time>
      </trkpt>
      <trkpt lat="46.60801" lon="5.21988">
        <ele>199.4</ele>
        <time>2021-11-11T12:17:27Z</time>
      </trkpt>
      <trkpt lat="46.60806" lon="5.21988">
        <ele>199.4</ele>
        <time>2021-11-11T12:17:28Z</time>
      </trkpt>
      <trkpt lat="46.60821" lon="5.21989">
        <ele>199.2</ele>
        <time>2021-11-11T12:17:30Z</time>
      </trkpt>
      <trkpt lat="46.60832" lon="5.21991">
        <ele>199</ele>
        <time>2021-11-11T12:17:32Z</time>
      </trkpt>
      <trkpt lat="46.60854" lon="5.21996">
        <ele>199</ele>
        <time>2021-11-11T12:17:35Z</time>
      </trkpt>
      <trkpt lat="46.60893" lon="5.22009">
        <ele>198.4</ele>
        <time>2021-11-11T12:17:41Z</time>
      </trkpt>
      <trkpt lat="46.60911" lon="5.22021">
        <ele>198.2</ele>
        <time>2021-11-11T12:17:44Z</time>
      </trkpt>
      <trkpt lat="46.60926" lon="5.22037">
        <ele>198</ele>
        <time>2021-11-11T12:17:47Z</time>
      </trkpt>
      <trkpt lat="46.6096" lon="5.22086">
        <ele>197.8</ele>
        <time>2021-11-11T12:17:54Z</time>
      </trkpt>
      <trkpt lat="46.61004" lon="5.22145">
        <ele>197.2</ele>
        <time>2021-11-11T12:18:03Z</time>
      </trkpt>
      <trkpt lat="46.61039" lon="5.22172">
        <ele>197.2</ele>
        <time>2021-11-11T12:18:09Z</time>
      </trkpt>
      <trkpt lat="46.61078" lon="5.22184">
        <ele>197.2</ele>
        <time>2021-11-11T12:18:15Z</time>
      </trkpt>
      <trkpt lat="46.61137" lon="5.22192">
        <ele>196.6</ele>
        <time>2021-11-11T12:18:24Z</time>
      </trkpt>
      <trkpt lat="46.61196" lon="5.22201">
        <ele>196.2</ele>
        <time>2021-11-11T12:18:33Z</time>
      </trkpt>
      <trkpt lat="46.61204" lon="5.22203">
        <ele>196.2</ele>
        <time>2021-11-11T12:18:34Z</time>
      </trkpt>
      <trkpt lat="46.61211" lon="5.22205">
        <ele>196</ele>
        <time>2021-11-11T12:18:35Z</time>
      </trkpt>
      <trkpt lat="46.61267" lon="5.22231">
        <ele>195.6</ele>
        <time>2021-11-11T12:18:44Z</time>
      </trkpt>
      <trkpt lat="46.61309" lon="5.22267">
        <ele>195</ele>
        <time>2021-11-11T12:18:51Z</time>
      </trkpt>
      <trkpt lat="46.61329" lon="5.22285">
        <ele>194.8</ele>
        <time>2021-11-11T12:18:54Z</time>
      </trkpt>
      <trkpt lat="46.61353" lon="5.22308">
        <ele>194</ele>
        <time>2021-11-11T12:18:58Z</time>
      </trkpt>
      <trkpt lat="46.61371" lon="5.22324">
        <ele>193.6</ele>
        <time>2021-11-11T12:19:01Z</time>
      </trkpt>
      <trkpt lat="46.61392" lon="5.22343">
        <ele>192.8</ele>
        <time>2021-11-11T12:19:04Z</time>
      </trkpt>
      <trkpt lat="46.61414" lon="5.22361">
        <ele>191.8</ele>
        <time>2021-11-11T12:19:07Z</time>
      </trkpt>
      <trkpt lat="46.61422" lon="5.22366">
        <ele>191.2</ele>
        <time>2021-11-11T12:19:08Z</time>
      </trkpt>
      <trkpt lat="46.61437" lon="5.2237">
        <ele>190.6</ele>
        <time>2021-11-11T12:19:10Z</time>
      </trkpt>
      <trkpt lat="46.61446" lon="5.22369">
        <ele>190</ele>
        <time>2021-11-11T12:19:11Z</time>
      </trkpt>
      <trkpt lat="46.61462" lon="5.22363">
        <ele>189.4</ele>
        <time>2021-11-11T12:19:13Z</time>
      </trkpt>
      <trkpt lat="46.61485" lon="5.22352">
        <ele>188</ele>
        <time>2021-11-11T12:19:16Z</time>
      </trkpt>
      <trkpt lat="46.61513" lon="5.22333">
        <ele>187</ele>
        <time>2021-11-11T12:19:20Z</time>
      </trkpt>
      <trkpt lat="46.6152" lon="5.22326">
        <ele>186.8</ele>
        <time>2021-11-11T12:19:21Z</time>
      </trkpt>
      <trkpt lat="46.61542" lon="5.22303">
        <ele>185.8</ele>
        <time>2021-11-11T12:19:24Z</time>
      </trkpt>
      <trkpt lat="46.61565" lon="5.22281">
        <ele>184.4</ele>
        <time>2021-11-11T12:19:27Z</time>
      </trkpt>
      <trkpt lat="46.61583" lon="5.22272">
        <ele>183.4</ele>
        <time>2021-11-11T12:19:29Z</time>
      </trkpt>
      <trkpt lat="46.61593" lon="5.22273">
        <ele>183.2</ele>
        <time>2021-11-11T12:19:30Z</time>
      </trkpt>
      <trkpt lat="46.61601" lon="5.22278">
        <ele>182.6</ele>
        <time>2021-11-11T12:19:31Z</time>
      </trkpt>
      <trkpt lat="46.61607" lon="5.22287">
        <ele>182.4</ele>
        <time>2021-11-11T12:19:32Z</time>
      </trkpt>
      <trkpt lat="46.61611" lon="5.22299">
        <ele>181.4</ele>
        <time>2021-11-11T12:19:33Z</time>
      </trkpt>
      <trkpt lat="46.61612" lon="5.22322">
        <ele>180.8</ele>
        <time>2021-11-11T12:19:35Z</time>
      </trkpt>
      <trkpt lat="46.61611" lon="5.22343">
        <ele>180.4</ele>
        <time>2021-11-11T12:19:37Z</time>
      </trkpt>
      <trkpt lat="46.61612" lon="5.22363">
        <ele>180</ele>
        <time>2021-11-11T12:19:39Z</time>
      </trkpt>
      <trkpt lat="46.61611" lon="5.22373">
        <ele>179.8</ele>
        <time>2021-11-11T12:19:40Z</time>
      </trkpt>
      <trkpt lat="46.61609" lon="5.22381">
        <ele>179.6</ele>
        <time>2021-11-11T12:19:41Z</time>
      </trkpt>
      <trkpt lat="46.61605" lon="5.22394">
        <ele>179.6</ele>
        <time>2021-11-11T12:19:43Z</time>
      </trkpt>
      <trkpt lat="46.61604" lon="5.22399">
        <ele>179.6</ele>
        <time>2021-11-11T12:19:44Z</time>
      </trkpt>
      <trkpt lat="46.61599" lon="5.22402">
        <ele>179.4</ele>
        <time>2021-11-11T12:19:46Z</time>
      </trkpt>
      <trkpt lat="46.61596" lon="5.22402">
        <ele>179.4</ele>
        <time>2021-11-11T12:19:48Z</time>
      </trkpt>
      <trkpt lat="46.61595" lon="5.22403">
        <ele>179.2</ele>
        <time>2021-11-11T12:19:49Z</time>
      </trkpt>
      <trkpt lat="46.61594" lon="5.22404">
        <ele>179.2</ele>
        <time>2021-11-11T12:19:50Z</time>
      </trkpt>
      <trkpt lat="46.61594" lon="5.22404">
        <ele>179</ele>
        <time>2021-11-11T12:19:51Z</time>
      </trkpt>
      <trkpt lat="46.61598" lon="5.2241">
        <ele>179</ele>
        <time>2021-11-11T12:20:59Z</time>
      </trkpt>
      <trkpt lat="46.61598" lon="5.22417">
        <ele>179</ele>
        <time>2021-11-11T12:21:01Z</time>
      </trkpt>
      <trkpt lat="46.61592" lon="5.22438">
        <ele>178.8</ele>
        <time>2021-11-11T12:21:05Z</time>
      </trkpt>
      <trkpt lat="46.61588" lon="5.22451">
        <ele>178.8</ele>
        <time>2021-11-11T12:21:07Z</time>
      </trkpt>
      <trkpt lat="46.61584" lon="5.22467">
        <ele>178.8</ele>
        <time>2021-11-11T12:21:09Z</time>
      </trkpt>
      <trkpt lat="46.61583" lon="5.22474">
        <ele>178.8</ele>
        <time>2021-11-11T12:21:10Z</time>
      </trkpt>
      <trkpt lat="46.61579" lon="5.22529">
        <ele>179</ele>
        <time>2021-11-11T12:21:17Z</time>
      </trkpt>
      <trkpt lat="46.6158" lon="5.22538">
        <ele>179</ele>
        <time>2021-11-11T12:21:18Z</time>
      </trkpt>
      <trkpt lat="46.61582" lon="5.22546">
        <ele>178.8</ele>
        <time>2021-11-11T12:21:19Z</time>
      </trkpt>
      <trkpt lat="46.61589" lon="5.22565">
        <ele>178.8</ele>
        <time>2021-11-11T12:21:22Z</time>
      </trkpt>
      <trkpt lat="46.61598" lon="5.22583">
        <ele>178.8</ele>
        <time>2021-11-11T12:21:25Z</time>
      </trkpt>
      <trkpt lat="46.616" lon="5.22588">
        <ele>178.8</ele>
        <time>2021-11-11T12:21:26Z</time>
      </trkpt>
      <trkpt lat="46.616" lon="5.22593">
        <ele>178.8</ele>
        <time>2021-11-11T12:21:27Z</time>
      </trkpt>
      <trkpt lat="46.61598" lon="5.22597">
        <ele>178.8</ele>
        <time>2021-11-11T12:21:28Z</time>
      </trkpt>
      <trkpt lat="46.61587" lon="5.226">
        <ele>178.8</ele>
        <time>2021-11-11T12:21:31Z</time>
      </trkpt>
      <trkpt lat="46.61558" lon="5.22604">
        <ele>178.6</ele>
        <time>2021-11-11T12:21:36Z</time>
      </trkpt>
      <trkpt lat="46.61515" lon="5.22619">
        <ele>179.2</ele>
        <time>2021-11-11T12:21:43Z</time>
      </trkpt>
      <trkpt lat="46.61483" lon="5.22643">
        <ele>179.6</ele>
        <time>2021-11-11T12:21:49Z</time>
      </trkpt>
      <trkpt lat="46.61471" lon="5.22654">
        <ele>179.8</ele>
        <time>2021-11-11T12:21:51Z</time>
      </trkpt>
      <trkpt lat="46.61453" lon="5.22679">
        <ele>180</ele>
        <time>2021-11-11T12:21:55Z</time>
      </trkpt>
      <trkpt lat="46.6142" lon="5.22724">
        <ele>180.4</ele>
        <time>2021-11-11T12:22:02Z</time>
      </trkpt>
      <trkpt lat="46.61412" lon="5.22735">
        <ele>180.4</ele>
        <time>2021-11-11T12:22:04Z</time>
      </trkpt>
      <trkpt lat="46.61371" lon="5.22793">
        <ele>180.6</ele>
        <time>2021-11-11T12:22:13Z</time>
      </trkpt>
      <trkpt lat="46.61367" lon="5.22799">
        <ele>180.6</ele>
        <time>2021-11-11T12:22:14Z</time>
      </trkpt>
      <trkpt lat="46.61325" lon="5.22857">
        <ele>181.4</ele>
        <time>2021-11-11T12:22:23Z</time>
      </trkpt>
      <trkpt lat="46.61316" lon="5.22869">
        <ele>181.6</ele>
        <time>2021-11-11T12:22:25Z</time>
      </trkpt>
      <trkpt lat="46.61277" lon="5.22924">
        <ele>181.6</ele>
        <time>2021-11-11T12:22:34Z</time>
      </trkpt>
      <trkpt lat="46.61273" lon="5.2293">
        <ele>181.6</ele>
        <time>2021-11-11T12:22:35Z</time>
      </trkpt>
      <trkpt lat="46.61239" lon="5.22984">
        <ele>182.2</ele>
        <time>2021-11-11T12:22:43Z</time>
      </trkpt>
      <trkpt lat="46.61235" lon="5.23">
        <ele>182.2</ele>
        <time>2021-11-11T12:22:45Z</time>
      </trkpt>
      <trkpt lat="46.61236" lon="5.23012">
        <ele>182</ele>
        <time>2021-11-11T12:22:46Z</time>
      </trkpt>
      <trkpt lat="46.61239" lon="5.23021">
        <ele>182</ele>
        <time>2021-11-11T12:22:47Z</time>
      </trkpt>
      <trkpt lat="46.61249" lon="5.23046">
        <ele>181.8</ele>
        <time>2021-11-11T12:22:50Z</time>
      </trkpt>
      <trkpt lat="46.61281" lon="5.23113">
        <ele>181.4</ele>
        <time>2021-11-11T12:22:58Z</time>
      </trkpt>
      <trkpt lat="46.61285" lon="5.23122">
        <ele>181.4</ele>
        <time>2021-11-11T12:22:59Z</time>
      </trkpt>
      <trkpt lat="46.61289" lon="5.23134">
        <ele>181.4</ele>
        <time>2021-11-11T12:23:00Z</time>
      </trkpt>
      <trkpt lat="46.61294" lon="5.23164">
        <ele>181.2</ele>
        <time>2021-11-11T12:23:03Z</time>
      </trkpt>
      <trkpt lat="46.61301" lon="5.23197">
        <ele>180.6</ele>
        <time>2021-11-11T12:23:06Z</time>
      </trkpt>
      <trkpt lat="46.61304" lon="5.23205">
        <ele>180.4</ele>
        <time>2021-11-11T12:23:07Z</time>
      </trkpt>
      <trkpt lat="46.61309" lon="5.23213">
        <ele>180</ele>
        <time>2021-11-11T12:23:08Z</time>
      </trkpt>
      <trkpt lat="46.6133" lon="5.23243">
        <ele>179.4</ele>
        <time>2021-11-11T12:23:12Z</time>
      </trkpt>
      <trkpt lat="46.61369" lon="5.23301">
        <ele>179.2</ele>
        <time>2021-11-11T12:23:20Z</time>
      </trkpt>
      <trkpt lat="46.61372" lon="5.2331">
        <ele>179</ele>
        <time>2021-11-11T12:23:21Z</time>
      </trkpt>
      <trkpt lat="46.61375" lon="5.23329">
        <ele>179</ele>
        <time>2021-11-11T12:23:23Z</time>
      </trkpt>
      <trkpt lat="46.61372" lon="5.23348">
        <ele>179</ele>
        <time>2021-11-11T12:23:25Z</time>
      </trkpt>
      <trkpt lat="46.61369" lon="5.23357">
        <ele>179</ele>
        <time>2021-11-11T12:23:26Z</time>
      </trkpt>
      <trkpt lat="46.6135" lon="5.23426">
        <ele>179.2</ele>
        <time>2021-11-11T12:23:34Z</time>
      </trkpt>
      <trkpt lat="46.61339" lon="5.23489">
        <ele>179.6</ele>
        <time>2021-11-11T12:23:41Z</time>
      </trkpt>
      <trkpt lat="46.61339" lon="5.23498">
        <ele>179.6</ele>
        <time>2021-11-11T12:23:42Z</time>
      </trkpt>
      <trkpt lat="46.61337" lon="5.23534">
        <ele>179.8</ele>
        <time>2021-11-11T12:23:46Z</time>
      </trkpt>
      <trkpt lat="46.61334" lon="5.23588">
        <ele>180.2</ele>
        <time>2021-11-11T12:23:52Z</time>
      </trkpt>
      <trkpt lat="46.61332" lon="5.23641">
        <ele>180.4</ele>
        <time>2021-11-11T12:23:58Z</time>
      </trkpt>
      <trkpt lat="46.61331" lon="5.23658">
        <ele>180.6</ele>
        <time>2021-11-11T12:24:00Z</time>
      </trkpt>
      <trkpt lat="46.61325" lon="5.23736">
        <ele>180.8</ele>
        <time>2021-11-11T12:24:09Z</time>
      </trkpt>
      <trkpt lat="46.61322" lon="5.23797">
        <ele>181.2</ele>
        <time>2021-11-11T12:24:16Z</time>
      </trkpt>
      <trkpt lat="46.61327" lon="5.23865">
        <ele>181.4</ele>
        <time>2021-11-11T12:24:24Z</time>
      </trkpt>
      <trkpt lat="46.61329" lon="5.23899">
        <ele>181.6</ele>
        <time>2021-11-11T12:24:28Z</time>
      </trkpt>
      <trkpt lat="46.61333" lon="5.2394">
        <ele>182</ele>
        <time>2021-11-11T12:24:33Z</time>
      </trkpt>
      <trkpt lat="46.61338" lon="5.23996">
        <ele>182.8</ele>
        <time>2021-11-11T12:24:40Z</time>
      </trkpt>
      <trkpt lat="46.6134" lon="5.24028">
        <ele>183.2</ele>
        <time>2021-11-11T12:24:44Z</time>
      </trkpt>
      <trkpt lat="46.61344" lon="5.24078">
        <ele>183.8</ele>
        <time>2021-11-11T12:24:50Z</time>
      </trkpt>
      <trkpt lat="46.61347" lon="5.24119">
        <ele>184.2</ele>
        <time>2021-11-11T12:24:55Z</time>
      </trkpt>
      <trkpt lat="46.61349" lon="5.24192">
        <ele>184.4</ele>
        <time>2021-11-11T12:25:03Z</time>
      </trkpt>
      <trkpt lat="46.61346" lon="5.24257">
        <ele>184.2</ele>
        <time>2021-11-11T12:25:10Z</time>
      </trkpt>
      <trkpt lat="46.61331" lon="5.24307">
        <ele>184.2</ele>
        <time>2021-11-11T12:25:16Z</time>
      </trkpt>
      <trkpt lat="46.61314" lon="5.24381">
        <ele>184.2</ele>
        <time>2021-11-11T12:25:24Z</time>
      </trkpt>
      <trkpt lat="46.6129" lon="5.24434">
        <ele>183.2</ele>
        <time>2021-11-11T12:25:30Z</time>
      </trkpt>
      <trkpt lat="46.61287" lon="5.24443">
        <ele>183</ele>
        <time>2021-11-11T12:25:31Z</time>
      </trkpt>
      <trkpt lat="46.61281" lon="5.24462">
        <ele>182.8</ele>
        <time>2021-11-11T12:25:33Z</time>
      </trkpt>
      <trkpt lat="46.61272" lon="5.24492">
        <ele>182.4</ele>
        <time>2021-11-11T12:25:36Z</time>
      </trkpt>
      <trkpt lat="46.61264" lon="5.24522">
        <ele>181.8</ele>
        <time>2021-11-11T12:25:39Z</time>
      </trkpt>
      <trkpt lat="46.61256" lon="5.24563">
        <ele>181.4</ele>
        <time>2021-11-11T12:25:43Z</time>
      </trkpt>
      <trkpt lat="46.61247" lon="5.24635">
        <ele>180.8</ele>
        <time>2021-11-11T12:25:50Z</time>
      </trkpt>
      <trkpt lat="46.61243" lon="5.24655">
        <ele>180.8</ele>
        <time>2021-11-11T12:25:52Z</time>
      </trkpt>
      <trkpt lat="46.61229" lon="5.24718">
        <ele>180.6</ele>
        <time>2021-11-11T12:25:59Z</time>
      </trkpt>
      <trkpt lat="46.6121" lon="5.24798">
        <ele>180.8</ele>
        <time>2021-11-11T12:26:08Z</time>
      </trkpt>
      <trkpt lat="46.61194" lon="5.24857">
        <ele>181</ele>
        <time>2021-11-11T12:26:15Z</time>
      </trkpt>
      <trkpt lat="46.61164" lon="5.24929">
        <ele>180.8</ele>
        <time>2021-11-11T12:26:24Z</time>
      </trkpt>
      <trkpt lat="46.61141" lon="5.24994">
        <ele>180.8</ele>
        <time>2021-11-11T12:26:32Z</time>
      </trkpt>
      <trkpt lat="46.6113" lon="5.25048">
        <ele>180.8</ele>
        <time>2021-11-11T12:26:38Z</time>
      </trkpt>
      <trkpt lat="46.61128" lon="5.25055">
        <ele>180.8</ele>
        <time>2021-11-11T12:26:39Z</time>
      </trkpt>
      <trkpt lat="46.61111" lon="5.25093">
        <ele>180.8</ele>
        <time>2021-11-11T12:26:44Z</time>
      </trkpt>
      <trkpt lat="46.61106" lon="5.25101">
        <ele>180.8</ele>
        <time>2021-11-11T12:26:45Z</time>
      </trkpt>
      <trkpt lat="46.61083" lon="5.25131">
        <ele>180.8</ele>
        <time>2021-11-11T12:26:50Z</time>
      </trkpt>
      <trkpt lat="46.6105" lon="5.25182">
        <ele>180.8</ele>
        <time>2021-11-11T12:26:58Z</time>
      </trkpt>
      <trkpt lat="46.61014" lon="5.25244">
        <ele>181.2</ele>
        <time>2021-11-11T12:27:07Z</time>
      </trkpt>
      <trkpt lat="46.61006" lon="5.25259">
        <ele>181.2</ele>
        <time>2021-11-11T12:27:09Z</time>
      </trkpt>
      <trkpt lat="46.60993" lon="5.25286">
        <ele>181.6</ele>
        <time>2021-11-11T12:27:13Z</time>
      </trkpt>
      <trkpt lat="46.60989" lon="5.25295">
        <ele>181.6</ele>
        <time>2021-11-11T12:27:14Z</time>
      </trkpt>
      <trkpt lat="46.60966" lon="5.25369">
        <ele>181.6</ele>
        <time>2021-11-11T12:27:23Z</time>
      </trkpt>
      <trkpt lat="46.60963" lon="5.25386">
        <ele>181.6</ele>
        <time>2021-11-11T12:27:25Z</time>
      </trkpt>
      <trkpt lat="46.60962" lon="5.25395">
        <ele>181.6</ele>
        <time>2021-11-11T12:27:26Z</time>
      </trkpt>
      <trkpt lat="46.60962" lon="5.25417">
        <ele>181.6</ele>
        <time>2021-11-11T12:27:28Z</time>
      </trkpt>
      <trkpt lat="46.60963" lon="5.25426">
        <ele>181.6</ele>
        <time>2021-11-11T12:27:29Z</time>
      </trkpt>
      <trkpt lat="46.60972" lon="5.25494">
        <ele>181.2</ele>
        <time>2021-11-11T12:27:36Z</time>
      </trkpt>
      <trkpt lat="46.60972" lon="5.25502">
        <ele>181.2</ele>
        <time>2021-11-11T12:27:37Z</time>
      </trkpt>
      <trkpt lat="46.60964" lon="5.25561">
        <ele>181</ele>
        <time>2021-11-11T12:27:43Z</time>
      </trkpt>
      <trkpt lat="46.60952" lon="5.25615">
        <ele>181</ele>
        <time>2021-11-11T12:27:49Z</time>
      </trkpt>
      <trkpt lat="46.60927" lon="5.25667">
        <ele>180.6</ele>
        <time>2021-11-11T12:27:55Z</time>
      </trkpt>
      <trkpt lat="46.60889" lon="5.25722">
        <ele>180.6</ele>
        <time>2021-11-11T12:28:03Z</time>
      </trkpt>
      <trkpt lat="46.60849" lon="5.25777">
        <ele>180.8</ele>
        <time>2021-11-11T12:28:11Z</time>
      </trkpt>
      <trkpt lat="46.60845" lon="5.25782">
        <ele>180.8</ele>
        <time>2021-11-11T12:28:12Z</time>
      </trkpt>
      <trkpt lat="46.60803" lon="5.25839">
        <ele>181.6</ele>
        <time>2021-11-11T12:28:21Z</time>
      </trkpt>
      <trkpt lat="46.60798" lon="5.25844">
        <ele>181.8</ele>
        <time>2021-11-11T12:28:22Z</time>
      </trkpt>
      <trkpt lat="46.60757" lon="5.2589">
        <ele>182</ele>
        <time>2021-11-11T12:28:30Z</time>
      </trkpt>
      <trkpt lat="46.6072" lon="5.25941">
        <ele>181.8</ele>
        <time>2021-11-11T12:28:38Z</time>
      </trkpt>
      <trkpt lat="46.60692" lon="5.26001">
        <ele>181.6</ele>
        <time>2021-11-11T12:28:46Z</time>
      </trkpt>
      <trkpt lat="46.60677" lon="5.26037">
        <ele>181.4</ele>
        <time>2021-11-11T12:28:51Z</time>
      </trkpt>
      <trkpt lat="46.60669" lon="5.26068">
        <ele>181.2</ele>
        <time>2021-11-11T12:28:55Z</time>
      </trkpt>
      <trkpt lat="46.60667" lon="5.26085">
        <ele>181</ele>
        <time>2021-11-11T12:28:57Z</time>
      </trkpt>
      <trkpt lat="46.60667" lon="5.26133">
        <ele>181.2</ele>
        <time>2021-11-11T12:29:02Z</time>
      </trkpt>
      <trkpt lat="46.60667" lon="5.26164">
        <ele>181.4</ele>
        <time>2021-11-11T12:29:05Z</time>
      </trkpt>
      <trkpt lat="46.60668" lon="5.2619">
        <ele>181.4</ele>
        <time>2021-11-11T12:29:08Z</time>
      </trkpt>
      <trkpt lat="46.60669" lon="5.26201">
        <ele>181.6</ele>
        <time>2021-11-11T12:29:09Z</time>
      </trkpt>
      <trkpt lat="46.60676" lon="5.26234">
        <ele>181.6</ele>
        <time>2021-11-11T12:29:13Z</time>
      </trkpt>
      <trkpt lat="46.60697" lon="5.26304">
        <ele>181.6</ele>
        <time>2021-11-11T12:29:21Z</time>
      </trkpt>
      <trkpt lat="46.60716" lon="5.26365">
        <ele>181.8</ele>
        <time>2021-11-11T12:29:28Z</time>
      </trkpt>
      <trkpt lat="46.60742" lon="5.26442">
        <ele>182</ele>
        <time>2021-11-11T12:29:37Z</time>
      </trkpt>
      <trkpt lat="46.60744" lon="5.2645">
        <ele>182</ele>
        <time>2021-11-11T12:29:38Z</time>
      </trkpt>
      <trkpt lat="46.60758" lon="5.26506">
        <ele>182.4</ele>
        <time>2021-11-11T12:29:45Z</time>
      </trkpt>
      <trkpt lat="46.60767" lon="5.26544">
        <ele>182.8</ele>
        <time>2021-11-11T12:29:50Z</time>
      </trkpt>
      <trkpt lat="46.6077" lon="5.26552">
        <ele>183</ele>
        <time>2021-11-11T12:29:51Z</time>
      </trkpt>
      <trkpt lat="46.60784" lon="5.2658">
        <ele>184</ele>
        <time>2021-11-11T12:29:56Z</time>
      </trkpt>
      <trkpt lat="46.60797" lon="5.26599">
        <ele>185</ele>
        <time>2021-11-11T12:30:00Z</time>
      </trkpt>
      <trkpt lat="46.60803" lon="5.26608">
        <ele>185.6</ele>
        <time>2021-11-11T12:30:02Z</time>
      </trkpt>
      <trkpt lat="46.60806" lon="5.26611">
        <ele>186</ele>
        <time>2021-11-11T12:30:03Z</time>
      </trkpt>
      <trkpt lat="46.6081" lon="5.26614">
        <ele>186.2</ele>
        <time>2021-11-11T12:30:04Z</time>
      </trkpt>
      <trkpt lat="46.60822" lon="5.26624">
        <ele>187.2</ele>
        <time>2021-11-11T12:30:07Z</time>
      </trkpt>
      <trkpt lat="46.60826" lon="5.26627">
        <ele>187.4</ele>
        <time>2021-11-11T12:30:08Z</time>
      </trkpt>
      <trkpt lat="46.60836" lon="5.26634">
        <ele>187.8</ele>
        <time>2021-11-11T12:30:10Z</time>
      </trkpt>
      <trkpt lat="46.6084" lon="5.26637">
        <ele>188</ele>
        <time>2021-11-11T12:30:11Z</time>
      </trkpt>
      <trkpt lat="46.60849" lon="5.26644">
        <ele>188.6</ele>
        <time>2021-11-11T12:30:13Z</time>
      </trkpt>
      <trkpt lat="46.60866" lon="5.26654">
        <ele>189</ele>
        <time>2021-11-11T12:30:16Z</time>
      </trkpt>
      <trkpt lat="46.6087" lon="5.26656">
        <ele>189</ele>
        <time>2021-11-11T12:30:17Z</time>
      </trkpt>
      <trkpt lat="46.60877" lon="5.26658">
        <ele>189</ele>
        <time>2021-11-11T12:30:18Z</time>
      </trkpt>
      <trkpt lat="46.60891" lon="5.26657">
        <ele>189</ele>
        <time>2021-11-11T12:30:20Z</time>
      </trkpt>
      <trkpt lat="46.60899" lon="5.26654">
        <ele>189</ele>
        <time>2021-11-11T12:30:21Z</time>
      </trkpt>
      <trkpt lat="46.60911" lon="5.26651">
        <ele>188.6</ele>
        <time>2021-11-11T12:30:23Z</time>
      </trkpt>
      <trkpt lat="46.60927" lon="5.26658">
        <ele>188.2</ele>
        <time>2021-11-11T12:30:25Z</time>
      </trkpt>
      <trkpt lat="46.60939" lon="5.26674">
        <ele>187.6</ele>
        <time>2021-11-11T12:30:27Z</time>
      </trkpt>
      <trkpt lat="46.60946" lon="5.26685">
        <ele>187</ele>
        <time>2021-11-11T12:30:28Z</time>
      </trkpt>
      <trkpt lat="46.6096" lon="5.26702">
        <ele>185.8</ele>
        <time>2021-11-11T12:30:30Z</time>
      </trkpt>
      <trkpt lat="46.60974" lon="5.26715">
        <ele>185</ele>
        <time>2021-11-11T12:30:32Z</time>
      </trkpt>
      <trkpt lat="46.60982" lon="5.26722">
        <ele>184.2</ele>
        <time>2021-11-11T12:30:33Z</time>
      </trkpt>
      <trkpt lat="46.6101" lon="5.26749">
        <ele>183</ele>
        <time>2021-11-11T12:30:37Z</time>
      </trkpt>
      <trkpt lat="46.61038" lon="5.26777">
        <ele>182</ele>
        <time>2021-11-11T12:30:41Z</time>
      </trkpt>
      <trkpt lat="46.61046" lon="5.26786">
        <ele>181.8</ele>
        <time>2021-11-11T12:30:42Z</time>
      </trkpt>
      <trkpt lat="46.61058" lon="5.26803">
        <ele>181.6</ele>
        <time>2021-11-11T12:30:44Z</time>
      </trkpt>
      <trkpt lat="46.61066" lon="5.26819">
        <ele>181.4</ele>
        <time>2021-11-11T12:30:46Z</time>
      </trkpt>
      <trkpt lat="46.61079" lon="5.26857">
        <ele>181.2</ele>
        <time>2021-11-11T12:30:50Z</time>
      </trkpt>
      <trkpt lat="46.611" lon="5.26912">
        <ele>181.4</ele>
        <time>2021-11-11T12:30:56Z</time>
      </trkpt>
      <trkpt lat="46.61131" lon="5.26962">
        <ele>181.2</ele>
        <time>2021-11-11T12:31:03Z</time>
      </trkpt>
      <trkpt lat="46.61163" lon="5.26995">
        <ele>181.2</ele>
        <time>2021-11-11T12:31:09Z</time>
      </trkpt>
      <trkpt lat="46.61169" lon="5.27003">
        <ele>181</ele>
        <time>2021-11-11T12:31:10Z</time>
      </trkpt>
      <trkpt lat="46.61181" lon="5.27025">
        <ele>180.8</ele>
        <time>2021-11-11T12:31:13Z</time>
      </trkpt>
      <trkpt lat="46.61208" lon="5.27064">
        <ele>181</ele>
        <time>2021-11-11T12:31:19Z</time>
      </trkpt>
      <trkpt lat="46.61215" lon="5.27073">
        <ele>181.2</ele>
        <time>2021-11-11T12:31:21Z</time>
      </trkpt>
      <trkpt lat="46.61219" lon="5.27075">
        <ele>181.2</ele>
        <time>2021-11-11T12:31:22Z</time>
      </trkpt>
      <trkpt lat="46.61224" lon="5.27075">
        <ele>181.2</ele>
        <time>2021-11-11T12:31:23Z</time>
      </trkpt>
      <trkpt lat="46.61233" lon="5.27068">
        <ele>181.2</ele>
        <time>2021-11-11T12:31:25Z</time>
      </trkpt>
      <trkpt lat="46.61239" lon="5.27056">
        <ele>181.4</ele>
        <time>2021-11-11T12:31:27Z</time>
      </trkpt>
      <trkpt lat="46.61245" lon="5.2704">
        <ele>181.4</ele>
        <time>2021-11-11T12:31:29Z</time>
      </trkpt>
      <trkpt lat="46.61259" lon="5.27003">
        <ele>181.8</ele>
        <time>2021-11-11T12:31:34Z</time>
      </trkpt>
      <trkpt lat="46.61264" lon="5.26994">
        <ele>182</ele>
        <time>2021-11-11T12:31:35Z</time>
      </trkpt>
      <trkpt lat="46.61275" lon="5.26975">
        <ele>182.2</ele>
        <time>2021-11-11T12:31:38Z</time>
      </trkpt>
      <trkpt lat="46.61288" lon="5.26956">
        <ele>182.2</ele>
        <time>2021-11-11T12:31:41Z</time>
      </trkpt>
      <trkpt lat="46.61304" lon="5.26937">
        <ele>182.2</ele>
        <time>2021-11-11T12:31:44Z</time>
      </trkpt>
      <trkpt lat="46.61314" lon="5.2693">
        <ele>182.2</ele>
        <time>2021-11-11T12:31:46Z</time>
      </trkpt>
      <trkpt lat="46.61326" lon="5.26929">
        <ele>182.2</ele>
        <time>2021-11-11T12:31:48Z</time>
      </trkpt>
      <trkpt lat="46.61334" lon="5.26933">
        <ele>182.2</ele>
        <time>2021-11-11T12:31:49Z</time>
      </trkpt>
      <trkpt lat="46.6137" lon="5.26959">
        <ele>182</ele>
        <time>2021-11-11T12:31:55Z</time>
      </trkpt>
      <trkpt lat="46.61409" lon="5.26974">
        <ele>181.8</ele>
        <time>2021-11-11T12:32:01Z</time>
      </trkpt>
      <trkpt lat="46.61467" lon="5.26991">
        <ele>181.8</ele>
        <time>2021-11-11T12:32:10Z</time>
      </trkpt>
      <trkpt lat="46.61517" lon="5.27004">
        <ele>181.8</ele>
        <time>2021-11-11T12:32:18Z</time>
      </trkpt>
      <trkpt lat="46.6153" lon="5.27001">
        <ele>181.8</ele>
        <time>2021-11-11T12:32:20Z</time>
      </trkpt>
      <trkpt lat="46.61541" lon="5.26994">
        <ele>181.8</ele>
        <time>2021-11-11T12:32:22Z</time>
      </trkpt>
      <trkpt lat="46.61563" lon="5.26961">
        <ele>182</ele>
        <time>2021-11-11T12:32:27Z</time>
      </trkpt>
      <trkpt lat="46.6159" lon="5.26913">
        <ele>182.4</ele>
        <time>2021-11-11T12:32:34Z</time>
      </trkpt>
      <trkpt lat="46.61611" lon="5.26873">
        <ele>183</ele>
        <time>2021-11-11T12:32:40Z</time>
      </trkpt>
      <trkpt lat="46.61616" lon="5.26868">
        <ele>183</ele>
        <time>2021-11-11T12:32:41Z</time>
      </trkpt>
      <trkpt lat="46.61621" lon="5.26862">
        <ele>183.2</ele>
        <time>2021-11-11T12:32:42Z</time>
      </trkpt>
      <trkpt lat="46.61645" lon="5.26842">
        <ele>183.4</ele>
        <time>2021-11-11T12:32:47Z</time>
      </trkpt>
      <trkpt lat="46.61668" lon="5.2683">
        <ele>183.8</ele>
        <time>2021-11-11T12:32:51Z</time>
      </trkpt>
      <trkpt lat="46.61674" lon="5.2683">
        <ele>183.8</ele>
        <time>2021-11-11T12:32:52Z</time>
      </trkpt>
      <trkpt lat="46.6168" lon="5.26833">
        <ele>183.8</ele>
        <time>2021-11-11T12:32:53Z</time>
      </trkpt>
      <trkpt lat="46.61696" lon="5.26845">
        <ele>184</ele>
        <time>2021-11-11T12:32:56Z</time>
      </trkpt>
      <trkpt lat="46.61707" lon="5.26854">
        <ele>184</ele>
        <time>2021-11-11T12:32:58Z</time>
      </trkpt>
      <trkpt lat="46.6173" lon="5.2688">
        <ele>184.2</ele>
        <time>2021-11-11T12:33:03Z</time>
      </trkpt>
      <trkpt lat="46.61748" lon="5.26905">
        <ele>184.4</ele>
        <time>2021-11-11T12:33:07Z</time>
      </trkpt>
      <trkpt lat="46.61763" lon="5.2693">
        <ele>184.4</ele>
        <time>2021-11-11T12:33:11Z</time>
      </trkpt>
      <trkpt lat="46.61799" lon="5.26994">
        <ele>184.8</ele>
        <time>2021-11-11T12:33:21Z</time>
      </trkpt>
      <trkpt lat="46.61803" lon="5.27001">
        <ele>185</ele>
        <time>2021-11-11T12:33:22Z</time>
      </trkpt>
      <trkpt lat="46.61817" lon="5.27021">
        <ele>185</ele>
        <time>2021-11-11T12:33:26Z</time>
      </trkpt>
      <trkpt lat="46.61819" lon="5.27028">
        <ele>185</ele>
        <time>2021-11-11T12:33:27Z</time>
      </trkpt>
      <trkpt lat="46.6182" lon="5.27035">
        <ele>185</ele>
        <time>2021-11-11T12:33:28Z</time>
      </trkpt>
      <trkpt lat="46.6182" lon="5.27049">
        <ele>185.2</ele>
        <time>2021-11-11T12:33:30Z</time>
      </trkpt>
      <trkpt lat="46.61815" lon="5.27077">
        <ele>185.2</ele>
        <time>2021-11-11T12:33:33Z</time>
      </trkpt>
      <trkpt lat="46.61813" lon="5.27094">
        <ele>185.4</ele>
        <time>2021-11-11T12:33:35Z</time>
      </trkpt>
      <trkpt lat="46.61803" lon="5.27167">
        <ele>186</ele>
        <time>2021-11-11T12:33:43Z</time>
      </trkpt>
      <trkpt lat="46.61797" lon="5.27211">
        <ele>186.2</ele>
        <time>2021-11-11T12:33:48Z</time>
      </trkpt>
      <trkpt lat="46.61793" lon="5.27239">
        <ele>186.4</ele>
        <time>2021-11-11T12:33:51Z</time>
      </trkpt>
      <trkpt lat="46.61781" lon="5.27326">
        <ele>186.6</ele>
        <time>2021-11-11T12:34:01Z</time>
      </trkpt>
      <trkpt lat="46.6178" lon="5.27333">
        <ele>186.8</ele>
        <time>2021-11-11T12:34:02Z</time>
      </trkpt>
      <trkpt lat="46.61771" lon="5.27403">
        <ele>187.2</ele>
        <time>2021-11-11T12:34:10Z</time>
      </trkpt>
      <trkpt lat="46.61768" lon="5.27428">
        <ele>187.6</ele>
        <time>2021-11-11T12:34:13Z</time>
      </trkpt>
      <trkpt lat="46.61766" lon="5.27486">
        <ele>188.2</ele>
        <time>2021-11-11T12:34:20Z</time>
      </trkpt>
      <trkpt lat="46.61766" lon="5.27494">
        <ele>188.4</ele>
        <time>2021-11-11T12:34:21Z</time>
      </trkpt>
      <trkpt lat="46.6177" lon="5.27565">
        <ele>188.8</ele>
        <time>2021-11-11T12:34:29Z</time>
      </trkpt>
      <trkpt lat="46.61779" lon="5.27619">
        <ele>188.8</ele>
        <time>2021-11-11T12:34:35Z</time>
      </trkpt>
      <trkpt lat="46.61797" lon="5.27698">
        <ele>188.2</ele>
        <time>2021-11-11T12:34:42Z</time>
      </trkpt>
      <trkpt lat="46.61807" lon="5.2774">
        <ele>187</ele>
        <time>2021-11-11T12:34:46Z</time>
      </trkpt>
      <trkpt lat="46.61816" lon="5.2778">
        <ele>185.8</ele>
        <time>2021-11-11T12:34:50Z</time>
      </trkpt>
      <trkpt lat="46.61821" lon="5.27802">
        <ele>185.8</ele>
        <time>2021-11-11T12:34:52Z</time>
      </trkpt>
      <trkpt lat="46.61839" lon="5.27884">
        <ele>185.6</ele>
        <time>2021-11-11T12:35:00Z</time>
      </trkpt>
      <trkpt lat="46.61843" lon="5.27947">
        <ele>185.8</ele>
        <time>2021-11-11T12:35:06Z</time>
      </trkpt>
      <trkpt lat="46.61839" lon="5.28021">
        <ele>185.4</ele>
        <time>2021-11-11T12:35:13Z</time>
      </trkpt>
      <trkpt lat="46.61831" lon="5.28076">
        <ele>184.6</ele>
        <time>2021-11-11T12:35:18Z</time>
      </trkpt>
      <trkpt lat="46.61828" lon="5.28089">
        <ele>184.4</ele>
        <time>2021-11-11T12:35:19Z</time>
      </trkpt>
      <trkpt lat="46.61808" lon="5.2815">
        <ele>183.6</ele>
        <time>2021-11-11T12:35:25Z</time>
      </trkpt>
      <trkpt lat="46.61806" lon="5.28158">
        <ele>183.4</ele>
        <time>2021-11-11T12:35:26Z</time>
      </trkpt>
      <trkpt lat="46.61779" lon="5.28235">
        <ele>183</ele>
        <time>2021-11-11T12:35:34Z</time>
      </trkpt>
      <trkpt lat="46.61776" lon="5.28242">
        <ele>183.2</ele>
        <time>2021-11-11T12:35:35Z</time>
      </trkpt>
      <trkpt lat="46.61751" lon="5.28314">
        <ele>183.4</ele>
        <time>2021-11-11T12:35:43Z</time>
      </trkpt>
      <trkpt lat="46.61748" lon="5.28323">
        <ele>183.4</ele>
        <time>2021-11-11T12:35:44Z</time>
      </trkpt>
      <trkpt lat="46.61721" lon="5.284">
        <ele>183.8</ele>
        <time>2021-11-11T12:35:53Z</time>
      </trkpt>
      <trkpt lat="46.61695" lon="5.28476">
        <ele>184</ele>
        <time>2021-11-11T12:36:02Z</time>
      </trkpt>
      <trkpt lat="46.6167" lon="5.28548">
        <ele>184.2</ele>
        <time>2021-11-11T12:36:11Z</time>
      </trkpt>
      <trkpt lat="46.61664" lon="5.28564">
        <ele>184.2</ele>
        <time>2021-11-11T12:36:13Z</time>
      </trkpt>
      <trkpt lat="46.61639" lon="5.28634">
        <ele>184.8</ele>
        <time>2021-11-11T12:36:22Z</time>
      </trkpt>
      <trkpt lat="46.61636" lon="5.28643">
        <ele>184.8</ele>
        <time>2021-11-11T12:36:23Z</time>
      </trkpt>
      <trkpt lat="46.61614" lon="5.28707">
        <ele>185.2</ele>
        <time>2021-11-11T12:36:32Z</time>
      </trkpt>
      <trkpt lat="46.61599" lon="5.28749">
        <ele>185.8</ele>
        <time>2021-11-11T12:36:38Z</time>
      </trkpt>
      <trkpt lat="46.61589" lon="5.28776">
        <ele>186.2</ele>
        <time>2021-11-11T12:36:42Z</time>
      </trkpt>
      <trkpt lat="46.61579" lon="5.28807">
        <ele>187</ele>
        <time>2021-11-11T12:36:47Z</time>
      </trkpt>
      <trkpt lat="46.6157" lon="5.2883">
        <ele>187.6</ele>
        <time>2021-11-11T12:36:51Z</time>
      </trkpt>
      <trkpt lat="46.61566" lon="5.28841">
        <ele>188.2</ele>
        <time>2021-11-11T12:36:53Z</time>
      </trkpt>
      <trkpt lat="46.61562" lon="5.28852">
        <ele>188.8</ele>
        <time>2021-11-11T12:36:55Z</time>
      </trkpt>
      <trkpt lat="46.61556" lon="5.28869">
        <ele>189.6</ele>
        <time>2021-11-11T12:36:58Z</time>
      </trkpt>
      <trkpt lat="46.61548" lon="5.28891">
        <ele>190.6</ele>
        <time>2021-11-11T12:37:02Z</time>
      </trkpt>
      <trkpt lat="46.61543" lon="5.28908">
        <ele>191.4</ele>
        <time>2021-11-11T12:37:05Z</time>
      </trkpt>
      <trkpt lat="46.6154" lon="5.28918">
        <ele>191.8</ele>
        <time>2021-11-11T12:37:07Z</time>
      </trkpt>
      <trkpt lat="46.61533" lon="5.28939">
        <ele>193</ele>
        <time>2021-11-11T12:37:11Z</time>
      </trkpt>
      <trkpt lat="46.61529" lon="5.28949">
        <ele>193.6</ele>
        <time>2021-11-11T12:37:13Z</time>
      </trkpt>
      <trkpt lat="46.61524" lon="5.28966">
        <ele>194.2</ele>
        <time>2021-11-11T12:37:16Z</time>
      </trkpt>
      <trkpt lat="46.61521" lon="5.28975">
        <ele>194.6</ele>
        <time>2021-11-11T12:37:18Z</time>
      </trkpt>
      <trkpt lat="46.61517" lon="5.28986">
        <ele>195.2</ele>
        <time>2021-11-11T12:37:20Z</time>
      </trkpt>
      <trkpt lat="46.61509" lon="5.29007">
        <ele>196.2</ele>
        <time>2021-11-11T12:37:24Z</time>
      </trkpt>
      <trkpt lat="46.61503" lon="5.29027">
        <ele>197.2</ele>
        <time>2021-11-11T12:37:28Z</time>
      </trkpt>
      <trkpt lat="46.615" lon="5.29033">
        <ele>197.6</ele>
        <time>2021-11-11T12:37:29Z</time>
      </trkpt>
      <trkpt lat="46.6149" lon="5.2906">
        <ele>198.6</ele>
        <time>2021-11-11T12:37:34Z</time>
      </trkpt>
      <trkpt lat="46.61484" lon="5.29077">
        <ele>199.2</ele>
        <time>2021-11-11T12:37:37Z</time>
      </trkpt>
      <trkpt lat="46.6148" lon="5.2909">
        <ele>200</ele>
        <time>2021-11-11T12:37:39Z</time>
      </trkpt>
      <trkpt lat="46.61469" lon="5.2912">
        <ele>201</ele>
        <time>2021-11-11T12:37:44Z</time>
      </trkpt>
      <trkpt lat="46.61465" lon="5.29132">
        <ele>201.2</ele>
        <time>2021-11-11T12:37:46Z</time>
      </trkpt>
      <trkpt lat="46.61446" lon="5.29188">
        <ele>202</ele>
        <time>2021-11-11T12:37:55Z</time>
      </trkpt>
      <trkpt lat="46.61444" lon="5.29195">
        <ele>202.2</ele>
        <time>2021-11-11T12:37:56Z</time>
      </trkpt>
      <trkpt lat="46.61432" lon="5.29243">
        <ele>202.4</ele>
        <time>2021-11-11T12:38:02Z</time>
      </trkpt>
      <trkpt lat="46.61429" lon="5.29294">
        <ele>201.8</ele>
        <time>2021-11-11T12:38:07Z</time>
      </trkpt>
      <trkpt lat="46.61426" lon="5.29327">
        <ele>200.6</ele>
        <time>2021-11-11T12:38:10Z</time>
      </trkpt>
      <trkpt lat="46.61423" lon="5.29351">
        <ele>200</ele>
        <time>2021-11-11T12:38:12Z</time>
      </trkpt>
      <trkpt lat="46.61421" lon="5.29367">
        <ele>199</ele>
        <time>2021-11-11T12:38:14Z</time>
      </trkpt>
      <trkpt lat="46.61421" lon="5.29375">
        <ele>198.4</ele>
        <time>2021-11-11T12:38:15Z</time>
      </trkpt>
      <trkpt lat="46.61425" lon="5.29382">
        <ele>198.2</ele>
        <time>2021-11-11T12:38:16Z</time>
      </trkpt>
      <trkpt lat="46.61431" lon="5.29386">
        <ele>197.4</ele>
        <time>2021-11-11T12:38:17Z</time>
      </trkpt>
      <trkpt lat="46.61449" lon="5.29395">
        <ele>196.4</ele>
        <time>2021-11-11T12:38:20Z</time>
      </trkpt>
      <trkpt lat="46.61458" lon="5.29401">
        <ele>196</ele>
        <time>2021-11-11T12:38:21Z</time>
      </trkpt>
      <trkpt lat="46.61479" lon="5.29416">
        <ele>195.2</ele>
        <time>2021-11-11T12:38:24Z</time>
      </trkpt>
      <trkpt lat="46.61488" lon="5.29423">
        <ele>195</ele>
        <time>2021-11-11T12:38:25Z</time>
      </trkpt>
      <trkpt lat="46.61496" lon="5.29429">
        <ele>194.2</ele>
        <time>2021-11-11T12:38:26Z</time>
      </trkpt>
      <trkpt lat="46.61519" lon="5.29446">
        <ele>193.2</ele>
        <time>2021-11-11T12:38:29Z</time>
      </trkpt>
      <trkpt lat="46.61542" lon="5.29459">
        <ele>192.4</ele>
        <time>2021-11-11T12:38:32Z</time>
      </trkpt>
      <trkpt lat="46.61548" lon="5.29463">
        <ele>192.2</ele>
        <time>2021-11-11T12:38:33Z</time>
      </trkpt>
      <trkpt lat="46.61599" lon="5.29493">
        <ele>191.8</ele>
        <time>2021-11-11T12:38:40Z</time>
      </trkpt>
      <trkpt lat="46.61644" lon="5.29522">
        <ele>191.8</ele>
        <time>2021-11-11T12:38:47Z</time>
      </trkpt>
      <trkpt lat="46.61651" lon="5.2953">
        <ele>191.6</ele>
        <time>2021-11-11T12:38:48Z</time>
      </trkpt>
      <trkpt lat="46.61656" lon="5.29537">
        <ele>191.6</ele>
        <time>2021-11-11T12:38:49Z</time>
      </trkpt>
      <trkpt lat="46.61662" lon="5.29556">
        <ele>191.6</ele>
        <time>2021-11-11T12:38:51Z</time>
      </trkpt>
      <trkpt lat="46.6167" lon="5.29585">
        <ele>191.6</ele>
        <time>2021-11-11T12:38:54Z</time>
      </trkpt>
      <trkpt lat="46.6168" lon="5.29598">
        <ele>191.6</ele>
        <time>2021-11-11T12:38:56Z</time>
      </trkpt>
      <trkpt lat="46.61694" lon="5.29602">
        <ele>191.6</ele>
        <time>2021-11-11T12:38:58Z</time>
      </trkpt>
      <trkpt lat="46.61701" lon="5.29602">
        <ele>191.6</ele>
        <time>2021-11-11T12:38:59Z</time>
      </trkpt>
      <trkpt lat="46.61744" lon="5.29605">
        <ele>192.8</ele>
        <time>2021-11-11T12:39:06Z</time>
      </trkpt>
      <trkpt lat="46.61758" lon="5.29606">
        <ele>193</ele>
        <time>2021-11-11T12:39:08Z</time>
      </trkpt>
      <trkpt lat="46.6177" lon="5.29612">
        <ele>193.2</ele>
        <time>2021-11-11T12:39:10Z</time>
      </trkpt>
      <trkpt lat="46.61774" lon="5.29616">
        <ele>193.4</ele>
        <time>2021-11-11T12:39:11Z</time>
      </trkpt>
      <trkpt lat="46.618" lon="5.29647">
        <ele>194</ele>
        <time>2021-11-11T12:39:16Z</time>
      </trkpt>
      <trkpt lat="46.61804" lon="5.29657">
        <ele>194</ele>
        <time>2021-11-11T12:39:17Z</time>
      </trkpt>
      <trkpt lat="46.61807" lon="5.29665">
        <ele>194</ele>
        <time>2021-11-11T12:39:18Z</time>
      </trkpt>
      <trkpt lat="46.61811" lon="5.29691">
        <ele>194.2</ele>
        <time>2021-11-11T12:39:21Z</time>
      </trkpt>
      <trkpt lat="46.61814" lon="5.2972">
        <ele>194.2</ele>
        <time>2021-11-11T12:39:24Z</time>
      </trkpt>
      <trkpt lat="46.61819" lon="5.29734">
        <ele>194.2</ele>
        <time>2021-11-11T12:39:26Z</time>
      </trkpt>
      <trkpt lat="46.61826" lon="5.29748">
        <ele>194.4</ele>
        <time>2021-11-11T12:39:28Z</time>
      </trkpt>
      <trkpt lat="46.61835" lon="5.2976">
        <ele>194.4</ele>
        <time>2021-11-11T12:39:30Z</time>
      </trkpt>
      <trkpt lat="46.61839" lon="5.29766">
        <ele>194.6</ele>
        <time>2021-11-11T12:39:31Z</time>
      </trkpt>
      <trkpt lat="46.61872" lon="5.29811">
        <ele>195.4</ele>
        <time>2021-11-11T12:39:39Z</time>
      </trkpt>
      <trkpt lat="46.61876" lon="5.29816">
        <ele>195.6</ele>
        <time>2021-11-11T12:39:40Z</time>
      </trkpt>
      <trkpt lat="46.61892" lon="5.29837">
        <ele>196.8</ele>
        <time>2021-11-11T12:39:44Z</time>
      </trkpt>
      <trkpt lat="46.619" lon="5.29848">
        <ele>197.4</ele>
        <time>2021-11-11T12:39:46Z</time>
      </trkpt>
      <trkpt lat="46.61904" lon="5.29853">
        <ele>197.8</ele>
        <time>2021-11-11T12:39:47Z</time>
      </trkpt>
      <trkpt lat="46.61907" lon="5.29856">
        <ele>198</ele>
        <time>2021-11-11T12:39:48Z</time>
      </trkpt>
      <trkpt lat="46.61916" lon="5.29866">
        <ele>198.6</ele>
        <time>2021-11-11T12:39:50Z</time>
      </trkpt>
      <trkpt lat="46.61925" lon="5.29875">
        <ele>199</ele>
        <time>2021-11-11T12:39:52Z</time>
      </trkpt>
      <trkpt lat="46.61934" lon="5.29882">
        <ele>199.2</ele>
        <time>2021-11-11T12:39:54Z</time>
      </trkpt>
      <trkpt lat="46.61945" lon="5.2989">
        <ele>199.4</ele>
        <time>2021-11-11T12:39:56Z</time>
      </trkpt>
      <trkpt lat="46.61956" lon="5.29898">
        <ele>199.6</ele>
        <time>2021-11-11T12:39:58Z</time>
      </trkpt>
      <trkpt lat="46.61962" lon="5.29901">
        <ele>199.6</ele>
        <time>2021-11-11T12:39:59Z</time>
      </trkpt>
      <trkpt lat="46.61979" lon="5.29907">
        <ele>200</ele>
        <time>2021-11-11T12:40:02Z</time>
      </trkpt>
      <trkpt lat="46.61985" lon="5.29908">
        <ele>200.2</ele>
        <time>2021-11-11T12:40:03Z</time>
      </trkpt>
      <trkpt lat="46.62039" lon="5.29926">
        <ele>200.6</ele>
        <time>2021-11-11T12:40:12Z</time>
      </trkpt>
      <trkpt lat="46.62044" lon="5.29928">
        <ele>200.6</ele>
        <time>2021-11-11T12:40:13Z</time>
      </trkpt>
      <trkpt lat="46.62097" lon="5.29955">
        <ele>200</ele>
        <time>2021-11-11T12:40:22Z</time>
      </trkpt>
      <trkpt lat="46.6214" lon="5.29978">
        <ele>199.6</ele>
        <time>2021-11-11T12:40:29Z</time>
      </trkpt>
      <trkpt lat="46.62147" lon="5.29982">
        <ele>199.6</ele>
        <time>2021-11-11T12:40:30Z</time>
      </trkpt>
      <trkpt lat="46.6217" lon="5.29999">
        <ele>199.4</ele>
        <time>2021-11-11T12:40:34Z</time>
      </trkpt>
      <trkpt lat="46.62198" lon="5.30032">
        <ele>198.6</ele>
        <time>2021-11-11T12:40:39Z</time>
      </trkpt>
      <trkpt lat="46.62203" lon="5.30038">
        <ele>198.6</ele>
        <time>2021-11-11T12:40:40Z</time>
      </trkpt>
      <trkpt lat="46.62226" lon="5.30068">
        <ele>197.6</ele>
        <time>2021-11-11T12:40:44Z</time>
      </trkpt>
      <trkpt lat="46.62245" lon="5.30092">
        <ele>196.6</ele>
        <time>2021-11-11T12:40:47Z</time>
      </trkpt>
      <trkpt lat="46.62251" lon="5.30101">
        <ele>196.4</ele>
        <time>2021-11-11T12:40:48Z</time>
      </trkpt>
      <trkpt lat="46.6228" lon="5.30139">
        <ele>195.4</ele>
        <time>2021-11-11T12:40:52Z</time>
      </trkpt>
      <trkpt lat="46.6229" lon="5.30151">
        <ele>194.8</ele>
        <time>2021-11-11T12:40:53Z</time>
      </trkpt>
      <trkpt lat="46.62311" lon="5.30179">
        <ele>193.4</ele>
        <time>2021-11-11T12:40:56Z</time>
      </trkpt>
      <trkpt lat="46.62326" lon="5.30201">
        <ele>192.4</ele>
        <time>2021-11-11T12:40:58Z</time>
      </trkpt>
      <trkpt lat="46.62332" lon="5.30212">
        <ele>190.8</ele>
        <time>2021-11-11T12:40:59Z</time>
      </trkpt>
      <trkpt lat="46.62343" lon="5.30231">
        <ele>189.6</ele>
        <time>2021-11-11T12:41:01Z</time>
      </trkpt>
      <trkpt lat="46.62358" lon="5.30265">
        <ele>189</ele>
        <time>2021-11-11T12:41:04Z</time>
      </trkpt>
      <trkpt lat="46.62378" lon="5.30303">
        <ele>188.8</ele>
        <time>2021-11-11T12:41:08Z</time>
      </trkpt>
      <trkpt lat="46.62394" lon="5.30326">
        <ele>188.6</ele>
        <time>2021-11-11T12:41:11Z</time>
      </trkpt>
      <trkpt lat="46.62415" lon="5.30354">
        <ele>188.6</ele>
        <time>2021-11-11T12:41:15Z</time>
      </trkpt>
      <trkpt lat="46.6242" lon="5.30362">
        <ele>188.8</ele>
        <time>2021-11-11T12:41:16Z</time>
      </trkpt>
      <trkpt lat="46.62427" lon="5.30379">
        <ele>188.8</ele>
        <time>2021-11-11T12:41:18Z</time>
      </trkpt>
      <trkpt lat="46.62428" lon="5.30386">
        <ele>189.2</ele>
        <time>2021-11-11T12:41:19Z</time>
      </trkpt>
      <trkpt lat="46.6243" lon="5.30395">
        <ele>189.4</ele>
        <time>2021-11-11T12:41:20Z</time>
      </trkpt>
      <trkpt lat="46.6243" lon="5.30414">
        <ele>189.8</ele>
        <time>2021-11-11T12:41:22Z</time>
      </trkpt>
      <trkpt lat="46.62417" lon="5.3046">
        <ele>190.4</ele>
        <time>2021-11-11T12:41:28Z</time>
      </trkpt>
      <trkpt lat="46.62409" lon="5.30489">
        <ele>190.8</ele>
        <time>2021-11-11T12:41:32Z</time>
      </trkpt>
      <trkpt lat="46.62402" lon="5.30518">
        <ele>191.8</ele>
        <time>2021-11-11T12:41:36Z</time>
      </trkpt>
      <trkpt lat="46.62399" lon="5.3053">
        <ele>192</ele>
        <time>2021-11-11T12:41:38Z</time>
      </trkpt>
      <trkpt lat="46.62388" lon="5.30566">
        <ele>192.8</ele>
        <time>2021-11-11T12:41:43Z</time>
      </trkpt>
      <trkpt lat="46.62387" lon="5.30575">
        <ele>193</ele>
        <time>2021-11-11T12:41:44Z</time>
      </trkpt>
      <trkpt lat="46.62385" lon="5.30589">
        <ele>193</ele>
        <time>2021-11-11T12:41:46Z</time>
      </trkpt>
      <trkpt lat="46.62385" lon="5.30603">
        <ele>193.6</ele>
        <time>2021-11-11T12:41:48Z</time>
      </trkpt>
      <trkpt lat="46.62389" lon="5.30627">
        <ele>194</ele>
        <time>2021-11-11T12:41:51Z</time>
      </trkpt>
      <trkpt lat="46.62394" lon="5.30641">
        <ele>194.2</ele>
        <time>2021-11-11T12:41:53Z</time>
      </trkpt>
      <trkpt lat="46.62409" lon="5.30679">
        <ele>195.4</ele>
        <time>2021-11-11T12:41:59Z</time>
      </trkpt>
      <trkpt lat="46.62414" lon="5.30692">
        <ele>195.8</ele>
        <time>2021-11-11T12:42:01Z</time>
      </trkpt>
      <trkpt lat="46.62423" lon="5.30715">
        <ele>196.6</ele>
        <time>2021-11-11T12:42:05Z</time>
      </trkpt>
      <trkpt lat="46.62429" lon="5.3074">
        <ele>197.6</ele>
        <time>2021-11-11T12:42:09Z</time>
      </trkpt>
      <trkpt lat="46.6243" lon="5.30745">
        <ele>197.8</ele>
        <time>2021-11-11T12:42:10Z</time>
      </trkpt>
      <trkpt lat="46.62441" lon="5.30793">
        <ele>198.8</ele>
        <time>2021-11-11T12:42:17Z</time>
      </trkpt>
      <trkpt lat="46.62444" lon="5.30807">
        <ele>199</ele>
        <time>2021-11-11T12:42:19Z</time>
      </trkpt>
      <trkpt lat="46.62455" lon="5.30863">
        <ele>198.6</ele>
        <time>2021-11-11T12:42:26Z</time>
      </trkpt>
      <trkpt lat="46.62466" lon="5.30924">
        <ele>197.8</ele>
        <time>2021-11-11T12:42:33Z</time>
      </trkpt>
      <trkpt lat="46.62469" lon="5.30934">
        <ele>197.8</ele>
        <time>2021-11-11T12:42:34Z</time>
      </trkpt>
      <trkpt lat="46.62482" lon="5.31006">
        <ele>197</ele>
        <time>2021-11-11T12:42:42Z</time>
      </trkpt>
      <trkpt lat="46.62484" lon="5.31024">
        <ele>196.8</ele>
        <time>2021-11-11T12:42:44Z</time>
      </trkpt>
      <trkpt lat="46.62481" lon="5.31042">
        <ele>196.4</ele>
        <time>2021-11-11T12:42:46Z</time>
      </trkpt>
      <trkpt lat="46.62474" lon="5.31057">
        <ele>196.2</ele>
        <time>2021-11-11T12:42:48Z</time>
      </trkpt>
      <trkpt lat="46.62468" lon="5.31064">
        <ele>196.2</ele>
        <time>2021-11-11T12:42:49Z</time>
      </trkpt>
      <trkpt lat="46.62463" lon="5.31069">
        <ele>196</ele>
        <time>2021-11-11T12:42:50Z</time>
      </trkpt>
      <trkpt lat="46.62457" lon="5.31074">
        <ele>195.8</ele>
        <time>2021-11-11T12:42:51Z</time>
      </trkpt>
      <trkpt lat="46.62445" lon="5.31084">
        <ele>195.4</ele>
        <time>2021-11-11T12:42:53Z</time>
      </trkpt>
      <trkpt lat="46.62417" lon="5.31112">
        <ele>194.6</ele>
        <time>2021-11-11T12:42:57Z</time>
      </trkpt>
      <trkpt lat="46.62412" lon="5.31121">
        <ele>194.2</ele>
        <time>2021-11-11T12:42:58Z</time>
      </trkpt>
      <trkpt lat="46.62407" lon="5.3113">
        <ele>194.2</ele>
        <time>2021-11-11T12:42:59Z</time>
      </trkpt>
      <trkpt lat="46.62404" lon="5.31141">
        <ele>193.4</ele>
        <time>2021-11-11T12:43:00Z</time>
      </trkpt>
      <trkpt lat="46.62402" lon="5.3115">
        <ele>193</ele>
        <time>2021-11-11T12:43:01Z</time>
      </trkpt>
      <trkpt lat="46.624" lon="5.31161">
        <ele>192.4</ele>
        <time>2021-11-11T12:43:02Z</time>
      </trkpt>
      <trkpt lat="46.62399" lon="5.31199">
        <ele>191.6</ele>
        <time>2021-11-11T12:43:05Z</time>
      </trkpt>
      <trkpt lat="46.62399" lon="5.31221">
        <ele>190.8</ele>
        <time>2021-11-11T12:43:07Z</time>
      </trkpt>
      <trkpt lat="46.62398" lon="5.31251">
        <ele>190.4</ele>
        <time>2021-11-11T12:43:10Z</time>
      </trkpt>
      <trkpt lat="46.62397" lon="5.31262">
        <ele>190.2</ele>
        <time>2021-11-11T12:43:11Z</time>
      </trkpt>
      <trkpt lat="46.62395" lon="5.31274">
        <ele>190</ele>
        <time>2021-11-11T12:43:12Z</time>
      </trkpt>
      <trkpt lat="46.62391" lon="5.31283">
        <ele>189.8</ele>
        <time>2021-11-11T12:43:13Z</time>
      </trkpt>
      <trkpt lat="46.62386" lon="5.31292">
        <ele>189.6</ele>
        <time>2021-11-11T12:43:14Z</time>
      </trkpt>
      <trkpt lat="46.62374" lon="5.31304">
        <ele>189.2</ele>
        <time>2021-11-11T12:43:16Z</time>
      </trkpt>
      <trkpt lat="46.6236" lon="5.31313">
        <ele>189.2</ele>
        <time>2021-11-11T12:43:17Z</time>
      </trkpt>
      <trkpt lat="46.62317" lon="5.31343">
        <ele>189</ele>
        <time>2021-11-11T12:43:25Z</time>
      </trkpt>
      <trkpt lat="46.62273" lon="5.31382">
        <ele>189.8</ele>
        <time>2021-11-11T12:43:33Z</time>
      </trkpt>
      <trkpt lat="46.62239" lon="5.31411">
        <ele>191</ele>
        <time>2021-11-11T12:43:40Z</time>
      </trkpt>
      <trkpt lat="46.62219" lon="5.31426">
        <ele>192</ele>
        <time>2021-11-11T12:43:45Z</time>
      </trkpt>
      <trkpt lat="46.6221" lon="5.31429">
        <ele>192.8</ele>
        <time>2021-11-11T12:43:47Z</time>
      </trkpt>
      <trkpt lat="46.62202" lon="5.3143">
        <ele>193.2</ele>
        <time>2021-11-11T12:43:49Z</time>
      </trkpt>
      <trkpt lat="46.62197" lon="5.3143">
        <ele>193.6</ele>
        <time>2021-11-11T12:43:50Z</time>
      </trkpt>
      <trkpt lat="46.62181" lon="5.31429">
        <ele>194.4</ele>
        <time>2021-11-11T12:43:53Z</time>
      </trkpt>
      <trkpt lat="46.62173" lon="5.31428">
        <ele>195</ele>
        <time>2021-11-11T12:43:55Z</time>
      </trkpt>
      <trkpt lat="46.6217" lon="5.31428">
        <ele>195.6</ele>
        <time>2021-11-11T12:43:57Z</time>
      </trkpt>
      <trkpt lat="46.62143" lon="5.31428">
        <ele>196.8</ele>
        <time>2021-11-11T12:44:03Z</time>
      </trkpt>
      <trkpt lat="46.62139" lon="5.31429">
        <ele>197.2</ele>
        <time>2021-11-11T12:44:04Z</time>
      </trkpt>
      <trkpt lat="46.62136" lon="5.31428">
        <ele>198</ele>
        <time>2021-11-11T12:44:06Z</time>
      </trkpt>
      <trkpt lat="46.6211" lon="5.31426">
        <ele>199</ele>
        <time>2021-11-11T12:44:11Z</time>
      </trkpt>
      <trkpt lat="46.62101" lon="5.31425">
        <ele>199.4</ele>
        <time>2021-11-11T12:44:13Z</time>
      </trkpt>
      <trkpt lat="46.62093" lon="5.31424">
        <ele>200</ele>
        <time>2021-11-11T12:44:15Z</time>
      </trkpt>
      <trkpt lat="46.6207" lon="5.31424">
        <ele>201.2</ele>
        <time>2021-11-11T12:44:21Z</time>
      </trkpt>
      <trkpt lat="46.62025" lon="5.31423">
        <ele>201.6</ele>
        <time>2021-11-11T12:44:29Z</time>
      </trkpt>
      <trkpt lat="46.6197" lon="5.31421">
        <ele>202</ele>
        <time>2021-11-11T12:44:39Z</time>
      </trkpt>
      <trkpt lat="46.61947" lon="5.3142">
        <ele>202.2</ele>
        <time>2021-11-11T12:44:44Z</time>
      </trkpt>
      <trkpt lat="46.6193" lon="5.31419">
        <ele>202.4</ele>
        <time>2021-11-11T12:44:47Z</time>
      </trkpt>
      <trkpt lat="46.61892" lon="5.31418">
        <ele>202.4</ele>
        <time>2021-11-11T12:44:54Z</time>
      </trkpt>
      <trkpt lat="46.6188" lon="5.31422">
        <ele>202.4</ele>
        <time>2021-11-11T12:44:55Z</time>
      </trkpt>
      <trkpt lat="46.6186" lon="5.3144">
        <ele>202.2</ele>
        <time>2021-11-11T12:44:59Z</time>
      </trkpt>
      <trkpt lat="46.61857" lon="5.31447">
        <ele>202.2</ele>
        <time>2021-11-11T12:45:00Z</time>
      </trkpt>
      <trkpt lat="46.6184" lon="5.31494">
        <ele>202.2</ele>
        <time>2021-11-11T12:45:06Z</time>
      </trkpt>
      <trkpt lat="46.61817" lon="5.31573">
        <ele>202.6</ele>
        <time>2021-11-11T12:45:15Z</time>
      </trkpt>
      <trkpt lat="46.61794" lon="5.31653">
        <ele>202.2</ele>
        <time>2021-11-11T12:45:24Z</time>
      </trkpt>
      <trkpt lat="46.61788" lon="5.31671">
        <ele>202</ele>
        <time>2021-11-11T12:45:26Z</time>
      </trkpt>
      <trkpt lat="46.61766" lon="5.31745">
        <ele>201.8</ele>
        <time>2021-11-11T12:45:34Z</time>
      </trkpt>
      <trkpt lat="46.61743" lon="5.31821">
        <ele>201.8</ele>
        <time>2021-11-11T12:45:42Z</time>
      </trkpt>
      <trkpt lat="46.61737" lon="5.3184">
        <ele>201.8</ele>
        <time>2021-11-11T12:45:44Z</time>
      </trkpt>
      <trkpt lat="46.61716" lon="5.31917">
        <ele>201.6</ele>
        <time>2021-11-11T12:45:52Z</time>
      </trkpt>
      <trkpt lat="46.61707" lon="5.31946">
        <ele>201.2</ele>
        <time>2021-11-11T12:45:55Z</time>
      </trkpt>
      <trkpt lat="46.617" lon="5.31966">
        <ele>201</ele>
        <time>2021-11-11T12:45:57Z</time>
      </trkpt>
      <trkpt lat="46.61691" lon="5.31982">
        <ele>200.8</ele>
        <time>2021-11-11T12:45:59Z</time>
      </trkpt>
      <trkpt lat="46.61678" lon="5.31997">
        <ele>200.4</ele>
        <time>2021-11-11T12:46:01Z</time>
      </trkpt>
      <trkpt lat="46.61662" lon="5.32012">
        <ele>200</ele>
        <time>2021-11-11T12:46:03Z</time>
      </trkpt>
      <trkpt lat="46.61638" lon="5.32028">
        <ele>198.6</ele>
        <time>2021-11-11T12:46:06Z</time>
      </trkpt>
      <trkpt lat="46.61621" lon="5.32036">
        <ele>198</ele>
        <time>2021-11-11T12:46:08Z</time>
      </trkpt>
      <trkpt lat="46.61604" lon="5.32041">
        <ele>197.2</ele>
        <time>2021-11-11T12:46:10Z</time>
      </trkpt>
      <trkpt lat="46.61581" lon="5.3205">
        <ele>196.2</ele>
        <time>2021-11-11T12:46:13Z</time>
      </trkpt>
      <trkpt lat="46.61574" lon="5.32054">
        <ele>196</ele>
        <time>2021-11-11T12:46:14Z</time>
      </trkpt>
      <trkpt lat="46.61562" lon="5.32065">
        <ele>195.2</ele>
        <time>2021-11-11T12:46:16Z</time>
      </trkpt>
      <trkpt lat="46.61558" lon="5.32072">
        <ele>195</ele>
        <time>2021-11-11T12:46:17Z</time>
      </trkpt>
      <trkpt lat="46.61526" lon="5.32117">
        <ele>194.4</ele>
        <time>2021-11-11T12:46:24Z</time>
      </trkpt>
      <trkpt lat="46.61517" lon="5.32127">
        <ele>194.4</ele>
        <time>2021-11-11T12:46:26Z</time>
      </trkpt>
      <trkpt lat="46.61513" lon="5.32132">
        <ele>194.4</ele>
        <time>2021-11-11T12:46:28Z</time>
      </trkpt>
      <trkpt lat="46.61512" lon="5.32147">
        <ele>194.4</ele>
        <time>2021-11-11T12:46:29Z</time>
      </trkpt>
      <trkpt lat="46.61515" lon="5.32153">
        <ele>194.4</ele>
        <time>2021-11-11T12:46:30Z</time>
      </trkpt>
      <trkpt lat="46.61536" lon="5.32175">
        <ele>194.4</ele>
        <time>2021-11-11T12:46:34Z</time>
      </trkpt>
      <trkpt lat="46.61563" lon="5.32219">
        <ele>194.6</ele>
        <time>2021-11-11T12:46:40Z</time>
      </trkpt>
      <trkpt lat="46.61588" lon="5.32263">
        <ele>195.4</ele>
        <time>2021-11-11T12:46:46Z</time>
      </trkpt>
      <trkpt lat="46.61591" lon="5.32271">
        <ele>195.6</ele>
        <time>2021-11-11T12:46:47Z</time>
      </trkpt>
      <trkpt lat="46.61598" lon="5.32296">
        <ele>195.6</ele>
        <time>2021-11-11T12:46:50Z</time>
      </trkpt>
      <trkpt lat="46.61602" lon="5.32313">
        <ele>195.6</ele>
        <time>2021-11-11T12:46:52Z</time>
      </trkpt>
      <trkpt lat="46.61608" lon="5.32355">
        <ele>195.8</ele>
        <time>2021-11-11T12:46:57Z</time>
      </trkpt>
      <trkpt lat="46.61613" lon="5.32371">
        <ele>196</ele>
        <time>2021-11-11T12:46:59Z</time>
      </trkpt>
      <trkpt lat="46.61623" lon="5.32393">
        <ele>196.2</ele>
        <time>2021-11-11T12:47:02Z</time>
      </trkpt>
      <trkpt lat="46.6165" lon="5.32424">
        <ele>196.8</ele>
        <time>2021-11-11T12:47:08Z</time>
      </trkpt>
      <trkpt lat="46.61664" lon="5.32434">
        <ele>197.4</ele>
        <time>2021-11-11T12:47:11Z</time>
      </trkpt>
      <trkpt lat="46.61688" lon="5.32448">
        <ele>198.2</ele>
        <time>2021-11-11T12:47:16Z</time>
      </trkpt>
      <trkpt lat="46.61708" lon="5.32458">
        <ele>198.6</ele>
        <time>2021-11-11T12:47:20Z</time>
      </trkpt>
      <trkpt lat="46.61729" lon="5.32467">
        <ele>198.8</ele>
        <time>2021-11-11T12:47:24Z</time>
      </trkpt>
      <trkpt lat="46.61733" lon="5.3247">
        <ele>198.8</ele>
        <time>2021-11-11T12:47:25Z</time>
      </trkpt>
      <trkpt lat="46.61753" lon="5.32483">
        <ele>199.2</ele>
        <time>2021-11-11T12:47:29Z</time>
      </trkpt>
      <trkpt lat="46.61763" lon="5.32488">
        <ele>199.6</ele>
        <time>2021-11-11T12:47:31Z</time>
      </trkpt>
      <trkpt lat="46.61782" lon="5.32503">
        <ele>200</ele>
        <time>2021-11-11T12:47:35Z</time>
      </trkpt>
      <trkpt lat="46.61795" lon="5.32514">
        <ele>200.8</ele>
        <time>2021-11-11T12:47:38Z</time>
      </trkpt>
      <trkpt lat="46.61807" lon="5.32526">
        <ele>201.8</ele>
        <time>2021-11-11T12:47:41Z</time>
      </trkpt>
      <trkpt lat="46.61823" lon="5.32541">
        <ele>202.6</ele>
        <time>2021-11-11T12:47:45Z</time>
      </trkpt>
      <trkpt lat="46.61838" lon="5.32554">
        <ele>203</ele>
        <time>2021-11-11T12:47:49Z</time>
      </trkpt>
      <trkpt lat="46.61866" lon="5.32579">
        <ele>204</ele>
        <time>2021-11-11T12:47:56Z</time>
      </trkpt>
      <trkpt lat="46.61866" lon="5.32579">
        <ele>204.2</ele>
        <time>2021-11-11T12:47:57Z</time>
      </trkpt>
      <trkpt lat="46.61907" lon="5.32628">
        <ele>204.6</ele>
        <time>2021-11-11T12:48:06Z</time>
      </trkpt>
      <trkpt lat="46.61949" lon="5.32687">
        <ele>204.8</ele>
        <time>2021-11-11T12:48:16Z</time>
      </trkpt>
      <trkpt lat="46.6199" lon="5.32748">
        <ele>204.2</ele>
        <time>2021-11-11T12:48:25Z</time>
      </trkpt>
      <trkpt lat="46.62023" lon="5.32798">
        <ele>204.4</ele>
        <time>2021-11-11T12:48:33Z</time>
      </trkpt>
      <trkpt lat="46.6205" lon="5.32842">
        <ele>205.2</ele>
        <time>2021-11-11T12:48:40Z</time>
      </trkpt>
      <trkpt lat="46.62081" lon="5.32886">
        <ele>205.8</ele>
        <time>2021-11-11T12:48:47Z</time>
      </trkpt>
      <trkpt lat="46.62092" lon="5.32896">
        <ele>206.2</ele>
        <time>2021-11-11T12:48:49Z</time>
      </trkpt>
      <trkpt lat="46.6212" lon="5.32916">
        <ele>206.4</ele>
        <time>2021-11-11T12:48:54Z</time>
      </trkpt>
      <trkpt lat="46.62154" lon="5.32938">
        <ele>206.4</ele>
        <time>2021-11-11T12:49:00Z</time>
      </trkpt>
      <trkpt lat="46.62167" lon="5.32941">
        <ele>206.2</ele>
        <time>2021-11-11T12:49:02Z</time>
      </trkpt>
      <trkpt lat="46.6218" lon="5.32938">
        <ele>206.2</ele>
        <time>2021-11-11T12:49:04Z</time>
      </trkpt>
      <trkpt lat="46.62193" lon="5.32931">
        <ele>206</ele>
        <time>2021-11-11T12:49:06Z</time>
      </trkpt>
      <trkpt lat="46.62215" lon="5.32923">
        <ele>205.8</ele>
        <time>2021-11-11T12:49:09Z</time>
      </trkpt>
      <trkpt lat="46.62215" lon="5.32923">
        <ele>205.8</ele>
        <time>2021-11-11T12:49:10Z</time>
      </trkpt>
      <trkpt lat="46.6223" lon="5.3292">
        <ele>205.4</ele>
        <time>2021-11-11T12:49:11Z</time>
      </trkpt>
      <trkpt lat="46.62247" lon="5.32919">
        <ele>205</ele>
        <time>2021-11-11T12:49:13Z</time>
      </trkpt>
      <trkpt lat="46.62264" lon="5.32919">
        <ele>204.2</ele>
        <time>2021-11-11T12:49:15Z</time>
      </trkpt>
      <trkpt lat="46.62273" lon="5.32918">
        <ele>204</ele>
        <time>2021-11-11T12:49:16Z</time>
      </trkpt>
      <trkpt lat="46.62309" lon="5.32917">
        <ele>202.6</ele>
        <time>2021-11-11T12:49:20Z</time>
      </trkpt>
      <trkpt lat="46.62328" lon="5.32916">
        <ele>201.6</ele>
        <time>2021-11-11T12:49:22Z</time>
      </trkpt>
      <trkpt lat="46.62338" lon="5.32915">
        <ele>201</ele>
        <time>2021-11-11T12:49:23Z</time>
      </trkpt>
      <trkpt lat="46.62367" lon="5.32912">
        <ele>199.8</ele>
        <time>2021-11-11T12:49:26Z</time>
      </trkpt>
      <trkpt lat="46.62397" lon="5.32909">
        <ele>198.4</ele>
        <time>2021-11-11T12:49:29Z</time>
      </trkpt>
      <trkpt lat="46.62415" lon="5.32906">
        <ele>197.2</ele>
        <time>2021-11-11T12:49:31Z</time>
      </trkpt>
      <trkpt lat="46.62435" lon="5.32903">
        <ele>196</ele>
        <time>2021-11-11T12:49:33Z</time>
      </trkpt>
      <trkpt lat="46.62456" lon="5.329">
        <ele>195</ele>
        <time>2021-11-11T12:49:35Z</time>
      </trkpt>
      <trkpt lat="46.62485" lon="5.32895">
        <ele>193.8</ele>
        <time>2021-11-11T12:49:38Z</time>
      </trkpt>
      <trkpt lat="46.62521" lon="5.32889">
        <ele>192.8</ele>
        <time>2021-11-11T12:49:42Z</time>
      </trkpt>
      <trkpt lat="46.62529" lon="5.32887">
        <ele>192.6</ele>
        <time>2021-11-11T12:49:43Z</time>
      </trkpt>
      <trkpt lat="46.62562" lon="5.32881">
        <ele>191.6</ele>
        <time>2021-11-11T12:49:47Z</time>
      </trkpt>
      <trkpt lat="46.6257" lon="5.32879">
        <ele>191.6</ele>
        <time>2021-11-11T12:49:48Z</time>
      </trkpt>
      <trkpt lat="46.62593" lon="5.32877">
        <ele>191.4</ele>
        <time>2021-11-11T12:49:51Z</time>
      </trkpt>
      <trkpt lat="46.62601" lon="5.32878">
        <ele>191.6</ele>
        <time>2021-11-11T12:49:52Z</time>
      </trkpt>
      <trkpt lat="46.62608" lon="5.32881">
        <ele>191.6</ele>
        <time>2021-11-11T12:49:53Z</time>
      </trkpt>
      <trkpt lat="46.62619" lon="5.32896">
        <ele>191.6</ele>
        <time>2021-11-11T12:49:55Z</time>
      </trkpt>
      <trkpt lat="46.62633" lon="5.32932">
        <ele>191.4</ele>
        <time>2021-11-11T12:49:59Z</time>
      </trkpt>
      <trkpt lat="46.62636" lon="5.3294">
        <ele>191.4</ele>
        <time>2021-11-11T12:50:00Z</time>
      </trkpt>
      <trkpt lat="46.62649" lon="5.32969">
        <ele>192</ele>
        <time>2021-11-11T12:50:04Z</time>
      </trkpt>
      <trkpt lat="46.62656" lon="5.3298">
        <ele>192.6</ele>
        <time>2021-11-11T12:50:06Z</time>
      </trkpt>
      <trkpt lat="46.62668" lon="5.32994">
        <ele>192.8</ele>
        <time>2021-11-11T12:50:09Z</time>
      </trkpt>
      <trkpt lat="46.62683" lon="5.33002">
        <ele>193.6</ele>
        <time>2021-11-11T12:50:12Z</time>
      </trkpt>
      <trkpt lat="46.62687" lon="5.33002">
        <ele>194</ele>
        <time>2021-11-11T12:50:13Z</time>
      </trkpt>
      <trkpt lat="46.62692" lon="5.33002">
        <ele>194.2</ele>
        <time>2021-11-11T12:50:14Z</time>
      </trkpt>
      <trkpt lat="46.62706" lon="5.33">
        <ele>195.2</ele>
        <time>2021-11-11T12:50:17Z</time>
      </trkpt>
      <trkpt lat="46.62715" lon="5.33">
        <ele>196</ele>
        <time>2021-11-11T12:50:19Z</time>
      </trkpt>
      <trkpt lat="46.6272" lon="5.33">
        <ele>196.2</ele>
        <time>2021-11-11T12:50:20Z</time>
      </trkpt>
      <trkpt lat="46.62724" lon="5.33001">
        <ele>196.6</ele>
        <time>2021-11-11T12:50:21Z</time>
      </trkpt>
      <trkpt lat="46.62739" lon="5.33005">
        <ele>197.4</ele>
        <time>2021-11-11T12:50:24Z</time>
      </trkpt>
      <trkpt lat="46.62763" lon="5.33013">
        <ele>198.4</ele>
        <time>2021-11-11T12:50:29Z</time>
      </trkpt>
      <trkpt lat="46.62768" lon="5.33015">
        <ele>198.8</ele>
        <time>2021-11-11T12:50:30Z</time>
      </trkpt>
      <trkpt lat="46.62792" lon="5.33023">
        <ele>199.6</ele>
        <time>2021-11-11T12:50:35Z</time>
      </trkpt>
      <trkpt lat="46.62808" lon="5.33027">
        <ele>200.4</ele>
        <time>2021-11-11T12:50:38Z</time>
      </trkpt>
      <trkpt lat="46.62823" lon="5.33032">
        <ele>200.6</ele>
        <time>2021-11-11T12:50:41Z</time>
      </trkpt>
      <trkpt lat="46.62849" lon="5.33039">
        <ele>201.2</ele>
        <time>2021-11-11T12:50:46Z</time>
      </trkpt>
      <trkpt lat="46.62881" lon="5.3305">
        <ele>201.8</ele>
        <time>2021-11-11T12:50:52Z</time>
      </trkpt>
      <trkpt lat="46.62886" lon="5.33052">
        <ele>201.8</ele>
        <time>2021-11-11T12:50:53Z</time>
      </trkpt>
      <trkpt lat="46.62891" lon="5.33056">
        <ele>202</ele>
        <time>2021-11-11T12:50:54Z</time>
      </trkpt>
      <trkpt lat="46.62904" lon="5.33069">
        <ele>202.2</ele>
        <time>2021-11-11T12:50:57Z</time>
      </trkpt>
      <trkpt lat="46.62912" lon="5.3308">
        <ele>202.2</ele>
        <time>2021-11-11T12:50:59Z</time>
      </trkpt>
      <trkpt lat="46.62934" lon="5.33103">
        <ele>202.6</ele>
        <time>2021-11-11T12:51:04Z</time>
      </trkpt>
      <trkpt lat="46.62939" lon="5.33106">
        <ele>202.8</ele>
        <time>2021-11-11T12:51:05Z</time>
      </trkpt>
      <trkpt lat="46.62944" lon="5.33109">
        <ele>202.8</ele>
        <time>2021-11-11T12:51:06Z</time>
      </trkpt>
      <trkpt lat="46.62973" lon="5.33119">
        <ele>203.2</ele>
        <time>2021-11-11T12:51:12Z</time>
      </trkpt>
      <trkpt lat="46.62984" lon="5.33122">
        <ele>204</ele>
        <time>2021-11-11T12:51:14Z</time>
      </trkpt>
      <trkpt lat="46.63012" lon="5.3313">
        <ele>205</ele>
        <time>2021-11-11T12:51:20Z</time>
      </trkpt>
      <trkpt lat="46.63039" lon="5.33141">
        <ele>206.2</ele>
        <time>2021-11-11T12:51:26Z</time>
      </trkpt>
      <trkpt lat="46.63048" lon="5.33147">
        <ele>206.6</ele>
        <time>2021-11-11T12:51:28Z</time>
      </trkpt>
      <trkpt lat="46.63057" lon="5.33154">
        <ele>207.2</ele>
        <time>2021-11-11T12:51:30Z</time>
      </trkpt>
      <trkpt lat="46.63083" lon="5.33179">
        <ele>208.4</ele>
        <time>2021-11-11T12:51:36Z</time>
      </trkpt>
      <trkpt lat="46.63104" lon="5.33202">
        <ele>209</ele>
        <time>2021-11-11T12:51:41Z</time>
      </trkpt>
      <trkpt lat="46.63106" lon="5.33209">
        <ele>209</ele>
        <time>2021-11-11T12:51:42Z</time>
      </trkpt>
      <trkpt lat="46.63107" lon="5.33217">
        <ele>209.2</ele>
        <time>2021-11-11T12:51:43Z</time>
      </trkpt>
      <trkpt lat="46.63109" lon="5.33234">
        <ele>209.2</ele>
        <time>2021-11-11T12:51:45Z</time>
      </trkpt>
      <trkpt lat="46.6311" lon="5.33243">
        <ele>209.2</ele>
        <time>2021-11-11T12:51:46Z</time>
      </trkpt>
      <trkpt lat="46.63126" lon="5.333">
        <ele>209.2</ele>
        <time>2021-11-11T12:51:53Z</time>
      </trkpt>
      <trkpt lat="46.63139" lon="5.33358">
        <ele>209</ele>
        <time>2021-11-11T12:52:00Z</time>
      </trkpt>
      <trkpt lat="46.63144" lon="5.33384">
        <ele>208.6</ele>
        <time>2021-11-11T12:52:03Z</time>
      </trkpt>
      <trkpt lat="46.63151" lon="5.33414">
        <ele>208.2</ele>
        <time>2021-11-11T12:52:06Z</time>
      </trkpt>
      <trkpt lat="46.63165" lon="5.33466">
        <ele>207.4</ele>
        <time>2021-11-11T12:52:11Z</time>
      </trkpt>
      <trkpt lat="46.63175" lon="5.335">
        <ele>206.2</ele>
        <time>2021-11-11T12:52:14Z</time>
      </trkpt>
      <trkpt lat="46.6319" lon="5.33545">
        <ele>205</ele>
        <time>2021-11-11T12:52:18Z</time>
      </trkpt>
      <trkpt lat="46.63201" lon="5.3358">
        <ele>203.6</ele>
        <time>2021-11-11T12:52:21Z</time>
      </trkpt>
      <trkpt lat="46.63215" lon="5.33629">
        <ele>202.6</ele>
        <time>2021-11-11T12:52:25Z</time>
      </trkpt>
      <trkpt lat="46.63222" lon="5.33654">
        <ele>201.6</ele>
        <time>2021-11-11T12:52:27Z</time>
      </trkpt>
      <trkpt lat="46.63234" lon="5.33691">
        <ele>200.4</ele>
        <time>2021-11-11T12:52:30Z</time>
      </trkpt>
      <trkpt lat="46.63244" lon="5.33726">
        <ele>198.8</ele>
        <time>2021-11-11T12:52:33Z</time>
      </trkpt>
      <trkpt lat="46.63247" lon="5.33738">
        <ele>198.6</ele>
        <time>2021-11-11T12:52:34Z</time>
      </trkpt>
      <trkpt lat="46.63264" lon="5.33804">
        <ele>197.8</ele>
        <time>2021-11-11T12:52:40Z</time>
      </trkpt>
      <trkpt lat="46.63269" lon="5.33826">
        <ele>197.6</ele>
        <time>2021-11-11T12:52:42Z</time>
      </trkpt>
      <trkpt lat="46.63271" lon="5.33837">
        <ele>197.6</ele>
        <time>2021-11-11T12:52:43Z</time>
      </trkpt>
      <trkpt lat="46.63275" lon="5.33872">
        <ele>197</ele>
        <time>2021-11-11T12:52:46Z</time>
      </trkpt>
      <trkpt lat="46.63277" lon="5.33895">
        <ele>196.6</ele>
        <time>2021-11-11T12:52:48Z</time>
      </trkpt>
      <trkpt lat="46.6328" lon="5.33948">
        <ele>196</ele>
        <time>2021-11-11T12:52:53Z</time>
      </trkpt>
      <trkpt lat="46.63283" lon="5.33997">
        <ele>195.8</ele>
        <time>2021-11-11T12:52:58Z</time>
      </trkpt>
      <trkpt lat="46.63286" lon="5.34068">
        <ele>196.8</ele>
        <time>2021-11-11T12:53:06Z</time>
      </trkpt>
      <trkpt lat="46.63287" lon="5.34117">
        <ele>197.8</ele>
        <time>2021-11-11T12:53:13Z</time>
      </trkpt>
      <trkpt lat="46.63288" lon="5.3414">
        <ele>198</ele>
        <time>2021-11-11T12:53:15Z</time>
      </trkpt>
      <trkpt lat="46.6329" lon="5.34194">
        <ele>199</ele>
        <time>2021-11-11T12:53:22Z</time>
      </trkpt>
      <trkpt lat="46.6329" lon="5.3421">
        <ele>199.4</ele>
        <time>2021-11-11T12:53:24Z</time>
      </trkpt>
      <trkpt lat="46.63289" lon="5.34217">
        <ele>199.6</ele>
        <time>2021-11-11T12:53:25Z</time>
      </trkpt>
      <trkpt lat="46.63285" lon="5.34231">
        <ele>199.8</ele>
        <time>2021-11-11T12:53:27Z</time>
      </trkpt>
      <trkpt lat="46.63283" lon="5.34238">
        <ele>200</ele>
        <time>2021-11-11T12:53:28Z</time>
      </trkpt>
      <trkpt lat="46.63282" lon="5.34244">
        <ele>200</ele>
        <time>2021-11-11T12:53:29Z</time>
      </trkpt>
      <trkpt lat="46.6328" lon="5.3425">
        <ele>200</ele>
        <time>2021-11-11T12:53:30Z</time>
      </trkpt>
      <trkpt lat="46.63279" lon="5.34257">
        <ele>200.2</ele>
        <time>2021-11-11T12:53:31Z</time>
      </trkpt>
      <trkpt lat="46.63278" lon="5.34263">
        <ele>200.6</ele>
        <time>2021-11-11T12:53:32Z</time>
      </trkpt>
      <trkpt lat="46.63275" lon="5.34276">
        <ele>201</ele>
        <time>2021-11-11T12:53:34Z</time>
      </trkpt>
      <trkpt lat="46.63274" lon="5.34283">
        <ele>201</ele>
        <time>2021-11-11T12:53:35Z</time>
      </trkpt>
      <trkpt lat="46.63272" lon="5.34291">
        <ele>201.4</ele>
        <time>2021-11-11T12:53:36Z</time>
      </trkpt>
      <trkpt lat="46.63265" lon="5.34326">
        <ele>202</ele>
        <time>2021-11-11T12:53:40Z</time>
      </trkpt>
      <trkpt lat="46.63261" lon="5.34343">
        <ele>202.6</ele>
        <time>2021-11-11T12:53:42Z</time>
      </trkpt>
      <trkpt lat="46.63259" lon="5.34353">
        <ele>202.8</ele>
        <time>2021-11-11T12:53:43Z</time>
      </trkpt>
      <trkpt lat="46.63258" lon="5.34374">
        <ele>203</ele>
        <time>2021-11-11T12:53:45Z</time>
      </trkpt>
      <trkpt lat="46.63259" lon="5.34403">
        <ele>202.8</ele>
        <time>2021-11-11T12:53:48Z</time>
      </trkpt>
      <trkpt lat="46.63262" lon="5.34423">
        <ele>202.6</ele>
        <time>2021-11-11T12:53:50Z</time>
      </trkpt>
      <trkpt lat="46.63274" lon="5.34502">
        <ele>201.4</ele>
        <time>2021-11-11T12:53:58Z</time>
      </trkpt>
      <trkpt lat="46.63276" lon="5.34512">
        <ele>201.2</ele>
        <time>2021-11-11T12:53:59Z</time>
      </trkpt>
      <trkpt lat="46.63279" lon="5.34554">
        <ele>200.6</ele>
        <time>2021-11-11T12:54:03Z</time>
      </trkpt>
      <trkpt lat="46.63282" lon="5.34586">
        <ele>200</ele>
        <time>2021-11-11T12:54:06Z</time>
      </trkpt>
      <trkpt lat="46.63283" lon="5.34628">
        <ele>199.4</ele>
        <time>2021-11-11T12:54:10Z</time>
      </trkpt>
      <trkpt lat="46.63275" lon="5.34697">
        <ele>199.2</ele>
        <time>2021-11-11T12:54:17Z</time>
      </trkpt>
      <trkpt lat="46.63268" lon="5.34773">
        <ele>199.2</ele>
        <time>2021-11-11T12:54:25Z</time>
      </trkpt>
      <trkpt lat="46.63269" lon="5.34802">
        <ele>199</ele>
        <time>2021-11-11T12:54:28Z</time>
      </trkpt>
      <trkpt lat="46.6327" lon="5.34821">
        <ele>199</ele>
        <time>2021-11-11T12:54:30Z</time>
      </trkpt>
      <trkpt lat="46.63278" lon="5.34902">
        <ele>199.2</ele>
        <time>2021-11-11T12:54:39Z</time>
      </trkpt>
      <trkpt lat="46.6328" lon="5.34963">
        <ele>200.2</ele>
        <time>2021-11-11T12:54:46Z</time>
      </trkpt>
      <trkpt lat="46.63284" lon="5.3498">
        <ele>200.6</ele>
        <time>2021-11-11T12:54:48Z</time>
      </trkpt>
      <trkpt lat="46.6329" lon="5.34996">
        <ele>200.8</ele>
        <time>2021-11-11T12:54:50Z</time>
      </trkpt>
      <trkpt lat="46.63317" lon="5.35044">
        <ele>201</ele>
        <time>2021-11-11T12:54:57Z</time>
      </trkpt>
      <trkpt lat="46.63336" lon="5.35087">
        <ele>201</ele>
        <time>2021-11-11T12:55:03Z</time>
      </trkpt>
      <trkpt lat="46.63339" lon="5.35105">
        <ele>201.2</ele>
        <time>2021-11-11T12:55:05Z</time>
      </trkpt>
      <trkpt lat="46.63339" lon="5.35123">
        <ele>201.2</ele>
        <time>2021-11-11T12:55:07Z</time>
      </trkpt>
      <trkpt lat="46.63341" lon="5.35173">
        <ele>201.2</ele>
        <time>2021-11-11T12:55:12Z</time>
      </trkpt>
      <trkpt lat="46.63343" lon="5.35246">
        <ele>200.4</ele>
        <time>2021-11-11T12:55:19Z</time>
      </trkpt>
      <trkpt lat="46.63344" lon="5.35317">
        <ele>199.8</ele>
        <time>2021-11-11T12:55:26Z</time>
      </trkpt>
      <trkpt lat="46.63347" lon="5.35371">
        <ele>199.8</ele>
        <time>2021-11-11T12:55:32Z</time>
      </trkpt>
      <trkpt lat="46.6336" lon="5.35418">
        <ele>200</ele>
        <time>2021-11-11T12:55:38Z</time>
      </trkpt>
      <trkpt lat="46.63373" lon="5.35471">
        <ele>200.6</ele>
        <time>2021-11-11T12:55:45Z</time>
      </trkpt>
      <trkpt lat="46.63377" lon="5.35486">
        <ele>200.8</ele>
        <time>2021-11-11T12:55:47Z</time>
      </trkpt>
      <trkpt lat="46.63385" lon="5.35496">
        <ele>201</ele>
        <time>2021-11-11T12:55:49Z</time>
      </trkpt>
      <trkpt lat="46.63396" lon="5.35499">
        <ele>201.2</ele>
        <time>2021-11-11T12:55:51Z</time>
      </trkpt>
      <trkpt lat="46.63401" lon="5.35498">
        <ele>201.6</ele>
        <time>2021-11-11T12:55:52Z</time>
      </trkpt>
      <trkpt lat="46.63407" lon="5.35496">
        <ele>201.6</ele>
        <time>2021-11-11T12:55:53Z</time>
      </trkpt>
      <trkpt lat="46.63429" lon="5.35489">
        <ele>202.4</ele>
        <time>2021-11-11T12:55:57Z</time>
      </trkpt>
      <trkpt lat="46.63434" lon="5.3549">
        <ele>202.6</ele>
        <time>2021-11-11T12:55:58Z</time>
      </trkpt>
      <trkpt lat="46.6344" lon="5.35491">
        <ele>202.8</ele>
        <time>2021-11-11T12:55:59Z</time>
      </trkpt>
      <trkpt lat="46.63454" lon="5.35501">
        <ele>203</ele>
        <time>2021-11-11T12:56:02Z</time>
      </trkpt>
      <trkpt lat="46.63458" lon="5.35506">
        <ele>203.2</ele>
        <time>2021-11-11T12:56:03Z</time>
      </trkpt>
      <trkpt lat="46.63462" lon="5.3551">
        <ele>203.6</ele>
        <time>2021-11-11T12:56:04Z</time>
      </trkpt>
      <trkpt lat="46.63479" lon="5.35528">
        <ele>204</ele>
        <time>2021-11-11T12:56:08Z</time>
      </trkpt>
      <trkpt lat="46.63515" lon="5.3556">
        <ele>204.6</ele>
        <time>2021-11-11T12:56:16Z</time>
      </trkpt>
      <trkpt lat="46.63524" lon="5.35566">
        <ele>205</ele>
        <time>2021-11-11T12:56:18Z</time>
      </trkpt>
      <trkpt lat="46.63544" lon="5.35573">
        <ele>205.6</ele>
        <time>2021-11-11T12:56:22Z</time>
      </trkpt>
      <trkpt lat="46.63579" lon="5.35585">
        <ele>206.2</ele>
        <time>2021-11-11T12:56:29Z</time>
      </trkpt>
      <trkpt lat="46.63588" lon="5.35589">
        <ele>206.8</ele>
        <time>2021-11-11T12:56:31Z</time>
      </trkpt>
      <trkpt lat="46.63606" lon="5.35597">
        <ele>207.4</ele>
        <time>2021-11-11T12:56:35Z</time>
      </trkpt>
      <trkpt lat="46.63615" lon="5.35599">
        <ele>208</ele>
        <time>2021-11-11T12:56:37Z</time>
      </trkpt>
      <trkpt lat="46.63638" lon="5.35605">
        <ele>209.2</ele>
        <time>2021-11-11T12:56:42Z</time>
      </trkpt>
      <trkpt lat="46.63653" lon="5.3561">
        <ele>209.6</ele>
        <time>2021-11-11T12:56:45Z</time>
      </trkpt>
      <trkpt lat="46.63662" lon="5.35614">
        <ele>210.2</ele>
        <time>2021-11-11T12:56:47Z</time>
      </trkpt>
      <trkpt lat="46.63698" lon="5.3563">
        <ele>211.2</ele>
        <time>2021-11-11T12:56:55Z</time>
      </trkpt>
      <trkpt lat="46.63703" lon="5.35631">
        <ele>211.6</ele>
        <time>2021-11-11T12:56:56Z</time>
      </trkpt>
      <trkpt lat="46.63713" lon="5.35634">
        <ele>211.8</ele>
        <time>2021-11-11T12:56:58Z</time>
      </trkpt>
      <trkpt lat="46.63728" lon="5.35638">
        <ele>212.2</ele>
        <time>2021-11-11T12:57:01Z</time>
      </trkpt>
      <trkpt lat="46.63739" lon="5.35638">
        <ele>212.8</ele>
        <time>2021-11-11T12:57:03Z</time>
      </trkpt>
      <trkpt lat="46.63772" lon="5.35638">
        <ele>213.4</ele>
        <time>2021-11-11T12:57:09Z</time>
      </trkpt>
      <trkpt lat="46.63816" lon="5.35636">
        <ele>213.6</ele>
        <time>2021-11-11T12:57:16Z</time>
      </trkpt>
      <trkpt lat="46.6387" lon="5.35634">
        <ele>213.2</ele>
        <time>2021-11-11T12:57:24Z</time>
      </trkpt>
      <trkpt lat="46.63929" lon="5.35632">
        <ele>212.8</ele>
        <time>2021-11-11T12:57:32Z</time>
      </trkpt>
      <trkpt lat="46.63936" lon="5.35632">
        <ele>212.8</ele>
        <time>2021-11-11T12:57:33Z</time>
      </trkpt>
      <trkpt lat="46.63994" lon="5.35629">
        <ele>212.2</ele>
        <time>2021-11-11T12:57:41Z</time>
      </trkpt>
      <trkpt lat="46.64001" lon="5.35628">
        <ele>212.2</ele>
        <time>2021-11-11T12:57:42Z</time>
      </trkpt>
      <trkpt lat="46.64044" lon="5.35622">
        <ele>211.4</ele>
        <time>2021-11-11T12:57:48Z</time>
      </trkpt>
      <trkpt lat="46.64051" lon="5.35622">
        <ele>211.2</ele>
        <time>2021-11-11T12:57:49Z</time>
      </trkpt>
      <trkpt lat="46.64088" lon="5.35633">
        <ele>210.4</ele>
        <time>2021-11-11T12:57:54Z</time>
      </trkpt>
      <trkpt lat="46.64137" lon="5.35656">
        <ele>210.4</ele>
        <time>2021-11-11T12:58:01Z</time>
      </trkpt>
      <trkpt lat="46.64145" lon="5.35659">
        <ele>210.2</ele>
        <time>2021-11-11T12:58:02Z</time>
      </trkpt>
      <trkpt lat="46.64195" lon="5.35675">
        <ele>209.8</ele>
        <time>2021-11-11T12:58:09Z</time>
      </trkpt>
      <trkpt lat="46.64204" lon="5.3568">
        <ele>209.6</ele>
        <time>2021-11-11T12:58:10Z</time>
      </trkpt>
      <trkpt lat="46.64223" lon="5.35696">
        <ele>209.4</ele>
        <time>2021-11-11T12:58:13Z</time>
      </trkpt>
      <trkpt lat="46.64229" lon="5.35702">
        <ele>209.2</ele>
        <time>2021-11-11T12:58:14Z</time>
      </trkpt>
      <trkpt lat="46.64246" lon="5.35719">
        <ele>209</ele>
        <time>2021-11-11T12:58:17Z</time>
      </trkpt>
      <trkpt lat="46.64252" lon="5.35723">
        <ele>208.8</ele>
        <time>2021-11-11T12:58:18Z</time>
      </trkpt>
      <trkpt lat="46.64259" lon="5.35726">
        <ele>208.8</ele>
        <time>2021-11-11T12:58:19Z</time>
      </trkpt>
      <trkpt lat="46.64283" lon="5.35732">
        <ele>208.6</ele>
        <time>2021-11-11T12:58:22Z</time>
      </trkpt>
      <trkpt lat="46.6432" lon="5.35731">
        <ele>208</ele>
        <time>2021-11-11T12:58:27Z</time>
      </trkpt>
      <trkpt lat="46.64327" lon="5.35732">
        <ele>208</ele>
        <time>2021-11-11T12:58:28Z</time>
      </trkpt>
      <trkpt lat="46.64336" lon="5.35734">
        <ele>207.8</ele>
        <time>2021-11-11T12:58:29Z</time>
      </trkpt>
      <trkpt lat="46.64342" lon="5.35737">
        <ele>207.6</ele>
        <time>2021-11-11T12:58:30Z</time>
      </trkpt>
      <trkpt lat="46.64362" lon="5.3575">
        <ele>207</ele>
        <time>2021-11-11T12:58:33Z</time>
      </trkpt>
      <trkpt lat="46.64375" lon="5.35757">
        <ele>207</ele>
        <time>2021-11-11T12:58:35Z</time>
      </trkpt>
      <trkpt lat="46.64397" lon="5.35764">
        <ele>206.6</ele>
        <time>2021-11-11T12:58:38Z</time>
      </trkpt>
      <trkpt lat="46.64406" lon="5.35774">
        <ele>206.4</ele>
        <time>2021-11-11T12:58:40Z</time>
      </trkpt>
      <trkpt lat="46.64406" lon="5.35792">
        <ele>206.4</ele>
        <time>2021-11-11T12:58:42Z</time>
      </trkpt>
      <trkpt lat="46.64399" lon="5.35833">
        <ele>206.2</ele>
        <time>2021-11-11T12:58:46Z</time>
      </trkpt>
      <trkpt lat="46.64397" lon="5.35845">
        <ele>206.2</ele>
        <time>2021-11-11T12:58:47Z</time>
      </trkpt>
      <trkpt lat="46.64393" lon="5.35881">
        <ele>205.8</ele>
        <time>2021-11-11T12:58:50Z</time>
      </trkpt>
      <trkpt lat="46.64387" lon="5.35931">
        <ele>205.4</ele>
        <time>2021-11-11T12:58:54Z</time>
      </trkpt>
      <trkpt lat="46.64381" lon="5.35974">
        <ele>204.8</ele>
        <time>2021-11-11T12:58:57Z</time>
      </trkpt>
      <trkpt lat="46.64376" lon="5.36014">
        <ele>203.6</ele>
        <time>2021-11-11T12:59:00Z</time>
      </trkpt>
      <trkpt lat="46.64372" lon="5.36053">
        <ele>202.4</ele>
        <time>2021-11-11T12:59:03Z</time>
      </trkpt>
      <trkpt lat="46.64368" lon="5.36081">
        <ele>201.4</ele>
        <time>2021-11-11T12:59:05Z</time>
      </trkpt>
      <trkpt lat="46.64363" lon="5.36122">
        <ele>200.2</ele>
        <time>2021-11-11T12:59:08Z</time>
      </trkpt>
      <trkpt lat="46.64356" lon="5.36172">
        <ele>199.4</ele>
        <time>2021-11-11T12:59:12Z</time>
      </trkpt>
      <trkpt lat="46.64353" lon="5.36196">
        <ele>199.4</ele>
        <time>2021-11-11T12:59:14Z</time>
      </trkpt>
      <trkpt lat="46.64344" lon="5.36267">
        <ele>199.2</ele>
        <time>2021-11-11T12:59:20Z</time>
      </trkpt>
      <trkpt lat="46.64334" lon="5.36335">
        <ele>199.4</ele>
        <time>2021-11-11T12:59:27Z</time>
      </trkpt>
      <trkpt lat="46.64327" lon="5.36387">
        <ele>200</ele>
        <time>2021-11-11T12:59:33Z</time>
      </trkpt>
      <trkpt lat="46.64323" lon="5.36412">
        <ele>200.4</ele>
        <time>2021-11-11T12:59:36Z</time>
      </trkpt>
      <trkpt lat="46.64317" lon="5.3645">
        <ele>201</ele>
        <time>2021-11-11T12:59:41Z</time>
      </trkpt>
      <trkpt lat="46.64315" lon="5.36465">
        <ele>201.6</ele>
        <time>2021-11-11T12:59:43Z</time>
      </trkpt>
      <trkpt lat="46.64311" lon="5.36492">
        <ele>202.6</ele>
        <time>2021-11-11T12:59:47Z</time>
      </trkpt>
      <trkpt lat="46.64308" lon="5.36511">
        <ele>203.4</ele>
        <time>2021-11-11T12:59:50Z</time>
      </trkpt>
      <trkpt lat="46.64308" lon="5.36524">
        <ele>203.8</ele>
        <time>2021-11-11T12:59:52Z</time>
      </trkpt>
      <trkpt lat="46.64307" lon="5.36531">
        <ele>204.2</ele>
        <time>2021-11-11T12:59:53Z</time>
      </trkpt>
      <trkpt lat="46.64306" lon="5.36561">
        <ele>204.8</ele>
        <time>2021-11-11T12:59:57Z</time>
      </trkpt>
      <trkpt lat="46.64306" lon="5.36575">
        <ele>205</ele>
        <time>2021-11-11T12:59:59Z</time>
      </trkpt>
      <trkpt lat="46.64308" lon="5.36606">
        <ele>206</ele>
        <time>2021-11-11T13:00:03Z</time>
      </trkpt>
      <trkpt lat="46.64309" lon="5.36649">
        <ele>206.6</ele>
        <time>2021-11-11T13:00:08Z</time>
      </trkpt>
      <trkpt lat="46.64309" lon="5.36707">
        <ele>206.6</ele>
        <time>2021-11-11T13:00:14Z</time>
      </trkpt>
      <trkpt lat="46.64309" lon="5.3677">
        <ele>204.8</ele>
        <time>2021-11-11T13:00:20Z</time>
      </trkpt>
      <trkpt lat="46.64309" lon="5.36792">
        <ele>204.4</ele>
        <time>2021-11-11T13:00:22Z</time>
      </trkpt>
      <trkpt lat="46.6431" lon="5.36874">
        <ele>204</ele>
        <time>2021-11-11T13:00:31Z</time>
      </trkpt>
      <trkpt lat="46.6431" lon="5.36925">
        <ele>204.8</ele>
        <time>2021-11-11T13:00:38Z</time>
      </trkpt>
      <trkpt lat="46.64312" lon="5.36966">
        <ele>205.8</ele>
        <time>2021-11-11T13:00:44Z</time>
      </trkpt>
      <trkpt lat="46.64312" lon="5.36973">
        <ele>206</ele>
        <time>2021-11-11T13:00:45Z</time>
      </trkpt>
      <trkpt lat="46.64312" lon="5.36981">
        <ele>206.2</ele>
        <time>2021-11-11T13:00:46Z</time>
      </trkpt>
      <trkpt lat="46.64312" lon="5.37007">
        <ele>207</ele>
        <time>2021-11-11T13:00:50Z</time>
      </trkpt>
      <trkpt lat="46.64312" lon="5.37012">
        <ele>207.2</ele>
        <time>2021-11-11T13:00:51Z</time>
      </trkpt>
      <trkpt lat="46.64311" lon="5.37034">
        <ele>208</ele>
        <time>2021-11-11T13:00:54Z</time>
      </trkpt>
      <trkpt lat="46.64311" lon="5.37059">
        <ele>209.4</ele>
        <time>2021-11-11T13:00:58Z</time>
      </trkpt>
      <trkpt lat="46.64312" lon="5.371">
        <ele>210</ele>
        <time>2021-11-11T13:01:03Z</time>
      </trkpt>
      <trkpt lat="46.64313" lon="5.37166">
        <ele>210.2</ele>
        <time>2021-11-11T13:01:10Z</time>
      </trkpt>
      <trkpt lat="46.64315" lon="5.37253">
        <ele>209.4</ele>
        <time>2021-11-11T13:01:18Z</time>
      </trkpt>
      <trkpt lat="46.64316" lon="5.37318">
        <ele>208.4</ele>
        <time>2021-11-11T13:01:24Z</time>
      </trkpt>
      <trkpt lat="46.64316" lon="5.3733">
        <ele>208.2</ele>
        <time>2021-11-11T13:01:25Z</time>
      </trkpt>
      <trkpt lat="46.64317" lon="5.37379">
        <ele>207</ele>
        <time>2021-11-11T13:01:29Z</time>
      </trkpt>
      <trkpt lat="46.64317" lon="5.37427">
        <ele>206</ele>
        <time>2021-11-11T13:01:33Z</time>
      </trkpt>
      <trkpt lat="46.64318" lon="5.37448">
        <ele>205.6</ele>
        <time>2021-11-11T13:01:35Z</time>
      </trkpt>
      <trkpt lat="46.64319" lon="5.37516">
        <ele>205</ele>
        <time>2021-11-11T13:01:41Z</time>
      </trkpt>
      <trkpt lat="46.6432" lon="5.37539">
        <ele>204.8</ele>
        <time>2021-11-11T13:01:43Z</time>
      </trkpt>
      <trkpt lat="46.64321" lon="5.37607">
        <ele>204.6</ele>
        <time>2021-11-11T13:01:50Z</time>
      </trkpt>
      <trkpt lat="46.64321" lon="5.37671">
        <ele>205</ele>
        <time>2021-11-11T13:01:57Z</time>
      </trkpt>
      <trkpt lat="46.64323" lon="5.37723">
        <ele>206</ele>
        <time>2021-11-11T13:02:03Z</time>
      </trkpt>
      <trkpt lat="46.64323" lon="5.37732">
        <ele>206</ele>
        <time>2021-11-11T13:02:04Z</time>
      </trkpt>
      <trkpt lat="46.64321" lon="5.3778">
        <ele>207</ele>
        <time>2021-11-11T13:02:10Z</time>
      </trkpt>
      <trkpt lat="46.64321" lon="5.37787">
        <ele>207.4</ele>
        <time>2021-11-11T13:02:11Z</time>
      </trkpt>
      <trkpt lat="46.64321" lon="5.37818">
        <ele>208.2</ele>
        <time>2021-11-11T13:02:15Z</time>
      </trkpt>
      <trkpt lat="46.64323" lon="5.37861">
        <ele>209</ele>
        <time>2021-11-11T13:02:20Z</time>
      </trkpt>
      <trkpt lat="46.64324" lon="5.37879">
        <ele>209.2</ele>
        <time>2021-11-11T13:02:22Z</time>
      </trkpt>
      <trkpt lat="46.64324" lon="5.37925">
        <ele>209.2</ele>
        <time>2021-11-11T13:02:27Z</time>
      </trkpt>
      <trkpt lat="46.64327" lon="5.38008">
        <ele>209.4</ele>
        <time>2021-11-11T13:02:36Z</time>
      </trkpt>
      <trkpt lat="46.64328" lon="5.38081">
        <ele>209.8</ele>
        <time>2021-11-11T13:02:44Z</time>
      </trkpt>
      <trkpt lat="46.64329" lon="5.38148">
        <ele>210.2</ele>
        <time>2021-11-11T13:02:52Z</time>
      </trkpt>
      <trkpt lat="46.6433" lon="5.38193">
        <ele>211.4</ele>
        <time>2021-11-11T13:02:58Z</time>
      </trkpt>
      <trkpt lat="46.6433" lon="5.38208">
        <ele>211.6</ele>
        <time>2021-11-11T13:03:00Z</time>
      </trkpt>
      <trkpt lat="46.64331" lon="5.38244">
        <ele>212.4</ele>
        <time>2021-11-11T13:03:05Z</time>
      </trkpt>
      <trkpt lat="46.64331" lon="5.38279">
        <ele>213.6</ele>
        <time>2021-11-11T13:03:10Z</time>
      </trkpt>
      <trkpt lat="46.64332" lon="5.38309">
        <ele>214.8</ele>
        <time>2021-11-11T13:03:14Z</time>
      </trkpt>
      <trkpt lat="46.64332" lon="5.38347">
        <ele>215.8</ele>
        <time>2021-11-11T13:03:19Z</time>
      </trkpt>
      <trkpt lat="46.64329" lon="5.38404">
        <ele>216.8</ele>
        <time>2021-11-11T13:03:26Z</time>
      </trkpt>
      <trkpt lat="46.64328" lon="5.38456">
        <ele>216.8</ele>
        <time>2021-11-11T13:03:31Z</time>
      </trkpt>
      <trkpt lat="46.6433" lon="5.38531">
        <ele>214.6</ele>
        <time>2021-11-11T13:03:37Z</time>
      </trkpt>
      <trkpt lat="46.64332" lon="5.38572">
        <ele>213.4</ele>
        <time>2021-11-11T13:03:40Z</time>
      </trkpt>
      <trkpt lat="46.64333" lon="5.38602">
        <ele>212.4</ele>
        <time>2021-11-11T13:03:42Z</time>
      </trkpt>
      <trkpt lat="46.64334" lon="5.38627">
        <ele>211.4</ele>
        <time>2021-11-11T13:03:44Z</time>
      </trkpt>
      <trkpt lat="46.64336" lon="5.38644">
        <ele>211.2</ele>
        <time>2021-11-11T13:03:45Z</time>
      </trkpt>
      <trkpt lat="46.64344" lon="5.3868">
        <ele>210</ele>
        <time>2021-11-11T13:03:48Z</time>
      </trkpt>
      <trkpt lat="46.64353" lon="5.3872">
        <ele>208.6</ele>
        <time>2021-11-11T13:03:51Z</time>
      </trkpt>
      <trkpt lat="46.64358" lon="5.38746">
        <ele>207.6</ele>
        <time>2021-11-11T13:03:53Z</time>
      </trkpt>
      <trkpt lat="46.64358" lon="5.38759">
        <ele>207.4</ele>
        <time>2021-11-11T13:03:54Z</time>
      </trkpt>
      <trkpt lat="46.64353" lon="5.38785">
        <ele>206.8</ele>
        <time>2021-11-11T13:03:56Z</time>
      </trkpt>
      <trkpt lat="46.64348" lon="5.38797">
        <ele>206.8</ele>
        <time>2021-11-11T13:03:57Z</time>
      </trkpt>
      <trkpt lat="46.6433" lon="5.38827">
        <ele>205.6</ele>
        <time>2021-11-11T13:04:00Z</time>
      </trkpt>
      <trkpt lat="46.64323" lon="5.38838">
        <ele>205.2</ele>
        <time>2021-11-11T13:04:01Z</time>
      </trkpt>
      <trkpt lat="46.64319" lon="5.38847">
        <ele>205</ele>
        <time>2021-11-11T13:04:02Z</time>
      </trkpt>
      <trkpt lat="46.64311" lon="5.38867">
        <ele>204.4</ele>
        <time>2021-11-11T13:04:04Z</time>
      </trkpt>
      <trkpt lat="46.64299" lon="5.38897">
        <ele>204</ele>
        <time>2021-11-11T13:04:07Z</time>
      </trkpt>
      <trkpt lat="46.64278" lon="5.38944">
        <ele>203.8</ele>
        <time>2021-11-11T13:04:12Z</time>
      </trkpt>
      <trkpt lat="46.64261" lon="5.39">
        <ele>204</ele>
        <time>2021-11-11T13:04:18Z</time>
      </trkpt>
      <trkpt lat="46.64252" lon="5.39053">
        <ele>204.4</ele>
        <time>2021-11-11T13:04:24Z</time>
      </trkpt>
      <trkpt lat="46.64243" lon="5.39098">
        <ele>205.4</ele>
        <time>2021-11-11T13:04:30Z</time>
      </trkpt>
      <trkpt lat="46.64241" lon="5.39105">
        <ele>205.8</ele>
        <time>2021-11-11T13:04:31Z</time>
      </trkpt>
      <trkpt lat="46.64231" lon="5.39156">
        <ele>207</ele>
        <time>2021-11-11T13:04:38Z</time>
      </trkpt>
      <trkpt lat="46.6422" lon="5.39197">
        <ele>208.2</ele>
        <time>2021-11-11T13:04:44Z</time>
      </trkpt>
      <trkpt lat="46.64214" lon="5.39216">
        <ele>208.8</ele>
        <time>2021-11-11T13:04:47Z</time>
      </trkpt>
      <trkpt lat="46.64213" lon="5.39222">
        <ele>209</ele>
        <time>2021-11-11T13:04:48Z</time>
      </trkpt>
      <trkpt lat="46.64212" lon="5.39228">
        <ele>209.2</ele>
        <time>2021-11-11T13:04:49Z</time>
      </trkpt>
      <trkpt lat="46.64205" lon="5.39253">
        <ele>210</ele>
        <time>2021-11-11T13:04:53Z</time>
      </trkpt>
      <trkpt lat="46.64204" lon="5.3926">
        <ele>210.4</ele>
        <time>2021-11-11T13:04:54Z</time>
      </trkpt>
      <trkpt lat="46.64198" lon="5.3928">
        <ele>210.8</ele>
        <time>2021-11-11T13:04:57Z</time>
      </trkpt>
      <trkpt lat="46.64193" lon="5.39301">
        <ele>211.4</ele>
        <time>2021-11-11T13:05:00Z</time>
      </trkpt>
      <trkpt lat="46.64179" lon="5.39365">
        <ele>212.6</ele>
        <time>2021-11-11T13:05:08Z</time>
      </trkpt>
      <trkpt lat="46.64161" lon="5.39436">
        <ele>212.4</ele>
        <time>2021-11-11T13:05:16Z</time>
      </trkpt>
      <trkpt lat="46.64143" lon="5.39504">
        <ele>211.8</ele>
        <time>2021-11-11T13:05:23Z</time>
      </trkpt>
      <trkpt lat="46.64135" lon="5.39535">
        <ele>211.4</ele>
        <time>2021-11-11T13:05:26Z</time>
      </trkpt>
      <trkpt lat="46.64125" lon="5.39576">
        <ele>211.2</ele>
        <time>2021-11-11T13:05:30Z</time>
      </trkpt>
      <trkpt lat="46.64121" lon="5.39597">
        <ele>211</ele>
        <time>2021-11-11T13:05:32Z</time>
      </trkpt>
      <trkpt lat="46.64114" lon="5.39627">
        <ele>210.8</ele>
        <time>2021-11-11T13:05:35Z</time>
      </trkpt>
      <trkpt lat="46.64101" lon="5.39685">
        <ele>210.6</ele>
        <time>2021-11-11T13:05:41Z</time>
      </trkpt>
      <trkpt lat="46.64079" lon="5.39766">
        <ele>210.8</ele>
        <time>2021-11-11T13:05:50Z</time>
      </trkpt>
      <trkpt lat="46.64076" lon="5.39775">
        <ele>210.8</ele>
        <time>2021-11-11T13:05:51Z</time>
      </trkpt>
      <trkpt lat="46.64062" lon="5.39824">
        <ele>211</ele>
        <time>2021-11-11T13:05:57Z</time>
      </trkpt>
      <trkpt lat="46.6405" lon="5.39846">
        <ele>211.4</ele>
        <time>2021-11-11T13:06:01Z</time>
      </trkpt>
      <trkpt lat="46.64049" lon="5.39848">
        <ele>211.6</ele>
        <time>2021-11-11T13:06:02Z</time>
      </trkpt>
      <trkpt lat="46.64047" lon="5.39861">
        <ele>211.6</ele>
        <time>2021-11-11T13:06:03Z</time>
      </trkpt>
      <trkpt lat="46.64045" lon="5.39872">
        <ele>211.8</ele>
        <time>2021-11-11T13:06:04Z</time>
      </trkpt>
      <trkpt lat="46.64044" lon="5.39881">
        <ele>211.8</ele>
        <time>2021-11-11T13:06:05Z</time>
      </trkpt>
      <trkpt lat="46.64041" lon="5.39898">
        <ele>212</ele>
        <time>2021-11-11T13:06:07Z</time>
      </trkpt>
      <trkpt lat="46.64037" lon="5.39915">
        <ele>212.2</ele>
        <time>2021-11-11T13:06:09Z</time>
      </trkpt>
      <trkpt lat="46.64033" lon="5.39932">
        <ele>212.4</ele>
        <time>2021-11-11T13:06:11Z</time>
      </trkpt>
      <trkpt lat="46.64031" lon="5.39939">
        <ele>212.4</ele>
        <time>2021-11-11T13:06:12Z</time>
      </trkpt>
      <trkpt lat="46.6403" lon="5.39948">
        <ele>212.6</ele>
        <time>2021-11-11T13:06:13Z</time>
      </trkpt>
      <trkpt lat="46.64028" lon="5.39957">
        <ele>212.6</ele>
        <time>2021-11-11T13:06:14Z</time>
      </trkpt>
      <trkpt lat="46.64024" lon="5.39972">
        <ele>213</ele>
        <time>2021-11-11T13:06:16Z</time>
      </trkpt>
      <trkpt lat="46.64018" lon="5.39987">
        <ele>213.8</ele>
        <time>2021-11-11T13:06:18Z</time>
      </trkpt>
      <trkpt lat="46.64016" lon="5.39995">
        <ele>214.2</ele>
        <time>2021-11-11T13:06:19Z</time>
      </trkpt>
      <trkpt lat="46.64012" lon="5.4002">
        <ele>215</ele>
        <time>2021-11-11T13:06:22Z</time>
      </trkpt>
      <trkpt lat="46.64008" lon="5.40038">
        <ele>216</ele>
        <time>2021-11-11T13:06:24Z</time>
      </trkpt>
      <trkpt lat="46.64005" lon="5.40045">
        <ele>216.2</ele>
        <time>2021-11-11T13:06:25Z</time>
      </trkpt>
      <trkpt lat="46.63995" lon="5.40088">
        <ele>217</ele>
        <time>2021-11-11T13:06:30Z</time>
      </trkpt>
      <trkpt lat="46.63988" lon="5.40114">
        <ele>217.2</ele>
        <time>2021-11-11T13:06:33Z</time>
      </trkpt>
      <trkpt lat="46.63981" lon="5.40141">
        <ele>217.2</ele>
        <time>2021-11-11T13:06:36Z</time>
      </trkpt>
      <trkpt lat="46.63974" lon="5.4017">
        <ele>217.2</ele>
        <time>2021-11-11T13:06:39Z</time>
      </trkpt>
      <trkpt lat="46.63972" lon="5.40181">
        <ele>216.8</ele>
        <time>2021-11-11T13:06:40Z</time>
      </trkpt>
      <trkpt lat="46.63959" lon="5.40239">
        <ele>215.8</ele>
        <time>2021-11-11T13:06:45Z</time>
      </trkpt>
      <trkpt lat="46.63946" lon="5.40288">
        <ele>214.4</ele>
        <time>2021-11-11T13:06:49Z</time>
      </trkpt>
      <trkpt lat="46.63937" lon="5.40324">
        <ele>213.2</ele>
        <time>2021-11-11T13:06:52Z</time>
      </trkpt>
      <trkpt lat="46.63934" lon="5.40336">
        <ele>213</ele>
        <time>2021-11-11T13:06:53Z</time>
      </trkpt>
      <trkpt lat="46.63925" lon="5.40372">
        <ele>211.8</ele>
        <time>2021-11-11T13:06:56Z</time>
      </trkpt>
      <trkpt lat="46.63905" lon="5.4045">
        <ele>210.8</ele>
        <time>2021-11-11T13:07:03Z</time>
      </trkpt>
      <trkpt lat="46.63902" lon="5.40461">
        <ele>210.8</ele>
        <time>2021-11-11T13:07:04Z</time>
      </trkpt>
      <trkpt lat="46.63887" lon="5.40517">
        <ele>210.6</ele>
        <time>2021-11-11T13:07:10Z</time>
      </trkpt>
      <trkpt lat="46.63864" lon="5.40581">
        <ele>211.2</ele>
        <time>2021-11-11T13:07:17Z</time>
      </trkpt>
      <trkpt lat="46.63835" lon="5.40657">
        <ele>211.4</ele>
        <time>2021-11-11T13:07:26Z</time>
      </trkpt>
      <trkpt lat="46.6383" lon="5.40673">
        <ele>211.8</ele>
        <time>2021-11-11T13:07:28Z</time>
      </trkpt>
      <trkpt lat="46.63822" lon="5.40698">
        <ele>212</ele>
        <time>2021-11-11T13:07:31Z</time>
      </trkpt>
      <trkpt lat="46.63813" lon="5.40729">
        <ele>212.4</ele>
        <time>2021-11-11T13:07:35Z</time>
      </trkpt>
      <trkpt lat="46.63802" lon="5.40767">
        <ele>213</ele>
        <time>2021-11-11T13:07:40Z</time>
      </trkpt>
      <trkpt lat="46.63795" lon="5.40798">
        <ele>214.4</ele>
        <time>2021-11-11T13:07:44Z</time>
      </trkpt>
      <trkpt lat="46.63787" lon="5.40829">
        <ele>215.4</ele>
        <time>2021-11-11T13:07:48Z</time>
      </trkpt>
      <trkpt lat="46.63779" lon="5.40854">
        <ele>215.6</ele>
        <time>2021-11-11T13:07:51Z</time>
      </trkpt>
      <trkpt lat="46.63758" lon="5.4092">
        <ele>216</ele>
        <time>2021-11-11T13:07:58Z</time>
      </trkpt>
      <trkpt lat="46.63735" lon="5.40992">
        <ele>214.6</ele>
        <time>2021-11-11T13:08:05Z</time>
      </trkpt>
      <trkpt lat="46.63732" lon="5.41003">
        <ele>214.2</ele>
        <time>2021-11-11T13:08:06Z</time>
      </trkpt>
      <trkpt lat="46.63708" lon="5.41078">
        <ele>213.6</ele>
        <time>2021-11-11T13:08:14Z</time>
      </trkpt>
      <trkpt lat="46.63685" lon="5.4115">
        <ele>213.8</ele>
        <time>2021-11-11T13:08:22Z</time>
      </trkpt>
      <trkpt lat="46.63682" lon="5.4116">
        <ele>213.8</ele>
        <time>2021-11-11T13:08:23Z</time>
      </trkpt>
      <trkpt lat="46.63659" lon="5.41232">
        <ele>213.2</ele>
        <time>2021-11-11T13:08:30Z</time>
      </trkpt>
      <trkpt lat="46.6364" lon="5.41295">
        <ele>212</ele>
        <time>2021-11-11T13:08:36Z</time>
      </trkpt>
      <trkpt lat="46.63624" lon="5.41346">
        <ele>211.6</ele>
        <time>2021-11-11T13:08:41Z</time>
      </trkpt>
      <trkpt lat="46.63606" lon="5.41402">
        <ele>211.4</ele>
        <time>2021-11-11T13:08:47Z</time>
      </trkpt>
      <trkpt lat="46.63584" lon="5.41467">
        <ele>212.2</ele>
        <time>2021-11-11T13:08:55Z</time>
      </trkpt>
      <trkpt lat="46.63568" lon="5.41523">
        <ele>213</ele>
        <time>2021-11-11T13:09:02Z</time>
      </trkpt>
      <trkpt lat="46.63563" lon="5.41538">
        <ele>213.2</ele>
        <time>2021-11-11T13:09:04Z</time>
      </trkpt>
      <trkpt lat="46.63548" lon="5.41581">
        <ele>214.4</ele>
        <time>2021-11-11T13:09:10Z</time>
      </trkpt>
      <trkpt lat="46.63541" lon="5.41602">
        <ele>215</ele>
        <time>2021-11-11T13:09:13Z</time>
      </trkpt>
      <trkpt lat="46.63534" lon="5.41623">
        <ele>215.6</ele>
        <time>2021-11-11T13:09:16Z</time>
      </trkpt>
      <trkpt lat="46.63523" lon="5.41663">
        <ele>216.8</ele>
        <time>2021-11-11T13:09:22Z</time>
      </trkpt>
      <trkpt lat="46.63521" lon="5.4167">
        <ele>217.2</ele>
        <time>2021-11-11T13:09:23Z</time>
      </trkpt>
      <trkpt lat="46.63512" lon="5.41697">
        <ele>218</ele>
        <time>2021-11-11T13:09:27Z</time>
      </trkpt>
      <trkpt lat="46.63501" lon="5.41731">
        <ele>219</ele>
        <time>2021-11-11T13:09:32Z</time>
      </trkpt>
      <trkpt lat="46.63499" lon="5.41737">
        <ele>219.2</ele>
        <time>2021-11-11T13:09:33Z</time>
      </trkpt>
      <trkpt lat="46.63492" lon="5.41765">
        <ele>220</ele>
        <time>2021-11-11T13:09:37Z</time>
      </trkpt>
      <trkpt lat="46.63483" lon="5.41794">
        <ele>220.8</ele>
        <time>2021-11-11T13:09:41Z</time>
      </trkpt>
      <trkpt lat="46.63478" lon="5.41808">
        <ele>221</ele>
        <time>2021-11-11T13:09:43Z</time>
      </trkpt>
      <trkpt lat="46.63459" lon="5.41867">
        <ele>222</ele>
        <time>2021-11-11T13:09:51Z</time>
      </trkpt>
      <trkpt lat="46.63457" lon="5.41874">
        <ele>222</ele>
        <time>2021-11-11T13:09:52Z</time>
      </trkpt>
      <trkpt lat="46.63441" lon="5.41928">
        <ele>222</ele>
        <time>2021-11-11T13:10:00Z</time>
      </trkpt>
      <trkpt lat="46.63434" lon="5.41948">
        <ele>221.8</ele>
        <time>2021-11-11T13:10:03Z</time>
      </trkpt>
      <trkpt lat="46.63426" lon="5.41954">
        <ele>221.6</ele>
        <time>2021-11-11T13:10:05Z</time>
      </trkpt>
      <trkpt lat="46.63415" lon="5.4195">
        <ele>221.4</ele>
        <time>2021-11-11T13:10:07Z</time>
      </trkpt>
      <trkpt lat="46.63409" lon="5.41946">
        <ele>221.4</ele>
        <time>2021-11-11T13:10:08Z</time>
      </trkpt>
      <trkpt lat="46.63374" lon="5.41915">
        <ele>221</ele>
        <time>2021-11-11T13:10:14Z</time>
      </trkpt>
      <trkpt lat="46.63368" lon="5.41909">
        <ele>221</ele>
        <time>2021-11-11T13:10:15Z</time>
      </trkpt>
      <trkpt lat="46.63356" lon="5.419">
        <ele>220.8</ele>
        <time>2021-11-11T13:10:17Z</time>
      </trkpt>
      <trkpt lat="46.63349" lon="5.41901">
        <ele>220.8</ele>
        <time>2021-11-11T13:10:18Z</time>
      </trkpt>
      <trkpt lat="46.63343" lon="5.41906">
        <ele>220.8</ele>
        <time>2021-11-11T13:10:19Z</time>
      </trkpt>
      <trkpt lat="46.63326" lon="5.41925">
        <ele>220.6</ele>
        <time>2021-11-11T13:10:22Z</time>
      </trkpt>
      <trkpt lat="46.63312" lon="5.41935">
        <ele>220.2</ele>
        <time>2021-11-11T13:10:24Z</time>
      </trkpt>
      <trkpt lat="46.63303" lon="5.41938">
        <ele>220</ele>
        <time>2021-11-11T13:10:25Z</time>
      </trkpt>
      <trkpt lat="46.63293" lon="5.41939">
        <ele>219.4</ele>
        <time>2021-11-11T13:10:26Z</time>
      </trkpt>
      <trkpt lat="46.63264" lon="5.41943">
        <ele>218</ele>
        <time>2021-11-11T13:10:29Z</time>
      </trkpt>
      <trkpt lat="46.63254" lon="5.41948">
        <ele>217.4</ele>
        <time>2021-11-11T13:10:30Z</time>
      </trkpt>
      <trkpt lat="46.63245" lon="5.41955">
        <ele>216.6</ele>
        <time>2021-11-11T13:10:31Z</time>
      </trkpt>
      <trkpt lat="46.63227" lon="5.41975">
        <ele>215</ele>
        <time>2021-11-11T13:10:33Z</time>
      </trkpt>
      <trkpt lat="46.63212" lon="5.42">
        <ele>213.8</ele>
        <time>2021-11-11T13:10:35Z</time>
      </trkpt>
      <trkpt lat="46.63196" lon="5.42027">
        <ele>212.4</ele>
        <time>2021-11-11T13:10:37Z</time>
      </trkpt>
      <trkpt lat="46.63188" lon="5.4204">
        <ele>211</ele>
        <time>2021-11-11T13:10:38Z</time>
      </trkpt>
      <trkpt lat="46.63171" lon="5.42064">
        <ele>209.2</ele>
        <time>2021-11-11T13:10:40Z</time>
      </trkpt>
      <trkpt lat="46.63154" lon="5.42088">
        <ele>207.4</ele>
        <time>2021-11-11T13:10:42Z</time>
      </trkpt>
      <trkpt lat="46.63147" lon="5.421">
        <ele>206.8</ele>
        <time>2021-11-11T13:10:43Z</time>
      </trkpt>
      <trkpt lat="46.63139" lon="5.42111">
        <ele>205.6</ele>
        <time>2021-11-11T13:10:44Z</time>
      </trkpt>
      <trkpt lat="46.63126" lon="5.42135">
        <ele>204.4</ele>
        <time>2021-11-11T13:10:46Z</time>
      </trkpt>
      <trkpt lat="46.63109" lon="5.4217">
        <ele>203.2</ele>
        <time>2021-11-11T13:10:49Z</time>
      </trkpt>
      <trkpt lat="46.63081" lon="5.42224">
        <ele>202.2</ele>
        <time>2021-11-11T13:10:54Z</time>
      </trkpt>
      <trkpt lat="46.63076" lon="5.42234">
        <ele>202</ele>
        <time>2021-11-11T13:10:55Z</time>
      </trkpt>
      <trkpt lat="46.6305" lon="5.42282">
        <ele>201.6</ele>
        <time>2021-11-11T13:11:00Z</time>
      </trkpt>
      <trkpt lat="46.63037" lon="5.42289">
        <ele>201.4</ele>
        <time>2021-11-11T13:11:02Z</time>
      </trkpt>
      <trkpt lat="46.63022" lon="5.42286">
        <ele>201</ele>
        <time>2021-11-11T13:11:04Z</time>
      </trkpt>
      <trkpt lat="46.63006" lon="5.4228">
        <ele>200.8</ele>
        <time>2021-11-11T13:11:06Z</time>
      </trkpt>
      <trkpt lat="46.6295" lon="5.4227">
        <ele>200.4</ele>
        <time>2021-11-11T13:11:13Z</time>
      </trkpt>
      <trkpt lat="46.62897" lon="5.42279">
        <ele>200.2</ele>
        <time>2021-11-11T13:11:20Z</time>
      </trkpt>
      <trkpt lat="46.62878" lon="5.42288">
        <ele>200</ele>
        <time>2021-11-11T13:11:23Z</time>
      </trkpt>
      <trkpt lat="46.62865" lon="5.42296">
        <ele>199.8</ele>
        <time>2021-11-11T13:11:25Z</time>
      </trkpt>
      <trkpt lat="46.62822" lon="5.42324">
        <ele>200</ele>
        <time>2021-11-11T13:11:32Z</time>
      </trkpt>
      <trkpt lat="46.62804" lon="5.42334">
        <ele>200.4</ele>
        <time>2021-11-11T13:11:37Z</time>
      </trkpt>
      <trkpt lat="46.62804" lon="5.42334">
        <ele>200.8</ele>
        <time>2021-11-11T13:11:41Z</time>
      </trkpt>
      <trkpt lat="46.62804" lon="5.42334">
        <ele>201</ele>
        <time>2021-11-11T13:11:43Z</time>
      </trkpt>
      <trkpt lat="46.62802" lon="5.42337">
        <ele>200.6</ele>
        <time>2021-11-11T13:13:22Z</time>
      </trkpt>
      <trkpt lat="46.628" lon="5.4234">
        <ele>200.6</ele>
        <time>2021-11-11T13:13:23Z</time>
      </trkpt>
      <trkpt lat="46.62791" lon="5.42357">
        <ele>200.6</ele>
        <time>2021-11-11T13:13:26Z</time>
      </trkpt>
      <trkpt lat="46.62788" lon="5.42365">
        <ele>200.6</ele>
        <time>2021-11-11T13:13:27Z</time>
      </trkpt>
      <trkpt lat="46.62785" lon="5.42374">
        <ele>200.6</ele>
        <time>2021-11-11T13:13:28Z</time>
      </trkpt>
      <trkpt lat="46.62779" lon="5.42403">
        <ele>200.4</ele>
        <time>2021-11-11T13:13:31Z</time>
      </trkpt>
      <trkpt lat="46.62766" lon="5.42482">
        <ele>200.2</ele>
        <time>2021-11-11T13:13:39Z</time>
      </trkpt>
      <trkpt lat="46.62764" lon="5.42491">
        <ele>200.2</ele>
        <time>2021-11-11T13:13:40Z</time>
      </trkpt>
      <trkpt lat="46.62741" lon="5.42569">
        <ele>200.2</ele>
        <time>2021-11-11T13:13:49Z</time>
      </trkpt>
      <trkpt lat="46.62715" lon="5.42645">
        <ele>200.4</ele>
        <time>2021-11-11T13:13:58Z</time>
      </trkpt>
      <trkpt lat="46.62702" lon="5.42678">
        <ele>200.4</ele>
        <time>2021-11-11T13:14:02Z</time>
      </trkpt>
      <trkpt lat="46.6269" lon="5.427">
        <ele>200.6</ele>
        <time>2021-11-11T13:14:05Z</time>
      </trkpt>
      <trkpt lat="46.62666" lon="5.42731">
        <ele>200.8</ele>
        <time>2021-11-11T13:14:10Z</time>
      </trkpt>
      <trkpt lat="46.62648" lon="5.42744">
        <ele>200.6</ele>
        <time>2021-11-11T13:14:13Z</time>
      </trkpt>
      <trkpt lat="46.62635" lon="5.42749">
        <ele>200.6</ele>
        <time>2021-11-11T13:14:15Z</time>
      </trkpt>
      <trkpt lat="46.62594" lon="5.42754">
        <ele>200.4</ele>
        <time>2021-11-11T13:14:21Z</time>
      </trkpt>
      <trkpt lat="46.62539" lon="5.42752">
        <ele>200.2</ele>
        <time>2021-11-11T13:14:29Z</time>
      </trkpt>
      <trkpt lat="46.62532" lon="5.42752">
        <ele>200.2</ele>
        <time>2021-11-11T13:14:30Z</time>
      </trkpt>
      <trkpt lat="46.62477" lon="5.4275">
        <ele>200.4</ele>
        <time>2021-11-11T13:14:38Z</time>
      </trkpt>
      <trkpt lat="46.6245" lon="5.4275">
        <ele>200.4</ele>
        <time>2021-11-11T13:14:42Z</time>
      </trkpt>
      <trkpt lat="46.62396" lon="5.42748">
        <ele>200.2</ele>
        <time>2021-11-11T13:14:50Z</time>
      </trkpt>
      <trkpt lat="46.62375" lon="5.42746">
        <ele>200</ele>
        <time>2021-11-11T13:14:53Z</time>
      </trkpt>
      <trkpt lat="46.62329" lon="5.42737">
        <ele>200</ele>
        <time>2021-11-11T13:15:00Z</time>
      </trkpt>
      <trkpt lat="46.62296" lon="5.42737">
        <ele>200</ele>
        <time>2021-11-11T13:15:05Z</time>
      </trkpt>
      <trkpt lat="46.6229" lon="5.42739">
        <ele>200.2</ele>
        <time>2021-11-11T13:15:06Z</time>
      </trkpt>
      <trkpt lat="46.62278" lon="5.42746">
        <ele>200.2</ele>
        <time>2021-11-11T13:15:08Z</time>
      </trkpt>
      <trkpt lat="46.62273" lon="5.4275">
        <ele>200.2</ele>
        <time>2021-11-11T13:15:09Z</time>
      </trkpt>
      <trkpt lat="46.62249" lon="5.42779">
        <ele>200.4</ele>
        <time>2021-11-11T13:15:14Z</time>
      </trkpt>
      <trkpt lat="46.62224" lon="5.42817">
        <ele>201</ele>
        <time>2021-11-11T13:15:20Z</time>
      </trkpt>
      <trkpt lat="46.62204" lon="5.42848">
        <ele>201.8</ele>
        <time>2021-11-11T13:15:25Z</time>
      </trkpt>
      <trkpt lat="46.62185" lon="5.42877">
        <ele>202</ele>
        <time>2021-11-11T13:15:30Z</time>
      </trkpt>
      <trkpt lat="46.6217" lon="5.42898">
        <ele>202.8</ele>
        <time>2021-11-11T13:15:34Z</time>
      </trkpt>
      <trkpt lat="46.62149" lon="5.42928">
        <ele>203.8</ele>
        <time>2021-11-11T13:15:40Z</time>
      </trkpt>
      <trkpt lat="46.62145" lon="5.42933">
        <ele>204</ele>
        <time>2021-11-11T13:15:41Z</time>
      </trkpt>
      <trkpt lat="46.62125" lon="5.42961">
        <ele>205.2</ele>
        <time>2021-11-11T13:15:47Z</time>
      </trkpt>
      <trkpt lat="46.62114" lon="5.42973">
        <ele>206.2</ele>
        <time>2021-11-11T13:15:50Z</time>
      </trkpt>
      <trkpt lat="46.6211" lon="5.42975">
        <ele>206.2</ele>
        <time>2021-11-11T13:15:51Z</time>
      </trkpt>
      <trkpt lat="46.62107" lon="5.42978">
        <ele>206.8</ele>
        <time>2021-11-11T13:15:52Z</time>
      </trkpt>
      <trkpt lat="46.62099" lon="5.42981">
        <ele>207.4</ele>
        <time>2021-11-11T13:15:54Z</time>
      </trkpt>
      <trkpt lat="46.62094" lon="5.42983">
        <ele>207.6</ele>
        <time>2021-11-11T13:15:55Z</time>
      </trkpt>
      <trkpt lat="46.62083" lon="5.42983">
        <ele>208.6</ele>
        <time>2021-11-11T13:15:58Z</time>
      </trkpt>
      <trkpt lat="46.62079" lon="5.42983">
        <ele>208.8</ele>
        <time>2021-11-11T13:15:59Z</time>
      </trkpt>
      <trkpt lat="46.62075" lon="5.42981">
        <ele>209.2</ele>
        <time>2021-11-11T13:16:00Z</time>
      </trkpt>
      <trkpt lat="46.62072" lon="5.4298">
        <ele>209.6</ele>
        <time>2021-11-11T13:16:01Z</time>
      </trkpt>
      <trkpt lat="46.6206" lon="5.42971">
        <ele>210.8</ele>
        <time>2021-11-11T13:16:04Z</time>
      </trkpt>
      <trkpt lat="46.62044" lon="5.42959">
        <ele>211.8</ele>
        <time>2021-11-11T13:16:08Z</time>
      </trkpt>
      <trkpt lat="46.6203" lon="5.42946">
        <ele>213</ele>
        <time>2021-11-11T13:16:12Z</time>
      </trkpt>
      <trkpt lat="46.6201" lon="5.42927">
        <ele>214.2</ele>
        <time>2021-11-11T13:16:17Z</time>
      </trkpt>
      <trkpt lat="46.62003" lon="5.42918">
        <ele>214.6</ele>
        <time>2021-11-11T13:16:19Z</time>
      </trkpt>
      <trkpt lat="46.61979" lon="5.42887">
        <ele>215.4</ele>
        <time>2021-11-11T13:16:25Z</time>
      </trkpt>
      <trkpt lat="46.61971" lon="5.42876">
        <ele>215.6</ele>
        <time>2021-11-11T13:16:27Z</time>
      </trkpt>
      <trkpt lat="46.61938" lon="5.42822">
        <ele>215</ele>
        <time>2021-11-11T13:16:35Z</time>
      </trkpt>
      <trkpt lat="46.619" lon="5.42774">
        <ele>214.6</ele>
        <time>2021-11-11T13:16:42Z</time>
      </trkpt>
      <trkpt lat="46.61895" lon="5.42768">
        <ele>214.4</ele>
        <time>2021-11-11T13:16:43Z</time>
      </trkpt>
      <trkpt lat="46.6187" lon="5.42749">
        <ele>213.8</ele>
        <time>2021-11-11T13:16:47Z</time>
      </trkpt>
      <trkpt lat="46.61853" lon="5.4274">
        <ele>213.4</ele>
        <time>2021-11-11T13:16:50Z</time>
      </trkpt>
      <trkpt lat="46.6182" lon="5.42724">
        <ele>213</ele>
        <time>2021-11-11T13:16:55Z</time>
      </trkpt>
      <trkpt lat="46.6178" lon="5.42695">
        <ele>212.4</ele>
        <time>2021-11-11T13:17:01Z</time>
      </trkpt>
      <trkpt lat="46.61774" lon="5.42688">
        <ele>212.4</ele>
        <time>2021-11-11T13:17:02Z</time>
      </trkpt>
      <trkpt lat="46.61749" lon="5.42659">
        <ele>211.2</ele>
        <time>2021-11-11T13:17:06Z</time>
      </trkpt>
      <trkpt lat="46.61736" lon="5.42631">
        <ele>210.4</ele>
        <time>2021-11-11T13:17:09Z</time>
      </trkpt>
      <trkpt lat="46.61732" lon="5.42619">
        <ele>210.4</ele>
        <time>2021-11-11T13:17:10Z</time>
      </trkpt>
      <trkpt lat="46.61727" lon="5.42609">
        <ele>210.2</ele>
        <time>2021-11-11T13:17:11Z</time>
      </trkpt>
      <trkpt lat="46.61723" lon="5.426">
        <ele>209.8</ele>
        <time>2021-11-11T13:17:12Z</time>
      </trkpt>
      <trkpt lat="46.61712" lon="5.42587">
        <ele>208.8</ele>
        <time>2021-11-11T13:17:14Z</time>
      </trkpt>
      <trkpt lat="46.61685" lon="5.42561">
        <ele>207.6</ele>
        <time>2021-11-11T13:17:18Z</time>
      </trkpt>
      <trkpt lat="46.61663" lon="5.42543">
        <ele>207.4</ele>
        <time>2021-11-11T13:17:21Z</time>
      </trkpt>
      <trkpt lat="46.6164" lon="5.42527">
        <ele>206.6</ele>
        <time>2021-11-11T13:17:24Z</time>
      </trkpt>
      <trkpt lat="46.61617" lon="5.42508">
        <ele>205.2</ele>
        <time>2021-11-11T13:17:27Z</time>
      </trkpt>
      <trkpt lat="46.61605" lon="5.42489">
        <ele>204.2</ele>
        <time>2021-11-11T13:17:29Z</time>
      </trkpt>
      <trkpt lat="46.61599" lon="5.42475">
        <ele>204</ele>
        <time>2021-11-11T13:17:30Z</time>
      </trkpt>
      <trkpt lat="46.61587" lon="5.42441">
        <ele>202.8</ele>
        <time>2021-11-11T13:17:33Z</time>
      </trkpt>
      <trkpt lat="46.61578" lon="5.42415">
        <ele>202.2</ele>
        <time>2021-11-11T13:17:35Z</time>
      </trkpt>
      <trkpt lat="46.61575" lon="5.42403">
        <ele>201.6</ele>
        <time>2021-11-11T13:17:36Z</time>
      </trkpt>
      <trkpt lat="46.61573" lon="5.42391">
        <ele>201.4</ele>
        <time>2021-11-11T13:17:37Z</time>
      </trkpt>
      <trkpt lat="46.6157" lon="5.42366">
        <ele>200.8</ele>
        <time>2021-11-11T13:17:39Z</time>
      </trkpt>
      <trkpt lat="46.61569" lon="5.42354">
        <ele>200.4</ele>
        <time>2021-11-11T13:17:40Z</time>
      </trkpt>
      <trkpt lat="46.6156" lon="5.42275">
        <ele>199.4</ele>
        <time>2021-11-11T13:17:47Z</time>
      </trkpt>
      <trkpt lat="46.61552" lon="5.42231">
        <ele>199.2</ele>
        <time>2021-11-11T13:17:51Z</time>
      </trkpt>
      <trkpt lat="46.61542" lon="5.42188">
        <ele>199</ele>
        <time>2021-11-11T13:17:55Z</time>
      </trkpt>
      <trkpt lat="46.61516" lon="5.42109">
        <ele>199</ele>
        <time>2021-11-11T13:18:03Z</time>
      </trkpt>
      <trkpt lat="46.615" lon="5.42073">
        <ele>199</ele>
        <time>2021-11-11T13:18:07Z</time>
      </trkpt>
      <trkpt lat="46.61495" lon="5.42065">
        <ele>199</ele>
        <time>2021-11-11T13:18:08Z</time>
      </trkpt>
      <trkpt lat="46.61473" lon="5.42036">
        <ele>198.8</ele>
        <time>2021-11-11T13:18:12Z</time>
      </trkpt>
      <trkpt lat="46.61464" lon="5.42018">
        <ele>198.8</ele>
        <time>2021-11-11T13:18:14Z</time>
      </trkpt>
      <trkpt lat="46.61432" lon="5.41948">
        <ele>199</ele>
        <time>2021-11-11T13:18:22Z</time>
      </trkpt>
      <trkpt lat="46.61419" lon="5.41922">
        <ele>199</ele>
        <time>2021-11-11T13:18:25Z</time>
      </trkpt>
      <trkpt lat="46.61397" lon="5.41881">
        <ele>199</ele>
        <time>2021-11-11T13:18:30Z</time>
      </trkpt>
      <trkpt lat="46.61392" lon="5.41874">
        <ele>199</ele>
        <time>2021-11-11T13:18:31Z</time>
      </trkpt>
      <trkpt lat="46.61346" lon="5.41821">
        <ele>198.8</ele>
        <time>2021-11-11T13:18:39Z</time>
      </trkpt>
      <trkpt lat="46.61341" lon="5.41813">
        <ele>198.8</ele>
        <time>2021-11-11T13:18:40Z</time>
      </trkpt>
      <trkpt lat="46.61297" lon="5.41753">
        <ele>198.6</ele>
        <time>2021-11-11T13:18:48Z</time>
      </trkpt>
      <trkpt lat="46.61292" lon="5.41746">
        <ele>198.6</ele>
        <time>2021-11-11T13:18:49Z</time>
      </trkpt>
      <trkpt lat="46.61266" lon="5.41709">
        <ele>198.4</ele>
        <time>2021-11-11T13:18:54Z</time>
      </trkpt>
      <trkpt lat="46.61253" lon="5.41685">
        <ele>198.2</ele>
        <time>2021-11-11T13:18:57Z</time>
      </trkpt>
      <trkpt lat="46.61221" lon="5.41617">
        <ele>198</ele>
        <time>2021-11-11T13:19:05Z</time>
      </trkpt>
      <trkpt lat="46.61185" lon="5.41554">
        <ele>197.8</ele>
        <time>2021-11-11T13:19:13Z</time>
      </trkpt>
      <trkpt lat="46.6118" lon="5.41546">
        <ele>197.8</ele>
        <time>2021-11-11T13:19:14Z</time>
      </trkpt>
      <trkpt lat="46.61142" lon="5.41483">
        <ele>197.8</ele>
        <time>2021-11-11T13:19:22Z</time>
      </trkpt>
      <trkpt lat="46.61125" lon="5.41425">
        <ele>197.8</ele>
        <time>2021-11-11T13:19:28Z</time>
      </trkpt>
      <trkpt lat="46.61118" lon="5.41364">
        <ele>197.6</ele>
        <time>2021-11-11T13:19:34Z</time>
      </trkpt>
      <trkpt lat="46.61108" lon="5.41305">
        <ele>197.6</ele>
        <time>2021-11-11T13:19:40Z</time>
      </trkpt>
      <trkpt lat="46.61101" lon="5.41288">
        <ele>197.6</ele>
        <time>2021-11-11T13:19:42Z</time>
      </trkpt>
      <trkpt lat="46.61092" lon="5.41273">
        <ele>197.6</ele>
        <time>2021-11-11T13:19:44Z</time>
      </trkpt>
      <trkpt lat="46.61074" lon="5.41241">
        <ele>197.4</ele>
        <time>2021-11-11T13:19:48Z</time>
      </trkpt>
      <trkpt lat="46.61067" lon="5.41224">
        <ele>197.4</ele>
        <time>2021-11-11T13:19:50Z</time>
      </trkpt>
      <trkpt lat="46.61059" lon="5.41196">
        <ele>197.4</ele>
        <time>2021-11-11T13:19:53Z</time>
      </trkpt>
      <trkpt lat="46.6105" lon="5.41161">
        <ele>197.4</ele>
        <time>2021-11-11T13:19:57Z</time>
      </trkpt>
      <trkpt lat="46.61041" lon="5.4115">
        <ele>197.4</ele>
        <time>2021-11-11T13:19:59Z</time>
      </trkpt>
      <trkpt lat="46.61028" lon="5.41149">
        <ele>197.4</ele>
        <time>2021-11-11T13:20:01Z</time>
      </trkpt>
      <trkpt lat="46.61022" lon="5.4115">
        <ele>197.4</ele>
        <time>2021-11-11T13:20:02Z</time>
      </trkpt>
      <trkpt lat="46.61016" lon="5.41152">
        <ele>197.4</ele>
        <time>2021-11-11T13:20:03Z</time>
      </trkpt>
      <trkpt lat="46.60997" lon="5.41165">
        <ele>197.4</ele>
        <time>2021-11-11T13:20:06Z</time>
      </trkpt>
      <trkpt lat="46.60953" lon="5.41208">
        <ele>197.4</ele>
        <time>2021-11-11T13:20:14Z</time>
      </trkpt>
      <trkpt lat="46.60912" lon="5.41253">
        <ele>198</ele>
        <time>2021-11-11T13:20:22Z</time>
      </trkpt>
      <trkpt lat="46.60893" lon="5.41276">
        <ele>198.4</ele>
        <time>2021-11-11T13:20:26Z</time>
      </trkpt>
      <trkpt lat="46.60871" lon="5.41303">
        <ele>199</ele>
        <time>2021-11-11T13:20:31Z</time>
      </trkpt>
      <trkpt lat="46.60853" lon="5.41326">
        <ele>199.2</ele>
        <time>2021-11-11T13:20:35Z</time>
      </trkpt>
      <trkpt lat="46.60844" lon="5.41331">
        <ele>199.2</ele>
        <time>2021-11-11T13:20:37Z</time>
      </trkpt>
      <trkpt lat="46.60838" lon="5.41332">
        <ele>199.4</ele>
        <time>2021-11-11T13:20:38Z</time>
      </trkpt>
      <trkpt lat="46.60833" lon="5.41332">
        <ele>199.6</ele>
        <time>2021-11-11T13:20:39Z</time>
      </trkpt>
      <trkpt lat="46.60822" lon="5.41329">
        <ele>199.6</ele>
        <time>2021-11-11T13:20:41Z</time>
      </trkpt>
      <trkpt lat="46.60816" lon="5.41326">
        <ele>199.8</ele>
        <time>2021-11-11T13:20:42Z</time>
      </trkpt>
      <trkpt lat="46.60806" lon="5.41317">
        <ele>200</ele>
        <time>2021-11-11T13:20:44Z</time>
      </trkpt>
      <trkpt lat="46.60802" lon="5.41312">
        <ele>200.2</ele>
        <time>2021-11-11T13:20:45Z</time>
      </trkpt>
      <trkpt lat="46.6079" lon="5.413">
        <ele>200.4</ele>
        <time>2021-11-11T13:20:48Z</time>
      </trkpt>
      <trkpt lat="46.60775" lon="5.41283">
        <ele>201.8</ele>
        <time>2021-11-11T13:20:52Z</time>
      </trkpt>
      <trkpt lat="46.60771" lon="5.41278">
        <ele>202</ele>
        <time>2021-11-11T13:20:53Z</time>
      </trkpt>
      <trkpt lat="46.6076" lon="5.41266">
        <ele>203</ele>
        <time>2021-11-11T13:20:56Z</time>
      </trkpt>
      <trkpt lat="46.6074" lon="5.41245">
        <ele>204.2</ele>
        <time>2021-11-11T13:21:00Z</time>
      </trkpt>
      <trkpt lat="46.60737" lon="5.4124">
        <ele>204.4</ele>
        <time>2021-11-11T13:21:01Z</time>
      </trkpt>
      <trkpt lat="46.60708" lon="5.41202">
        <ele>204.8</ele>
        <time>2021-11-11T13:21:07Z</time>
      </trkpt>
      <trkpt lat="46.60688" lon="5.41183">
        <ele>204.8</ele>
        <time>2021-11-11T13:21:11Z</time>
      </trkpt>
      <trkpt lat="46.60682" lon="5.4118">
        <ele>204.6</ele>
        <time>2021-11-11T13:21:12Z</time>
      </trkpt>
      <trkpt lat="46.60664" lon="5.41172">
        <ele>204.4</ele>
        <time>2021-11-11T13:21:15Z</time>
      </trkpt>
      <trkpt lat="46.60641" lon="5.41165">
        <ele>204.4</ele>
        <time>2021-11-11T13:21:19Z</time>
      </trkpt>
      <trkpt lat="46.60596" lon="5.4115">
        <ele>205.2</ele>
        <time>2021-11-11T13:21:27Z</time>
      </trkpt>
      <trkpt lat="46.60581" lon="5.41145">
        <ele>205.6</ele>
        <time>2021-11-11T13:21:30Z</time>
      </trkpt>
      <trkpt lat="46.60553" lon="5.4114">
        <ele>206.6</ele>
        <time>2021-11-11T13:21:35Z</time>
      </trkpt>
      <trkpt lat="46.6052" lon="5.41138">
        <ele>207.6</ele>
        <time>2021-11-11T13:21:41Z</time>
      </trkpt>
      <trkpt lat="46.60489" lon="5.41136">
        <ele>208.6</ele>
        <time>2021-11-11T13:21:47Z</time>
      </trkpt>
      <trkpt lat="46.60477" lon="5.41136">
        <ele>209</ele>
        <time>2021-11-11T13:21:49Z</time>
      </trkpt>
      <trkpt lat="46.60472" lon="5.41135">
        <ele>209</ele>
        <time>2021-11-11T13:21:50Z</time>
      </trkpt>
      <trkpt lat="46.60457" lon="5.41129">
        <ele>209.8</ele>
        <time>2021-11-11T13:21:53Z</time>
      </trkpt>
      <trkpt lat="46.6045" lon="5.41126">
        <ele>210</ele>
        <time>2021-11-11T13:21:54Z</time>
      </trkpt>
      <trkpt lat="46.60445" lon="5.41122">
        <ele>210.2</ele>
        <time>2021-11-11T13:21:55Z</time>
      </trkpt>
      <trkpt lat="46.60437" lon="5.41113">
        <ele>210.6</ele>
        <time>2021-11-11T13:21:57Z</time>
      </trkpt>
      <trkpt lat="46.60429" lon="5.411">
        <ele>210.8</ele>
        <time>2021-11-11T13:21:59Z</time>
      </trkpt>
      <trkpt lat="46.60426" lon="5.41093">
        <ele>211</ele>
        <time>2021-11-11T13:22:00Z</time>
      </trkpt>
      <trkpt lat="46.60412" lon="5.41054">
        <ele>211.8</ele>
        <time>2021-11-11T13:22:06Z</time>
      </trkpt>
      <trkpt lat="46.60409" lon="5.41047">
        <ele>212.2</ele>
        <time>2021-11-11T13:22:07Z</time>
      </trkpt>
      <trkpt lat="46.60404" lon="5.4104">
        <ele>212.4</ele>
        <time>2021-11-11T13:22:08Z</time>
      </trkpt>
      <trkpt lat="46.60391" lon="5.41023">
        <ele>212.6</ele>
        <time>2021-11-11T13:22:11Z</time>
      </trkpt>
      <trkpt lat="46.6036" lon="5.41002">
        <ele>212</ele>
        <time>2021-11-11T13:22:16Z</time>
      </trkpt>
      <trkpt lat="46.60352" lon="5.40996">
        <ele>212</ele>
        <time>2021-11-11T13:22:17Z</time>
      </trkpt>
      <trkpt lat="46.6034" lon="5.40985">
        <ele>211.6</ele>
        <time>2021-11-11T13:22:19Z</time>
      </trkpt>
      <trkpt lat="46.60334" lon="5.40976">
        <ele>211.4</ele>
        <time>2021-11-11T13:22:20Z</time>
      </trkpt>
      <trkpt lat="46.60328" lon="5.40966">
        <ele>211</ele>
        <time>2021-11-11T13:22:21Z</time>
      </trkpt>
      <trkpt lat="46.60311" lon="5.40933">
        <ele>209.6</ele>
        <time>2021-11-11T13:22:24Z</time>
      </trkpt>
      <trkpt lat="46.60304" lon="5.40921">
        <ele>208.8</ele>
        <time>2021-11-11T13:22:25Z</time>
      </trkpt>
      <trkpt lat="46.60297" lon="5.4091">
        <ele>208.4</ele>
        <time>2021-11-11T13:22:26Z</time>
      </trkpt>
      <trkpt lat="46.60288" lon="5.40899">
        <ele>207.6</ele>
        <time>2021-11-11T13:22:27Z</time>
      </trkpt>
      <trkpt lat="46.6028" lon="5.4089">
        <ele>207.4</ele>
        <time>2021-11-11T13:22:28Z</time>
      </trkpt>
      <trkpt lat="46.60273" lon="5.40884">
        <ele>206.2</ele>
        <time>2021-11-11T13:22:29Z</time>
      </trkpt>
      <trkpt lat="46.60254" lon="5.40868">
        <ele>205</ele>
        <time>2021-11-11T13:22:31Z</time>
      </trkpt>
      <trkpt lat="46.60236" lon="5.40855">
        <ele>203.8</ele>
        <time>2021-11-11T13:22:33Z</time>
      </trkpt>
      <trkpt lat="46.60229" lon="5.40849">
        <ele>203</ele>
        <time>2021-11-11T13:22:34Z</time>
      </trkpt>
      <trkpt lat="46.60219" lon="5.40841">
        <ele>202.8</ele>
        <time>2021-11-11T13:22:35Z</time>
      </trkpt>
      <trkpt lat="46.60197" lon="5.4082">
        <ele>201.6</ele>
        <time>2021-11-11T13:22:38Z</time>
      </trkpt>
      <trkpt lat="46.6019" lon="5.40812">
        <ele>201.4</ele>
        <time>2021-11-11T13:22:39Z</time>
      </trkpt>
      <trkpt lat="46.60183" lon="5.40801">
        <ele>201.2</ele>
        <time>2021-11-11T13:22:40Z</time>
      </trkpt>
      <trkpt lat="46.60179" lon="5.4079">
        <ele>201</ele>
        <time>2021-11-11T13:22:41Z</time>
      </trkpt>
      <trkpt lat="46.60176" lon="5.40779">
        <ele>200.4</ele>
        <time>2021-11-11T13:22:42Z</time>
      </trkpt>
      <trkpt lat="46.60174" lon="5.4077">
        <ele>200.2</ele>
        <time>2021-11-11T13:22:43Z</time>
      </trkpt>
      <trkpt lat="46.60173" lon="5.40744">
        <ele>200</ele>
        <time>2021-11-11T13:22:45Z</time>
      </trkpt>
      <trkpt lat="46.60175" lon="5.40732">
        <ele>200</ele>
        <time>2021-11-11T13:22:46Z</time>
      </trkpt>
      <trkpt lat="46.60176" lon="5.40724">
        <ele>199.8</ele>
        <time>2021-11-11T13:22:47Z</time>
      </trkpt>
      <trkpt lat="46.60183" lon="5.40704">
        <ele>199.6</ele>
        <time>2021-11-11T13:22:49Z</time>
      </trkpt>
      <trkpt lat="46.60191" lon="5.40687">
        <ele>199.4</ele>
        <time>2021-11-11T13:22:51Z</time>
      </trkpt>
      <trkpt lat="46.60205" lon="5.40664">
        <ele>199.6</ele>
        <time>2021-11-11T13:22:54Z</time>
      </trkpt>
      <trkpt lat="46.6023" lon="5.40617">
        <ele>199.8</ele>
        <time>2021-11-11T13:23:00Z</time>
      </trkpt>
      <trkpt lat="46.60235" lon="5.40601">
        <ele>199.8</ele>
        <time>2021-11-11T13:23:02Z</time>
      </trkpt>
      <trkpt lat="46.60237" lon="5.40581">
        <ele>199.8</ele>
        <time>2021-11-11T13:23:04Z</time>
      </trkpt>
      <trkpt lat="46.60236" lon="5.40556">
        <ele>199.8</ele>
        <time>2021-11-11T13:23:07Z</time>
      </trkpt>
      <trkpt lat="46.60234" lon="5.40546">
        <ele>199.8</ele>
        <time>2021-11-11T13:23:08Z</time>
      </trkpt>
      <trkpt lat="46.60223" lon="5.40489">
        <ele>200.2</ele>
        <time>2021-11-11T13:23:15Z</time>
      </trkpt>
      <trkpt lat="46.6022" lon="5.40463">
        <ele>200.4</ele>
        <time>2021-11-11T13:23:18Z</time>
      </trkpt>
      <trkpt lat="46.6022" lon="5.40449">
        <ele>200.4</ele>
        <time>2021-11-11T13:23:20Z</time>
      </trkpt>
      <trkpt lat="46.6022" lon="5.4044">
        <ele>200.6</ele>
        <time>2021-11-11T13:23:21Z</time>
      </trkpt>
      <trkpt lat="46.60222" lon="5.40413">
        <ele>201.6</ele>
        <time>2021-11-11T13:23:25Z</time>
      </trkpt>
      <trkpt lat="46.60222" lon="5.40407">
        <ele>201.6</ele>
        <time>2021-11-11T13:23:26Z</time>
      </trkpt>
      <trkpt lat="46.60222" lon="5.40393">
        <ele>202</ele>
        <time>2021-11-11T13:23:28Z</time>
      </trkpt>
      <trkpt lat="46.60221" lon="5.40381">
        <ele>202.6</ele>
        <time>2021-11-11T13:23:30Z</time>
      </trkpt>
      <trkpt lat="46.60221" lon="5.40375">
        <ele>202.8</ele>
        <time>2021-11-11T13:23:31Z</time>
      </trkpt>
      <trkpt lat="46.6022" lon="5.40356">
        <ele>203.8</ele>
        <time>2021-11-11T13:23:34Z</time>
      </trkpt>
      <trkpt lat="46.60219" lon="5.40348">
        <ele>204.2</ele>
        <time>2021-11-11T13:23:35Z</time>
      </trkpt>
      <trkpt lat="46.60216" lon="5.40334">
        <ele>205</ele>
        <time>2021-11-11T13:23:37Z</time>
      </trkpt>
      <trkpt lat="46.60214" lon="5.40328">
        <ele>205.2</ele>
        <time>2021-11-11T13:23:38Z</time>
      </trkpt>
      <trkpt lat="46.60194" lon="5.40272">
        <ele>205.8</ele>
        <time>2021-11-11T13:23:45Z</time>
      </trkpt>
      <trkpt lat="46.60181" lon="5.4024">
        <ele>205.4</ele>
        <time>2021-11-11T13:23:49Z</time>
      </trkpt>
      <trkpt lat="46.60178" lon="5.40222">
        <ele>205.4</ele>
        <time>2021-11-11T13:23:51Z</time>
      </trkpt>
      <trkpt lat="46.60177" lon="5.40205">
        <ele>205.2</ele>
        <time>2021-11-11T13:23:53Z</time>
      </trkpt>
      <trkpt lat="46.60179" lon="5.40187">
        <ele>205</ele>
        <time>2021-11-11T13:23:55Z</time>
      </trkpt>
      <trkpt lat="46.60191" lon="5.4013">
        <ele>205.6</ele>
        <time>2021-11-11T13:24:02Z</time>
      </trkpt>
      <trkpt lat="46.60194" lon="5.40083">
        <ele>205.8</ele>
        <time>2021-11-11T13:24:07Z</time>
      </trkpt>
      <trkpt lat="46.60191" lon="5.40007">
        <ele>204.6</ele>
        <time>2021-11-11T13:24:14Z</time>
      </trkpt>
      <trkpt lat="46.60189" lon="5.39964">
        <ele>204</ele>
        <time>2021-11-11T13:24:18Z</time>
      </trkpt>
      <trkpt lat="46.60187" lon="5.39941">
        <ele>203.4</ele>
        <time>2021-11-11T13:24:20Z</time>
      </trkpt>
      <trkpt lat="46.60184" lon="5.3992">
        <ele>202.8</ele>
        <time>2021-11-11T13:24:22Z</time>
      </trkpt>
      <trkpt lat="46.60177" lon="5.399">
        <ele>202.4</ele>
        <time>2021-11-11T13:24:24Z</time>
      </trkpt>
      <trkpt lat="46.60167" lon="5.39883">
        <ele>202</ele>
        <time>2021-11-11T13:24:26Z</time>
      </trkpt>
      <trkpt lat="46.60161" lon="5.39877">
        <ele>201.8</ele>
        <time>2021-11-11T13:24:27Z</time>
      </trkpt>
      <trkpt lat="46.60154" lon="5.39871">
        <ele>201.8</ele>
        <time>2021-11-11T13:24:28Z</time>
      </trkpt>
      <trkpt lat="46.60109" lon="5.39831">
        <ele>200.8</ele>
        <time>2021-11-11T13:24:35Z</time>
      </trkpt>
      <trkpt lat="46.60103" lon="5.39825">
        <ele>200.6</ele>
        <time>2021-11-11T13:24:36Z</time>
      </trkpt>
      <trkpt lat="46.60092" lon="5.39811">
        <ele>200.4</ele>
        <time>2021-11-11T13:24:38Z</time>
      </trkpt>
      <trkpt lat="46.60084" lon="5.39794">
        <ele>200.4</ele>
        <time>2021-11-11T13:24:40Z</time>
      </trkpt>
      <trkpt lat="46.60068" lon="5.39751">
        <ele>200.6</ele>
        <time>2021-11-11T13:24:45Z</time>
      </trkpt>
      <trkpt lat="46.60067" lon="5.39742">
        <ele>200.8</ele>
        <time>2021-11-11T13:24:46Z</time>
      </trkpt>
      <trkpt lat="46.60065" lon="5.39733">
        <ele>200.8</ele>
        <time>2021-11-11T13:24:47Z</time>
      </trkpt>
      <trkpt lat="46.60066" lon="5.39715">
        <ele>201.2</ele>
        <time>2021-11-11T13:24:49Z</time>
      </trkpt>
      <trkpt lat="46.60072" lon="5.39699">
        <ele>201.2</ele>
        <time>2021-11-11T13:24:51Z</time>
      </trkpt>
      <trkpt lat="46.60079" lon="5.39685">
        <ele>201.2</ele>
        <time>2021-11-11T13:24:53Z</time>
      </trkpt>
      <trkpt lat="46.60087" lon="5.39664">
        <ele>201.6</ele>
        <time>2021-11-11T13:24:56Z</time>
      </trkpt>
      <trkpt lat="46.6009" lon="5.39648">
        <ele>201.8</ele>
        <time>2021-11-11T13:24:58Z</time>
      </trkpt>
      <trkpt lat="46.60091" lon="5.3964">
        <ele>202</ele>
        <time>2021-11-11T13:24:59Z</time>
      </trkpt>
      <trkpt lat="46.60092" lon="5.39632">
        <ele>202.4</ele>
        <time>2021-11-11T13:25:00Z</time>
      </trkpt>
      <trkpt lat="46.60091" lon="5.39617">
        <ele>202.6</ele>
        <time>2021-11-11T13:25:02Z</time>
      </trkpt>
      <trkpt lat="46.6009" lon="5.39609">
        <ele>202.8</ele>
        <time>2021-11-11T13:25:03Z</time>
      </trkpt>
      <trkpt lat="46.60087" lon="5.39595">
        <ele>203.2</ele>
        <time>2021-11-11T13:25:05Z</time>
      </trkpt>
      <trkpt lat="46.60079" lon="5.39568">
        <ele>204</ele>
        <time>2021-11-11T13:25:09Z</time>
      </trkpt>
      <trkpt lat="46.60075" lon="5.39555">
        <ele>204.6</ele>
        <time>2021-11-11T13:25:11Z</time>
      </trkpt>
      <trkpt lat="46.60063" lon="5.39532">
        <ele>205.4</ele>
        <time>2021-11-11T13:25:15Z</time>
      </trkpt>
      <trkpt lat="46.6006" lon="5.39526">
        <ele>205.8</ele>
        <time>2021-11-11T13:25:16Z</time>
      </trkpt>
      <trkpt lat="46.6005" lon="5.39504">
        <ele>206.8</ele>
        <time>2021-11-11T13:25:20Z</time>
      </trkpt>
      <trkpt lat="46.60047" lon="5.39499">
        <ele>207.2</ele>
        <time>2021-11-11T13:25:21Z</time>
      </trkpt>
      <trkpt lat="46.60045" lon="5.39493">
        <ele>207.4</ele>
        <time>2021-11-11T13:25:22Z</time>
      </trkpt>
      <trkpt lat="46.60041" lon="5.39481">
        <ele>207.6</ele>
        <time>2021-11-11T13:25:24Z</time>
      </trkpt>
      <trkpt lat="46.6004" lon="5.39475">
        <ele>208</ele>
        <time>2021-11-11T13:25:25Z</time>
      </trkpt>
      <trkpt lat="46.60038" lon="5.39463">
        <ele>208.8</ele>
        <time>2021-11-11T13:25:27Z</time>
      </trkpt>
      <trkpt lat="46.60038" lon="5.39456">
        <ele>209</ele>
        <time>2021-11-11T13:25:28Z</time>
      </trkpt>
      <trkpt lat="46.60038" lon="5.39449">
        <ele>209.2</ele>
        <time>2021-11-11T13:25:29Z</time>
      </trkpt>
      <trkpt lat="46.60038" lon="5.39434">
        <ele>209.8</ele>
        <time>2021-11-11T13:25:31Z</time>
      </trkpt>
      <trkpt lat="46.60042" lon="5.39411">
        <ele>210.4</ele>
        <time>2021-11-11T13:25:34Z</time>
      </trkpt>
      <trkpt lat="46.60054" lon="5.39348">
        <ele>210.2</ele>
        <time>2021-11-11T13:25:41Z</time>
      </trkpt>
      <trkpt lat="46.60055" lon="5.39339">
        <ele>210</ele>
        <time>2021-11-11T13:25:42Z</time>
      </trkpt>
      <trkpt lat="46.60056" lon="5.39303">
        <ele>209.8</ele>
        <time>2021-11-11T13:25:46Z</time>
      </trkpt>
      <trkpt lat="46.60054" lon="5.3927">
        <ele>209.8</ele>
        <time>2021-11-11T13:25:50Z</time>
      </trkpt>
      <trkpt lat="46.60053" lon="5.39263">
        <ele>210</ele>
        <time>2021-11-11T13:25:51Z</time>
      </trkpt>
      <trkpt lat="46.60045" lon="5.39238">
        <ele>211.2</ele>
        <time>2021-11-11T13:25:55Z</time>
      </trkpt>
      <trkpt lat="46.60043" lon="5.39232">
        <ele>211.2</ele>
        <time>2021-11-11T13:25:56Z</time>
      </trkpt>
      <trkpt lat="46.6004" lon="5.39227">
        <ele>211.6</ele>
        <time>2021-11-11T13:25:57Z</time>
      </trkpt>
      <trkpt lat="46.60029" lon="5.39213">
        <ele>212.8</ele>
        <time>2021-11-11T13:26:00Z</time>
      </trkpt>
      <trkpt lat="46.60026" lon="5.39209">
        <ele>213.2</ele>
        <time>2021-11-11T13:26:01Z</time>
      </trkpt>
      <trkpt lat="46.60013" lon="5.39198">
        <ele>214.2</ele>
        <time>2021-11-11T13:26:04Z</time>
      </trkpt>
      <trkpt lat="46.60009" lon="5.39195">
        <ele>214.4</ele>
        <time>2021-11-11T13:26:05Z</time>
      </trkpt>
      <trkpt lat="46.6" lon="5.39189">
        <ele>214.8</ele>
        <time>2021-11-11T13:26:07Z</time>
      </trkpt>
      <trkpt lat="46.59994" lon="5.39187">
        <ele>215</ele>
        <time>2021-11-11T13:26:08Z</time>
      </trkpt>
      <trkpt lat="46.59983" lon="5.39184">
        <ele>215.4</ele>
        <time>2021-11-11T13:26:10Z</time>
      </trkpt>
      <trkpt lat="46.59978" lon="5.39183">
        <ele>215.6</ele>
        <time>2021-11-11T13:26:11Z</time>
      </trkpt>
      <trkpt lat="46.59962" lon="5.39183">
        <ele>216</ele>
        <time>2021-11-11T13:26:14Z</time>
      </trkpt>
      <trkpt lat="46.5994" lon="5.39181">
        <ele>216.6</ele>
        <time>2021-11-11T13:26:18Z</time>
      </trkpt>
      <trkpt lat="46.59932" lon="5.39175">
        <ele>216.6</ele>
        <time>2021-11-11T13:26:20Z</time>
      </trkpt>
      <trkpt lat="46.59931" lon="5.39163">
        <ele>217</ele>
        <time>2021-11-11T13:26:22Z</time>
      </trkpt>
      <trkpt lat="46.59933" lon="5.39157">
        <ele>217</ele>
        <time>2021-11-11T13:26:23Z</time>
      </trkpt>
      <trkpt lat="46.59943" lon="5.39138">
        <ele>217.8</ele>
        <time>2021-11-11T13:26:26Z</time>
      </trkpt>
      <trkpt lat="46.59962" lon="5.39108">
        <ele>218.4</ele>
        <time>2021-11-11T13:26:31Z</time>
      </trkpt>
      <trkpt lat="46.59965" lon="5.39101">
        <ele>218.4</ele>
        <time>2021-11-11T13:26:32Z</time>
      </trkpt>
      <trkpt lat="46.59968" lon="5.39093">
        <ele>218.6</ele>
        <time>2021-11-11T13:26:33Z</time>
      </trkpt>
      <trkpt lat="46.59973" lon="5.39063">
        <ele>218.6</ele>
        <time>2021-11-11T13:26:36Z</time>
      </trkpt>
      <trkpt lat="46.59984" lon="5.38986">
        <ele>217.6</ele>
        <time>2021-11-11T13:26:43Z</time>
      </trkpt>
      <trkpt lat="46.59988" lon="5.38963">
        <ele>216.8</ele>
        <time>2021-11-11T13:26:45Z</time>
      </trkpt>
      <trkpt lat="46.59999" lon="5.38916">
        <ele>215.8</ele>
        <time>2021-11-11T13:26:49Z</time>
      </trkpt>
      <trkpt lat="46.60016" lon="5.38869">
        <ele>214.6</ele>
        <time>2021-11-11T13:26:53Z</time>
      </trkpt>
      <trkpt lat="46.60026" lon="5.38844">
        <ele>214</ele>
        <time>2021-11-11T13:26:55Z</time>
      </trkpt>
      <trkpt lat="46.6003" lon="5.38831">
        <ele>213.2</ele>
        <time>2021-11-11T13:26:56Z</time>
      </trkpt>
      <trkpt lat="46.60039" lon="5.38804">
        <ele>212.2</ele>
        <time>2021-11-11T13:26:58Z</time>
      </trkpt>
      <trkpt lat="46.60047" lon="5.38775">
        <ele>210.8</ele>
        <time>2021-11-11T13:27:00Z</time>
      </trkpt>
      <trkpt lat="46.60051" lon="5.3876">
        <ele>210.4</ele>
        <time>2021-11-11T13:27:01Z</time>
      </trkpt>
      <trkpt lat="46.60054" lon="5.38745">
        <ele>209.2</ele>
        <time>2021-11-11T13:27:02Z</time>
      </trkpt>
      <trkpt lat="46.60061" lon="5.38714">
        <ele>208</ele>
        <time>2021-11-11T13:27:04Z</time>
      </trkpt>
      <trkpt lat="46.60065" lon="5.38699">
        <ele>206.8</ele>
        <time>2021-11-11T13:27:05Z</time>
      </trkpt>
      <trkpt lat="46.60072" lon="5.38668">
        <ele>205.4</ele>
        <time>2021-11-11T13:27:07Z</time>
      </trkpt>
      <trkpt lat="46.60075" lon="5.38653">
        <ele>205</ele>
        <time>2021-11-11T13:27:08Z</time>
      </trkpt>
      <trkpt lat="46.60079" lon="5.38639">
        <ele>204.2</ele>
        <time>2021-11-11T13:27:09Z</time>
      </trkpt>
      <trkpt lat="46.60088" lon="5.386">
        <ele>202.8</ele>
        <time>2021-11-11T13:27:12Z</time>
      </trkpt>
      <trkpt lat="46.6009" lon="5.38588">
        <ele>202.6</ele>
        <time>2021-11-11T13:27:13Z</time>
      </trkpt>
      <trkpt lat="46.60096" lon="5.38529">
        <ele>202.4</ele>
        <time>2021-11-11T13:27:18Z</time>
      </trkpt>
      <trkpt lat="46.60099" lon="5.38457">
        <ele>202.8</ele>
        <time>2021-11-11T13:27:25Z</time>
      </trkpt>
      <trkpt lat="46.60099" lon="5.38376">
        <ele>203.4</ele>
        <time>2021-11-11T13:27:33Z</time>
      </trkpt>
      <trkpt lat="46.60097" lon="5.38292">
        <ele>203.2</ele>
        <time>2021-11-11T13:27:41Z</time>
      </trkpt>
      <trkpt lat="46.60099" lon="5.3821">
        <ele>202.4</ele>
        <time>2021-11-11T13:27:49Z</time>
      </trkpt>
      <trkpt lat="46.601" lon="5.38188">
        <ele>202.4</ele>
        <time>2021-11-11T13:27:51Z</time>
      </trkpt>
      <trkpt lat="46.60107" lon="5.38115">
        <ele>202.8</ele>
        <time>2021-11-11T13:27:59Z</time>
      </trkpt>
      <trkpt lat="46.60118" lon="5.38034">
        <ele>203.6</ele>
        <time>2021-11-11T13:28:08Z</time>
      </trkpt>
      <trkpt lat="46.60135" lon="5.37951">
        <ele>204</ele>
        <time>2021-11-11T13:28:17Z</time>
      </trkpt>
      <trkpt lat="46.6015" lon="5.37874">
        <ele>203.2</ele>
        <time>2021-11-11T13:28:24Z</time>
      </trkpt>
      <trkpt lat="46.60162" lon="5.37812">
        <ele>202</ele>
        <time>2021-11-11T13:28:29Z</time>
      </trkpt>
      <trkpt lat="46.60171" lon="5.37768">
        <ele>201</ele>
        <time>2021-11-11T13:28:33Z</time>
      </trkpt>
      <trkpt lat="46.60173" lon="5.37754">
        <ele>200.8</ele>
        <time>2021-11-11T13:28:34Z</time>
      </trkpt>
      <trkpt lat="46.60187" lon="5.37682">
        <ele>200.4</ele>
        <time>2021-11-11T13:28:41Z</time>
      </trkpt>
      <trkpt lat="46.60198" lon="5.37619">
        <ele>200.8</ele>
        <time>2021-11-11T13:28:48Z</time>
      </trkpt>
      <trkpt lat="46.60206" lon="5.37575">
        <ele>202</ele>
        <time>2021-11-11T13:28:54Z</time>
      </trkpt>
      <trkpt lat="46.60208" lon="5.37559">
        <ele>202.4</ele>
        <time>2021-11-11T13:28:56Z</time>
      </trkpt>
      <trkpt lat="46.60212" lon="5.37539">
        <ele>203</ele>
        <time>2021-11-11T13:28:59Z</time>
      </trkpt>
      <trkpt lat="46.60213" lon="5.37532">
        <ele>203.4</ele>
        <time>2021-11-11T13:29:00Z</time>
      </trkpt>
      <trkpt lat="46.60218" lon="5.37513">
        <ele>204.2</ele>
        <time>2021-11-11T13:29:03Z</time>
      </trkpt>
      <trkpt lat="46.60221" lon="5.37498">
        <ele>205</ele>
        <time>2021-11-11T13:29:05Z</time>
      </trkpt>
      <trkpt lat="46.60224" lon="5.37487">
        <ele>205.2</ele>
        <time>2021-11-11T13:29:07Z</time>
      </trkpt>
      <trkpt lat="46.60225" lon="5.3748">
        <ele>205.6</ele>
        <time>2021-11-11T13:29:08Z</time>
      </trkpt>
      <trkpt lat="46.6023" lon="5.37459">
        <ele>206.6</ele>
        <time>2021-11-11T13:29:11Z</time>
      </trkpt>
      <trkpt lat="46.60235" lon="5.37442">
        <ele>207.2</ele>
        <time>2021-11-11T13:29:14Z</time>
      </trkpt>
      <trkpt lat="46.6024" lon="5.37429">
        <ele>207.8</ele>
        <time>2021-11-11T13:29:16Z</time>
      </trkpt>
      <trkpt lat="46.6025" lon="5.37399">
        <ele>209.4</ele>
        <time>2021-11-11T13:29:21Z</time>
      </trkpt>
      <trkpt lat="46.60257" lon="5.37381">
        <ele>210.2</ele>
        <time>2021-11-11T13:29:24Z</time>
      </trkpt>
      <trkpt lat="46.6026" lon="5.37376">
        <ele>210.4</ele>
        <time>2021-11-11T13:29:25Z</time>
      </trkpt>
      <trkpt lat="46.60266" lon="5.37367">
        <ele>211</ele>
        <time>2021-11-11T13:29:27Z</time>
      </trkpt>
      <trkpt lat="46.60274" lon="5.37359">
        <ele>211.4</ele>
        <time>2021-11-11T13:29:29Z</time>
      </trkpt>
      <trkpt lat="46.60279" lon="5.37357">
        <ele>211.8</ele>
        <time>2021-11-11T13:29:30Z</time>
      </trkpt>
      <trkpt lat="46.60313" lon="5.37348">
        <ele>212.6</ele>
        <time>2021-11-11T13:29:36Z</time>
      </trkpt>
      <trkpt lat="46.60356" lon="5.37334">
        <ele>211.4</ele>
        <time>2021-11-11T13:29:42Z</time>
      </trkpt>
      <trkpt lat="46.60373" lon="5.37326">
        <ele>211</ele>
        <time>2021-11-11T13:29:44Z</time>
      </trkpt>
      <trkpt lat="46.6038" lon="5.37321">
        <ele>210.6</ele>
        <time>2021-11-11T13:29:45Z</time>
      </trkpt>
      <trkpt lat="46.60387" lon="5.37313">
        <ele>210</ele>
        <time>2021-11-11T13:29:46Z</time>
      </trkpt>
      <trkpt lat="46.604" lon="5.3729">
        <ele>209.2</ele>
        <time>2021-11-11T13:29:48Z</time>
      </trkpt>
      <trkpt lat="46.60405" lon="5.37278">
        <ele>209</ele>
        <time>2021-11-11T13:29:49Z</time>
      </trkpt>
      <trkpt lat="46.60411" lon="5.37253">
        <ele>208.2</ele>
        <time>2021-11-11T13:29:51Z</time>
      </trkpt>
      <trkpt lat="46.60416" lon="5.37225">
        <ele>207.2</ele>
        <time>2021-11-11T13:29:53Z</time>
      </trkpt>
      <trkpt lat="46.60418" lon="5.37208">
        <ele>206.4</ele>
        <time>2021-11-11T13:29:54Z</time>
      </trkpt>
      <trkpt lat="46.60421" lon="5.37169">
        <ele>205</ele>
        <time>2021-11-11T13:29:57Z</time>
      </trkpt>
      <trkpt lat="46.60426" lon="5.37127">
        <ele>204</ele>
        <time>2021-11-11T13:30:00Z</time>
      </trkpt>
      <trkpt lat="46.60434" lon="5.37073">
        <ele>202.8</ele>
        <time>2021-11-11T13:30:04Z</time>
      </trkpt>
      <trkpt lat="46.60441" lon="5.37019">
        <ele>201.4</ele>
        <time>2021-11-11T13:30:08Z</time>
      </trkpt>
      <trkpt lat="46.60449" lon="5.36969">
        <ele>200.8</ele>
        <time>2021-11-11T13:30:12Z</time>
      </trkpt>
      <trkpt lat="46.60456" lon="5.36913">
        <ele>200.6</ele>
        <time>2021-11-11T13:30:17Z</time>
      </trkpt>
      <trkpt lat="46.60459" lon="5.36871">
        <ele>201.4</ele>
        <time>2021-11-11T13:30:22Z</time>
      </trkpt>
      <trkpt lat="46.60459" lon="5.36821">
        <ele>202.6</ele>
        <time>2021-11-11T13:30:28Z</time>
      </trkpt>
      <trkpt lat="46.60458" lon="5.3679">
        <ele>203.6</ele>
        <time>2021-11-11T13:30:32Z</time>
      </trkpt>
      <trkpt lat="46.60456" lon="5.36752">
        <ele>204.6</ele>
        <time>2021-11-11T13:30:37Z</time>
      </trkpt>
      <trkpt lat="46.60455" lon="5.36743">
        <ele>205</ele>
        <time>2021-11-11T13:30:38Z</time>
      </trkpt>
      <trkpt lat="46.60451" lon="5.36721">
        <ele>205.6</ele>
        <time>2021-11-11T13:30:41Z</time>
      </trkpt>
      <trkpt lat="46.60449" lon="5.36713">
        <ele>205.8</ele>
        <time>2021-11-11T13:30:42Z</time>
      </trkpt>
      <trkpt lat="46.60444" lon="5.36696">
        <ele>206.2</ele>
        <time>2021-11-11T13:30:44Z</time>
      </trkpt>
      <trkpt lat="46.60439" lon="5.36682">
        <ele>206.8</ele>
        <time>2021-11-11T13:30:46Z</time>
      </trkpt>
      <trkpt lat="46.6043" lon="5.3666">
        <ele>207.2</ele>
        <time>2021-11-11T13:30:49Z</time>
      </trkpt>
      <trkpt lat="46.60424" lon="5.36649">
        <ele>207.6</ele>
        <time>2021-11-11T13:30:51Z</time>
      </trkpt>
      <trkpt lat="46.60416" lon="5.36636">
        <ele>207.8</ele>
        <time>2021-11-11T13:30:53Z</time>
      </trkpt>
      <trkpt lat="46.60394" lon="5.36609">
        <ele>207.8</ele>
        <time>2021-11-11T13:30:58Z</time>
      </trkpt>
      <trkpt lat="46.60369" lon="5.36584">
        <ele>206.6</ele>
        <time>2021-11-11T13:31:03Z</time>
      </trkpt>
      <trkpt lat="46.60347" lon="5.36563">
        <ele>206</ele>
        <time>2021-11-11T13:31:07Z</time>
      </trkpt>
      <trkpt lat="46.60328" lon="5.36546">
        <ele>205.6</ele>
        <time>2021-11-11T13:31:10Z</time>
      </trkpt>
      <trkpt lat="46.60304" lon="5.36522">
        <ele>205.2</ele>
        <time>2021-11-11T13:31:14Z</time>
      </trkpt>
      <trkpt lat="46.6028" lon="5.36489">
        <ele>204.4</ele>
        <time>2021-11-11T13:31:18Z</time>
      </trkpt>
      <trkpt lat="46.60275" lon="5.3648">
        <ele>203.8</ele>
        <time>2021-11-11T13:31:19Z</time>
      </trkpt>
      <trkpt lat="46.60271" lon="5.36469">
        <ele>203.6</ele>
        <time>2021-11-11T13:31:20Z</time>
      </trkpt>
      <trkpt lat="46.60263" lon="5.36445">
        <ele>203.2</ele>
        <time>2021-11-11T13:31:22Z</time>
      </trkpt>
      <trkpt lat="46.6026" lon="5.36436">
        <ele>203</ele>
        <time>2021-11-11T13:31:23Z</time>
      </trkpt>
      <trkpt lat="46.60258" lon="5.36424">
        <ele>203</ele>
        <time>2021-11-11T13:31:24Z</time>
      </trkpt>
      <trkpt lat="46.60256" lon="5.36397">
        <ele>202.2</ele>
        <time>2021-11-11T13:31:26Z</time>
      </trkpt>
      <trkpt lat="46.60256" lon="5.36387">
        <ele>201.8</ele>
        <time>2021-11-11T13:31:27Z</time>
      </trkpt>
      <trkpt lat="46.60264" lon="5.36326">
        <ele>200.8</ele>
        <time>2021-11-11T13:31:32Z</time>
      </trkpt>
      <trkpt lat="46.60272" lon="5.36278">
        <ele>199.6</ele>
        <time>2021-11-11T13:31:36Z</time>
      </trkpt>
      <trkpt lat="46.60275" lon="5.36259">
        <ele>199.2</ele>
        <time>2021-11-11T13:31:38Z</time>
      </trkpt>
      <trkpt lat="46.60287" lon="5.36207">
        <ele>198.6</ele>
        <time>2021-11-11T13:31:43Z</time>
      </trkpt>
      <trkpt lat="46.60299" lon="5.36168">
        <ele>198.6</ele>
        <time>2021-11-11T13:31:47Z</time>
      </trkpt>
      <trkpt lat="46.60322" lon="5.36097">
        <ele>198.8</ele>
        <time>2021-11-11T13:31:55Z</time>
      </trkpt>
      <trkpt lat="46.60337" lon="5.36036">
        <ele>199.4</ele>
        <time>2021-11-11T13:32:02Z</time>
      </trkpt>
      <trkpt lat="46.6034" lon="5.3602">
        <ele>199.6</ele>
        <time>2021-11-11T13:32:04Z</time>
      </trkpt>
      <trkpt lat="46.60346" lon="5.35977">
        <ele>200.4</ele>
        <time>2021-11-11T13:32:09Z</time>
      </trkpt>
      <trkpt lat="46.60346" lon="5.35969">
        <ele>200.4</ele>
        <time>2021-11-11T13:32:10Z</time>
      </trkpt>
      <trkpt lat="46.60346" lon="5.35923">
        <ele>200.6</ele>
        <time>2021-11-11T13:32:15Z</time>
      </trkpt>
      <trkpt lat="46.60345" lon="5.35903">
        <ele>200.8</ele>
        <time>2021-11-11T13:32:17Z</time>
      </trkpt>
      <trkpt lat="46.60341" lon="5.35867">
        <ele>200.8</ele>
        <time>2021-11-11T13:32:21Z</time>
      </trkpt>
      <trkpt lat="46.60338" lon="5.35848">
        <ele>200.8</ele>
        <time>2021-11-11T13:32:23Z</time>
      </trkpt>
      <trkpt lat="46.60332" lon="5.35818">
        <ele>200.8</ele>
        <time>2021-11-11T13:32:26Z</time>
      </trkpt>
      <trkpt lat="46.6032" lon="5.35752">
        <ele>200.2</ele>
        <time>2021-11-11T13:32:32Z</time>
      </trkpt>
      <trkpt lat="46.60314" lon="5.35719">
        <ele>199.6</ele>
        <time>2021-11-11T13:32:35Z</time>
      </trkpt>
      <trkpt lat="46.6031" lon="5.35671">
        <ele>199.2</ele>
        <time>2021-11-11T13:32:39Z</time>
      </trkpt>
      <trkpt lat="46.60309" lon="5.35639">
        <ele>198.4</ele>
        <time>2021-11-11T13:32:42Z</time>
      </trkpt>
      <trkpt lat="46.60311" lon="5.35614">
        <ele>198.2</ele>
        <time>2021-11-11T13:32:44Z</time>
      </trkpt>
      <trkpt lat="46.60326" lon="5.35553">
        <ele>197.8</ele>
        <time>2021-11-11T13:32:50Z</time>
      </trkpt>
      <trkpt lat="46.60346" lon="5.35512">
        <ele>197.8</ele>
        <time>2021-11-11T13:32:55Z</time>
      </trkpt>
      <trkpt lat="46.60385" lon="5.35454">
        <ele>197.6</ele>
        <time>2021-11-11T13:33:03Z</time>
      </trkpt>
      <trkpt lat="46.60426" lon="5.35397">
        <ele>197.6</ele>
        <time>2021-11-11T13:33:11Z</time>
      </trkpt>
      <trkpt lat="46.60431" lon="5.3539">
        <ele>197.6</ele>
        <time>2021-11-11T13:33:12Z</time>
      </trkpt>
      <trkpt lat="46.6044" lon="5.35375">
        <ele>197.6</ele>
        <time>2021-11-11T13:33:14Z</time>
      </trkpt>
      <trkpt lat="46.60469" lon="5.35332">
        <ele>196.6</ele>
        <time>2021-11-11T13:33:20Z</time>
      </trkpt>
      <trkpt lat="46.60474" lon="5.35325">
        <ele>196.6</ele>
        <time>2021-11-11T13:33:21Z</time>
      </trkpt>
      <trkpt lat="46.60514" lon="5.3526">
        <ele>196.6</ele>
        <time>2021-11-11T13:33:30Z</time>
      </trkpt>
      <trkpt lat="46.60533" lon="5.35229">
        <ele>196.8</ele>
        <time>2021-11-11T13:33:35Z</time>
      </trkpt>
      <trkpt lat="46.60542" lon="5.35212">
        <ele>197.4</ele>
        <time>2021-11-11T13:33:38Z</time>
      </trkpt>
      <trkpt lat="46.60546" lon="5.352">
        <ele>197.8</ele>
        <time>2021-11-11T13:33:40Z</time>
      </trkpt>
      <trkpt lat="46.60551" lon="5.35188">
        <ele>198.2</ele>
        <time>2021-11-11T13:33:42Z</time>
      </trkpt>
      <trkpt lat="46.60555" lon="5.35177">
        <ele>198.8</ele>
        <time>2021-11-11T13:33:44Z</time>
      </trkpt>
      <trkpt lat="46.6056" lon="5.35151">
        <ele>200</ele>
        <time>2021-11-11T13:33:48Z</time>
      </trkpt>
      <trkpt lat="46.60563" lon="5.35122">
        <ele>200.8</ele>
        <time>2021-11-11T13:33:52Z</time>
      </trkpt>
      <trkpt lat="46.60562" lon="5.35105">
        <ele>201</ele>
        <time>2021-11-11T13:33:54Z</time>
      </trkpt>
      <trkpt lat="46.60561" lon="5.35061">
        <ele>201.6</ele>
        <time>2021-11-11T13:33:59Z</time>
      </trkpt>
      <trkpt lat="46.60558" lon="5.34993">
        <ele>201.2</ele>
        <time>2021-11-11T13:34:06Z</time>
      </trkpt>
      <trkpt lat="46.60555" lon="5.34937">
        <ele>199.6</ele>
        <time>2021-11-11T13:34:11Z</time>
      </trkpt>
      <trkpt lat="46.60554" lon="5.34914">
        <ele>199</ele>
        <time>2021-11-11T13:34:13Z</time>
      </trkpt>
      <trkpt lat="46.60553" lon="5.34891">
        <ele>198.4</ele>
        <time>2021-11-11T13:34:15Z</time>
      </trkpt>
      <trkpt lat="46.60549" lon="5.34814">
        <ele>198</ele>
        <time>2021-11-11T13:34:22Z</time>
      </trkpt>
      <trkpt lat="46.60546" lon="5.34753">
        <ele>198.6</ele>
        <time>2021-11-11T13:34:29Z</time>
      </trkpt>
      <trkpt lat="46.60544" lon="5.34712">
        <ele>199.6</ele>
        <time>2021-11-11T13:34:34Z</time>
      </trkpt>
      <trkpt lat="46.60541" lon="5.34648">
        <ele>200.8</ele>
        <time>2021-11-11T13:34:42Z</time>
      </trkpt>
      <trkpt lat="46.60536" lon="5.34565">
        <ele>201.8</ele>
        <time>2021-11-11T13:34:51Z</time>
      </trkpt>
      <trkpt lat="46.60536" lon="5.34556">
        <ele>201.8</ele>
        <time>2021-11-11T13:34:52Z</time>
      </trkpt>
      <trkpt lat="46.60533" lon="5.34498">
        <ele>201.8</ele>
        <time>2021-11-11T13:34:58Z</time>
      </trkpt>
      <trkpt lat="46.6053" lon="5.34418">
        <ele>202</ele>
        <time>2021-11-11T13:35:07Z</time>
      </trkpt>
      <trkpt lat="46.60528" lon="5.34381">
        <ele>202.8</ele>
        <time>2021-11-11T13:35:12Z</time>
      </trkpt>
      <trkpt lat="46.60528" lon="5.34349">
        <ele>204.2</ele>
        <time>2021-11-11T13:35:17Z</time>
      </trkpt>
      <trkpt lat="46.60527" lon="5.34329">
        <ele>204.8</ele>
        <time>2021-11-11T13:35:20Z</time>
      </trkpt>
      <trkpt lat="46.60526" lon="5.3431">
        <ele>205.2</ele>
        <time>2021-11-11T13:35:23Z</time>
      </trkpt>
      <trkpt lat="46.60526" lon="5.34285">
        <ele>206.4</ele>
        <time>2021-11-11T13:35:27Z</time>
      </trkpt>
      <trkpt lat="46.60525" lon="5.34271">
        <ele>207</ele>
        <time>2021-11-11T13:35:29Z</time>
      </trkpt>
      <trkpt lat="46.60525" lon="5.34267">
        <ele>207.4</ele>
        <time>2021-11-11T13:35:30Z</time>
      </trkpt>
      <trkpt lat="46.60522" lon="5.34237">
        <ele>208.8</ele>
        <time>2021-11-11T13:35:35Z</time>
      </trkpt>
      <trkpt lat="46.60521" lon="5.34218">
        <ele>209.8</ele>
        <time>2021-11-11T13:35:38Z</time>
      </trkpt>
      <trkpt lat="46.6052" lon="5.34207">
        <ele>210.2</ele>
        <time>2021-11-11T13:35:40Z</time>
      </trkpt>
      <trkpt lat="46.60518" lon="5.3419">
        <ele>210.8</ele>
        <time>2021-11-11T13:35:43Z</time>
      </trkpt>
      <trkpt lat="46.60517" lon="5.34185">
        <ele>211</ele>
        <time>2021-11-11T13:35:44Z</time>
      </trkpt>
      <trkpt lat="46.60508" lon="5.34163">
        <ele>212</ele>
        <time>2021-11-11T13:35:48Z</time>
      </trkpt>
      <trkpt lat="46.60502" lon="5.34151">
        <ele>212.6</ele>
        <time>2021-11-11T13:35:50Z</time>
      </trkpt>
      <trkpt lat="46.60493" lon="5.34136">
        <ele>213.4</ele>
        <time>2021-11-11T13:35:53Z</time>
      </trkpt>
      <trkpt lat="46.60483" lon="5.34119">
        <ele>214</ele>
        <time>2021-11-11T13:35:56Z</time>
      </trkpt>
      <trkpt lat="46.6047" lon="5.34098">
        <ele>214.4</ele>
        <time>2021-11-11T13:36:00Z</time>
      </trkpt>
      <trkpt lat="46.60457" lon="5.34074">
        <ele>214.6</ele>
        <time>2021-11-11T13:36:04Z</time>
      </trkpt>
      <trkpt lat="46.60454" lon="5.34068">
        <ele>214.6</ele>
        <time>2021-11-11T13:36:05Z</time>
      </trkpt>
      <trkpt lat="46.60441" lon="5.34023">
        <ele>215</ele>
        <time>2021-11-11T13:36:11Z</time>
      </trkpt>
      <trkpt lat="46.60429" lon="5.33949">
        <ele>214.8</ele>
        <time>2021-11-11T13:36:19Z</time>
      </trkpt>
      <trkpt lat="46.60423" lon="5.33881">
        <ele>214.6</ele>
        <time>2021-11-11T13:36:26Z</time>
      </trkpt>
      <trkpt lat="46.60428" lon="5.33812">
        <ele>214.8</ele>
        <time>2021-11-11T13:36:33Z</time>
      </trkpt>
      <trkpt lat="46.60435" lon="5.33726">
        <ele>214.4</ele>
        <time>2021-11-11T13:36:42Z</time>
      </trkpt>
      <trkpt lat="46.60444" lon="5.33643">
        <ele>214.4</ele>
        <time>2021-11-11T13:36:51Z</time>
      </trkpt>
      <trkpt lat="46.60446" lon="5.33633">
        <ele>214.4</ele>
        <time>2021-11-11T13:36:52Z</time>
      </trkpt>
      <trkpt lat="46.60459" lon="5.33562">
        <ele>214.4</ele>
        <time>2021-11-11T13:37:00Z</time>
      </trkpt>
      <trkpt lat="46.60477" lon="5.33488">
        <ele>214.8</ele>
        <time>2021-11-11T13:37:08Z</time>
      </trkpt>
      <trkpt lat="46.60497" lon="5.33408">
        <ele>214.8</ele>
        <time>2021-11-11T13:37:16Z</time>
      </trkpt>
      <trkpt lat="46.60517" lon="5.33327">
        <ele>213.8</ele>
        <time>2021-11-11T13:37:24Z</time>
      </trkpt>
      <trkpt lat="46.60522" lon="5.33303">
        <ele>213.4</ele>
        <time>2021-11-11T13:37:26Z</time>
      </trkpt>
      <trkpt lat="46.60542" lon="5.3322">
        <ele>212.4</ele>
        <time>2021-11-11T13:37:34Z</time>
      </trkpt>
      <trkpt lat="46.60545" lon="5.3321">
        <ele>212.4</ele>
        <time>2021-11-11T13:37:35Z</time>
      </trkpt>
      <trkpt lat="46.60547" lon="5.33203">
        <ele>212.4</ele>
        <time>2021-11-11T13:37:36Z</time>
      </trkpt>
      <trkpt lat="46.60558" lon="5.33139">
        <ele>212.8</ele>
        <time>2021-11-11T13:37:43Z</time>
      </trkpt>
      <trkpt lat="46.6056" lon="5.33064">
        <ele>213</ele>
        <time>2021-11-11T13:37:50Z</time>
      </trkpt>
      <trkpt lat="46.60559" lon="5.32982">
        <ele>211.4</ele>
        <time>2021-11-11T13:37:57Z</time>
      </trkpt>
      <trkpt lat="46.60559" lon="5.3297">
        <ele>211.2</ele>
        <time>2021-11-11T13:37:58Z</time>
      </trkpt>
      <trkpt lat="46.60559" lon="5.32922">
        <ele>210.4</ele>
        <time>2021-11-11T13:38:02Z</time>
      </trkpt>
      <trkpt lat="46.6056" lon="5.32854">
        <ele>209</ele>
        <time>2021-11-11T13:38:08Z</time>
      </trkpt>
      <trkpt lat="46.60559" lon="5.32794">
        <ele>208.8</ele>
        <time>2021-11-11T13:38:14Z</time>
      </trkpt>
      <trkpt lat="46.6056" lon="5.32737">
        <ele>209.4</ele>
        <time>2021-11-11T13:38:20Z</time>
      </trkpt>
      <trkpt lat="46.60561" lon="5.3269">
        <ele>210.4</ele>
        <time>2021-11-11T13:38:25Z</time>
      </trkpt>
      <trkpt lat="46.60562" lon="5.32654">
        <ele>211.6</ele>
        <time>2021-11-11T13:38:29Z</time>
      </trkpt>
      <trkpt lat="46.60562" lon="5.32634">
        <ele>211.8</ele>
        <time>2021-11-11T13:38:31Z</time>
      </trkpt>
      <trkpt lat="46.60558" lon="5.32598">
        <ele>212.6</ele>
        <time>2021-11-11T13:38:35Z</time>
      </trkpt>
      <trkpt lat="46.60557" lon="5.32587">
        <ele>212.8</ele>
        <time>2021-11-11T13:38:36Z</time>
      </trkpt>
      <trkpt lat="46.60555" lon="5.3258">
        <ele>212.8</ele>
        <time>2021-11-11T13:38:37Z</time>
      </trkpt>
      <trkpt lat="46.60536" lon="5.32516">
        <ele>213</ele>
        <time>2021-11-11T13:38:44Z</time>
      </trkpt>
      <trkpt lat="46.60513" lon="5.32446">
        <ele>213.2</ele>
        <time>2021-11-11T13:38:52Z</time>
      </trkpt>
      <trkpt lat="46.60488" lon="5.32369">
        <ele>213.2</ele>
        <time>2021-11-11T13:39:01Z</time>
      </trkpt>
      <trkpt lat="46.60484" lon="5.32358">
        <ele>213.2</ele>
        <time>2021-11-11T13:39:02Z</time>
      </trkpt>
      <trkpt lat="46.60458" lon="5.32288">
        <ele>213.4</ele>
        <time>2021-11-11T13:39:10Z</time>
      </trkpt>
      <trkpt lat="46.60454" lon="5.32279">
        <ele>213.4</ele>
        <time>2021-11-11T13:39:11Z</time>
      </trkpt>
      <trkpt lat="46.60422" lon="5.32209">
        <ele>213.2</ele>
        <time>2021-11-11T13:39:19Z</time>
      </trkpt>
      <trkpt lat="46.60413" lon="5.32192">
        <ele>213</ele>
        <time>2021-11-11T13:39:21Z</time>
      </trkpt>
      <trkpt lat="46.60378" lon="5.32122">
        <ele>212.6</ele>
        <time>2021-11-11T13:39:29Z</time>
      </trkpt>
      <trkpt lat="46.60374" lon="5.32116">
        <ele>212.6</ele>
        <time>2021-11-11T13:39:30Z</time>
      </trkpt>
      <trkpt lat="46.60343" lon="5.32054">
        <ele>212.4</ele>
        <time>2021-11-11T13:39:39Z</time>
      </trkpt>
      <trkpt lat="46.60309" lon="5.31986">
        <ele>212.8</ele>
        <time>2021-11-11T13:39:48Z</time>
      </trkpt>
      <trkpt lat="46.60305" lon="5.31978">
        <ele>212.8</ele>
        <time>2021-11-11T13:39:49Z</time>
      </trkpt>
      <trkpt lat="46.60272" lon="5.31914">
        <ele>212.6</ele>
        <time>2021-11-11T13:39:57Z</time>
      </trkpt>
      <trkpt lat="46.60267" lon="5.31904">
        <ele>212.6</ele>
        <time>2021-11-11T13:39:58Z</time>
      </trkpt>
      <trkpt lat="46.60234" lon="5.31838">
        <ele>212.2</ele>
        <time>2021-11-11T13:40:06Z</time>
      </trkpt>
      <trkpt lat="46.60207" lon="5.31783">
        <ele>211.6</ele>
        <time>2021-11-11T13:40:12Z</time>
      </trkpt>
      <trkpt lat="46.60184" lon="5.31738">
        <ele>211</ele>
        <time>2021-11-11T13:40:17Z</time>
      </trkpt>
      <trkpt lat="46.60165" lon="5.317">
        <ele>210.6</ele>
        <time>2021-11-11T13:40:21Z</time>
      </trkpt>
      <trkpt lat="46.60141" lon="5.31653">
        <ele>209.6</ele>
        <time>2021-11-11T13:40:26Z</time>
      </trkpt>
      <trkpt lat="46.60136" lon="5.31643">
        <ele>209.4</ele>
        <time>2021-11-11T13:40:27Z</time>
      </trkpt>
      <trkpt lat="46.60116" lon="5.31604">
        <ele>208.2</ele>
        <time>2021-11-11T13:40:31Z</time>
      </trkpt>
      <trkpt lat="46.60092" lon="5.31557">
        <ele>207.4</ele>
        <time>2021-11-11T13:40:36Z</time>
      </trkpt>
      <trkpt lat="46.60083" lon="5.31539">
        <ele>207.2</ele>
        <time>2021-11-11T13:40:38Z</time>
      </trkpt>
      <trkpt lat="46.60064" lon="5.31494">
        <ele>207.6</ele>
        <time>2021-11-11T13:40:43Z</time>
      </trkpt>
      <trkpt lat="46.60054" lon="5.31446">
        <ele>208</ele>
        <time>2021-11-11T13:40:48Z</time>
      </trkpt>
      <trkpt lat="46.60054" lon="5.31396">
        <ele>208.2</ele>
        <time>2021-11-11T13:40:53Z</time>
      </trkpt>
      <trkpt lat="46.60055" lon="5.31379">
        <ele>208.2</ele>
        <time>2021-11-11T13:40:55Z</time>
      </trkpt>
      <trkpt lat="46.60059" lon="5.31324">
        <ele>208.6</ele>
        <time>2021-11-11T13:41:01Z</time>
      </trkpt>
      <trkpt lat="46.60063" lon="5.31272">
        <ele>209.2</ele>
        <time>2021-11-11T13:41:07Z</time>
      </trkpt>
      <trkpt lat="46.60065" lon="5.31237">
        <ele>209.4</ele>
        <time>2021-11-11T13:41:11Z</time>
      </trkpt>
      <trkpt lat="46.60069" lon="5.31158">
        <ele>209.8</ele>
        <time>2021-11-11T13:41:20Z</time>
      </trkpt>
      <trkpt lat="46.60075" lon="5.31093">
        <ele>210</ele>
        <time>2021-11-11T13:41:27Z</time>
      </trkpt>
      <trkpt lat="46.60077" lon="5.31084">
        <ele>210</ele>
        <time>2021-11-11T13:41:28Z</time>
      </trkpt>
      <trkpt lat="46.60086" lon="5.31058">
        <ele>210</ele>
        <time>2021-11-11T13:41:31Z</time>
      </trkpt>
      <trkpt lat="46.60094" lon="5.31042">
        <ele>210</ele>
        <time>2021-11-11T13:41:33Z</time>
      </trkpt>
      <trkpt lat="46.60108" lon="5.31014">
        <ele>209.8</ele>
        <time>2021-11-11T13:41:37Z</time>
      </trkpt>
      <trkpt lat="46.60109" lon="5.31007">
        <ele>209.8</ele>
        <time>2021-11-11T13:41:38Z</time>
      </trkpt>
      <trkpt lat="46.60108" lon="5.31">
        <ele>209.8</ele>
        <time>2021-11-11T13:41:39Z</time>
      </trkpt>
      <trkpt lat="46.601" lon="5.30988">
        <ele>209.6</ele>
        <time>2021-11-11T13:41:41Z</time>
      </trkpt>
      <trkpt lat="46.60089" lon="5.30975">
        <ele>209.6</ele>
        <time>2021-11-11T13:41:43Z</time>
      </trkpt>
      <trkpt lat="46.60071" lon="5.30957">
        <ele>209.4</ele>
        <time>2021-11-11T13:41:46Z</time>
      </trkpt>
      <trkpt lat="46.60036" lon="5.30917">
        <ele>209.2</ele>
        <time>2021-11-11T13:41:52Z</time>
      </trkpt>
      <trkpt lat="46.59992" lon="5.30868">
        <ele>208.2</ele>
        <time>2021-11-11T13:41:59Z</time>
      </trkpt>
      <trkpt lat="46.59985" lon="5.30861">
        <ele>208</ele>
        <time>2021-11-11T13:42:00Z</time>
      </trkpt>
      <trkpt lat="46.59965" lon="5.3084">
        <ele>207.4</ele>
        <time>2021-11-11T13:42:03Z</time>
      </trkpt>
      <trkpt lat="46.59949" lon="5.30832">
        <ele>206.8</ele>
        <time>2021-11-11T13:42:05Z</time>
      </trkpt>
      <trkpt lat="46.59907" lon="5.30824">
        <ele>205.6</ele>
        <time>2021-11-11T13:42:10Z</time>
      </trkpt>
      <trkpt lat="46.59866" lon="5.30816">
        <ele>204.6</ele>
        <time>2021-11-11T13:42:15Z</time>
      </trkpt>
      <trkpt lat="46.59825" lon="5.30803">
        <ele>203.8</ele>
        <time>2021-11-11T13:42:20Z</time>
      </trkpt>
      <trkpt lat="46.59809" lon="5.30796">
        <ele>203.4</ele>
        <time>2021-11-11T13:42:22Z</time>
      </trkpt>
      <trkpt lat="46.59785" lon="5.30787">
        <ele>203</ele>
        <time>2021-11-11T13:42:25Z</time>
      </trkpt>
      <trkpt lat="46.59759" lon="5.30783">
        <ele>202.4</ele>
        <time>2021-11-11T13:42:28Z</time>
      </trkpt>
      <trkpt lat="46.59741" lon="5.30785">
        <ele>202</ele>
        <time>2021-11-11T13:42:30Z</time>
      </trkpt>
      <trkpt lat="46.59713" lon="5.30788">
        <ele>201</ele>
        <time>2021-11-11T13:42:33Z</time>
      </trkpt>
      <trkpt lat="46.59694" lon="5.30789">
        <ele>199.8</ele>
        <time>2021-11-11T13:42:35Z</time>
      </trkpt>
      <trkpt lat="46.59664" lon="5.30791">
        <ele>198.8</ele>
        <time>2021-11-11T13:42:38Z</time>
      </trkpt>
      <trkpt lat="46.59634" lon="5.30794">
        <ele>197.2</ele>
        <time>2021-11-11T13:42:41Z</time>
      </trkpt>
      <trkpt lat="46.59614" lon="5.30796">
        <ele>196.2</ele>
        <time>2021-11-11T13:42:43Z</time>
      </trkpt>
      <trkpt lat="46.59587" lon="5.308">
        <ele>194.8</ele>
        <time>2021-11-11T13:42:46Z</time>
      </trkpt>
      <trkpt lat="46.59552" lon="5.30805">
        <ele>194.2</ele>
        <time>2021-11-11T13:42:50Z</time>
      </trkpt>
      <trkpt lat="46.59505" lon="5.30811">
        <ele>193.8</ele>
        <time>2021-11-11T13:42:56Z</time>
      </trkpt>
      <trkpt lat="46.59481" lon="5.30814">
        <ele>193.8</ele>
        <time>2021-11-11T13:42:59Z</time>
      </trkpt>
      <trkpt lat="46.59423" lon="5.30821">
        <ele>193.6</ele>
        <time>2021-11-11T13:43:07Z</time>
      </trkpt>
      <trkpt lat="46.59409" lon="5.30823">
        <ele>193.8</ele>
        <time>2021-11-11T13:43:09Z</time>
      </trkpt>
      <trkpt lat="46.59353" lon="5.3083">
        <ele>194.8</ele>
        <time>2021-11-11T13:43:18Z</time>
      </trkpt>
      <trkpt lat="46.59342" lon="5.30832">
        <ele>195.2</ele>
        <time>2021-11-11T13:43:20Z</time>
      </trkpt>
      <trkpt lat="46.5931" lon="5.30836">
        <ele>196.2</ele>
        <time>2021-11-11T13:43:26Z</time>
      </trkpt>
      <trkpt lat="46.59283" lon="5.30839">
        <ele>197.4</ele>
        <time>2021-11-11T13:43:31Z</time>
      </trkpt>
      <trkpt lat="46.59258" lon="5.30842">
        <ele>198.4</ele>
        <time>2021-11-11T13:43:36Z</time>
      </trkpt>
      <trkpt lat="46.59253" lon="5.30843">
        <ele>198.6</ele>
        <time>2021-11-11T13:43:37Z</time>
      </trkpt>
      <trkpt lat="46.59232" lon="5.30846">
        <ele>199.6</ele>
        <time>2021-11-11T13:43:41Z</time>
      </trkpt>
      <trkpt lat="46.59203" lon="5.3085">
        <ele>200.6</ele>
        <time>2021-11-11T13:43:47Z</time>
      </trkpt>
      <trkpt lat="46.59198" lon="5.30851">
        <ele>200.8</ele>
        <time>2021-11-11T13:43:48Z</time>
      </trkpt>
      <trkpt lat="46.59157" lon="5.30858">
        <ele>202</ele>
        <time>2021-11-11T13:43:56Z</time>
      </trkpt>
      <trkpt lat="46.59141" lon="5.30859">
        <ele>202.6</ele>
        <time>2021-11-11T13:43:59Z</time>
      </trkpt>
      <trkpt lat="46.59131" lon="5.30861">
        <ele>203.2</ele>
        <time>2021-11-11T13:44:01Z</time>
      </trkpt>
      <trkpt lat="46.59126" lon="5.30861">
        <ele>203.2</ele>
        <time>2021-11-11T13:44:02Z</time>
      </trkpt>
      <trkpt lat="46.59097" lon="5.30864">
        <ele>204.2</ele>
        <time>2021-11-11T13:44:08Z</time>
      </trkpt>
      <trkpt lat="46.59082" lon="5.30866">
        <ele>205</ele>
        <time>2021-11-11T13:44:11Z</time>
      </trkpt>
      <trkpt lat="46.59078" lon="5.30867">
        <ele>205.4</ele>
        <time>2021-11-11T13:44:12Z</time>
      </trkpt>
      <trkpt lat="46.59055" lon="5.3087">
        <ele>206.6</ele>
        <time>2021-11-11T13:44:17Z</time>
      </trkpt>
      <trkpt lat="46.59032" lon="5.30873">
        <ele>207.6</ele>
        <time>2021-11-11T13:44:22Z</time>
      </trkpt>
      <trkpt lat="46.59028" lon="5.30873">
        <ele>207.8</ele>
        <time>2021-11-11T13:44:23Z</time>
      </trkpt>
      <trkpt lat="46.59005" lon="5.30876">
        <ele>208.8</ele>
        <time>2021-11-11T13:44:28Z</time>
      </trkpt>
      <trkpt lat="46.58982" lon="5.30879">
        <ele>210.4</ele>
        <time>2021-11-11T13:44:33Z</time>
      </trkpt>
      <trkpt lat="46.58958" lon="5.30881">
        <ele>211.6</ele>
        <time>2021-11-11T13:44:38Z</time>
      </trkpt>
      <trkpt lat="46.58943" lon="5.30883">
        <ele>212.2</ele>
        <time>2021-11-11T13:44:41Z</time>
      </trkpt>
      <trkpt lat="46.58928" lon="5.30885">
        <ele>212.6</ele>
        <time>2021-11-11T13:44:44Z</time>
      </trkpt>
      <trkpt lat="46.58913" lon="5.30887">
        <ele>213.2</ele>
        <time>2021-11-11T13:44:47Z</time>
      </trkpt>
      <trkpt lat="46.58897" lon="5.30889">
        <ele>213.8</ele>
        <time>2021-11-11T13:44:50Z</time>
      </trkpt>
      <trkpt lat="46.58857" lon="5.30894">
        <ele>214.4</ele>
        <time>2021-11-11T13:44:57Z</time>
      </trkpt>
      <trkpt lat="46.58828" lon="5.309">
        <ele>214.8</ele>
        <time>2021-11-11T13:45:02Z</time>
      </trkpt>
      <trkpt lat="46.5881" lon="5.30908">
        <ele>215</ele>
        <time>2021-11-11T13:45:05Z</time>
      </trkpt>
      <trkpt lat="46.58804" lon="5.30911">
        <ele>215</ele>
        <time>2021-11-11T13:45:06Z</time>
      </trkpt>
      <trkpt lat="46.58781" lon="5.30932">
        <ele>214.8</ele>
        <time>2021-11-11T13:45:10Z</time>
      </trkpt>
      <trkpt lat="46.58736" lon="5.3098">
        <ele>213.8</ele>
        <time>2021-11-11T13:45:17Z</time>
      </trkpt>
      <trkpt lat="46.58694" lon="5.31024">
        <ele>212.4</ele>
        <time>2021-11-11T13:45:23Z</time>
      </trkpt>
      <trkpt lat="46.58688" lon="5.31032">
        <ele>212.4</ele>
        <time>2021-11-11T13:45:24Z</time>
      </trkpt>
      <trkpt lat="46.58653" lon="5.31067">
        <ele>211.4</ele>
        <time>2021-11-11T13:45:29Z</time>
      </trkpt>
      <trkpt lat="46.58634" lon="5.31087">
        <ele>211</ele>
        <time>2021-11-11T13:45:32Z</time>
      </trkpt>
      <trkpt lat="46.58584" lon="5.31137">
        <ele>210.8</ele>
        <time>2021-11-11T13:45:40Z</time>
      </trkpt>
      <trkpt lat="46.58578" lon="5.31143">
        <ele>210.8</ele>
        <time>2021-11-11T13:45:41Z</time>
      </trkpt>
      <trkpt lat="46.58538" lon="5.31178">
        <ele>211.6</ele>
        <time>2021-11-11T13:45:48Z</time>
      </trkpt>
      <trkpt lat="46.58487" lon="5.31203">
        <ele>212.2</ele>
        <time>2021-11-11T13:45:56Z</time>
      </trkpt>
      <trkpt lat="46.58432" lon="5.31227">
        <ele>212.6</ele>
        <time>2021-11-11T13:46:04Z</time>
      </trkpt>
      <trkpt lat="46.58425" lon="5.3123">
        <ele>212.6</ele>
        <time>2021-11-11T13:46:05Z</time>
      </trkpt>
      <trkpt lat="46.5837" lon="5.31253">
        <ele>212.6</ele>
        <time>2021-11-11T13:46:13Z</time>
      </trkpt>
      <trkpt lat="46.58357" lon="5.31259">
        <ele>212.4</ele>
        <time>2021-11-11T13:46:15Z</time>
      </trkpt>
      <trkpt lat="46.58312" lon="5.31287">
        <ele>212.6</ele>
        <time>2021-11-11T13:46:22Z</time>
      </trkpt>
      <trkpt lat="46.58288" lon="5.31306">
        <ele>212.6</ele>
        <time>2021-11-11T13:46:26Z</time>
      </trkpt>
      <trkpt lat="46.58265" lon="5.31325">
        <ele>212.8</ele>
        <time>2021-11-11T13:46:30Z</time>
      </trkpt>
      <trkpt lat="46.58226" lon="5.31357">
        <ele>213.4</ele>
        <time>2021-11-11T13:46:37Z</time>
      </trkpt>
      <trkpt lat="46.5821" lon="5.31369">
        <ele>213.8</ele>
        <time>2021-11-11T13:46:40Z</time>
      </trkpt>
      <trkpt lat="46.58189" lon="5.31385">
        <ele>214.4</ele>
        <time>2021-11-11T13:46:44Z</time>
      </trkpt>
      <trkpt lat="46.58164" lon="5.31406">
        <ele>215</ele>
        <time>2021-11-11T13:46:49Z</time>
      </trkpt>
      <trkpt lat="46.58143" lon="5.31421">
        <ele>215.4</ele>
        <time>2021-11-11T13:46:53Z</time>
      </trkpt>
      <trkpt lat="46.58132" lon="5.31427">
        <ele>215.6</ele>
        <time>2021-11-11T13:46:55Z</time>
      </trkpt>
      <trkpt lat="46.58114" lon="5.3143">
        <ele>215.8</ele>
        <time>2021-11-11T13:46:58Z</time>
      </trkpt>
      <trkpt lat="46.5807" lon="5.31425">
        <ele>216</ele>
        <time>2021-11-11T13:47:05Z</time>
      </trkpt>
      <trkpt lat="46.58063" lon="5.31425">
        <ele>216.2</ele>
        <time>2021-11-11T13:47:06Z</time>
      </trkpt>
      <trkpt lat="46.58018" lon="5.3143">
        <ele>216.4</ele>
        <time>2021-11-11T13:47:13Z</time>
      </trkpt>
      <trkpt lat="46.57959" lon="5.31446">
        <ele>216.4</ele>
        <time>2021-11-11T13:47:22Z</time>
      </trkpt>
      <trkpt lat="46.57953" lon="5.31448">
        <ele>216.4</ele>
        <time>2021-11-11T13:47:23Z</time>
      </trkpt>
      <trkpt lat="46.57896" lon="5.31465">
        <ele>216.6</ele>
        <time>2021-11-11T13:47:32Z</time>
      </trkpt>
      <trkpt lat="46.57842" lon="5.31483">
        <ele>217</ele>
        <time>2021-11-11T13:47:41Z</time>
      </trkpt>
      <trkpt lat="46.57836" lon="5.31485">
        <ele>217</ele>
        <time>2021-11-11T13:47:42Z</time>
      </trkpt>
      <trkpt lat="46.5783" lon="5.31487">
        <ele>217</ele>
        <time>2021-11-11T13:47:43Z</time>
      </trkpt>
      <trkpt lat="46.57795" lon="5.31507">
        <ele>218</ele>
        <time>2021-11-11T13:47:49Z</time>
      </trkpt>
      <trkpt lat="46.57773" lon="5.31525">
        <ele>218.2</ele>
        <time>2021-11-11T13:47:53Z</time>
      </trkpt>
      <trkpt lat="46.57752" lon="5.31542">
        <ele>218.4</ele>
        <time>2021-11-11T13:47:57Z</time>
      </trkpt>
      <trkpt lat="46.57706" lon="5.31572">
        <ele>219.2</ele>
        <time>2021-11-11T13:48:05Z</time>
      </trkpt>
      <trkpt lat="46.577" lon="5.31575">
        <ele>219.4</ele>
        <time>2021-11-11T13:48:06Z</time>
      </trkpt>
      <trkpt lat="46.57656" lon="5.31586">
        <ele>220</ele>
        <time>2021-11-11T13:48:13Z</time>
      </trkpt>
      <trkpt lat="46.57611" lon="5.31593">
        <ele>220.2</ele>
        <time>2021-11-11T13:48:20Z</time>
      </trkpt>
      <trkpt lat="46.576" lon="5.31594">
        <ele>220.4</ele>
        <time>2021-11-11T13:48:22Z</time>
      </trkpt>
      <trkpt lat="46.57575" lon="5.31597">
        <ele>220.4</ele>
        <time>2021-11-11T13:48:26Z</time>
      </trkpt>
      <trkpt lat="46.5753" lon="5.31604">
        <ele>220.4</ele>
        <time>2021-11-11T13:48:33Z</time>
      </trkpt>
      <trkpt lat="46.57496" lon="5.3161">
        <ele>220.6</ele>
        <time>2021-11-11T13:48:38Z</time>
      </trkpt>
      <trkpt lat="46.57483" lon="5.31609">
        <ele>220.6</ele>
        <time>2021-11-11T13:48:40Z</time>
      </trkpt>
      <trkpt lat="46.57434" lon="5.31612">
        <ele>220.4</ele>
        <time>2021-11-11T13:48:47Z</time>
      </trkpt>
      <trkpt lat="46.57384" lon="5.31612">
        <ele>220.4</ele>
        <time>2021-11-11T13:48:54Z</time>
      </trkpt>
      <trkpt lat="46.5737" lon="5.3161">
        <ele>220.4</ele>
        <time>2021-11-11T13:48:56Z</time>
      </trkpt>
      <trkpt lat="46.57356" lon="5.31606">
        <ele>220.6</ele>
        <time>2021-11-11T13:48:58Z</time>
      </trkpt>
      <trkpt lat="46.57349" lon="5.31602">
        <ele>220.6</ele>
        <time>2021-11-11T13:48:59Z</time>
      </trkpt>
      <trkpt lat="46.57343" lon="5.31597">
        <ele>220.6</ele>
        <time>2021-11-11T13:49:00Z</time>
      </trkpt>
      <trkpt lat="46.57324" lon="5.31577">
        <ele>220.8</ele>
        <time>2021-11-11T13:49:03Z</time>
      </trkpt>
      <trkpt lat="46.5732" lon="5.31572">
        <ele>221</ele>
        <time>2021-11-11T13:49:04Z</time>
      </trkpt>
      <trkpt lat="46.57286" lon="5.31518">
        <ele>221.2</ele>
        <time>2021-11-11T13:49:11Z</time>
      </trkpt>
      <trkpt lat="46.57247" lon="5.31455">
        <ele>221.2</ele>
        <time>2021-11-11T13:49:19Z</time>
      </trkpt>
      <trkpt lat="46.57243" lon="5.31445">
        <ele>221.2</ele>
        <time>2021-11-11T13:49:20Z</time>
      </trkpt>
      <trkpt lat="46.5724" lon="5.31436">
        <ele>221.2</ele>
        <time>2021-11-11T13:49:21Z</time>
      </trkpt>
      <trkpt lat="46.57231" lon="5.31396">
        <ele>220.8</ele>
        <time>2021-11-11T13:49:25Z</time>
      </trkpt>
      <trkpt lat="46.57212" lon="5.31349">
        <ele>220.2</ele>
        <time>2021-11-11T13:49:30Z</time>
      </trkpt>
      <trkpt lat="46.57178" lon="5.31308">
        <ele>219.8</ele>
        <time>2021-11-11T13:49:36Z</time>
      </trkpt>
      <trkpt lat="46.57163" lon="5.31299">
        <ele>219.6</ele>
        <time>2021-11-11T13:49:38Z</time>
      </trkpt>
      <trkpt lat="46.57155" lon="5.31297">
        <ele>219.4</ele>
        <time>2021-11-11T13:49:39Z</time>
      </trkpt>
      <trkpt lat="46.57147" lon="5.31296">
        <ele>219.2</ele>
        <time>2021-11-11T13:49:40Z</time>
      </trkpt>
      <trkpt lat="46.57105" lon="5.31293">
        <ele>218.4</ele>
        <time>2021-11-11T13:49:45Z</time>
      </trkpt>
      <trkpt lat="46.57096" lon="5.31291">
        <ele>217.6</ele>
        <time>2021-11-11T13:49:46Z</time>
      </trkpt>
      <trkpt lat="46.57087" lon="5.31289">
        <ele>217.6</ele>
        <time>2021-11-11T13:49:47Z</time>
      </trkpt>
      <trkpt lat="46.57078" lon="5.31285">
        <ele>217.2</ele>
        <time>2021-11-11T13:49:48Z</time>
      </trkpt>
      <trkpt lat="46.57062" lon="5.31275">
        <ele>216.4</ele>
        <time>2021-11-11T13:49:50Z</time>
      </trkpt>
      <trkpt lat="46.57048" lon="5.31263">
        <ele>215.8</ele>
        <time>2021-11-11T13:49:52Z</time>
      </trkpt>
      <trkpt lat="46.57013" lon="5.31231">
        <ele>214.6</ele>
        <time>2021-11-11T13:49:57Z</time>
      </trkpt>
      <trkpt lat="46.56999" lon="5.31219">
        <ele>214.4</ele>
        <time>2021-11-11T13:49:59Z</time>
      </trkpt>
      <trkpt lat="46.56951" lon="5.31176">
        <ele>213.6</ele>
        <time>2021-11-11T13:50:06Z</time>
      </trkpt>
      <trkpt lat="46.56946" lon="5.31171">
        <ele>213.6</ele>
        <time>2021-11-11T13:50:07Z</time>
      </trkpt>
      <trkpt lat="46.56926" lon="5.31159">
        <ele>213.4</ele>
        <time>2021-11-11T13:50:10Z</time>
      </trkpt>
      <trkpt lat="46.56918" lon="5.31156">
        <ele>213.4</ele>
        <time>2021-11-11T13:50:11Z</time>
      </trkpt>
      <trkpt lat="46.56873" lon="5.31149">
        <ele>213.2</ele>
        <time>2021-11-11T13:50:17Z</time>
      </trkpt>
      <trkpt lat="46.56865" lon="5.31146">
        <ele>212.8</ele>
        <time>2021-11-11T13:50:18Z</time>
      </trkpt>
      <trkpt lat="46.5685" lon="5.31136">
        <ele>212.6</ele>
        <time>2021-11-11T13:50:20Z</time>
      </trkpt>
      <trkpt lat="46.56843" lon="5.31129">
        <ele>212.4</ele>
        <time>2021-11-11T13:50:21Z</time>
      </trkpt>
      <trkpt lat="46.56826" lon="5.31105">
        <ele>212</ele>
        <time>2021-11-11T13:50:24Z</time>
      </trkpt>
      <trkpt lat="46.56822" lon="5.31096">
        <ele>212</ele>
        <time>2021-11-11T13:50:25Z</time>
      </trkpt>
      <trkpt lat="46.56818" lon="5.31086">
        <ele>212</ele>
        <time>2021-11-11T13:50:26Z</time>
      </trkpt>
      <trkpt lat="46.56812" lon="5.31066">
        <ele>211.8</ele>
        <time>2021-11-11T13:50:28Z</time>
      </trkpt>
      <trkpt lat="46.56809" lon="5.31056">
        <ele>211.8</ele>
        <time>2021-11-11T13:50:29Z</time>
      </trkpt>
      <trkpt lat="46.56807" lon="5.31034">
        <ele>211.8</ele>
        <time>2021-11-11T13:50:31Z</time>
      </trkpt>
      <trkpt lat="46.56808" lon="5.31012">
        <ele>211.6</ele>
        <time>2021-11-11T13:50:33Z</time>
      </trkpt>
      <trkpt lat="46.56811" lon="5.30934">
        <ele>211</ele>
        <time>2021-11-11T13:50:40Z</time>
      </trkpt>
      <trkpt lat="46.56802" lon="5.30862">
        <ele>210.6</ele>
        <time>2021-11-11T13:50:47Z</time>
      </trkpt>
      <trkpt lat="46.56801" lon="5.30852">
        <ele>210.6</ele>
        <time>2021-11-11T13:50:48Z</time>
      </trkpt>
      <trkpt lat="46.56786" lon="5.30794">
        <ele>210.6</ele>
        <time>2021-11-11T13:50:54Z</time>
      </trkpt>
      <trkpt lat="46.56761" lon="5.30742">
        <ele>211.2</ele>
        <time>2021-11-11T13:51:01Z</time>
      </trkpt>
      <trkpt lat="46.56753" lon="5.30727">
        <ele>211.6</ele>
        <time>2021-11-11T13:51:03Z</time>
      </trkpt>
      <trkpt lat="46.56725" lon="5.30676">
        <ele>212.8</ele>
        <time>2021-11-11T13:51:10Z</time>
      </trkpt>
      <trkpt lat="46.5672" lon="5.3067">
        <ele>213</ele>
        <time>2021-11-11T13:51:11Z</time>
      </trkpt>
      <trkpt lat="46.56695" lon="5.30642">
        <ele>213.8</ele>
        <time>2021-11-11T13:51:16Z</time>
      </trkpt>
      <trkpt lat="46.56679" lon="5.30627">
        <ele>214.2</ele>
        <time>2021-11-11T13:51:19Z</time>
      </trkpt>
      <trkpt lat="46.56656" lon="5.30612">
        <ele>215</ele>
        <time>2021-11-11T13:51:23Z</time>
      </trkpt>
      <trkpt lat="46.56643" lon="5.30606">
        <ele>215.2</ele>
        <time>2021-11-11T13:51:25Z</time>
      </trkpt>
      <trkpt lat="46.56601" lon="5.30598">
        <ele>215.8</ele>
        <time>2021-11-11T13:51:32Z</time>
      </trkpt>
      <trkpt lat="46.56593" lon="5.30597">
        <ele>216</ele>
        <time>2021-11-11T13:51:33Z</time>
      </trkpt>
      <trkpt lat="46.5655" lon="5.30599">
        <ele>216</ele>
        <time>2021-11-11T13:51:40Z</time>
      </trkpt>
      <trkpt lat="46.56492" lon="5.30608">
        <ele>215.8</ele>
        <time>2021-11-11T13:51:49Z</time>
      </trkpt>
      <trkpt lat="46.56445" lon="5.30621">
        <ele>215.8</ele>
        <time>2021-11-11T13:51:57Z</time>
      </trkpt>
      <trkpt lat="46.56435" lon="5.3062">
        <ele>215.8</ele>
        <time>2021-11-11T13:51:59Z</time>
      </trkpt>
      <trkpt lat="46.56432" lon="5.30616">
        <ele>216</ele>
        <time>2021-11-11T13:52:00Z</time>
      </trkpt>
      <trkpt lat="46.56429" lon="5.30612">
        <ele>216</ele>
        <time>2021-11-11T13:52:03Z</time>
      </trkpt>
      <trkpt lat="46.56429" lon="5.30612">
        <ele>216</ele>
        <time>2021-11-11T13:52:04Z</time>
      </trkpt>
      <trkpt lat="46.56423" lon="5.3061">
        <ele>216.2</ele>
        <time>2021-11-11T13:52:09Z</time>
      </trkpt>
      <trkpt lat="46.56417" lon="5.30612">
        <ele>216.2</ele>
        <time>2021-11-11T13:52:11Z</time>
      </trkpt>
      <trkpt lat="46.56412" lon="5.30612">
        <ele>216.2</ele>
        <time>2021-11-11T13:52:12Z</time>
      </trkpt>
      <trkpt lat="46.56404" lon="5.30604">
        <ele>216</ele>
        <time>2021-11-11T13:52:14Z</time>
      </trkpt>
      <trkpt lat="46.56377" lon="5.30569">
        <ele>216</ele>
        <time>2021-11-11T13:52:20Z</time>
      </trkpt>
      <trkpt lat="46.56344" lon="5.30522">
        <ele>217.2</ele>
        <time>2021-11-11T13:52:27Z</time>
      </trkpt>
      <trkpt lat="46.5634" lon="5.30515">
        <ele>217.2</ele>
        <time>2021-11-11T13:52:28Z</time>
      </trkpt>
      <trkpt lat="46.56299" lon="5.30461">
        <ele>218</ele>
        <time>2021-11-11T13:52:36Z</time>
      </trkpt>
      <trkpt lat="46.56291" lon="5.30448">
        <ele>218</ele>
        <time>2021-11-11T13:52:38Z</time>
      </trkpt>
      <trkpt lat="46.56252" lon="5.30394">
        <ele>218</ele>
        <time>2021-11-11T13:52:46Z</time>
      </trkpt>
      <trkpt lat="46.56247" lon="5.30387">
        <ele>218</ele>
        <time>2021-11-11T13:52:47Z</time>
      </trkpt>
      <trkpt lat="46.5622" lon="5.30342">
        <ele>217.8</ele>
        <time>2021-11-11T13:52:53Z</time>
      </trkpt>
      <trkpt lat="46.56207" lon="5.30317">
        <ele>217.6</ele>
        <time>2021-11-11T13:52:56Z</time>
      </trkpt>
      <trkpt lat="46.56194" lon="5.30296">
        <ele>217.4</ele>
        <time>2021-11-11T13:52:59Z</time>
      </trkpt>
      <trkpt lat="46.5615" lon="5.30237">
        <ele>217.6</ele>
        <time>2021-11-11T13:53:08Z</time>
      </trkpt>
      <trkpt lat="46.56145" lon="5.30231">
        <ele>217.6</ele>
        <time>2021-11-11T13:53:09Z</time>
      </trkpt>
      <trkpt lat="46.56105" lon="5.30178">
        <ele>217.6</ele>
        <time>2021-11-11T13:53:17Z</time>
      </trkpt>
      <trkpt lat="46.56099" lon="5.30171">
        <ele>217.6</ele>
        <time>2021-11-11T13:53:18Z</time>
      </trkpt>
      <trkpt lat="46.56058" lon="5.30115">
        <ele>217.4</ele>
        <time>2021-11-11T13:53:26Z</time>
      </trkpt>
      <trkpt lat="46.56042" lon="5.30093">
        <ele>217.2</ele>
        <time>2021-11-11T13:53:29Z</time>
      </trkpt>
      <trkpt lat="46.56011" lon="5.30051">
        <ele>216.2</ele>
        <time>2021-11-11T13:53:34Z</time>
      </trkpt>
      <trkpt lat="46.56005" lon="5.30042">
        <ele>216</ele>
        <time>2021-11-11T13:53:35Z</time>
      </trkpt>
      <trkpt lat="46.55979" lon="5.30007">
        <ele>214.6</ele>
        <time>2021-11-11T13:53:39Z</time>
      </trkpt>
      <trkpt lat="46.55965" lon="5.29989">
        <ele>213.2</ele>
        <time>2021-11-11T13:53:41Z</time>
      </trkpt>
      <trkpt lat="46.55945" lon="5.29962">
        <ele>212.2</ele>
        <time>2021-11-11T13:53:44Z</time>
      </trkpt>
      <trkpt lat="46.55915" lon="5.29922">
        <ele>211.4</ele>
        <time>2021-11-11T13:53:49Z</time>
      </trkpt>
      <trkpt lat="46.5588" lon="5.29876">
        <ele>212.2</ele>
        <time>2021-11-11T13:53:56Z</time>
      </trkpt>
      <trkpt lat="46.55854" lon="5.29839">
        <ele>213.8</ele>
        <time>2021-11-11T13:54:02Z</time>
      </trkpt>
      <trkpt lat="46.5585" lon="5.29833">
        <ele>214</ele>
        <time>2021-11-11T13:54:03Z</time>
      </trkpt>
      <trkpt lat="46.55832" lon="5.29809">
        <ele>215</ele>
        <time>2021-11-11T13:54:07Z</time>
      </trkpt>
      <trkpt lat="46.55812" lon="5.29784">
        <ele>215.6</ele>
        <time>2021-11-11T13:54:11Z</time>
      </trkpt>
      <trkpt lat="46.55775" lon="5.29732">
        <ele>215.4</ele>
        <time>2021-11-11T13:54:19Z</time>
      </trkpt>
      <trkpt lat="46.55754" lon="5.29713">
        <ele>215.4</ele>
        <time>2021-11-11T13:54:23Z</time>
      </trkpt>
      <trkpt lat="46.55732" lon="5.29698">
        <ele>214.8</ele>
        <time>2021-11-11T13:54:26Z</time>
      </trkpt>
      <trkpt lat="46.55724" lon="5.29694">
        <ele>214.6</ele>
        <time>2021-11-11T13:54:27Z</time>
      </trkpt>
      <trkpt lat="46.55706" lon="5.2969">
        <ele>214.2</ele>
        <time>2021-11-11T13:54:29Z</time>
      </trkpt>
      <trkpt lat="46.55688" lon="5.29689">
        <ele>214</ele>
        <time>2021-11-11T13:54:31Z</time>
      </trkpt>
      <trkpt lat="46.55678" lon="5.29688">
        <ele>213.6</ele>
        <time>2021-11-11T13:54:32Z</time>
      </trkpt>
      <trkpt lat="46.5564" lon="5.2968">
        <ele>212.2</ele>
        <time>2021-11-11T13:54:36Z</time>
      </trkpt>
      <trkpt lat="46.55623" lon="5.29672">
        <ele>211</ele>
        <time>2021-11-11T13:54:38Z</time>
      </trkpt>
      <trkpt lat="46.55578" lon="5.29648">
        <ele>210</ele>
        <time>2021-11-11T13:54:43Z</time>
      </trkpt>
      <trkpt lat="46.55522" lon="5.29609">
        <ele>208.8</ele>
        <time>2021-11-11T13:54:50Z</time>
      </trkpt>
      <trkpt lat="46.55514" lon="5.29603">
        <ele>208.8</ele>
        <time>2021-11-11T13:54:51Z</time>
      </trkpt>
      <trkpt lat="46.55461" lon="5.29564">
        <ele>208</ele>
        <time>2021-11-11T13:54:58Z</time>
      </trkpt>
      <trkpt lat="46.55447" lon="5.29554">
        <ele>207.8</ele>
        <time>2021-11-11T13:55:00Z</time>
      </trkpt>
      <trkpt lat="46.55398" lon="5.29523">
        <ele>207.4</ele>
        <time>2021-11-11T13:55:07Z</time>
      </trkpt>
      <trkpt lat="46.55351" lon="5.29507">
        <ele>207.4</ele>
        <time>2021-11-11T13:55:13Z</time>
      </trkpt>
      <trkpt lat="46.55313" lon="5.29503">
        <ele>207.6</ele>
        <time>2021-11-11T13:55:18Z</time>
      </trkpt>
      <trkpt lat="46.55299" lon="5.29498">
        <ele>207.6</ele>
        <time>2021-11-11T13:55:20Z</time>
      </trkpt>
      <trkpt lat="46.5528" lon="5.29489">
        <ele>207.8</ele>
        <time>2021-11-11T13:55:23Z</time>
      </trkpt>
      <trkpt lat="46.55274" lon="5.29489">
        <ele>208</ele>
        <time>2021-11-11T13:55:24Z</time>
      </trkpt>
      <trkpt lat="46.55268" lon="5.29491">
        <ele>208.2</ele>
        <time>2021-11-11T13:55:25Z</time>
      </trkpt>
      <trkpt lat="46.55249" lon="5.29504">
        <ele>208.8</ele>
        <time>2021-11-11T13:55:28Z</time>
      </trkpt>
      <trkpt lat="46.55243" lon="5.29508">
        <ele>209</ele>
        <time>2021-11-11T13:55:29Z</time>
      </trkpt>
      <trkpt lat="46.55201" lon="5.29533">
        <ele>209.2</ele>
        <time>2021-11-11T13:55:35Z</time>
      </trkpt>
      <trkpt lat="46.55195" lon="5.29534">
        <ele>209</ele>
        <time>2021-11-11T13:55:36Z</time>
      </trkpt>
      <trkpt lat="46.55185" lon="5.29535">
        <ele>208.8</ele>
        <time>2021-11-11T13:55:37Z</time>
      </trkpt>
      <trkpt lat="46.55168" lon="5.29532">
        <ele>208.4</ele>
        <time>2021-11-11T13:55:39Z</time>
      </trkpt>
      <trkpt lat="46.55143" lon="5.29522">
        <ele>207.8</ele>
        <time>2021-11-11T13:55:42Z</time>
      </trkpt>
      <trkpt lat="46.55111" lon="5.29509">
        <ele>206.8</ele>
        <time>2021-11-11T13:55:46Z</time>
      </trkpt>
      <trkpt lat="46.55064" lon="5.29492">
        <ele>205.8</ele>
        <time>2021-11-11T13:55:52Z</time>
      </trkpt>
      <trkpt lat="46.55056" lon="5.29492">
        <ele>205.4</ele>
        <time>2021-11-11T13:55:53Z</time>
      </trkpt>
      <trkpt lat="46.55047" lon="5.29493">
        <ele>205.2</ele>
        <time>2021-11-11T13:55:54Z</time>
      </trkpt>
      <trkpt lat="46.55032" lon="5.29499">
        <ele>204.8</ele>
        <time>2021-11-11T13:55:56Z</time>
      </trkpt>
      <trkpt lat="46.55022" lon="5.29505">
        <ele>204.4</ele>
        <time>2021-11-11T13:55:57Z</time>
      </trkpt>
      <trkpt lat="46.55014" lon="5.29513">
        <ele>204</ele>
        <time>2021-11-11T13:55:58Z</time>
      </trkpt>
      <trkpt lat="46.55" lon="5.29532">
        <ele>203.4</ele>
        <time>2021-11-11T13:56:00Z</time>
      </trkpt>
      <trkpt lat="46.54975" lon="5.29572">
        <ele>202</ele>
        <time>2021-11-11T13:56:04Z</time>
      </trkpt>
      <trkpt lat="46.54971" lon="5.29581">
        <ele>201</ele>
        <time>2021-11-11T13:56:05Z</time>
      </trkpt>
      <trkpt lat="46.54966" lon="5.29592">
        <ele>200.8</ele>
        <time>2021-11-11T13:56:06Z</time>
      </trkpt>
      <trkpt lat="46.54961" lon="5.29607">
        <ele>200.2</ele>
        <time>2021-11-11T13:56:07Z</time>
      </trkpt>
      <trkpt lat="46.54956" lon="5.29634">
        <ele>199.6</ele>
        <time>2021-11-11T13:56:09Z</time>
      </trkpt>
      <trkpt lat="46.54954" lon="5.29648">
        <ele>199.2</ele>
        <time>2021-11-11T13:56:10Z</time>
      </trkpt>
      <trkpt lat="46.54952" lon="5.29659">
        <ele>198.6</ele>
        <time>2021-11-11T13:56:11Z</time>
      </trkpt>
      <trkpt lat="46.54942" lon="5.29701">
        <ele>197.4</ele>
        <time>2021-11-11T13:56:14Z</time>
      </trkpt>
      <trkpt lat="46.54938" lon="5.29713">
        <ele>197</ele>
        <time>2021-11-11T13:56:15Z</time>
      </trkpt>
      <trkpt lat="46.54928" lon="5.29734">
        <ele>196.4</ele>
        <time>2021-11-11T13:56:17Z</time>
      </trkpt>
      <trkpt lat="46.54918" lon="5.29754">
        <ele>195.8</ele>
        <time>2021-11-11T13:56:19Z</time>
      </trkpt>
      <trkpt lat="46.54903" lon="5.2978">
        <ele>195.2</ele>
        <time>2021-11-11T13:56:22Z</time>
      </trkpt>
      <trkpt lat="46.54888" lon="5.29803">
        <ele>195.2</ele>
        <time>2021-11-11T13:56:25Z</time>
      </trkpt>
      <trkpt lat="46.54858" lon="5.29842">
        <ele>195.4</ele>
        <time>2021-11-11T13:56:31Z</time>
      </trkpt>
      <trkpt lat="46.54814" lon="5.29897">
        <ele>195.2</ele>
        <time>2021-11-11T13:56:39Z</time>
      </trkpt>
      <trkpt lat="46.54809" lon="5.29904">
        <ele>195.2</ele>
        <time>2021-11-11T13:56:40Z</time>
      </trkpt>
      <trkpt lat="46.54766" lon="5.29951">
        <ele>195.4</ele>
        <time>2021-11-11T13:56:48Z</time>
      </trkpt>
      <trkpt lat="46.54723" lon="5.29989">
        <ele>195.8</ele>
        <time>2021-11-11T13:56:56Z</time>
      </trkpt>
      <trkpt lat="46.54682" lon="5.30018">
        <ele>196.2</ele>
        <time>2021-11-11T13:57:03Z</time>
      </trkpt>
      <trkpt lat="46.54665" lon="5.30028">
        <ele>196.6</ele>
        <time>2021-11-11T13:57:06Z</time>
      </trkpt>
      <trkpt lat="46.54646" lon="5.30039">
        <ele>197.4</ele>
        <time>2021-11-11T13:57:10Z</time>
      </trkpt>
      <trkpt lat="46.54632" lon="5.30047">
        <ele>198.2</ele>
        <time>2021-11-11T13:57:13Z</time>
      </trkpt>
      <trkpt lat="46.54628" lon="5.3005">
        <ele>198.4</ele>
        <time>2021-11-11T13:57:14Z</time>
      </trkpt>
      <trkpt lat="46.54606" lon="5.30062">
        <ele>199.6</ele>
        <time>2021-11-11T13:57:19Z</time>
      </trkpt>
      <trkpt lat="46.54598" lon="5.30068">
        <ele>200.4</ele>
        <time>2021-11-11T13:57:21Z</time>
      </trkpt>
      <trkpt lat="46.54589" lon="5.30073">
        <ele>200.8</ele>
        <time>2021-11-11T13:57:23Z</time>
      </trkpt>
      <trkpt lat="46.54567" lon="5.30086">
        <ele>202</ele>
        <time>2021-11-11T13:57:28Z</time>
      </trkpt>
      <trkpt lat="46.54555" lon="5.30093">
        <ele>202.8</ele>
        <time>2021-11-11T13:57:31Z</time>
      </trkpt>
      <trkpt lat="46.54545" lon="5.30099">
        <ele>203.4</ele>
        <time>2021-11-11T13:57:33Z</time>
      </trkpt>
      <trkpt lat="46.54523" lon="5.30112">
        <ele>204.4</ele>
        <time>2021-11-11T13:57:38Z</time>
      </trkpt>
      <trkpt lat="46.5451" lon="5.30119">
        <ele>205.2</ele>
        <time>2021-11-11T13:57:41Z</time>
      </trkpt>
      <trkpt lat="46.54498" lon="5.30126">
        <ele>205.8</ele>
        <time>2021-11-11T13:57:44Z</time>
      </trkpt>
      <trkpt lat="46.5448" lon="5.30133">
        <ele>206.8</ele>
        <time>2021-11-11T13:57:48Z</time>
      </trkpt>
      <trkpt lat="46.5447" lon="5.30137">
        <ele>207.4</ele>
        <time>2021-11-11T13:57:50Z</time>
      </trkpt>
      <trkpt lat="46.54461" lon="5.30139">
        <ele>207.8</ele>
        <time>2021-11-11T13:57:52Z</time>
      </trkpt>
      <trkpt lat="46.54438" lon="5.30142">
        <ele>209</ele>
        <time>2021-11-11T13:57:57Z</time>
      </trkpt>
      <trkpt lat="46.54432" lon="5.30142">
        <ele>209.4</ele>
        <time>2021-11-11T13:57:58Z</time>
      </trkpt>
      <trkpt lat="46.54413" lon="5.30139">
        <ele>210.2</ele>
        <time>2021-11-11T13:58:02Z</time>
      </trkpt>
      <trkpt lat="46.54393" lon="5.30133">
        <ele>211</ele>
        <time>2021-11-11T13:58:06Z</time>
      </trkpt>
      <trkpt lat="46.54388" lon="5.30131">
        <ele>211.2</ele>
        <time>2021-11-11T13:58:07Z</time>
      </trkpt>
      <trkpt lat="46.54365" lon="5.30121">
        <ele>212.4</ele>
        <time>2021-11-11T13:58:12Z</time>
      </trkpt>
      <trkpt lat="46.54337" lon="5.30109">
        <ele>213.8</ele>
        <time>2021-11-11T13:58:18Z</time>
      </trkpt>
      <trkpt lat="46.54319" lon="5.30103">
        <ele>214.8</ele>
        <time>2021-11-11T13:58:22Z</time>
      </trkpt>
      <trkpt lat="46.54295" lon="5.30099">
        <ele>216</ele>
        <time>2021-11-11T13:58:27Z</time>
      </trkpt>
      <trkpt lat="46.5429" lon="5.30099">
        <ele>216.2</ele>
        <time>2021-11-11T13:58:28Z</time>
      </trkpt>
      <trkpt lat="46.54274" lon="5.30098">
        <ele>217</ele>
        <time>2021-11-11T13:58:31Z</time>
      </trkpt>
      <trkpt lat="46.54247" lon="5.30094">
        <ele>217.6</ele>
        <time>2021-11-11T13:58:36Z</time>
      </trkpt>
      <trkpt lat="46.54219" lon="5.3009">
        <ele>218.2</ele>
        <time>2021-11-11T13:58:41Z</time>
      </trkpt>
      <trkpt lat="46.54197" lon="5.30088">
        <ele>218.6</ele>
        <time>2021-11-11T13:58:45Z</time>
      </trkpt>
      <trkpt lat="46.54186" lon="5.3009">
        <ele>218.6</ele>
        <time>2021-11-11T13:58:47Z</time>
      </trkpt>
      <trkpt lat="46.54164" lon="5.301">
        <ele>218.8</ele>
        <time>2021-11-11T13:58:51Z</time>
      </trkpt>
      <trkpt lat="46.54152" lon="5.30105">
        <ele>218.8</ele>
        <time>2021-11-11T13:58:53Z</time>
      </trkpt>
      <trkpt lat="46.54143" lon="5.30117">
        <ele>218.8</ele>
        <time>2021-11-11T13:58:55Z</time>
      </trkpt>
      <trkpt lat="46.54128" lon="5.30168">
        <ele>219</ele>
        <time>2021-11-11T13:59:01Z</time>
      </trkpt>
      <trkpt lat="46.54105" lon="5.30239">
        <ele>219</ele>
        <time>2021-11-11T13:59:09Z</time>
      </trkpt>
      <trkpt lat="46.54096" lon="5.30266">
        <ele>219</ele>
        <time>2021-11-11T13:59:12Z</time>
      </trkpt>
      <trkpt lat="46.54072" lon="5.30344">
        <ele>219.2</ele>
        <time>2021-11-11T13:59:20Z</time>
      </trkpt>
      <trkpt lat="46.54054" lon="5.30426">
        <ele>219</ele>
        <time>2021-11-11T13:59:28Z</time>
      </trkpt>
      <trkpt lat="46.54049" lon="5.30447">
        <ele>219</ele>
        <time>2021-11-11T13:59:30Z</time>
      </trkpt>
      <trkpt lat="46.54041" lon="5.30466">
        <ele>218.8</ele>
        <time>2021-11-11T13:59:32Z</time>
      </trkpt>
      <trkpt lat="46.54016" lon="5.30503">
        <ele>218.6</ele>
        <time>2021-11-11T13:59:37Z</time>
      </trkpt>
      <trkpt lat="46.54003" lon="5.30515">
        <ele>218.4</ele>
        <time>2021-11-11T13:59:39Z</time>
      </trkpt>
      <trkpt lat="46.5398" lon="5.30528">
        <ele>218</ele>
        <time>2021-11-11T13:59:42Z</time>
      </trkpt>
      <trkpt lat="46.53957" lon="5.30542">
        <ele>217.8</ele>
        <time>2021-11-11T13:59:45Z</time>
      </trkpt>
      <trkpt lat="46.53943" lon="5.30556">
        <ele>217.2</ele>
        <time>2021-11-11T13:59:47Z</time>
      </trkpt>
      <trkpt lat="46.5393" lon="5.30576">
        <ele>216.6</ele>
        <time>2021-11-11T13:59:49Z</time>
      </trkpt>
      <trkpt lat="46.53924" lon="5.30587">
        <ele>216.2</ele>
        <time>2021-11-11T13:59:50Z</time>
      </trkpt>
      <trkpt lat="46.53915" lon="5.30611">
        <ele>215</ele>
        <time>2021-11-11T13:59:52Z</time>
      </trkpt>
      <trkpt lat="46.53903" lon="5.30648">
        <ele>214</ele>
        <time>2021-11-11T13:59:55Z</time>
      </trkpt>
      <trkpt lat="46.539" lon="5.3066">
        <ele>213.4</ele>
        <time>2021-11-11T13:59:56Z</time>
      </trkpt>
      <trkpt lat="46.53897" lon="5.30673">
        <ele>213</ele>
        <time>2021-11-11T13:59:57Z</time>
      </trkpt>
      <trkpt lat="46.53894" lon="5.30699">
        <ele>212.4</ele>
        <time>2021-11-11T13:59:59Z</time>
      </trkpt>
      <trkpt lat="46.53892" lon="5.30738">
        <ele>211.2</ele>
        <time>2021-11-11T14:00:02Z</time>
      </trkpt>
      <trkpt lat="46.53888" lon="5.30778">
        <ele>210.6</ele>
        <time>2021-11-11T14:00:05Z</time>
      </trkpt>
      <trkpt lat="46.53882" lon="5.30805">
        <ele>210</ele>
        <time>2021-11-11T14:00:07Z</time>
      </trkpt>
      <trkpt lat="46.53873" lon="5.30831">
        <ele>208.6</ele>
        <time>2021-11-11T14:00:09Z</time>
      </trkpt>
      <trkpt lat="46.53858" lon="5.30869">
        <ele>207.4</ele>
        <time>2021-11-11T14:00:12Z</time>
      </trkpt>
      <trkpt lat="46.53837" lon="5.30919">
        <ele>205.8</ele>
        <time>2021-11-11T14:00:16Z</time>
      </trkpt>
      <trkpt lat="46.53833" lon="5.30931">
        <ele>205.6</ele>
        <time>2021-11-11T14:00:17Z</time>
      </trkpt>
      <trkpt lat="46.53828" lon="5.30943">
        <ele>204.8</ele>
        <time>2021-11-11T14:00:18Z</time>
      </trkpt>
      <trkpt lat="46.53814" lon="5.30977">
        <ele>203.4</ele>
        <time>2021-11-11T14:00:21Z</time>
      </trkpt>
      <trkpt lat="46.53804" lon="5.30997">
        <ele>203.4</ele>
        <time>2021-11-11T14:00:23Z</time>
      </trkpt>
      <trkpt lat="46.53791" lon="5.31012">
        <ele>203.2</ele>
        <time>2021-11-11T14:00:25Z</time>
      </trkpt>
      <trkpt lat="46.53784" lon="5.31016">
        <ele>203.2</ele>
        <time>2021-11-11T14:00:26Z</time>
      </trkpt>
      <trkpt lat="46.53776" lon="5.31019">
        <ele>203.4</ele>
        <time>2021-11-11T14:00:27Z</time>
      </trkpt>
      <trkpt lat="46.53755" lon="5.31024">
        <ele>203.6</ele>
        <time>2021-11-11T14:00:30Z</time>
      </trkpt>
      <trkpt lat="46.53721" lon="5.31032">
        <ele>204.6</ele>
        <time>2021-11-11T14:00:35Z</time>
      </trkpt>
      <trkpt lat="46.53714" lon="5.31032">
        <ele>204.8</ele>
        <time>2021-11-11T14:00:36Z</time>
      </trkpt>
      <trkpt lat="46.53685" lon="5.31025">
        <ele>205.6</ele>
        <time>2021-11-11T14:00:40Z</time>
      </trkpt>
      <trkpt lat="46.5367" lon="5.31022">
        <ele>205.8</ele>
        <time>2021-11-11T14:00:42Z</time>
      </trkpt>
      <trkpt lat="46.53655" lon="5.31023">
        <ele>206.2</ele>
        <time>2021-11-11T14:00:44Z</time>
      </trkpt>
      <trkpt lat="46.53641" lon="5.31028">
        <ele>206.2</ele>
        <time>2021-11-11T14:00:46Z</time>
      </trkpt>
      <trkpt lat="46.53588" lon="5.31059">
        <ele>206.4</ele>
        <time>2021-11-11T14:00:54Z</time>
      </trkpt>
      <trkpt lat="46.53581" lon="5.31063">
        <ele>206.6</ele>
        <time>2021-11-11T14:00:55Z</time>
      </trkpt>
      <trkpt lat="46.53569" lon="5.3107">
        <ele>206.6</ele>
        <time>2021-11-11T14:00:57Z</time>
      </trkpt>
      <trkpt lat="46.53517" lon="5.311">
        <ele>206.8</ele>
        <time>2021-11-11T14:01:05Z</time>
      </trkpt>
      <trkpt lat="46.53511" lon="5.31106">
        <ele>206.8</ele>
        <time>2021-11-11T14:01:06Z</time>
      </trkpt>
      <trkpt lat="46.53506" lon="5.31111">
        <ele>206.8</ele>
        <time>2021-11-11T14:01:07Z</time>
      </trkpt>
      <trkpt lat="46.53495" lon="5.3113">
        <ele>206.8</ele>
        <time>2021-11-11T14:01:09Z</time>
      </trkpt>
      <trkpt lat="46.5349" lon="5.3115">
        <ele>206.4</ele>
        <time>2021-11-11T14:01:11Z</time>
      </trkpt>
      <trkpt lat="46.53488" lon="5.31162">
        <ele>206.4</ele>
        <time>2021-11-11T14:01:12Z</time>
      </trkpt>
      <trkpt lat="46.53483" lon="5.312">
        <ele>205.4</ele>
        <time>2021-11-11T14:01:15Z</time>
      </trkpt>
      <trkpt lat="46.53481" lon="5.31213">
        <ele>205.2</ele>
        <time>2021-11-11T14:01:16Z</time>
      </trkpt>
      <trkpt lat="46.53477" lon="5.31225">
        <ele>204.6</ele>
        <time>2021-11-11T14:01:17Z</time>
      </trkpt>
      <trkpt lat="46.53468" lon="5.31249">
        <ele>204</ele>
        <time>2021-11-11T14:01:19Z</time>
      </trkpt>
      <trkpt lat="46.53452" lon="5.31283">
        <ele>203.2</ele>
        <time>2021-11-11T14:01:22Z</time>
      </trkpt>
      <trkpt lat="46.53446" lon="5.31296">
        <ele>203</ele>
        <time>2021-11-11T14:01:23Z</time>
      </trkpt>
      <trkpt lat="46.53422" lon="5.31347">
        <ele>201.8</ele>
        <time>2021-11-11T14:01:28Z</time>
      </trkpt>
      <trkpt lat="46.53415" lon="5.31364">
        <ele>201.6</ele>
        <time>2021-11-11T14:01:30Z</time>
      </trkpt>
      <trkpt lat="46.53394" lon="5.31408">
        <ele>202.2</ele>
        <time>2021-11-11T14:01:35Z</time>
      </trkpt>
      <trkpt lat="46.53371" lon="5.31453">
        <ele>202.4</ele>
        <time>2021-11-11T14:01:41Z</time>
      </trkpt>
      <trkpt lat="46.53366" lon="5.31459">
        <ele>202.2</ele>
        <time>2021-11-11T14:01:42Z</time>
      </trkpt>
      <trkpt lat="46.53335" lon="5.31489">
        <ele>202.2</ele>
        <time>2021-11-11T14:01:47Z</time>
      </trkpt>
      <trkpt lat="46.53296" lon="5.31523">
        <ele>201.6</ele>
        <time>2021-11-11T14:01:53Z</time>
      </trkpt>
      <trkpt lat="46.53263" lon="5.31551">
        <ele>201.8</ele>
        <time>2021-11-11T14:01:59Z</time>
      </trkpt>
      <trkpt lat="46.53241" lon="5.31566">
        <ele>202.8</ele>
        <time>2021-11-11T14:02:04Z</time>
      </trkpt>
      <trkpt lat="46.53231" lon="5.3157">
        <ele>203.4</ele>
        <time>2021-11-11T14:02:06Z</time>
      </trkpt>
      <trkpt lat="46.53223" lon="5.31573">
        <ele>204</ele>
        <time>2021-11-11T14:02:08Z</time>
      </trkpt>
      <trkpt lat="46.5322" lon="5.31574">
        <ele>204.2</ele>
        <time>2021-11-11T14:02:09Z</time>
      </trkpt>
      <trkpt lat="46.53207" lon="5.31579">
        <ele>205</ele>
        <time>2021-11-11T14:02:12Z</time>
      </trkpt>
      <trkpt lat="46.532" lon="5.31582">
        <ele>205.4</ele>
        <time>2021-11-11T14:02:14Z</time>
      </trkpt>
      <trkpt lat="46.53184" lon="5.31593">
        <ele>206.6</ele>
        <time>2021-11-11T14:02:18Z</time>
      </trkpt>
      <trkpt lat="46.53179" lon="5.31595">
        <ele>206.8</ele>
        <time>2021-11-11T14:02:19Z</time>
      </trkpt>
      <trkpt lat="46.53162" lon="5.31602">
        <ele>207.6</ele>
        <time>2021-11-11T14:02:23Z</time>
      </trkpt>
      <trkpt lat="46.53158" lon="5.31603">
        <ele>207.8</ele>
        <time>2021-11-11T14:02:24Z</time>
      </trkpt>
      <trkpt lat="46.53141" lon="5.31612">
        <ele>208.8</ele>
        <time>2021-11-11T14:02:28Z</time>
      </trkpt>
      <trkpt lat="46.53138" lon="5.31615">
        <ele>209</ele>
        <time>2021-11-11T14:02:29Z</time>
      </trkpt>
      <trkpt lat="46.53126" lon="5.31618">
        <ele>209.8</ele>
        <time>2021-11-11T14:02:32Z</time>
      </trkpt>
      <trkpt lat="46.53121" lon="5.31619">
        <ele>210</ele>
        <time>2021-11-11T14:02:33Z</time>
      </trkpt>
      <trkpt lat="46.53116" lon="5.3162">
        <ele>210.2</ele>
        <time>2021-11-11T14:02:34Z</time>
      </trkpt>
      <trkpt lat="46.531" lon="5.3163">
        <ele>210.8</ele>
        <time>2021-11-11T14:02:37Z</time>
      </trkpt>
      <trkpt lat="46.53079" lon="5.31637">
        <ele>211.8</ele>
        <time>2021-11-11T14:02:42Z</time>
      </trkpt>
      <trkpt lat="46.53056" lon="5.31658">
        <ele>213.2</ele>
        <time>2021-11-11T14:02:48Z</time>
      </trkpt>
      <trkpt lat="46.53042" lon="5.31684">
        <ele>214.6</ele>
        <time>2021-11-11T14:02:53Z</time>
      </trkpt>
      <trkpt lat="46.5304" lon="5.31689">
        <ele>214.8</ele>
        <time>2021-11-11T14:02:54Z</time>
      </trkpt>
      <trkpt lat="46.53035" lon="5.31705">
        <ele>215.8</ele>
        <time>2021-11-11T14:02:57Z</time>
      </trkpt>
      <trkpt lat="46.53025" lon="5.31735">
        <ele>217</ele>
        <time>2021-11-11T14:03:02Z</time>
      </trkpt>
      <trkpt lat="46.53019" lon="5.31752">
        <ele>217.4</ele>
        <time>2021-11-11T14:03:05Z</time>
      </trkpt>
      <trkpt lat="46.53015" lon="5.3176">
        <ele>217.4</ele>
        <time>2021-11-11T14:03:06Z</time>
      </trkpt>
      <trkpt lat="46.53003" lon="5.31773">
        <ele>217.8</ele>
        <time>2021-11-11T14:03:09Z</time>
      </trkpt>
      <trkpt lat="46.52998" lon="5.31776">
        <ele>218.2</ele>
        <time>2021-11-11T14:03:10Z</time>
      </trkpt>
      <trkpt lat="46.52993" lon="5.31777">
        <ele>218.6</ele>
        <time>2021-11-11T14:03:11Z</time>
      </trkpt>
      <trkpt lat="46.52983" lon="5.31777">
        <ele>218.8</ele>
        <time>2021-11-11T14:03:13Z</time>
      </trkpt>
      <trkpt lat="46.52979" lon="5.31775">
        <ele>218.8</ele>
        <time>2021-11-11T14:03:14Z</time>
      </trkpt>
      <trkpt lat="46.52964" lon="5.31766">
        <ele>219</ele>
        <time>2021-11-11T14:03:17Z</time>
      </trkpt>
      <trkpt lat="46.52942" lon="5.31745">
        <ele>219.4</ele>
        <time>2021-11-11T14:03:22Z</time>
      </trkpt>
      <trkpt lat="46.52926" lon="5.31733">
        <ele>219.8</ele>
        <time>2021-11-11T14:03:25Z</time>
      </trkpt>
      <trkpt lat="46.5291" lon="5.31724">
        <ele>220</ele>
        <time>2021-11-11T14:03:28Z</time>
      </trkpt>
      <trkpt lat="46.52903" lon="5.31721">
        <ele>220.2</ele>
        <time>2021-11-11T14:03:29Z</time>
      </trkpt>
      <trkpt lat="46.52897" lon="5.3172">
        <ele>220.2</ele>
        <time>2021-11-11T14:03:30Z</time>
      </trkpt>
      <trkpt lat="46.5288" lon="5.31726">
        <ele>220</ele>
        <time>2021-11-11T14:03:33Z</time>
      </trkpt>
      <trkpt lat="46.52849" lon="5.3174">
        <ele>220.2</ele>
        <time>2021-11-11T14:03:38Z</time>
      </trkpt>
      <trkpt lat="46.52838" lon="5.31742">
        <ele>220.2</ele>
        <time>2021-11-11T14:03:40Z</time>
      </trkpt>
      <trkpt lat="46.52816" lon="5.31751">
        <ele>220.6</ele>
        <time>2021-11-11T14:03:44Z</time>
      </trkpt>
      <trkpt lat="46.52806" lon="5.31754">
        <ele>220.8</ele>
        <time>2021-11-11T14:03:46Z</time>
      </trkpt>
      <trkpt lat="46.5278" lon="5.31766">
        <ele>220.6</ele>
        <time>2021-11-11T14:03:50Z</time>
      </trkpt>
      <trkpt lat="46.52739" lon="5.31787">
        <ele>220.8</ele>
        <time>2021-11-11T14:03:56Z</time>
      </trkpt>
      <trkpt lat="46.52715" lon="5.31804">
        <ele>220.8</ele>
        <time>2021-11-11T14:04:00Z</time>
      </trkpt>
      <trkpt lat="46.52704" lon="5.31817">
        <ele>220.8</ele>
        <time>2021-11-11T14:04:02Z</time>
      </trkpt>
      <trkpt lat="46.52695" lon="5.31833">
        <ele>220.8</ele>
        <time>2021-11-11T14:04:04Z</time>
      </trkpt>
      <trkpt lat="46.52688" lon="5.3185">
        <ele>220.8</ele>
        <time>2021-11-11T14:04:06Z</time>
      </trkpt>
      <trkpt lat="46.52671" lon="5.31913">
        <ele>220</ele>
        <time>2021-11-11T14:04:12Z</time>
      </trkpt>
      <trkpt lat="46.52661" lon="5.31952">
        <ele>219</ele>
        <time>2021-11-11T14:04:15Z</time>
      </trkpt>
      <trkpt lat="46.52654" lon="5.31979">
        <ele>218</ele>
        <time>2021-11-11T14:04:17Z</time>
      </trkpt>
      <trkpt lat="46.5265" lon="5.31993">
        <ele>217.2</ele>
        <time>2021-11-11T14:04:18Z</time>
      </trkpt>
      <trkpt lat="46.52642" lon="5.3202">
        <ele>216</ele>
        <time>2021-11-11T14:04:20Z</time>
      </trkpt>
      <trkpt lat="46.52632" lon="5.3205">
        <ele>214.8</ele>
        <time>2021-11-11T14:04:22Z</time>
      </trkpt>
      <trkpt lat="46.52628" lon="5.3206">
        <ele>213.8</ele>
        <time>2021-11-11T14:04:23Z</time>
      </trkpt>
      <trkpt lat="46.52624" lon="5.32073">
        <ele>213.6</ele>
        <time>2021-11-11T14:04:24Z</time>
      </trkpt>
      <trkpt lat="46.52607" lon="5.32111">
        <ele>212.2</ele>
        <time>2021-11-11T14:04:27Z</time>
      </trkpt>
      <trkpt lat="46.52596" lon="5.32134">
        <ele>211</ele>
        <time>2021-11-11T14:04:29Z</time>
      </trkpt>
      <trkpt lat="46.52585" lon="5.32157">
        <ele>209.8</ele>
        <time>2021-11-11T14:04:31Z</time>
      </trkpt>
      <trkpt lat="46.52573" lon="5.32181">
        <ele>208.6</ele>
        <time>2021-11-11T14:04:34Z</time>
      </trkpt>
      <trkpt lat="46.5257" lon="5.32186">
        <ele>207.6</ele>
        <time>2021-11-11T14:04:36Z</time>
      </trkpt>
      <trkpt lat="46.52569" lon="5.32187">
        <ele>207</ele>
        <time>2021-11-11T14:04:37Z</time>
      </trkpt>
      <trkpt lat="46.52569" lon="5.32187">
        <ele>206.4</ele>
        <time>2021-11-11T14:04:38Z</time>
      </trkpt>
      <trkpt lat="46.52569" lon="5.32187">
        <ele>205.8</ele>
        <time>2021-11-11T14:04:39Z</time>
      </trkpt>
      <trkpt lat="46.52564" lon="5.32186">
        <ele>204.8</ele>
        <time>2021-11-11T14:04:45Z</time>
      </trkpt>
      <trkpt lat="46.52562" lon="5.32184">
        <ele>204.8</ele>
        <time>2021-11-11T14:04:46Z</time>
      </trkpt>
      <trkpt lat="46.52547" lon="5.32172">
        <ele>204.8</ele>
        <time>2021-11-11T14:04:50Z</time>
      </trkpt>
      <trkpt lat="46.52523" lon="5.32146">
        <ele>205.6</ele>
        <time>2021-11-11T14:04:56Z</time>
      </trkpt>
      <trkpt lat="46.5252" lon="5.32141">
        <ele>205.8</ele>
        <time>2021-11-11T14:04:57Z</time>
      </trkpt>
      <trkpt lat="46.52501" lon="5.32116">
        <ele>207</ele>
        <time>2021-11-11T14:05:02Z</time>
      </trkpt>
      <trkpt lat="46.52493" lon="5.32106">
        <ele>207.4</ele>
        <time>2021-11-11T14:05:04Z</time>
      </trkpt>
      <trkpt lat="46.52478" lon="5.32087">
        <ele>208.2</ele>
        <time>2021-11-11T14:05:08Z</time>
      </trkpt>
      <trkpt lat="46.52459" lon="5.3206">
        <ele>209.2</ele>
        <time>2021-11-11T14:05:13Z</time>
      </trkpt>
      <trkpt lat="46.52456" lon="5.32054">
        <ele>209.4</ele>
        <time>2021-11-11T14:05:14Z</time>
      </trkpt>
      <trkpt lat="46.52437" lon="5.32027">
        <ele>210.4</ele>
        <time>2021-11-11T14:05:19Z</time>
      </trkpt>
      <trkpt lat="46.52418" lon="5.31999">
        <ele>211.6</ele>
        <time>2021-11-11T14:05:24Z</time>
      </trkpt>
      <trkpt lat="46.52397" lon="5.31969">
        <ele>212.6</ele>
        <time>2021-11-11T14:05:30Z</time>
      </trkpt>
      <trkpt lat="46.52386" lon="5.31954">
        <ele>213.2</ele>
        <time>2021-11-11T14:05:33Z</time>
      </trkpt>
      <trkpt lat="46.52375" lon="5.31939">
        <ele>214</ele>
        <time>2021-11-11T14:05:36Z</time>
      </trkpt>
      <trkpt lat="46.52354" lon="5.31909">
        <ele>215.2</ele>
        <time>2021-11-11T14:05:42Z</time>
      </trkpt>
      <trkpt lat="46.52325" lon="5.31868">
        <ele>216</ele>
        <time>2021-11-11T14:05:49Z</time>
      </trkpt>
      <trkpt lat="46.5229" lon="5.31817">
        <ele>215.4</ele>
        <time>2021-11-11T14:05:56Z</time>
      </trkpt>
      <trkpt lat="46.5225" lon="5.31761">
        <ele>213.8</ele>
        <time>2021-11-11T14:06:03Z</time>
      </trkpt>
      <trkpt lat="46.52244" lon="5.31753">
        <ele>213.6</ele>
        <time>2021-11-11T14:06:04Z</time>
      </trkpt>
      <trkpt lat="46.52221" lon="5.3172">
        <ele>212.8</ele>
        <time>2021-11-11T14:06:08Z</time>
      </trkpt>
      <trkpt lat="46.52198" lon="5.31686">
        <ele>211.6</ele>
        <time>2021-11-11T14:06:12Z</time>
      </trkpt>
      <trkpt lat="46.52172" lon="5.3165">
        <ele>210.8</ele>
        <time>2021-11-11T14:06:16Z</time>
      </trkpt>
      <trkpt lat="46.52166" lon="5.31641">
        <ele>210.4</ele>
        <time>2021-11-11T14:06:17Z</time>
      </trkpt>
      <trkpt lat="46.5213" lon="5.31588">
        <ele>209</ele>
        <time>2021-11-11T14:06:23Z</time>
      </trkpt>
      <trkpt lat="46.52111" lon="5.31561">
        <ele>208</ele>
        <time>2021-11-11T14:06:26Z</time>
      </trkpt>
      <trkpt lat="46.52073" lon="5.31506">
        <ele>206.6</ele>
        <time>2021-11-11T14:06:32Z</time>
      </trkpt>
      <trkpt lat="46.52048" lon="5.3147">
        <ele>205.4</ele>
        <time>2021-11-11T14:06:36Z</time>
      </trkpt>
      <trkpt lat="46.52023" lon="5.31433">
        <ele>204.4</ele>
        <time>2021-11-11T14:06:40Z</time>
      </trkpt>
      <trkpt lat="46.51998" lon="5.31397">
        <ele>203.2</ele>
        <time>2021-11-11T14:06:44Z</time>
      </trkpt>
      <trkpt lat="46.51962" lon="5.31344">
        <ele>202</ele>
        <time>2021-11-11T14:06:50Z</time>
      </trkpt>
      <trkpt lat="46.51945" lon="5.3132">
        <ele>201.8</ele>
        <time>2021-11-11T14:06:53Z</time>
      </trkpt>
      <trkpt lat="46.51912" lon="5.3127">
        <ele>201</ele>
        <time>2021-11-11T14:06:59Z</time>
      </trkpt>
      <trkpt lat="46.51886" lon="5.3123">
        <ele>200.6</ele>
        <time>2021-11-11T14:07:04Z</time>
      </trkpt>
      <trkpt lat="46.51865" lon="5.31201">
        <ele>200.6</ele>
        <time>2021-11-11T14:07:08Z</time>
      </trkpt>
      <trkpt lat="46.51853" lon="5.3119">
        <ele>200.6</ele>
        <time>2021-11-11T14:07:10Z</time>
      </trkpt>
      <trkpt lat="46.51827" lon="5.31177">
        <ele>200.6</ele>
        <time>2021-11-11T14:07:14Z</time>
      </trkpt>
      <trkpt lat="46.51796" lon="5.31174">
        <ele>200.8</ele>
        <time>2021-11-11T14:07:19Z</time>
      </trkpt>
      <trkpt lat="46.51764" lon="5.31173">
        <ele>202</ele>
        <time>2021-11-11T14:07:25Z</time>
      </trkpt>
      <trkpt lat="46.51759" lon="5.31173">
        <ele>202.2</ele>
        <time>2021-11-11T14:07:26Z</time>
      </trkpt>
      <trkpt lat="46.51734" lon="5.31171">
        <ele>203.6</ele>
        <time>2021-11-11T14:07:31Z</time>
      </trkpt>
      <trkpt lat="46.51724" lon="5.31168">
        <ele>204.2</ele>
        <time>2021-11-11T14:07:33Z</time>
      </trkpt>
      <trkpt lat="46.51716" lon="5.31163">
        <ele>204.6</ele>
        <time>2021-11-11T14:07:35Z</time>
      </trkpt>
      <trkpt lat="46.51699" lon="5.31148">
        <ele>205.6</ele>
        <time>2021-11-11T14:07:39Z</time>
      </trkpt>
      <trkpt lat="46.51696" lon="5.31143">
        <ele>206</ele>
        <time>2021-11-11T14:07:40Z</time>
      </trkpt>
      <trkpt lat="46.51685" lon="5.31126">
        <ele>206.6</ele>
        <time>2021-11-11T14:07:43Z</time>
      </trkpt>
      <trkpt lat="46.51675" lon="5.31108">
        <ele>207</ele>
        <time>2021-11-11T14:07:46Z</time>
      </trkpt>
      <trkpt lat="46.51672" lon="5.31102">
        <ele>207.4</ele>
        <time>2021-11-11T14:07:47Z</time>
      </trkpt>
      <trkpt lat="46.51662" lon="5.31096">
        <ele>207.6</ele>
        <time>2021-11-11T14:07:49Z</time>
      </trkpt>
      <trkpt lat="46.51652" lon="5.31098">
        <ele>208</ele>
        <time>2021-11-11T14:07:51Z</time>
      </trkpt>
      <trkpt lat="46.51647" lon="5.311">
        <ele>208</ele>
        <time>2021-11-11T14:07:52Z</time>
      </trkpt>
      <trkpt lat="46.51641" lon="5.311">
        <ele>208.2</ele>
        <time>2021-11-11T14:07:53Z</time>
      </trkpt>
      <trkpt lat="46.51628" lon="5.31097">
        <ele>208.2</ele>
        <time>2021-11-11T14:07:55Z</time>
      </trkpt>
      <trkpt lat="46.51615" lon="5.3109">
        <ele>208.2</ele>
        <time>2021-11-11T14:07:57Z</time>
      </trkpt>
      <trkpt lat="46.51578" lon="5.31075">
        <ele>207.4</ele>
        <time>2021-11-11T14:08:02Z</time>
      </trkpt>
      <trkpt lat="46.5157" lon="5.31073">
        <ele>207</ele>
        <time>2021-11-11T14:08:03Z</time>
      </trkpt>
      <trkpt lat="46.51531" lon="5.31069">
        <ele>206.2</ele>
        <time>2021-11-11T14:08:08Z</time>
      </trkpt>
      <trkpt lat="46.51501" lon="5.31068">
        <ele>206</ele>
        <time>2021-11-11T14:08:12Z</time>
      </trkpt>
      <trkpt lat="46.51463" lon="5.31065">
        <ele>205.8</ele>
        <time>2021-11-11T14:08:17Z</time>
      </trkpt>
      <trkpt lat="46.51405" lon="5.31067">
        <ele>205.8</ele>
        <time>2021-11-11T14:08:25Z</time>
      </trkpt>
      <trkpt lat="46.51348" lon="5.3107">
        <ele>205.8</ele>
        <time>2021-11-11T14:08:33Z</time>
      </trkpt>
      <trkpt lat="46.51334" lon="5.3107">
        <ele>205.8</ele>
        <time>2021-11-11T14:08:35Z</time>
      </trkpt>
      <trkpt lat="46.51275" lon="5.31073">
        <ele>205.8</ele>
        <time>2021-11-11T14:08:43Z</time>
      </trkpt>
      <trkpt lat="46.51266" lon="5.31075">
        <ele>205.6</ele>
        <time>2021-11-11T14:08:44Z</time>
      </trkpt>
      <trkpt lat="46.51251" lon="5.3108">
        <ele>205.6</ele>
        <time>2021-11-11T14:08:46Z</time>
      </trkpt>
      <trkpt lat="46.51239" lon="5.31091">
        <ele>205.4</ele>
        <time>2021-11-11T14:08:48Z</time>
      </trkpt>
      <trkpt lat="46.51213" lon="5.31122">
        <ele>205.6</ele>
        <time>2021-11-11T14:08:53Z</time>
      </trkpt>
      <trkpt lat="46.51199" lon="5.31139">
        <ele>206</ele>
        <time>2021-11-11T14:08:56Z</time>
      </trkpt>
      <trkpt lat="46.51191" lon="5.31151">
        <ele>206.4</ele>
        <time>2021-11-11T14:08:58Z</time>
      </trkpt>
      <trkpt lat="46.51187" lon="5.31156">
        <ele>206.6</ele>
        <time>2021-11-11T14:08:59Z</time>
      </trkpt>
      <trkpt lat="46.51178" lon="5.31166">
        <ele>207</ele>
        <time>2021-11-11T14:09:01Z</time>
      </trkpt>
      <trkpt lat="46.51173" lon="5.31171">
        <ele>207.2</ele>
        <time>2021-11-11T14:09:02Z</time>
      </trkpt>
      <trkpt lat="46.51142" lon="5.31211">
        <ele>207.8</ele>
        <time>2021-11-11T14:09:09Z</time>
      </trkpt>
      <trkpt lat="46.51122" lon="5.31236">
        <ele>208</ele>
        <time>2021-11-11T14:09:13Z</time>
      </trkpt>
      <trkpt lat="46.51111" lon="5.31251">
        <ele>208.2</ele>
        <time>2021-11-11T14:09:16Z</time>
      </trkpt>
      <trkpt lat="46.5108" lon="5.31294">
        <ele>209.2</ele>
        <time>2021-11-11T14:09:22Z</time>
      </trkpt>
      <trkpt lat="46.51073" lon="5.31307">
        <ele>209.6</ele>
        <time>2021-11-11T14:09:24Z</time>
      </trkpt>
      <trkpt lat="46.51068" lon="5.31321">
        <ele>210</ele>
        <time>2021-11-11T14:09:26Z</time>
      </trkpt>
      <trkpt lat="46.51066" lon="5.31328">
        <ele>210.4</ele>
        <time>2021-11-11T14:09:27Z</time>
      </trkpt>
      <trkpt lat="46.51066" lon="5.31335">
        <ele>210.6</ele>
        <time>2021-11-11T14:09:28Z</time>
      </trkpt>
      <trkpt lat="46.51066" lon="5.31352">
        <ele>211</ele>
        <time>2021-11-11T14:09:30Z</time>
      </trkpt>
      <trkpt lat="46.51068" lon="5.31371">
        <ele>211.6</ele>
        <time>2021-11-11T14:09:32Z</time>
      </trkpt>
      <trkpt lat="46.51067" lon="5.3138">
        <ele>212</ele>
        <time>2021-11-11T14:09:33Z</time>
      </trkpt>
      <trkpt lat="46.51066" lon="5.31397">
        <ele>212.4</ele>
        <time>2021-11-11T14:09:35Z</time>
      </trkpt>
      <trkpt lat="46.51064" lon="5.31406">
        <ele>212.6</ele>
        <time>2021-11-11T14:09:36Z</time>
      </trkpt>
      <trkpt lat="46.51056" lon="5.31447">
        <ele>213.2</ele>
        <time>2021-11-11T14:09:41Z</time>
      </trkpt>
      <trkpt lat="46.51052" lon="5.31463">
        <ele>213.8</ele>
        <time>2021-11-11T14:09:43Z</time>
      </trkpt>
      <trkpt lat="46.51049" lon="5.31478">
        <ele>214.8</ele>
        <time>2021-11-11T14:09:45Z</time>
      </trkpt>
      <trkpt lat="46.51044" lon="5.31499">
        <ele>215.4</ele>
        <time>2021-11-11T14:09:48Z</time>
      </trkpt>
      <trkpt lat="46.51041" lon="5.31513">
        <ele>215.8</ele>
        <time>2021-11-11T14:09:50Z</time>
      </trkpt>
      <trkpt lat="46.51034" lon="5.31539">
        <ele>216.6</ele>
        <time>2021-11-11T14:09:54Z</time>
      </trkpt>
      <trkpt lat="46.51031" lon="5.31545">
        <ele>216.8</ele>
        <time>2021-11-11T14:09:55Z</time>
      </trkpt>
      <trkpt lat="46.51029" lon="5.3155">
        <ele>217.2</ele>
        <time>2021-11-11T14:09:56Z</time>
      </trkpt>
      <trkpt lat="46.51022" lon="5.31561">
        <ele>217.8</ele>
        <time>2021-11-11T14:09:58Z</time>
      </trkpt>
      <trkpt lat="46.51016" lon="5.31568">
        <ele>218.2</ele>
        <time>2021-11-11T14:10:00Z</time>
      </trkpt>
      <trkpt lat="46.51011" lon="5.31574">
        <ele>218.4</ele>
        <time>2021-11-11T14:10:01Z</time>
      </trkpt>
      <trkpt lat="46.50992" lon="5.31593">
        <ele>218.6</ele>
        <time>2021-11-11T14:10:05Z</time>
      </trkpt>
      <trkpt lat="46.5096" lon="5.31626">
        <ele>218.4</ele>
        <time>2021-11-11T14:10:11Z</time>
      </trkpt>
      <trkpt lat="46.50926" lon="5.3166">
        <ele>217.8</ele>
        <time>2021-11-11T14:10:17Z</time>
      </trkpt>
      <trkpt lat="46.50892" lon="5.31693">
        <ele>218.6</ele>
        <time>2021-11-11T14:10:24Z</time>
      </trkpt>
      <trkpt lat="46.50867" lon="5.31718">
        <ele>219.4</ele>
        <time>2021-11-11T14:10:29Z</time>
      </trkpt>
      <trkpt lat="46.50857" lon="5.31729">
        <ele>219.6</ele>
        <time>2021-11-11T14:10:31Z</time>
      </trkpt>
      <trkpt lat="46.50851" lon="5.31733">
        <ele>219.6</ele>
        <time>2021-11-11T14:10:32Z</time>
      </trkpt>
      <trkpt lat="46.50836" lon="5.31738">
        <ele>219.8</ele>
        <time>2021-11-11T14:10:34Z</time>
      </trkpt>
      <trkpt lat="46.50829" lon="5.31737">
        <ele>219.8</ele>
        <time>2021-11-11T14:10:35Z</time>
      </trkpt>
      <trkpt lat="46.50822" lon="5.31734">
        <ele>219.8</ele>
        <time>2021-11-11T14:10:36Z</time>
      </trkpt>
      <trkpt lat="46.50803" lon="5.3172">
        <ele>219.8</ele>
        <time>2021-11-11T14:10:39Z</time>
      </trkpt>
      <trkpt lat="46.50773" lon="5.317">
        <ele>219.6</ele>
        <time>2021-11-11T14:10:43Z</time>
      </trkpt>
      <trkpt lat="46.50766" lon="5.31698">
        <ele>219.4</ele>
        <time>2021-11-11T14:10:44Z</time>
      </trkpt>
      <trkpt lat="46.50758" lon="5.31698">
        <ele>219.4</ele>
        <time>2021-11-11T14:10:45Z</time>
      </trkpt>
      <trkpt lat="46.50736" lon="5.317">
        <ele>218.8</ele>
        <time>2021-11-11T14:10:48Z</time>
      </trkpt>
      <trkpt lat="46.50676" lon="5.31707">
        <ele>218.6</ele>
        <time>2021-11-11T14:10:56Z</time>
      </trkpt>
      <trkpt lat="46.50669" lon="5.31708">
        <ele>218.6</ele>
        <time>2021-11-11T14:10:57Z</time>
      </trkpt>
      <trkpt lat="46.50657" lon="5.31715">
        <ele>218.6</ele>
        <time>2021-11-11T14:10:59Z</time>
      </trkpt>
      <trkpt lat="46.50651" lon="5.31721">
        <ele>218.6</ele>
        <time>2021-11-11T14:11:00Z</time>
      </trkpt>
      <trkpt lat="46.50646" lon="5.31728">
        <ele>218.6</ele>
        <time>2021-11-11T14:11:01Z</time>
      </trkpt>
      <trkpt lat="46.50633" lon="5.31754">
        <ele>218.6</ele>
        <time>2021-11-11T14:11:04Z</time>
      </trkpt>
      <trkpt lat="46.50616" lon="5.31799">
        <ele>218.4</ele>
        <time>2021-11-11T14:11:09Z</time>
      </trkpt>
      <trkpt lat="46.50613" lon="5.31809">
        <ele>218.4</ele>
        <time>2021-11-11T14:11:10Z</time>
      </trkpt>
      <trkpt lat="46.50595" lon="5.31858">
        <ele>217.8</ele>
        <time>2021-11-11T14:11:15Z</time>
      </trkpt>
      <trkpt lat="46.50591" lon="5.31869">
        <ele>217.6</ele>
        <time>2021-11-11T14:11:16Z</time>
      </trkpt>
      <trkpt lat="46.50583" lon="5.3189">
        <ele>217.2</ele>
        <time>2021-11-11T14:11:18Z</time>
      </trkpt>
      <trkpt lat="46.50567" lon="5.31937">
        <ele>215.6</ele>
        <time>2021-11-11T14:11:22Z</time>
      </trkpt>
      <trkpt lat="46.50553" lon="5.31973">
        <ele>214.6</ele>
        <time>2021-11-11T14:11:25Z</time>
      </trkpt>
      <trkpt lat="46.50548" lon="5.31984">
        <ele>214</ele>
        <time>2021-11-11T14:11:26Z</time>
      </trkpt>
      <trkpt lat="46.50542" lon="5.31996">
        <ele>213.4</ele>
        <time>2021-11-11T14:11:27Z</time>
      </trkpt>
      <trkpt lat="46.50536" lon="5.32006">
        <ele>213</ele>
        <time>2021-11-11T14:11:28Z</time>
      </trkpt>
      <trkpt lat="46.50529" lon="5.32015">
        <ele>212.2</ele>
        <time>2021-11-11T14:11:29Z</time>
      </trkpt>
      <trkpt lat="46.50522" lon="5.32024">
        <ele>212</ele>
        <time>2021-11-11T14:11:30Z</time>
      </trkpt>
      <trkpt lat="46.50511" lon="5.32043">
        <ele>211</ele>
        <time>2021-11-11T14:11:32Z</time>
      </trkpt>
      <trkpt lat="46.50495" lon="5.32072">
        <ele>209.8</ele>
        <time>2021-11-11T14:11:35Z</time>
      </trkpt>
      <trkpt lat="46.50473" lon="5.32132">
        <ele>208.8</ele>
        <time>2021-11-11T14:11:41Z</time>
      </trkpt>
      <trkpt lat="46.5047" lon="5.32141">
        <ele>208.8</ele>
        <time>2021-11-11T14:11:42Z</time>
      </trkpt>
      <trkpt lat="46.50462" lon="5.32168">
        <ele>208.8</ele>
        <time>2021-11-11T14:11:45Z</time>
      </trkpt>
      <trkpt lat="46.50458" lon="5.32175">
        <ele>208.8</ele>
        <time>2021-11-11T14:11:46Z</time>
      </trkpt>
      <trkpt lat="46.50454" lon="5.3218">
        <ele>208.6</ele>
        <time>2021-11-11T14:11:47Z</time>
      </trkpt>
      <trkpt lat="46.50444" lon="5.32188">
        <ele>208.6</ele>
        <time>2021-11-11T14:11:49Z</time>
      </trkpt>
      <trkpt lat="46.50435" lon="5.32188">
        <ele>208.4</ele>
        <time>2021-11-11T14:11:52Z</time>
      </trkpt>
      <trkpt lat="46.50433" lon="5.32188">
        <ele>208.4</ele>
        <time>2021-11-11T14:11:53Z</time>
      </trkpt>
      <trkpt lat="46.5043" lon="5.32196">
        <ele>208</ele>
        <time>2021-11-11T14:11:55Z</time>
      </trkpt>
      <trkpt lat="46.5043" lon="5.32235">
        <ele>207.8</ele>
        <time>2021-11-11T14:12:00Z</time>
      </trkpt>
      <trkpt lat="46.50434" lon="5.32282">
        <ele>208.2</ele>
        <time>2021-11-11T14:12:05Z</time>
      </trkpt>
      <trkpt lat="46.50446" lon="5.3235">
        <ele>209</ele>
        <time>2021-11-11T14:12:12Z</time>
      </trkpt>
      <trkpt lat="46.50463" lon="5.3243">
        <ele>209</ele>
        <time>2021-11-11T14:12:20Z</time>
      </trkpt>
      <trkpt lat="46.50471" lon="5.32508">
        <ele>209.2</ele>
        <time>2021-11-11T14:12:28Z</time>
      </trkpt>
      <trkpt lat="46.50474" lon="5.32583">
        <ele>209.8</ele>
        <time>2021-11-11T14:12:36Z</time>
      </trkpt>
      <trkpt lat="46.50474" lon="5.32601">
        <ele>210</ele>
        <time>2021-11-11T14:12:38Z</time>
      </trkpt>
      <trkpt lat="46.50475" lon="5.3267">
        <ele>211</ele>
        <time>2021-11-11T14:12:46Z</time>
      </trkpt>
      <trkpt lat="46.50474" lon="5.32687">
        <ele>211</ele>
        <time>2021-11-11T14:12:48Z</time>
      </trkpt>
      <trkpt lat="46.50473" lon="5.3277">
        <ele>211.8</ele>
        <time>2021-11-11T14:12:58Z</time>
      </trkpt>
      <trkpt lat="46.50472" lon="5.32804">
        <ele>212.2</ele>
        <time>2021-11-11T14:13:02Z</time>
      </trkpt>
      <trkpt lat="46.50471" lon="5.32846">
        <ele>212.6</ele>
        <time>2021-11-11T14:13:07Z</time>
      </trkpt>
      <trkpt lat="46.5047" lon="5.32899">
        <ele>213.2</ele>
        <time>2021-11-11T14:13:14Z</time>
      </trkpt>
      <trkpt lat="46.50469" lon="5.3292">
        <ele>214</ele>
        <time>2021-11-11T14:13:17Z</time>
      </trkpt>
      <trkpt lat="46.50469" lon="5.32926">
        <ele>214.4</ele>
        <time>2021-11-11T14:13:18Z</time>
      </trkpt>
      <trkpt lat="46.5047" lon="5.32947">
        <ele>215</ele>
        <time>2021-11-11T14:13:21Z</time>
      </trkpt>
      <trkpt lat="46.50469" lon="5.3296">
        <ele>215.4</ele>
        <time>2021-11-11T14:13:23Z</time>
      </trkpt>
      <trkpt lat="46.50469" lon="5.32967">
        <ele>215.6</ele>
        <time>2021-11-11T14:13:24Z</time>
      </trkpt>
      <trkpt lat="46.50468" lon="5.32994">
        <ele>216.6</ele>
        <time>2021-11-11T14:13:28Z</time>
      </trkpt>
      <trkpt lat="46.50468" lon="5.33007">
        <ele>217</ele>
        <time>2021-11-11T14:13:30Z</time>
      </trkpt>
      <trkpt lat="46.50467" lon="5.33026">
        <ele>217.6</ele>
        <time>2021-11-11T14:13:33Z</time>
      </trkpt>
      <trkpt lat="46.50466" lon="5.33056">
        <ele>219</ele>
        <time>2021-11-11T14:13:38Z</time>
      </trkpt>
      <trkpt lat="46.50466" lon="5.33069">
        <ele>219.4</ele>
        <time>2021-11-11T14:13:40Z</time>
      </trkpt>
      <trkpt lat="46.50466" lon="5.3308">
        <ele>219.8</ele>
        <time>2021-11-11T14:13:42Z</time>
      </trkpt>
      <trkpt lat="46.50466" lon="5.33086">
        <ele>220.2</ele>
        <time>2021-11-11T14:13:43Z</time>
      </trkpt>
      <trkpt lat="46.50467" lon="5.33092">
        <ele>220.4</ele>
        <time>2021-11-11T14:13:44Z</time>
      </trkpt>
      <trkpt lat="46.50467" lon="5.33099">
        <ele>220.6</ele>
        <time>2021-11-11T14:13:45Z</time>
      </trkpt>
      <trkpt lat="46.50466" lon="5.33116">
        <ele>221.2</ele>
        <time>2021-11-11T14:13:48Z</time>
      </trkpt>
      <trkpt lat="46.50464" lon="5.33129">
        <ele>221.6</ele>
        <time>2021-11-11T14:13:50Z</time>
      </trkpt>
      <trkpt lat="46.50464" lon="5.33139">
        <ele>222.4</ele>
        <time>2021-11-11T14:13:52Z</time>
      </trkpt>
      <trkpt lat="46.50463" lon="5.33158">
        <ele>223.2</ele>
        <time>2021-11-11T14:13:55Z</time>
      </trkpt>
      <trkpt lat="46.50464" lon="5.33164">
        <ele>223.4</ele>
        <time>2021-11-11T14:13:56Z</time>
      </trkpt>
      <trkpt lat="46.50464" lon="5.33172">
        <ele>223.6</ele>
        <time>2021-11-11T14:13:57Z</time>
      </trkpt>
      <trkpt lat="46.50463" lon="5.33207">
        <ele>224.6</ele>
        <time>2021-11-11T14:14:02Z</time>
      </trkpt>
      <trkpt lat="46.50463" lon="5.33221">
        <ele>224.8</ele>
        <time>2021-11-11T14:14:04Z</time>
      </trkpt>
      <trkpt lat="46.50462" lon="5.33277">
        <ele>225.4</ele>
        <time>2021-11-11T14:14:11Z</time>
      </trkpt>
      <trkpt lat="46.50462" lon="5.33285">
        <ele>225.4</ele>
        <time>2021-11-11T14:14:12Z</time>
      </trkpt>
      <trkpt lat="46.50461" lon="5.33328">
        <ele>225.2</ele>
        <time>2021-11-11T14:14:17Z</time>
      </trkpt>
      <trkpt lat="46.50453" lon="5.33384">
        <ele>224.8</ele>
        <time>2021-11-11T14:14:23Z</time>
      </trkpt>
      <trkpt lat="46.50443" lon="5.33415">
        <ele>224.6</ele>
        <time>2021-11-11T14:14:27Z</time>
      </trkpt>
      <trkpt lat="46.50439" lon="5.33423">
        <ele>224.6</ele>
        <time>2021-11-11T14:14:28Z</time>
      </trkpt>
      <trkpt lat="46.50428" lon="5.3344">
        <ele>224.6</ele>
        <time>2021-11-11T14:14:31Z</time>
      </trkpt>
      <trkpt lat="46.5042" lon="5.3345">
        <ele>224.8</ele>
        <time>2021-11-11T14:14:33Z</time>
      </trkpt>
      <trkpt lat="46.50394" lon="5.33477">
        <ele>225.6</ele>
        <time>2021-11-11T14:14:39Z</time>
      </trkpt>
      <trkpt lat="46.50386" lon="5.33486">
        <ele>225.8</ele>
        <time>2021-11-11T14:14:41Z</time>
      </trkpt>
      <trkpt lat="46.50368" lon="5.33502">
        <ele>226.2</ele>
        <time>2021-11-11T14:14:45Z</time>
      </trkpt>
      <trkpt lat="46.50364" lon="5.33506">
        <ele>226.4</ele>
        <time>2021-11-11T14:14:46Z</time>
      </trkpt>
      <trkpt lat="46.50336" lon="5.33532">
        <ele>226.8</ele>
        <time>2021-11-11T14:14:52Z</time>
      </trkpt>
      <trkpt lat="46.50328" lon="5.3354">
        <ele>227</ele>
        <time>2021-11-11T14:14:54Z</time>
      </trkpt>
      <trkpt lat="46.50314" lon="5.33558">
        <ele>227.4</ele>
        <time>2021-11-11T14:14:57Z</time>
      </trkpt>
      <trkpt lat="46.50309" lon="5.33562">
        <ele>227.4</ele>
        <time>2021-11-11T14:14:58Z</time>
      </trkpt>
      <trkpt lat="46.50277" lon="5.33601">
        <ele>228</ele>
        <time>2021-11-11T14:15:05Z</time>
      </trkpt>
      <trkpt lat="46.50248" lon="5.33637">
        <ele>228.6</ele>
        <time>2021-11-11T14:15:11Z</time>
      </trkpt>
      <trkpt lat="46.50239" lon="5.33644">
        <ele>228.8</ele>
        <time>2021-11-11T14:15:13Z</time>
      </trkpt>
      <trkpt lat="46.50208" lon="5.33676">
        <ele>229.2</ele>
        <time>2021-11-11T14:15:20Z</time>
      </trkpt>
      <trkpt lat="46.50184" lon="5.33701">
        <ele>229.6</ele>
        <time>2021-11-11T14:15:25Z</time>
      </trkpt>
      <trkpt lat="46.50166" lon="5.33721">
        <ele>229.6</ele>
        <time>2021-11-11T14:15:28Z</time>
      </trkpt>
      <trkpt lat="46.50151" lon="5.33737">
        <ele>229.4</ele>
        <time>2021-11-11T14:15:31Z</time>
      </trkpt>
      <trkpt lat="46.50117" lon="5.33773">
        <ele>228.8</ele>
        <time>2021-11-11T14:15:37Z</time>
      </trkpt>
      <trkpt lat="46.50077" lon="5.33817">
        <ele>228.6</ele>
        <time>2021-11-11T14:15:45Z</time>
      </trkpt>
      <trkpt lat="46.50067" lon="5.33828">
        <ele>228.8</ele>
        <time>2021-11-11T14:15:47Z</time>
      </trkpt>
      <trkpt lat="46.50042" lon="5.33858">
        <ele>229.4</ele>
        <time>2021-11-11T14:15:52Z</time>
      </trkpt>
      <trkpt lat="46.5001" lon="5.33895">
        <ele>230.2</ele>
        <time>2021-11-11T14:15:59Z</time>
      </trkpt>
      <trkpt lat="46.5" lon="5.33906">
        <ele>230.4</ele>
        <time>2021-11-11T14:16:01Z</time>
      </trkpt>
      <trkpt lat="46.49985" lon="5.33922">
        <ele>230.8</ele>
        <time>2021-11-11T14:16:04Z</time>
      </trkpt>
      <trkpt lat="46.49979" lon="5.33928">
        <ele>231</ele>
        <time>2021-11-11T14:16:05Z</time>
      </trkpt>
      <trkpt lat="46.49968" lon="5.3394">
        <ele>231.6</ele>
        <time>2021-11-11T14:16:07Z</time>
      </trkpt>
      <trkpt lat="46.49949" lon="5.3396">
        <ele>231.6</ele>
        <time>2021-11-11T14:16:10Z</time>
      </trkpt>
      <trkpt lat="46.4991" lon="5.34002">
        <ele>231.2</ele>
        <time>2021-11-11T14:16:16Z</time>
      </trkpt>
      <trkpt lat="46.49897" lon="5.34016">
        <ele>230.4</ele>
        <time>2021-11-11T14:16:18Z</time>
      </trkpt>
      <trkpt lat="46.4987" lon="5.34048">
        <ele>229.4</ele>
        <time>2021-11-11T14:16:22Z</time>
      </trkpt>
      <trkpt lat="46.49864" lon="5.34055">
        <ele>229</ele>
        <time>2021-11-11T14:16:23Z</time>
      </trkpt>
      <trkpt lat="46.49827" lon="5.34109">
        <ele>228.4</ele>
        <time>2021-11-11T14:16:30Z</time>
      </trkpt>
      <trkpt lat="46.49788" lon="5.34171">
        <ele>228.8</ele>
        <time>2021-11-11T14:16:38Z</time>
      </trkpt>
      <trkpt lat="46.49758" lon="5.3422">
        <ele>228.8</ele>
        <time>2021-11-11T14:16:44Z</time>
      </trkpt>
      <trkpt lat="46.49725" lon="5.34277">
        <ele>228.4</ele>
        <time>2021-11-11T14:16:51Z</time>
      </trkpt>
      <trkpt lat="46.49701" lon="5.34336">
        <ele>228.4</ele>
        <time>2021-11-11T14:16:57Z</time>
      </trkpt>
      <trkpt lat="46.4969" lon="5.34377">
        <ele>228.2</ele>
        <time>2021-11-11T14:17:01Z</time>
      </trkpt>
      <trkpt lat="46.49685" lon="5.34398">
        <ele>228.2</ele>
        <time>2021-11-11T14:17:03Z</time>
      </trkpt>
      <trkpt lat="46.49669" lon="5.34457">
        <ele>227.2</ele>
        <time>2021-11-11T14:17:08Z</time>
      </trkpt>
      <trkpt lat="46.49662" lon="5.34479">
        <ele>226.4</ele>
        <time>2021-11-11T14:17:10Z</time>
      </trkpt>
      <trkpt lat="46.49659" lon="5.34491">
        <ele>226.2</ele>
        <time>2021-11-11T14:17:11Z</time>
      </trkpt>
      <trkpt lat="46.49649" lon="5.34523">
        <ele>225.6</ele>
        <time>2021-11-11T14:17:14Z</time>
      </trkpt>
      <trkpt lat="46.49639" lon="5.34541">
        <ele>225</ele>
        <time>2021-11-11T14:17:16Z</time>
      </trkpt>
      <trkpt lat="46.49607" lon="5.34577">
        <ele>224.2</ele>
        <time>2021-11-11T14:17:21Z</time>
      </trkpt>
      <trkpt lat="46.49601" lon="5.34585">
        <ele>224</ele>
        <time>2021-11-11T14:17:22Z</time>
      </trkpt>
      <trkpt lat="46.49576" lon="5.34622">
        <ele>223.8</ele>
        <time>2021-11-11T14:17:27Z</time>
      </trkpt>
      <trkpt lat="46.49561" lon="5.34639">
        <ele>223.8</ele>
        <time>2021-11-11T14:17:30Z</time>
      </trkpt>
      <trkpt lat="46.49552" lon="5.34648">
        <ele>224</ele>
        <time>2021-11-11T14:17:32Z</time>
      </trkpt>
      <trkpt lat="46.49532" lon="5.34672">
        <ele>225.2</ele>
        <time>2021-11-11T14:17:37Z</time>
      </trkpt>
      <trkpt lat="46.49528" lon="5.34677">
        <ele>225.6</ele>
        <time>2021-11-11T14:17:38Z</time>
      </trkpt>
      <trkpt lat="46.49513" lon="5.34693">
        <ele>226.2</ele>
        <time>2021-11-11T14:17:42Z</time>
      </trkpt>
      <trkpt lat="46.49509" lon="5.34697">
        <ele>226.4</ele>
        <time>2021-11-11T14:17:43Z</time>
      </trkpt>
      <trkpt lat="46.49506" lon="5.347">
        <ele>226.4</ele>
        <time>2021-11-11T14:17:44Z</time>
      </trkpt>
      <trkpt lat="46.49485" lon="5.34724">
        <ele>227.6</ele>
        <time>2021-11-11T14:17:49Z</time>
      </trkpt>
      <trkpt lat="46.49481" lon="5.34727">
        <ele>228</ele>
        <time>2021-11-11T14:17:50Z</time>
      </trkpt>
      <trkpt lat="46.49478" lon="5.34731">
        <ele>228.6</ele>
        <time>2021-11-11T14:17:51Z</time>
      </trkpt>
      <trkpt lat="46.49469" lon="5.34741">
        <ele>229.6</ele>
        <time>2021-11-11T14:17:54Z</time>
      </trkpt>
      <trkpt lat="46.49466" lon="5.34745">
        <ele>229.6</ele>
        <time>2021-11-11T14:17:55Z</time>
      </trkpt>
      <trkpt lat="46.49454" lon="5.34759">
        <ele>230.8</ele>
        <time>2021-11-11T14:17:59Z</time>
      </trkpt>
      <trkpt lat="46.49451" lon="5.34764">
        <ele>231</ele>
        <time>2021-11-11T14:18:00Z</time>
      </trkpt>
      <trkpt lat="46.4944" lon="5.34776">
        <ele>232</ele>
        <time>2021-11-11T14:18:03Z</time>
      </trkpt>
      <trkpt lat="46.49434" lon="5.3478">
        <ele>232.6</ele>
        <time>2021-11-11T14:18:05Z</time>
      </trkpt>
      <trkpt lat="46.49422" lon="5.34792">
        <ele>233.2</ele>
        <time>2021-11-11T14:18:08Z</time>
      </trkpt>
      <trkpt lat="46.49411" lon="5.34798">
        <ele>233.6</ele>
        <time>2021-11-11T14:18:11Z</time>
      </trkpt>
      <trkpt lat="46.494" lon="5.34805">
        <ele>234.2</ele>
        <time>2021-11-11T14:18:13Z</time>
      </trkpt>
      <trkpt lat="46.49389" lon="5.34813">
        <ele>234.6</ele>
        <time>2021-11-11T14:18:15Z</time>
      </trkpt>
      <trkpt lat="46.49356" lon="5.34822">
        <ele>234.8</ele>
        <time>2021-11-11T14:18:21Z</time>
      </trkpt>
      <trkpt lat="46.4932" lon="5.34829">
        <ele>234.8</ele>
        <time>2021-11-11T14:18:27Z</time>
      </trkpt>
      <trkpt lat="46.49314" lon="5.3483">
        <ele>234.8</ele>
        <time>2021-11-11T14:18:28Z</time>
      </trkpt>
      <trkpt lat="46.49284" lon="5.34844">
        <ele>234.8</ele>
        <time>2021-11-11T14:18:33Z</time>
      </trkpt>
      <trkpt lat="46.49279" lon="5.34849">
        <ele>234.8</ele>
        <time>2021-11-11T14:18:34Z</time>
      </trkpt>
      <trkpt lat="46.4925" lon="5.34886">
        <ele>234.8</ele>
        <time>2021-11-11T14:18:40Z</time>
      </trkpt>
      <trkpt lat="46.49213" lon="5.34941">
        <ele>235.2</ele>
        <time>2021-11-11T14:18:48Z</time>
      </trkpt>
      <trkpt lat="46.49204" lon="5.34954">
        <ele>235.4</ele>
        <time>2021-11-11T14:18:50Z</time>
      </trkpt>
      <trkpt lat="46.49179" lon="5.34987">
        <ele>235.4</ele>
        <time>2021-11-11T14:18:55Z</time>
      </trkpt>
      <trkpt lat="46.49148" lon="5.35015">
        <ele>235.6</ele>
        <time>2021-11-11T14:19:01Z</time>
      </trkpt>
      <trkpt lat="46.49119" lon="5.35041">
        <ele>236</ele>
        <time>2021-11-11T14:19:06Z</time>
      </trkpt>
      <trkpt lat="46.49093" lon="5.35063">
        <ele>236.4</ele>
        <time>2021-11-11T14:19:11Z</time>
      </trkpt>
      <trkpt lat="46.49088" lon="5.35068">
        <ele>236.4</ele>
        <time>2021-11-11T14:19:12Z</time>
      </trkpt>
      <trkpt lat="46.49059" lon="5.35092">
        <ele>237.4</ele>
        <time>2021-11-11T14:19:18Z</time>
      </trkpt>
      <trkpt lat="46.4905" lon="5.35103">
        <ele>237.6</ele>
        <time>2021-11-11T14:19:20Z</time>
      </trkpt>
      <trkpt lat="46.49045" lon="5.35109">
        <ele>237.6</ele>
        <time>2021-11-11T14:19:21Z</time>
      </trkpt>
      <trkpt lat="46.49031" lon="5.35131">
        <ele>238</ele>
        <time>2021-11-11T14:19:24Z</time>
      </trkpt>
      <trkpt lat="46.48999" lon="5.35195">
        <ele>238</ele>
        <time>2021-11-11T14:19:32Z</time>
      </trkpt>
      <trkpt lat="46.48978" lon="5.35242">
        <ele>237.6</ele>
        <time>2021-11-11T14:19:37Z</time>
      </trkpt>
      <trkpt lat="46.48947" lon="5.35312">
        <ele>236.8</ele>
        <time>2021-11-11T14:19:44Z</time>
      </trkpt>
      <trkpt lat="46.48943" lon="5.35319">
        <ele>236.4</ele>
        <time>2021-11-11T14:19:45Z</time>
      </trkpt>
      <trkpt lat="46.48913" lon="5.35386">
        <ele>236</ele>
        <time>2021-11-11T14:19:52Z</time>
      </trkpt>
      <trkpt lat="46.48888" lon="5.35444">
        <ele>236.2</ele>
        <time>2021-11-11T14:19:59Z</time>
      </trkpt>
      <trkpt lat="46.48863" lon="5.35498">
        <ele>236.8</ele>
        <time>2021-11-11T14:20:06Z</time>
      </trkpt>
      <trkpt lat="46.48841" lon="5.35551">
        <ele>237.2</ele>
        <time>2021-11-11T14:20:13Z</time>
      </trkpt>
      <trkpt lat="46.48811" lon="5.35618">
        <ele>237.4</ele>
        <time>2021-11-11T14:20:21Z</time>
      </trkpt>
      <trkpt lat="46.48782" lon="5.35685">
        <ele>237.2</ele>
        <time>2021-11-11T14:20:29Z</time>
      </trkpt>
      <trkpt lat="46.48779" lon="5.35694">
        <ele>237.2</ele>
        <time>2021-11-11T14:20:30Z</time>
      </trkpt>
      <trkpt lat="46.48747" lon="5.35766">
        <ele>237</ele>
        <time>2021-11-11T14:20:39Z</time>
      </trkpt>
      <trkpt lat="46.48737" lon="5.35789">
        <ele>237</ele>
        <time>2021-11-11T14:20:42Z</time>
      </trkpt>
      <trkpt lat="46.48715" lon="5.35841">
        <ele>237.2</ele>
        <time>2021-11-11T14:20:49Z</time>
      </trkpt>
      <trkpt lat="46.48695" lon="5.35885">
        <ele>237.6</ele>
        <time>2021-11-11T14:20:55Z</time>
      </trkpt>
      <trkpt lat="46.48687" lon="5.35906">
        <ele>237.8</ele>
        <time>2021-11-11T14:20:58Z</time>
      </trkpt>
      <trkpt lat="46.48682" lon="5.35929">
        <ele>238.6</ele>
        <time>2021-11-11T14:21:01Z</time>
      </trkpt>
      <trkpt lat="46.48679" lon="5.35954">
        <ele>239.2</ele>
        <time>2021-11-11T14:21:04Z</time>
      </trkpt>
      <trkpt lat="46.48676" lon="5.35978">
        <ele>239.8</ele>
        <time>2021-11-11T14:21:07Z</time>
      </trkpt>
      <trkpt lat="46.48675" lon="5.35986">
        <ele>239.8</ele>
        <time>2021-11-11T14:21:08Z</time>
      </trkpt>
      <trkpt lat="46.48672" lon="5.36005">
        <ele>240</ele>
        <time>2021-11-11T14:21:10Z</time>
      </trkpt>
      <trkpt lat="46.48661" lon="5.3606">
        <ele>240.2</ele>
        <time>2021-11-11T14:21:16Z</time>
      </trkpt>
      <trkpt lat="46.48645" lon="5.36136">
        <ele>238.6</ele>
        <time>2021-11-11T14:21:23Z</time>
      </trkpt>
      <trkpt lat="46.48643" lon="5.36146">
        <ele>238.6</ele>
        <time>2021-11-11T14:21:24Z</time>
      </trkpt>
      <trkpt lat="46.48638" lon="5.36208">
        <ele>238.4</ele>
        <time>2021-11-11T14:21:30Z</time>
      </trkpt>
      <trkpt lat="46.48631" lon="5.36274">
        <ele>238.8</ele>
        <time>2021-11-11T14:21:37Z</time>
      </trkpt>
      <trkpt lat="46.48626" lon="5.36298">
        <ele>239.2</ele>
        <time>2021-11-11T14:21:40Z</time>
      </trkpt>
      <trkpt lat="46.48623" lon="5.36305">
        <ele>239.2</ele>
        <time>2021-11-11T14:21:41Z</time>
      </trkpt>
      <trkpt lat="46.48619" lon="5.3631">
        <ele>239.4</ele>
        <time>2021-11-11T14:21:42Z</time>
      </trkpt>
      <trkpt lat="46.4861" lon="5.36316">
        <ele>239.8</ele>
        <time>2021-11-11T14:21:44Z</time>
      </trkpt>
      <trkpt lat="46.48583" lon="5.36321">
        <ele>241</ele>
        <time>2021-11-11T14:21:49Z</time>
      </trkpt>
      <trkpt lat="46.48566" lon="5.36323">
        <ele>242.2</ele>
        <time>2021-11-11T14:21:52Z</time>
      </trkpt>
      <trkpt lat="46.48543" lon="5.36327">
        <ele>243.2</ele>
        <time>2021-11-11T14:21:56Z</time>
      </trkpt>
      <trkpt lat="46.48538" lon="5.36328">
        <ele>243.4</ele>
        <time>2021-11-11T14:21:57Z</time>
      </trkpt>
      <trkpt lat="46.48517" lon="5.36332">
        <ele>244.6</ele>
        <time>2021-11-11T14:22:01Z</time>
      </trkpt>
      <trkpt lat="46.48495" lon="5.36335">
        <ele>245</ele>
        <time>2021-11-11T14:22:05Z</time>
      </trkpt>
      <trkpt lat="46.4845" lon="5.36343">
        <ele>245.6</ele>
        <time>2021-11-11T14:22:13Z</time>
      </trkpt>
      <trkpt lat="46.48422" lon="5.36351">
        <ele>245.8</ele>
        <time>2021-11-11T14:22:18Z</time>
      </trkpt>
      <trkpt lat="46.48405" lon="5.3636">
        <ele>245.8</ele>
        <time>2021-11-11T14:22:21Z</time>
      </trkpt>
      <trkpt lat="46.4839" lon="5.36373">
        <ele>246</ele>
        <time>2021-11-11T14:22:24Z</time>
      </trkpt>
      <trkpt lat="46.48372" lon="5.36393">
        <ele>246.2</ele>
        <time>2021-11-11T14:22:28Z</time>
      </trkpt>
      <trkpt lat="46.48349" lon="5.36418">
        <ele>246.6</ele>
        <time>2021-11-11T14:22:33Z</time>
      </trkpt>
      <trkpt lat="46.48336" lon="5.36432">
        <ele>246.8</ele>
        <time>2021-11-11T14:22:36Z</time>
      </trkpt>
      <trkpt lat="46.48312" lon="5.3646">
        <ele>247.6</ele>
        <time>2021-11-11T14:22:42Z</time>
      </trkpt>
      <trkpt lat="46.483" lon="5.36473">
        <ele>248.4</ele>
        <time>2021-11-11T14:22:45Z</time>
      </trkpt>
      <trkpt lat="46.4829" lon="5.36484">
        <ele>248.8</ele>
        <time>2021-11-11T14:22:48Z</time>
      </trkpt>
      <trkpt lat="46.48274" lon="5.36501">
        <ele>249.2</ele>
        <time>2021-11-11T14:22:52Z</time>
      </trkpt>
      <trkpt lat="46.48257" lon="5.3652">
        <ele>249.8</ele>
        <time>2021-11-11T14:22:57Z</time>
      </trkpt>
      <trkpt lat="46.48233" lon="5.36546">
        <ele>250.8</ele>
        <time>2021-11-11T14:23:03Z</time>
      </trkpt>
      <trkpt lat="46.4823" lon="5.3655">
        <ele>251</ele>
        <time>2021-11-11T14:23:04Z</time>
      </trkpt>
      <trkpt lat="46.48226" lon="5.36554">
        <ele>251</ele>
        <time>2021-11-11T14:23:05Z</time>
      </trkpt>
      <trkpt lat="46.48217" lon="5.36558">
        <ele>251.6</ele>
        <time>2021-11-11T14:23:07Z</time>
      </trkpt>
      <trkpt lat="46.48212" lon="5.36558">
        <ele>251.6</ele>
        <time>2021-11-11T14:23:08Z</time>
      </trkpt>
      <trkpt lat="46.48207" lon="5.36558">
        <ele>251.8</ele>
        <time>2021-11-11T14:23:09Z</time>
      </trkpt>
      <trkpt lat="46.48198" lon="5.36561">
        <ele>252</ele>
        <time>2021-11-11T14:23:11Z</time>
      </trkpt>
      <trkpt lat="46.48194" lon="5.36565">
        <ele>252.2</ele>
        <time>2021-11-11T14:23:12Z</time>
      </trkpt>
      <trkpt lat="46.48191" lon="5.3657">
        <ele>252.2</ele>
        <time>2021-11-11T14:23:13Z</time>
      </trkpt>
      <trkpt lat="46.48185" lon="5.3659">
        <ele>252.6</ele>
        <time>2021-11-11T14:23:16Z</time>
      </trkpt>
      <trkpt lat="46.48182" lon="5.36597">
        <ele>252.8</ele>
        <time>2021-11-11T14:23:17Z</time>
      </trkpt>
      <trkpt lat="46.48175" lon="5.36608">
        <ele>253</ele>
        <time>2021-11-11T14:23:19Z</time>
      </trkpt>
      <trkpt lat="46.48171" lon="5.36613">
        <ele>253</ele>
        <time>2021-11-11T14:23:20Z</time>
      </trkpt>
      <trkpt lat="46.48162" lon="5.36622">
        <ele>253.2</ele>
        <time>2021-11-11T14:23:22Z</time>
      </trkpt>
      <trkpt lat="46.48158" lon="5.36627">
        <ele>253.2</ele>
        <time>2021-11-11T14:23:23Z</time>
      </trkpt>
      <trkpt lat="46.48152" lon="5.36638">
        <ele>253.4</ele>
        <time>2021-11-11T14:23:25Z</time>
      </trkpt>
      <trkpt lat="46.48139" lon="5.36653">
        <ele>253.6</ele>
        <time>2021-11-11T14:23:29Z</time>
      </trkpt>
      <trkpt lat="46.48134" lon="5.36658">
        <ele>253.6</ele>
        <time>2021-11-11T14:23:30Z</time>
      </trkpt>
      <trkpt lat="46.48124" lon="5.36668">
        <ele>253.8</ele>
        <time>2021-11-11T14:23:32Z</time>
      </trkpt>
      <trkpt lat="46.48117" lon="5.36674">
        <ele>254</ele>
        <time>2021-11-11T14:23:34Z</time>
      </trkpt>
      <trkpt lat="46.48109" lon="5.36683">
        <ele>254.2</ele>
        <time>2021-11-11T14:23:36Z</time>
      </trkpt>
      <trkpt lat="46.48106" lon="5.36687">
        <ele>254.2</ele>
        <time>2021-11-11T14:23:37Z</time>
      </trkpt>
      <trkpt lat="46.48104" lon="5.36692">
        <ele>254.4</ele>
        <time>2021-11-11T14:23:38Z</time>
      </trkpt>
      <trkpt lat="46.48107" lon="5.36703">
        <ele>254.6</ele>
        <time>2021-11-11T14:23:40Z</time>
      </trkpt>
      <trkpt lat="46.4811" lon="5.36707">
        <ele>254.8</ele>
        <time>2021-11-11T14:23:41Z</time>
      </trkpt>
      <trkpt lat="46.48117" lon="5.36713">
        <ele>255.4</ele>
        <time>2021-11-11T14:23:43Z</time>
      </trkpt>
      <trkpt lat="46.48133" lon="5.36725">
        <ele>256</ele>
        <time>2021-11-11T14:23:47Z</time>
      </trkpt>
      <trkpt lat="46.48144" lon="5.36734">
        <ele>256.6</ele>
        <time>2021-11-11T14:23:50Z</time>
      </trkpt>
      <trkpt lat="46.4816" lon="5.36747">
        <ele>257.6</ele>
        <time>2021-11-11T14:23:55Z</time>
      </trkpt>
      <trkpt lat="46.48171" lon="5.36755">
        <ele>258</ele>
        <time>2021-11-11T14:23:58Z</time>
      </trkpt>
      <trkpt lat="46.48182" lon="5.36764">
        <ele>258.8</ele>
        <time>2021-11-11T14:24:01Z</time>
      </trkpt>
      <trkpt lat="46.48201" lon="5.36781">
        <ele>259.8</ele>
        <time>2021-11-11T14:24:07Z</time>
      </trkpt>
      <trkpt lat="46.48205" lon="5.36783">
        <ele>260.2</ele>
        <time>2021-11-11T14:24:08Z</time>
      </trkpt>
      <trkpt lat="46.48223" lon="5.36798">
        <ele>261.2</ele>
        <time>2021-11-11T14:24:13Z</time>
      </trkpt>
      <trkpt lat="46.48232" lon="5.36807">
        <ele>261.8</ele>
        <time>2021-11-11T14:24:16Z</time>
      </trkpt>
      <trkpt lat="46.48238" lon="5.36813">
        <ele>262.4</ele>
        <time>2021-11-11T14:24:18Z</time>
      </trkpt>
      <trkpt lat="46.48255" lon="5.36829">
        <ele>263.4</ele>
        <time>2021-11-11T14:24:23Z</time>
      </trkpt>
      <trkpt lat="46.48258" lon="5.36832">
        <ele>263.8</ele>
        <time>2021-11-11T14:24:24Z</time>
      </trkpt>
    </trkseg>
  </trk>
</gpx>